<?xml version='1.0' encoding='UTF-8'?><gpx version="1.1" creator="JPX - https://github.com/jenetics/jpx" xmlns="http://www.topografix.com/GPX/1/1"><trk><trkseg><trkpt lat="38.1739946" lon="15.670707"><ele>100.99999999999999</ele><time>2026-04-06T10:08:50.171Z</time></trkpt><trkpt lat="38.1739395" lon="15.670649"><ele>101.0</ele><time>2026-04-06T10:08:54.17Z</time></trkpt><trkpt lat="38.1739583" lon="15.6705467"><ele>101.0</ele><time>2026-04-06T10:08:56.171Z</time></trkpt><trkpt lat="38.173995" lon="15.6704367"><ele>101.0</ele><time>2026-04-06T10:08:58.17Z</time></trkpt><trkpt lat="38.17405" lon="15.6703683"><ele>100.99999999999999</ele><time>2026-04-06T10:09:00.171Z</time></trkpt><trkpt lat="38.174135" lon="15.6703517"><ele>101.0</ele><time>2026-04-06T10:09:02.171Z</time></trkpt><trkpt lat="38.1742467" lon="15.670375"><ele>101.4</ele><time>2026-04-06T10:09:04.171Z</time></trkpt><trkpt lat="38.1743567" lon="15.6703817"><ele>101.8</ele><time>2026-04-06T10:09:06.17Z</time></trkpt><trkpt lat="38.1744517" lon="15.67035"><ele>102.2</ele><time>2026-04-06T10:09:08.171Z</time></trkpt><trkpt lat="38.1745017" lon="15.6702367"><ele>102.60000000000001</ele><time>2026-04-06T10:09:10.171Z</time></trkpt><trkpt lat="38.1745117" lon="15.67014"><ele>103.0</ele><time>2026-04-06T10:09:11.171Z</time></trkpt><trkpt lat="38.1745167" lon="15.6700233"><ele>102.0</ele><time>2026-04-06T10:09:12.17Z</time></trkpt><trkpt lat="38.174525" lon="15.6699017"><ele>101.0</ele><time>2026-04-06T10:09:13.17Z</time></trkpt><trkpt lat="38.1745333" lon="15.66977"><ele>100.0</ele><time>2026-04-06T10:09:14.171Z</time></trkpt><trkpt lat="38.1745533" lon="15.6696417"><ele>99.0</ele><time>2026-04-06T10:09:15.171Z</time></trkpt><trkpt lat="38.1745683" lon="15.6695133"><ele>98.0</ele><time>2026-04-06T10:09:16.171Z</time></trkpt><trkpt lat="38.17459" lon="15.6693983"><ele>97.33333333333333</ele><time>2026-04-06T10:09:17.171Z</time></trkpt><trkpt lat="38.1746233" lon="15.6692883"><ele>96.66666666666666</ele><time>2026-04-06T10:09:18.17Z</time></trkpt><trkpt lat="38.1746433" lon="15.66918"><ele>96.0</ele><time>2026-04-06T10:09:19.171Z</time></trkpt><trkpt lat="38.1746683" lon="15.6690783"><ele>95.33333333333333</ele><time>2026-04-06T10:09:20.171Z</time></trkpt><trkpt lat="38.174685" lon="15.6689583"><ele>94.66666666666666</ele><time>2026-04-06T10:09:21.17Z</time></trkpt><trkpt lat="38.17471" lon="15.66885"><ele>94.0</ele><time>2026-04-06T10:09:22.171Z</time></trkpt><trkpt lat="38.174725" lon="15.6687433"><ele>94.0</ele><time>2026-04-06T10:09:23.171Z</time></trkpt><trkpt lat="38.1747383" lon="15.6686367"><ele>94.0</ele><time>2026-04-06T10:09:24.171Z</time></trkpt><trkpt lat="38.1747467" lon="15.6685183"><ele>94.0</ele><time>2026-04-06T10:09:25.171Z</time></trkpt><trkpt lat="38.1747483" lon="15.6684033"><ele>94.0</ele><time>2026-04-06T10:09:26.171Z</time></trkpt><trkpt lat="38.174745" lon="15.6682833"><ele>94.0</ele><time>2026-04-06T10:09:27.171Z</time></trkpt><trkpt lat="38.1747467" lon="15.66816"><ele>93.16666666666666</ele><time>2026-04-06T10:09:28.171Z</time></trkpt><trkpt lat="38.174735" lon="15.6680283"><ele>92.33333333333333</ele><time>2026-04-06T10:09:29.17Z</time></trkpt><trkpt lat="38.1747167" lon="15.66791"><ele>91.5</ele><time>2026-04-06T10:09:30.17Z</time></trkpt><trkpt lat="38.1747133" lon="15.6677933"><ele>90.66666666666667</ele><time>2026-04-06T10:09:31.17Z</time></trkpt><trkpt lat="38.17471" lon="15.6677"><ele>89.83333333333334</ele><time>2026-04-06T10:09:32.171Z</time></trkpt><trkpt lat="38.17472" lon="15.6676067"><ele>89.0</ele><time>2026-04-06T10:09:33.17Z</time></trkpt><trkpt lat="38.174755" lon="15.667525"><ele>87.83333333333334</ele><time>2026-04-06T10:09:34.17Z</time></trkpt><trkpt lat="38.174805" lon="15.6674517"><ele>86.66666666666667</ele><time>2026-04-06T10:09:35.17Z</time></trkpt><trkpt lat="38.17485" lon="15.6673767"><ele>85.5</ele><time>2026-04-06T10:09:36.171Z</time></trkpt><trkpt lat="38.174905" lon="15.6672933"><ele>84.33333333333333</ele><time>2026-04-06T10:09:37.17Z</time></trkpt><trkpt lat="38.174955" lon="15.6672067"><ele>83.16666666666666</ele><time>2026-04-06T10:09:38.171Z</time></trkpt><trkpt lat="38.175" lon="15.6671133"><ele>82.0</ele><time>2026-04-06T10:09:39.171Z</time></trkpt><trkpt lat="38.1750467" lon="15.6669967"><ele>81.66666666666666</ele><time>2026-04-06T10:09:40.171Z</time></trkpt><trkpt lat="38.1750967" lon="15.6669067"><ele>81.33333333333333</ele><time>2026-04-06T10:09:41.171Z</time></trkpt><trkpt lat="38.1751367" lon="15.6668317"><ele>81.0</ele><time>2026-04-06T10:09:42.171Z</time></trkpt><trkpt lat="38.1751983" lon="15.666765"><ele>80.66666666666667</ele><time>2026-04-06T10:09:44.171Z</time></trkpt><trkpt lat="38.1752717" lon="15.6667633"><ele>80.33333333333334</ele><time>2026-04-06T10:09:46.171Z</time></trkpt><trkpt lat="38.17533" lon="15.6668017"><ele>80.0</ele><time>2026-04-06T10:09:47.17Z</time></trkpt><trkpt lat="38.1753983" lon="15.66687"><ele>80.0</ele><time>2026-04-06T10:09:48.171Z</time></trkpt><trkpt lat="38.1754717" lon="15.6669283"><ele>80.0</ele><time>2026-04-06T10:09:49.171Z</time></trkpt><trkpt lat="38.17556" lon="15.6670033"><ele>80.0</ele><time>2026-04-06T10:09:50.17Z</time></trkpt><trkpt lat="38.1756533" lon="15.6670717"><ele>80.0</ele><time>2026-04-06T10:09:51.17Z</time></trkpt><trkpt lat="38.1757617" lon="15.6671517"><ele>80.0</ele><time>2026-04-06T10:09:52.171Z</time></trkpt><trkpt lat="38.1758667" lon="15.6672133"><ele>80.6</ele><time>2026-04-06T10:09:53.171Z</time></trkpt><trkpt lat="38.1759683" lon="15.6672817"><ele>81.2</ele><time>2026-04-06T10:09:54.171Z</time></trkpt><trkpt lat="38.1760667" lon="15.6673383"><ele>81.80000000000001</ele><time>2026-04-06T10:09:55.17Z</time></trkpt><trkpt lat="38.1761517" lon="15.6674033"><ele>82.4</ele><time>2026-04-06T10:09:56.17Z</time></trkpt><trkpt lat="38.176215" lon="15.6674467"><ele>83.0</ele><time>2026-04-06T10:09:57.17Z</time></trkpt><trkpt lat="38.176345" lon="15.6674667"><ele>83.0</ele><time>2026-04-06T10:09:59.17Z</time></trkpt><trkpt lat="38.1764083" lon="15.6674117"><ele>83.0</ele><time>2026-04-06T10:10:00.171Z</time></trkpt><trkpt lat="38.17646" lon="15.6673417"><ele>83.0</ele><time>2026-04-06T10:10:01.171Z</time></trkpt><trkpt lat="38.1764917" lon="15.6672367"><ele>83.0</ele><time>2026-04-06T10:10:02.171Z</time></trkpt><trkpt lat="38.1765233" lon="15.6670967"><ele>83.0</ele><time>2026-04-06T10:10:03.17Z</time></trkpt><trkpt lat="38.1765533" lon="15.6669483"><ele>83.0</ele><time>2026-04-06T10:10:04.171Z</time></trkpt><trkpt lat="38.1766017" lon="15.666795"><ele>83.0</ele><time>2026-04-06T10:10:05.17Z</time></trkpt><trkpt lat="38.1766233" lon="15.6666483"><ele>83.0</ele><time>2026-04-06T10:10:06.17Z</time></trkpt><trkpt lat="38.1766583" lon="15.66654"><ele>83.0</ele><time>2026-04-06T10:10:07.17Z</time></trkpt><trkpt lat="38.176695" lon="15.6664267"><ele>83.0</ele><time>2026-04-06T10:10:08.171Z</time></trkpt><trkpt lat="38.176735" lon="15.6663317"><ele>83.0</ele><time>2026-04-06T10:10:09.171Z</time></trkpt><trkpt lat="38.176785" lon="15.6662767"><ele>83.0</ele><time>2026-04-06T10:10:10.171Z</time></trkpt><trkpt lat="38.1769" lon="15.666355"><ele>83.0</ele><time>2026-04-06T10:10:12.171Z</time></trkpt><trkpt lat="38.1769467" lon="15.66643"><ele>83.0</ele><time>2026-04-06T10:10:13.171Z</time></trkpt><trkpt lat="38.17699" lon="15.6665017"><ele>83.0</ele><time>2026-04-06T10:10:14.171Z</time></trkpt><trkpt lat="38.17703" lon="15.6665667"><ele>83.0</ele><time>2026-04-06T10:10:15.171Z</time></trkpt><trkpt lat="38.1770817" lon="15.6666317"><ele>83.0</ele><time>2026-04-06T10:10:16.171Z</time></trkpt><trkpt lat="38.177135" lon="15.6667067"><ele>83.0</ele><time>2026-04-06T10:10:17.171Z</time></trkpt><trkpt lat="38.1771883" lon="15.666795"><ele>83.0</ele><time>2026-04-06T10:10:18.17Z</time></trkpt><trkpt lat="38.177255" lon="15.66688"><ele>83.0</ele><time>2026-04-06T10:10:19.17Z</time></trkpt><trkpt lat="38.17732" lon="15.6669433"><ele>83.0</ele><time>2026-04-06T10:10:20.171Z</time></trkpt><trkpt lat="38.177385" lon="15.667005"><ele>83.0</ele><time>2026-04-06T10:10:21.17Z</time></trkpt><trkpt lat="38.1774483" lon="15.667065"><ele>83.4</ele><time>2026-04-06T10:10:22.171Z</time></trkpt><trkpt lat="38.177505" lon="15.6671067"><ele>83.80000000000001</ele><time>2026-04-06T10:10:23.171Z</time></trkpt><trkpt lat="38.1776" lon="15.6671733"><ele>84.2</ele><time>2026-04-06T10:10:25.171Z</time></trkpt><trkpt lat="38.1776883" lon="15.6672333"><ele>84.6</ele><time>2026-04-06T10:10:27.171Z</time></trkpt><trkpt lat="38.1777483" lon="15.6673517"><ele>85.0</ele><time>2026-04-06T10:10:29.171Z</time></trkpt><trkpt lat="38.1777483" lon="15.66749"><ele>85.0</ele><time>2026-04-06T10:10:31.17Z</time></trkpt><trkpt lat="38.1776917" lon="15.6676017"><ele>85.0</ele><time>2026-04-06T10:10:33.171Z</time></trkpt><trkpt lat="38.177645" lon="15.6676817"><ele>85.0</ele><time>2026-04-06T10:10:35.171Z</time></trkpt><trkpt lat="38.177615" lon="15.6677917"><ele>85.0</ele><time>2026-04-06T10:10:37.17Z</time></trkpt><trkpt lat="38.1776567" lon="15.6679317"><ele>85.0</ele><time>2026-04-06T10:10:39.171Z</time></trkpt><trkpt lat="38.1776983" lon="15.6680083"><ele>85.33333333333333</ele><time>2026-04-06T10:10:40.171Z</time></trkpt><trkpt lat="38.177745" lon="15.6680733"><ele>85.66666666666666</ele><time>2026-04-06T10:10:41.171Z</time></trkpt><trkpt lat="38.1778017" lon="15.6681583"><ele>86.0</ele><time>2026-04-06T10:10:43.171Z</time></trkpt><trkpt lat="38.177855" lon="15.6682283"><ele>86.33333333333333</ele><time>2026-04-06T10:10:45.171Z</time></trkpt><trkpt lat="38.1778983" lon="15.6683167"><ele>86.66666666666667</ele><time>2026-04-06T10:10:47.171Z</time></trkpt><trkpt lat="38.1779783" lon="15.6684383"><ele>87.0</ele><time>2026-04-06T10:10:49.171Z</time></trkpt><trkpt lat="38.1780383" lon="15.6685167"><ele>87.0</ele><time>2026-04-06T10:10:50.17Z</time></trkpt><trkpt lat="38.1781083" lon="15.6685967"><ele>87.0</ele><time>2026-04-06T10:10:51.171Z</time></trkpt><trkpt lat="38.1781867" lon="15.66868"><ele>87.0</ele><time>2026-04-06T10:10:52.171Z</time></trkpt><trkpt lat="38.1782833" lon="15.6687567"><ele>87.0</ele><time>2026-04-06T10:10:53.17Z</time></trkpt><trkpt lat="38.17838" lon="15.6688233"><ele>87.0</ele><time>2026-04-06T10:10:54.171Z</time></trkpt><trkpt lat="38.178465" lon="15.6688917"><ele>86.39999999999999</ele><time>2026-04-06T10:10:55.171Z</time></trkpt><trkpt lat="38.1785417" lon="15.6689533"><ele>85.8</ele><time>2026-04-06T10:10:56.17Z</time></trkpt><trkpt lat="38.1786217" lon="15.6689933"><ele>85.2</ele><time>2026-04-06T10:10:57.17Z</time></trkpt><trkpt lat="38.1787167" lon="15.669015"><ele>84.6</ele><time>2026-04-06T10:10:58.171Z</time></trkpt><trkpt lat="38.1788017" lon="15.6690433"><ele>84.0</ele><time>2026-04-06T10:10:59.171Z</time></trkpt><trkpt lat="38.178895" lon="15.6690733"><ele>84.0</ele><time>2026-04-06T10:11:00.171Z</time></trkpt><trkpt lat="38.1789733" lon="15.6691133"><ele>84.0</ele><time>2026-04-06T10:11:01.17Z</time></trkpt><trkpt lat="38.1790417" lon="15.6691517"><ele>84.0</ele><time>2026-04-06T10:11:02.171Z</time></trkpt><trkpt lat="38.1791233" lon="15.6691817"><ele>84.0</ele><time>2026-04-06T10:11:03.171Z</time></trkpt><trkpt lat="38.1792033" lon="15.6691883"><ele>84.0</ele><time>2026-04-06T10:11:04.171Z</time></trkpt><trkpt lat="38.1792933" lon="15.6691817"><ele>84.0</ele><time>2026-04-06T10:11:05.171Z</time></trkpt><trkpt lat="38.1793917" lon="15.66917"><ele>83.6</ele><time>2026-04-06T10:11:06.171Z</time></trkpt><trkpt lat="38.1795033" lon="15.6691667"><ele>83.2</ele><time>2026-04-06T10:11:07.17Z</time></trkpt><trkpt lat="38.17961" lon="15.6691667"><ele>82.8</ele><time>2026-04-06T10:11:08.17Z</time></trkpt><trkpt lat="38.1797117" lon="15.66919"><ele>82.39999999999999</ele><time>2026-04-06T10:11:09.171Z</time></trkpt><trkpt lat="38.1798083" lon="15.6692183"><ele>82.0</ele><time>2026-04-06T10:11:10.171Z</time></trkpt><trkpt lat="38.1799" lon="15.6692367"><ele>81.25</ele><time>2026-04-06T10:11:11.171Z</time></trkpt><trkpt lat="38.1800067" lon="15.6692533"><ele>80.5</ele><time>2026-04-06T10:11:12.17Z</time></trkpt><trkpt lat="38.1801167" lon="15.6692683"><ele>79.75</ele><time>2026-04-06T10:11:13.171Z</time></trkpt><trkpt lat="38.1802283" lon="15.6692767"><ele>79.0</ele><time>2026-04-06T10:11:14.17Z</time></trkpt><trkpt lat="38.1803517" lon="15.66928"><ele>79.0</ele><time>2026-04-06T10:11:15.17Z</time></trkpt><trkpt lat="38.1804833" lon="15.66929"><ele>79.0</ele><time>2026-04-06T10:11:16.171Z</time></trkpt><trkpt lat="38.18061" lon="15.6693133"><ele>79.0</ele><time>2026-04-06T10:11:17.17Z</time></trkpt><trkpt lat="38.1807333" lon="15.6693533"><ele>79.0</ele><time>2026-04-06T10:11:18.17Z</time></trkpt><trkpt lat="38.18086" lon="15.66939"><ele>79.0</ele><time>2026-04-06T10:11:19.17Z</time></trkpt><trkpt lat="38.180995" lon="15.6694283"><ele>79.0</ele><time>2026-04-06T10:11:20.171Z</time></trkpt><trkpt lat="38.1811217" lon="15.6694683"><ele>79.0</ele><time>2026-04-06T10:11:21.171Z</time></trkpt><trkpt lat="38.1812483" lon="15.669495"><ele>79.0</ele><time>2026-04-06T10:11:22.171Z</time></trkpt><trkpt lat="38.1813783" lon="15.6695217"><ele>79.5</ele><time>2026-04-06T10:11:23.171Z</time></trkpt><trkpt lat="38.1815067" lon="15.66954"><ele>80.0</ele><time>2026-04-06T10:11:24.171Z</time></trkpt><trkpt lat="38.1816317" lon="15.6695417"><ele>80.5</ele><time>2026-04-06T10:11:25.171Z</time></trkpt><trkpt lat="38.1817417" lon="15.6695267"><ele>81.0</ele><time>2026-04-06T10:11:26.171Z</time></trkpt><trkpt lat="38.18183" lon="15.6695067"><ele>81.33333333333333</ele><time>2026-04-06T10:11:27.17Z</time></trkpt><trkpt lat="38.1819033" lon="15.6694967"><ele>81.66666666666667</ele><time>2026-04-06T10:11:28.171Z</time></trkpt><trkpt lat="38.1819733" lon="15.6695083"><ele>82.0</ele><time>2026-04-06T10:11:29.171Z</time></trkpt><trkpt lat="38.1820283" lon="15.669555"><ele>82.33333333333334</ele><time>2026-04-06T10:11:30.171Z</time></trkpt><trkpt lat="38.1820767" lon="15.6696283"><ele>82.66666666666667</ele><time>2026-04-06T10:11:31.171Z</time></trkpt><trkpt lat="38.1821267" lon="15.6697217"><ele>83.0</ele><time>2026-04-06T10:11:32.171Z</time></trkpt><trkpt lat="38.1821833" lon="15.6698267"><ele>83.0</ele><time>2026-04-06T10:11:33.17Z</time></trkpt><trkpt lat="38.182245" lon="15.6699567"><ele>83.0</ele><time>2026-04-06T10:11:34.171Z</time></trkpt><trkpt lat="38.1823117" lon="15.67009"><ele>83.0</ele><time>2026-04-06T10:11:35.17Z</time></trkpt><trkpt lat="38.1823833" lon="15.6702367"><ele>83.0</ele><time>2026-04-06T10:11:36.171Z</time></trkpt><trkpt lat="38.1824617" lon="15.6703783"><ele>84.33333333333334</ele><time>2026-04-06T10:11:37.17Z</time></trkpt><trkpt lat="38.1825433" lon="15.6705283"><ele>85.66666666666667</ele><time>2026-04-06T10:11:38.171Z</time></trkpt><trkpt lat="38.1826317" lon="15.670685"><ele>87.0</ele><time>2026-04-06T10:11:39.17Z</time></trkpt><trkpt lat="38.1827217" lon="15.6708517"><ele>87.0</ele><time>2026-04-06T10:11:40.171Z</time></trkpt><trkpt lat="38.1828117" lon="15.6710233"><ele>87.0</ele><time>2026-04-06T10:11:41.171Z</time></trkpt><trkpt lat="38.1828983" lon="15.6712033"><ele>87.0</ele><time>2026-04-06T10:11:42.17Z</time></trkpt><trkpt lat="38.1829883" lon="15.6713783"><ele>87.0</ele><time>2026-04-06T10:11:43.171Z</time></trkpt><trkpt lat="38.1830867" lon="15.6715617"><ele>87.0</ele><time>2026-04-06T10:11:44.17Z</time></trkpt><trkpt lat="38.1831867" lon="15.671745"><ele>87.0</ele><time>2026-04-06T10:11:45.17Z</time></trkpt><trkpt lat="38.183285" lon="15.6719317"><ele>88.33333333333333</ele><time>2026-04-06T10:11:46.17Z</time></trkpt><trkpt lat="38.1833883" lon="15.6721283"><ele>89.66666666666666</ele><time>2026-04-06T10:11:47.17Z</time></trkpt><trkpt lat="38.18349" lon="15.6723217"><ele>91.0</ele><time>2026-04-06T10:11:48.171Z</time></trkpt><trkpt lat="38.18359" lon="15.67251"><ele>91.0</ele><time>2026-04-06T10:11:49.171Z</time></trkpt><trkpt lat="38.18369" lon="15.6727083"><ele>91.0</ele><time>2026-04-06T10:11:50.171Z</time></trkpt><trkpt lat="38.1837883" lon="15.6729183"><ele>91.0</ele><time>2026-04-06T10:11:51.17Z</time></trkpt><trkpt lat="38.1839017" lon="15.673115"><ele>91.66666666666666</ele><time>2026-04-06T10:11:52.171Z</time></trkpt><trkpt lat="38.1840167" lon="15.6733183"><ele>92.33333333333333</ele><time>2026-04-06T10:11:53.171Z</time></trkpt><trkpt lat="38.1841283" lon="15.6735267"><ele>93.0</ele><time>2026-04-06T10:11:54.171Z</time></trkpt><trkpt lat="38.1842433" lon="15.6737383"><ele>93.33333333333333</ele><time>2026-04-06T10:11:55.171Z</time></trkpt><trkpt lat="38.1843483" lon="15.6739417"><ele>93.66666666666666</ele><time>2026-04-06T10:11:56.171Z</time></trkpt><trkpt lat="38.18446" lon="15.6741483"><ele>94.0</ele><time>2026-04-06T10:11:57.17Z</time></trkpt><trkpt lat="38.1845683" lon="15.67435"><ele>94.66666666666666</ele><time>2026-04-06T10:11:58.17Z</time></trkpt><trkpt lat="38.18467" lon="15.6745483"><ele>95.33333333333333</ele><time>2026-04-06T10:11:59.17Z</time></trkpt><trkpt lat="38.1847733" lon="15.674745"><ele>96.0</ele><time>2026-04-06T10:12:00.171Z</time></trkpt><trkpt lat="38.1848683" lon="15.67494"><ele>97.0</ele><time>2026-04-06T10:12:01.171Z</time></trkpt><trkpt lat="38.1849617" lon="15.6751317"><ele>98.0</ele><time>2026-04-06T10:12:02.171Z</time></trkpt><trkpt lat="38.1850533" lon="15.6753367"><ele>99.0</ele><time>2026-04-06T10:12:03.17Z</time></trkpt><trkpt lat="38.1851433" lon="15.67554"><ele>99.66666666666666</ele><time>2026-04-06T10:12:04.171Z</time></trkpt><trkpt lat="38.185235" lon="15.67574"><ele>100.33333333333333</ele><time>2026-04-06T10:12:05.171Z</time></trkpt><trkpt lat="38.18531" lon="15.6759533"><ele>101.0</ele><time>2026-04-06T10:12:06.171Z</time></trkpt><trkpt lat="38.18538" lon="15.6761667"><ele>101.66666666666666</ele><time>2026-04-06T10:12:07.17Z</time></trkpt><trkpt lat="38.1854433" lon="15.676385"><ele>102.33333333333334</ele><time>2026-04-06T10:12:08.171Z</time></trkpt><trkpt lat="38.185505" lon="15.6766117"><ele>103.0</ele><time>2026-04-06T10:12:09.171Z</time></trkpt><trkpt lat="38.1855667" lon="15.67685"><ele>104.0</ele><time>2026-04-06T10:12:10.171Z</time></trkpt><trkpt lat="38.1856133" lon="15.6770917"><ele>105.0</ele><time>2026-04-06T10:12:11.171Z</time></trkpt><trkpt lat="38.1856467" lon="15.67734"><ele>106.0</ele><time>2026-04-06T10:12:12.17Z</time></trkpt><trkpt lat="38.18567" lon="15.67759"><ele>106.33333333333334</ele><time>2026-04-06T10:12:13.171Z</time></trkpt><trkpt lat="38.1856933" lon="15.6778467"><ele>106.66666666666666</ele><time>2026-04-06T10:12:14.171Z</time></trkpt><trkpt lat="38.1857167" lon="15.678095"><ele>107.0</ele><time>2026-04-06T10:12:15.17Z</time></trkpt><trkpt lat="38.1857283" lon="15.6783317"><ele>107.0</ele><time>2026-04-06T10:12:16.171Z</time></trkpt><trkpt lat="38.185745" lon="15.67858"><ele>107.0</ele><time>2026-04-06T10:12:17.171Z</time></trkpt><trkpt lat="38.1857533" lon="15.6788233"><ele>107.0</ele><time>2026-04-06T10:12:18.171Z</time></trkpt><trkpt lat="38.1857567" lon="15.6790667"><ele>108.66666666666666</ele><time>2026-04-06T10:12:19.17Z</time></trkpt><trkpt lat="38.1857633" lon="15.6793167"><ele>110.33333333333334</ele><time>2026-04-06T10:12:20.17Z</time></trkpt><trkpt lat="38.1857733" lon="15.6795617"><ele>112.0</ele><time>2026-04-06T10:12:21.171Z</time></trkpt><trkpt lat="38.1857767" lon="15.6798"><ele>113.0</ele><time>2026-04-06T10:12:22.17Z</time></trkpt><trkpt lat="38.1857783" lon="15.680055"><ele>114.0</ele><time>2026-04-06T10:12:23.17Z</time></trkpt><trkpt lat="38.18578" lon="15.680315"><ele>115.0</ele><time>2026-04-06T10:12:24.171Z</time></trkpt><trkpt lat="38.185775" lon="15.680575"><ele>115.0</ele><time>2026-04-06T10:12:25.171Z</time></trkpt><trkpt lat="38.1857817" lon="15.6808383"><ele>115.0</ele><time>2026-04-06T10:12:26.171Z</time></trkpt><trkpt lat="38.1857817" lon="15.6811167"><ele>115.0</ele><time>2026-04-06T10:12:27.171Z</time></trkpt><trkpt lat="38.185795" lon="15.681395"><ele>115.0</ele><time>2026-04-06T10:12:28.17Z</time></trkpt><trkpt lat="38.185795" lon="15.6816717"><ele>115.0</ele><time>2026-04-06T10:12:29.171Z</time></trkpt><trkpt lat="38.1858033" lon="15.6819483"><ele>115.0</ele><time>2026-04-06T10:12:30.17Z</time></trkpt><trkpt lat="38.1858033" lon="15.6822233"><ele>116.0</ele><time>2026-04-06T10:12:31.17Z</time></trkpt><trkpt lat="38.1858133" lon="15.6825067"><ele>117.0</ele><time>2026-04-06T10:12:32.171Z</time></trkpt><trkpt lat="38.18582" lon="15.682795"><ele>118.5</ele><time>2026-04-06T10:12:33.17Z</time></trkpt><trkpt lat="38.1858267" lon="15.6830817"><ele>120.0</ele><time>2026-04-06T10:12:34.17Z</time></trkpt><trkpt lat="38.18583" lon="15.6833717"><ele>121.0</ele><time>2026-04-06T10:12:35.171Z</time></trkpt><trkpt lat="38.1858383" lon="15.68366"><ele>122.0</ele><time>2026-04-06T10:12:36.17Z</time></trkpt><trkpt lat="38.1858383" lon="15.6839533"><ele>122.0</ele><time>2026-04-06T10:12:37.171Z</time></trkpt><trkpt lat="38.18584" lon="15.684245"><ele>122.0</ele><time>2026-04-06T10:12:38.171Z</time></trkpt><trkpt lat="38.1858467" lon="15.6845383"><ele>122.5</ele><time>2026-04-06T10:12:39.171Z</time></trkpt><trkpt lat="38.185865" lon="15.6848367"><ele>123.0</ele><time>2026-04-06T10:12:40.17Z</time></trkpt><trkpt lat="38.18587" lon="15.6851383"><ele>124.5</ele><time>2026-04-06T10:12:41.171Z</time></trkpt><trkpt lat="38.18588" lon="15.68544"><ele>126.0</ele><time>2026-04-06T10:12:42.171Z</time></trkpt><trkpt lat="38.1858933" lon="15.685745"><ele>126.0</ele><time>2026-04-06T10:12:43.171Z</time></trkpt><trkpt lat="38.1859017" lon="15.6860517"><ele>126.0</ele><time>2026-04-06T10:12:44.171Z</time></trkpt><trkpt lat="38.18591" lon="15.6863567"><ele>127.5</ele><time>2026-04-06T10:12:45.17Z</time></trkpt><trkpt lat="38.1859083" lon="15.68666"><ele>129.0</ele><time>2026-04-06T10:12:46.171Z</time></trkpt><trkpt lat="38.185905" lon="15.68696"><ele>131.0</ele><time>2026-04-06T10:12:47.171Z</time></trkpt><trkpt lat="38.1858917" lon="15.68726"><ele>133.0</ele><time>2026-04-06T10:12:48.171Z</time></trkpt><trkpt lat="38.185875" lon="15.6875633"><ele>133.0</ele><time>2026-04-06T10:12:49.171Z</time></trkpt><trkpt lat="38.1858583" lon="15.687865"><ele>133.0</ele><time>2026-04-06T10:12:50.171Z</time></trkpt><trkpt lat="38.18583" lon="15.6881567"><ele>133.0</ele><time>2026-04-06T10:12:51.17Z</time></trkpt><trkpt lat="38.1858083" lon="15.6884517"><ele>133.0</ele><time>2026-04-06T10:12:52.171Z</time></trkpt><trkpt lat="38.1857867" lon="15.6887533"><ele>134.5</ele><time>2026-04-06T10:12:53.171Z</time></trkpt><trkpt lat="38.18577" lon="15.6890517"><ele>136.0</ele><time>2026-04-06T10:12:54.171Z</time></trkpt><trkpt lat="38.1857667" lon="15.68935"><ele>137.0</ele><time>2026-04-06T10:12:55.171Z</time></trkpt><trkpt lat="38.1857567" lon="15.6896533"><ele>138.0</ele><time>2026-04-06T10:12:56.17Z</time></trkpt><trkpt lat="38.1857567" lon="15.6899617"><ele>138.0</ele><time>2026-04-06T10:12:57.17Z</time></trkpt><trkpt lat="38.1857717" lon="15.69027"><ele>138.0</ele><time>2026-04-06T10:12:58.17Z</time></trkpt><trkpt lat="38.185795" lon="15.6905817"><ele>138.0</ele><time>2026-04-06T10:12:59.17Z</time></trkpt><trkpt lat="38.1858283" lon="15.6908867"><ele>138.0</ele><time>2026-04-06T10:13:00.17Z</time></trkpt><trkpt lat="38.1858567" lon="15.69119"><ele>139.0</ele><time>2026-04-06T10:13:01.171Z</time></trkpt><trkpt lat="38.185885" lon="15.6914867"><ele>140.0</ele><time>2026-04-06T10:13:02.171Z</time></trkpt><trkpt lat="38.1859117" lon="15.6917917"><ele>142.0</ele><time>2026-04-06T10:13:03.171Z</time></trkpt><trkpt lat="38.1859433" lon="15.6921"><ele>144.0</ele><time>2026-04-06T10:13:04.171Z</time></trkpt><trkpt lat="38.1859717" lon="15.6924067"><ele>144.0</ele><time>2026-04-06T10:13:05.171Z</time></trkpt><trkpt lat="38.1859967" lon="15.6927033"><ele>144.0</ele><time>2026-04-06T10:13:06.17Z</time></trkpt><trkpt lat="38.18602" lon="15.6930033"><ele>144.5</ele><time>2026-04-06T10:13:07.171Z</time></trkpt><trkpt lat="38.18603" lon="15.6933017"><ele>145.0</ele><time>2026-04-06T10:13:08.17Z</time></trkpt><trkpt lat="38.186025" lon="15.69361"><ele>145.0</ele><time>2026-04-06T10:13:09.171Z</time></trkpt><trkpt lat="38.1860083" lon="15.69391"><ele>145.0</ele><time>2026-04-06T10:13:10.171Z</time></trkpt><trkpt lat="38.1859783" lon="15.6942"><ele>147.5</ele><time>2026-04-06T10:13:11.171Z</time></trkpt><trkpt lat="38.1859317" lon="15.6944933"><ele>150.0</ele><time>2026-04-06T10:13:12.171Z</time></trkpt><trkpt lat="38.1858717" lon="15.6947867"><ele>150.0</ele><time>2026-04-06T10:13:13.171Z</time></trkpt><trkpt lat="38.1858033" lon="15.6950783"><ele>150.0</ele><time>2026-04-06T10:13:14.17Z</time></trkpt><trkpt lat="38.1857183" lon="15.6953617"><ele>165.5</ele><time>2026-04-06T10:13:15.171Z</time></trkpt><trkpt lat="38.1856267" lon="15.6956417"><ele>181.0</ele><time>2026-04-06T10:13:16.17Z</time></trkpt><trkpt lat="38.185525" lon="15.6959117"><ele>174.0</ele><time>2026-04-06T10:13:17.171Z</time></trkpt><trkpt lat="38.1854233" lon="15.6961717"><ele>167.0</ele><time>2026-04-06T10:13:18.171Z</time></trkpt><trkpt lat="38.1853133" lon="15.6964333"><ele>167.0</ele><time>2026-04-06T10:13:19.171Z</time></trkpt><trkpt lat="38.185205" lon="15.6966967"><ele>167.0</ele><time>2026-04-06T10:13:20.171Z</time></trkpt><trkpt lat="38.1850867" lon="15.6969667"><ele>162.5</ele><time>2026-04-06T10:13:21.17Z</time></trkpt><trkpt lat="38.1849733" lon="15.6972367"><ele>158.0</ele><time>2026-04-06T10:13:22.17Z</time></trkpt><trkpt lat="38.1848617" lon="15.697515"><ele>166.5</ele><time>2026-04-06T10:13:23.171Z</time></trkpt><trkpt lat="38.184755" lon="15.69779"><ele>175.0</ele><time>2026-04-06T10:13:24.171Z</time></trkpt><trkpt lat="38.18464" lon="15.69807"><ele>175.0</ele><time>2026-04-06T10:13:25.171Z</time></trkpt><trkpt lat="38.1845333" lon="15.6983467"><ele>175.0</ele><time>2026-04-06T10:13:26.171Z</time></trkpt><trkpt lat="38.1844283" lon="15.6986183"><ele>171.5</ele><time>2026-04-06T10:13:27.171Z</time></trkpt><trkpt lat="38.1843183" lon="15.6988833"><ele>168.0</ele><time>2026-04-06T10:13:28.171Z</time></trkpt><trkpt lat="38.1842133" lon="15.6991583"><ele>168.5</ele><time>2026-04-06T10:13:29.171Z</time></trkpt><trkpt lat="38.1841067" lon="15.6994283"><ele>169.0</ele><time>2026-04-06T10:13:30.171Z</time></trkpt><trkpt lat="38.1840017" lon="15.6997067"><ele>169.0</ele><time>2026-04-06T10:13:31.171Z</time></trkpt><trkpt lat="38.18389" lon="15.6999733"><ele>169.0</ele><time>2026-04-06T10:13:32.171Z</time></trkpt><trkpt lat="38.1837833" lon="15.700235"><ele>169.0</ele><time>2026-04-06T10:13:33.17Z</time></trkpt><trkpt lat="38.1836767" lon="15.7004983"><ele>169.0</ele><time>2026-04-06T10:13:34.171Z</time></trkpt><trkpt lat="38.1835667" lon="15.7007667"><ele>169.0</ele><time>2026-04-06T10:13:35.171Z</time></trkpt><trkpt lat="38.1834583" lon="15.7010333"><ele>169.0</ele><time>2026-04-06T10:13:36.171Z</time></trkpt><trkpt lat="38.18335" lon="15.70131"><ele>168.5</ele><time>2026-04-06T10:13:37.171Z</time></trkpt><trkpt lat="38.1832417" lon="15.7015717"><ele>168.0</ele><time>2026-04-06T10:13:38.171Z</time></trkpt><trkpt lat="38.1831283" lon="15.7018333"><ele>174.5</ele><time>2026-04-06T10:13:39.171Z</time></trkpt><trkpt lat="38.1830083" lon="15.7020933"><ele>181.0</ele><time>2026-04-06T10:13:40.171Z</time></trkpt><trkpt lat="38.1828783" lon="15.7023433"><ele>181.0</ele><time>2026-04-06T10:13:41.171Z</time></trkpt><trkpt lat="38.1827383" lon="15.7025833"><ele>181.0</ele><time>2026-04-06T10:13:42.171Z</time></trkpt><trkpt lat="38.1825883" lon="15.7028233"><ele>181.0</ele><time>2026-04-06T10:13:43.171Z</time></trkpt><trkpt lat="38.182435" lon="15.7030567"><ele>181.0</ele><time>2026-04-06T10:13:44.171Z</time></trkpt><trkpt lat="38.182285" lon="15.703295"><ele>187.5</ele><time>2026-04-06T10:13:45.171Z</time></trkpt><trkpt lat="38.1821417" lon="15.7035367"><ele>194.0</ele><time>2026-04-06T10:13:46.171Z</time></trkpt><trkpt lat="38.1820033" lon="15.7037817"><ele>194.0</ele><time>2026-04-06T10:13:47.171Z</time></trkpt><trkpt lat="38.1818667" lon="15.7040283"><ele>194.0</ele><time>2026-04-06T10:13:48.171Z</time></trkpt><trkpt lat="38.1817333" lon="15.70427"><ele>187.5</ele><time>2026-04-06T10:13:49.171Z</time></trkpt><trkpt lat="38.1816167" lon="15.704555"><ele>181.0</ele><time>2026-04-06T10:13:50.171Z</time></trkpt><trkpt lat="38.1815017" lon="15.70483"><ele>187.5</ele><time>2026-04-06T10:13:51.171Z</time></trkpt><trkpt lat="38.1813967" lon="15.7050983"><ele>194.0</ele><time>2026-04-06T10:13:52.171Z</time></trkpt><trkpt lat="38.1812917" lon="15.7053683"><ele>194.0</ele><time>2026-04-06T10:13:53.171Z</time></trkpt><trkpt lat="38.181185" lon="15.705645"><ele>194.0</ele><time>2026-04-06T10:13:54.171Z</time></trkpt><trkpt lat="38.1810833" lon="15.705915"><ele>191.0</ele><time>2026-04-06T10:13:55.17Z</time></trkpt><trkpt lat="38.1809767" lon="15.70618"><ele>188.0</ele><time>2026-04-06T10:13:56.171Z</time></trkpt><trkpt lat="38.180885" lon="15.706465"><ele>188.0</ele><time>2026-04-06T10:13:57.171Z</time></trkpt><trkpt lat="38.1808" lon="15.7067517"><ele>188.0</ele><time>2026-04-06T10:13:58.17Z</time></trkpt><trkpt lat="38.180725" lon="15.7070367"><ele>196.0</ele><time>2026-04-06T10:13:59.171Z</time></trkpt><trkpt lat="38.1806583" lon="15.707325"><ele>204.0</ele><time>2026-04-06T10:14:00.17Z</time></trkpt><trkpt lat="38.1805867" lon="15.7076267"><ele>205.0</ele><time>2026-04-06T10:14:01.171Z</time></trkpt><trkpt lat="38.1805217" lon="15.7079183"><ele>206.0</ele><time>2026-04-06T10:14:02.171Z</time></trkpt><trkpt lat="38.180465" lon="15.70821"><ele>206.0</ele><time>2026-04-06T10:14:03.171Z</time></trkpt><trkpt lat="38.180405" lon="15.7084933"><ele>206.0</ele><time>2026-04-06T10:14:04.171Z</time></trkpt><trkpt lat="38.18033" lon="15.708775"><ele>207.0</ele><time>2026-04-06T10:14:05.171Z</time></trkpt><trkpt lat="38.18024" lon="15.7090467"><ele>208.0</ele><time>2026-04-06T10:14:06.17Z</time></trkpt><trkpt lat="38.18014" lon="15.7093017"><ele>206.33333333333331</ele><time>2026-04-06T10:14:07.171Z</time></trkpt><trkpt lat="38.1800267" lon="15.7095417"><ele>204.66666666666669</ele><time>2026-04-06T10:14:08.171Z</time></trkpt><trkpt lat="38.1799033" lon="15.7097717"><ele>203.0</ele><time>2026-04-06T10:14:09.171Z</time></trkpt><trkpt lat="38.1797633" lon="15.7100067"><ele>203.0</ele><time>2026-04-06T10:14:10.171Z</time></trkpt><trkpt lat="38.1796133" lon="15.7102383"><ele>203.0</ele><time>2026-04-06T10:14:11.171Z</time></trkpt><trkpt lat="38.1794683" lon="15.7104667"><ele>201.5</ele><time>2026-04-06T10:14:12.17Z</time></trkpt><trkpt lat="38.1793283" lon="15.7107017"><ele>200.0</ele><time>2026-04-06T10:14:13.17Z</time></trkpt><trkpt lat="38.1791883" lon="15.7109283"><ele>202.0</ele><time>2026-04-06T10:14:14.171Z</time></trkpt><trkpt lat="38.1790467" lon="15.7111633"><ele>204.0</ele><time>2026-04-06T10:14:15.17Z</time></trkpt><trkpt lat="38.178915" lon="15.7113967"><ele>205.33333333333331</ele><time>2026-04-06T10:14:16.171Z</time></trkpt><trkpt lat="38.178775" lon="15.711615"><ele>206.66666666666666</ele><time>2026-04-06T10:14:17.17Z</time></trkpt><trkpt lat="38.1786367" lon="15.7118333"><ele>208.0</ele><time>2026-04-06T10:14:18.171Z</time></trkpt><trkpt lat="38.1784883" lon="15.71204"><ele>208.33333333333331</ele><time>2026-04-06T10:14:19.171Z</time></trkpt><trkpt lat="38.17834" lon="15.712245"><ele>208.66666666666669</ele><time>2026-04-06T10:14:20.17Z</time></trkpt><trkpt lat="38.17818" lon="15.7124317"><ele>209.0</ele><time>2026-04-06T10:14:21.17Z</time></trkpt><trkpt lat="38.178" lon="15.7126033"><ele>211.0</ele><time>2026-04-06T10:14:22.171Z</time></trkpt><trkpt lat="38.1778267" lon="15.71276"><ele>213.0</ele><time>2026-04-06T10:14:23.171Z</time></trkpt><trkpt lat="38.1776533" lon="15.7128967"><ele>215.0</ele><time>2026-04-06T10:14:24.17Z</time></trkpt><trkpt lat="38.1774833" lon="15.7130233"><ele>219.66666666666669</ele><time>2026-04-06T10:14:25.171Z</time></trkpt><trkpt lat="38.177325" lon="15.7131417"><ele>224.33333333333331</ele><time>2026-04-06T10:14:26.17Z</time></trkpt><trkpt lat="38.1771733" lon="15.7132583"><ele>229.0</ele><time>2026-04-06T10:14:27.17Z</time></trkpt><trkpt lat="38.1770183" lon="15.71337"><ele>229.0</ele><time>2026-04-06T10:14:28.171Z</time></trkpt><trkpt lat="38.176875" lon="15.7134867"><ele>229.0</ele><time>2026-04-06T10:14:29.171Z</time></trkpt><trkpt lat="38.17674" lon="15.7135983"><ele>229.0</ele><time>2026-04-06T10:14:30.171Z</time></trkpt><trkpt lat="38.1766083" lon="15.7137183"><ele>231.33333333333331</ele><time>2026-04-06T10:14:31.171Z</time></trkpt><trkpt lat="38.1764867" lon="15.71386"><ele>233.66666666666669</ele><time>2026-04-06T10:14:32.17Z</time></trkpt><trkpt lat="38.176375" lon="15.7140133"><ele>236.0</ele><time>2026-04-06T10:14:33.171Z</time></trkpt><trkpt lat="38.176275" lon="15.714165"><ele>236.0</ele><time>2026-04-06T10:14:34.171Z</time></trkpt><trkpt lat="38.1761867" lon="15.71433"><ele>236.0</ele><time>2026-04-06T10:14:35.171Z</time></trkpt><trkpt lat="38.176105" lon="15.7145"><ele>236.0</ele><time>2026-04-06T10:14:36.171Z</time></trkpt><trkpt lat="38.1760383" lon="15.7146667"><ele>238.66666666666669</ele><time>2026-04-06T10:14:37.171Z</time></trkpt><trkpt lat="38.1759667" lon="15.7148333"><ele>241.33333333333331</ele><time>2026-04-06T10:14:38.171Z</time></trkpt><trkpt lat="38.175895" lon="15.7150067"><ele>244.0</ele><time>2026-04-06T10:14:39.171Z</time></trkpt><trkpt lat="38.1758233" lon="15.715185"><ele>243.33333333333331</ele><time>2026-04-06T10:14:40.171Z</time></trkpt><trkpt lat="38.17575" lon="15.7153683"><ele>242.66666666666669</ele><time>2026-04-06T10:14:41.171Z</time></trkpt><trkpt lat="38.1756767" lon="15.715555"><ele>242.0</ele><time>2026-04-06T10:14:42.171Z</time></trkpt><trkpt lat="38.1756017" lon="15.7157467"><ele>248.66666666666669</ele><time>2026-04-06T10:14:43.17Z</time></trkpt><trkpt lat="38.1755467" lon="15.715945"><ele>255.33333333333331</ele><time>2026-04-06T10:14:44.171Z</time></trkpt><trkpt lat="38.17555" lon="15.7161517"><ele>262.0</ele><time>2026-04-06T10:14:45.171Z</time></trkpt><trkpt lat="38.175535" lon="15.7163367"><ele>262.0</ele><time>2026-04-06T10:14:46.171Z</time></trkpt><trkpt lat="38.1754533" lon="15.7165083"><ele>262.0</ele><time>2026-04-06T10:14:47.17Z</time></trkpt><trkpt lat="38.175385" lon="15.7166933"><ele>262.0</ele><time>2026-04-06T10:14:48.171Z</time></trkpt><trkpt lat="38.175295" lon="15.71686"><ele>257.0</ele><time>2026-04-06T10:14:49.17Z</time></trkpt><trkpt lat="38.1752067" lon="15.7170333"><ele>252.0</ele><time>2026-04-06T10:14:50.171Z</time></trkpt><trkpt lat="38.175125" lon="15.7172133"><ele>247.0</ele><time>2026-04-06T10:14:51.171Z</time></trkpt><trkpt lat="38.1750567" lon="15.71739"><ele>247.0</ele><time>2026-04-06T10:14:52.17Z</time></trkpt><trkpt lat="38.1750033" lon="15.7175533"><ele>247.0</ele><time>2026-04-06T10:14:53.17Z</time></trkpt><trkpt lat="38.1749583" lon="15.7177117"><ele>247.0</ele><time>2026-04-06T10:14:54.171Z</time></trkpt><trkpt lat="38.17492" lon="15.717865"><ele>247.0</ele><time>2026-04-06T10:14:55.171Z</time></trkpt><trkpt lat="38.17489" lon="15.718015"><ele>248.75</ele><time>2026-04-06T10:14:56.171Z</time></trkpt><trkpt lat="38.1748667" lon="15.71817"><ele>250.5</ele><time>2026-04-06T10:14:57.17Z</time></trkpt><trkpt lat="38.1748483" lon="15.7183217"><ele>252.25</ele><time>2026-04-06T10:14:58.17Z</time></trkpt><trkpt lat="38.1748367" lon="15.7184567"><ele>254.0</ele><time>2026-04-06T10:14:59.171Z</time></trkpt><trkpt lat="38.17483" lon="15.7185833"><ele>254.00000000000003</ele><time>2026-04-06T10:15:00.171Z</time></trkpt><trkpt lat="38.1748217" lon="15.7187"><ele>254.0</ele><time>2026-04-06T10:15:01.17Z</time></trkpt><trkpt lat="38.1748133" lon="15.7188083"><ele>254.0</ele><time>2026-04-06T10:15:02.171Z</time></trkpt><trkpt lat="38.174815" lon="15.7189017"><ele>254.0</ele><time>2026-04-06T10:15:03.171Z</time></trkpt><trkpt lat="38.1748167" lon="15.7189833"><ele>254.00000000000003</ele><time>2026-04-06T10:15:04.17Z</time></trkpt><trkpt lat="38.1748017" lon="15.7191367"><ele>254.0</ele><time>2026-04-06T10:15:06.17Z</time></trkpt><trkpt lat="38.17476" lon="15.7192583"><ele>254.00000000000003</ele><time>2026-04-06T10:15:08.17Z</time></trkpt><trkpt lat="38.1746667" lon="15.7193283"><ele>254.0</ele><time>2026-04-06T10:15:10.171Z</time></trkpt><trkpt lat="38.1746" lon="15.71937"><ele>254.0</ele><time>2026-04-06T10:15:11.171Z</time></trkpt><trkpt lat="38.1745367" lon="15.719435"><ele>254.0</ele><time>2026-04-06T10:15:12.17Z</time></trkpt><trkpt lat="38.17449" lon="15.7195167"><ele>254.00000000000003</ele><time>2026-04-06T10:15:13.171Z</time></trkpt><trkpt lat="38.1744583" lon="15.7196217"><ele>254.0</ele><time>2026-04-06T10:15:14.171Z</time></trkpt><trkpt lat="38.1744367" lon="15.7197467"><ele>253.25</ele><time>2026-04-06T10:15:15.171Z</time></trkpt><trkpt lat="38.174405" lon="15.7198683"><ele>252.5</ele><time>2026-04-06T10:15:16.17Z</time></trkpt><trkpt lat="38.1743533" lon="15.7199917"><ele>251.75</ele><time>2026-04-06T10:15:17.171Z</time></trkpt><trkpt lat="38.1742883" lon="15.720135"><ele>251.0</ele><time>2026-04-06T10:15:18.17Z</time></trkpt><trkpt lat="38.174205" lon="15.7202983"><ele>251.0</ele><time>2026-04-06T10:15:19.17Z</time></trkpt><trkpt lat="38.1741267" lon="15.7204817"><ele>251.0</ele><time>2026-04-06T10:15:20.171Z</time></trkpt><trkpt lat="38.174065" lon="15.72069"><ele>251.0</ele><time>2026-04-06T10:15:21.171Z</time></trkpt><trkpt lat="38.17403" lon="15.7209167"><ele>251.66666666666669</ele><time>2026-04-06T10:15:22.171Z</time></trkpt><trkpt lat="38.1740033" lon="15.7211517"><ele>252.33333333333331</ele><time>2026-04-06T10:15:23.17Z</time></trkpt><trkpt lat="38.1739883" lon="15.721385"><ele>253.0</ele><time>2026-04-06T10:15:24.171Z</time></trkpt><trkpt lat="38.17398" lon="15.7216333"><ele>253.0</ele><time>2026-04-06T10:15:25.17Z</time></trkpt><trkpt lat="38.173965" lon="15.721885"><ele>253.0</ele><time>2026-04-06T10:15:26.171Z</time></trkpt><trkpt lat="38.1739283" lon="15.7221367"><ele>253.0</ele><time>2026-04-06T10:15:27.171Z</time></trkpt><trkpt lat="38.17388" lon="15.7223733"><ele>254.66666666666666</ele><time>2026-04-06T10:15:28.171Z</time></trkpt><trkpt lat="38.17381" lon="15.7225933"><ele>256.3333333333333</ele><time>2026-04-06T10:15:29.17Z</time></trkpt><trkpt lat="38.17373" lon="15.722815"><ele>258.0</ele><time>2026-04-06T10:15:30.17Z</time></trkpt><trkpt lat="38.1736367" lon="15.7230233"><ele>258.6666666666667</ele><time>2026-04-06T10:15:31.17Z</time></trkpt><trkpt lat="38.1735317" lon="15.7232217"><ele>259.33333333333337</ele><time>2026-04-06T10:15:32.171Z</time></trkpt><trkpt lat="38.1734117" lon="15.7234183"><ele>260.0</ele><time>2026-04-06T10:15:33.171Z</time></trkpt><trkpt lat="38.1732833" lon="15.7236083"><ele>259.6666666666667</ele><time>2026-04-06T10:15:34.171Z</time></trkpt><trkpt lat="38.173155" lon="15.7238067"><ele>259.3333333333333</ele><time>2026-04-06T10:15:35.17Z</time></trkpt><trkpt lat="38.1730233" lon="15.724005"><ele>259.0</ele><time>2026-04-06T10:15:36.171Z</time></trkpt><trkpt lat="38.172895" lon="15.7242033"><ele>262.0</ele><time>2026-04-06T10:15:37.171Z</time></trkpt><trkpt lat="38.1727667" lon="15.7243983"><ele>265.0</ele><time>2026-04-06T10:15:38.171Z</time></trkpt><trkpt lat="38.1726433" lon="15.7246067"><ele>268.0</ele><time>2026-04-06T10:15:39.171Z</time></trkpt><trkpt lat="38.1725167" lon="15.72482"><ele>268.0</ele><time>2026-04-06T10:15:40.171Z</time></trkpt><trkpt lat="38.1723917" lon="15.725025"><ele>268.0</ele><time>2026-04-06T10:15:41.17Z</time></trkpt><trkpt lat="38.172265" lon="15.7252333"><ele>268.0</ele><time>2026-04-06T10:15:42.171Z</time></trkpt><trkpt lat="38.1721383" lon="15.7254433"><ele>269.66666666666663</ele><time>2026-04-06T10:15:43.17Z</time></trkpt><trkpt lat="38.17201" lon="15.72565"><ele>271.3333333333333</ele><time>2026-04-06T10:15:44.17Z</time></trkpt><trkpt lat="38.1718767" lon="15.7258483"><ele>273.0</ele><time>2026-04-06T10:15:45.171Z</time></trkpt><trkpt lat="38.17175" lon="15.7260517"><ele>274.0</ele><time>2026-04-06T10:15:46.171Z</time></trkpt><trkpt lat="38.1716133" lon="15.7262517"><ele>275.0</ele><time>2026-04-06T10:15:47.17Z</time></trkpt><trkpt lat="38.1714617" lon="15.7264383"><ele>276.0</ele><time>2026-04-06T10:15:48.171Z</time></trkpt><trkpt lat="38.1713167" lon="15.7266183"><ele>276.0</ele><time>2026-04-06T10:15:49.171Z</time></trkpt><trkpt lat="38.17115" lon="15.7267883"><ele>276.0</ele><time>2026-04-06T10:15:50.17Z</time></trkpt><trkpt lat="38.1709683" lon="15.7269417"><ele>276.0</ele><time>2026-04-06T10:15:51.17Z</time></trkpt><trkpt lat="38.1707933" lon="15.7270733"><ele>276.3333333333333</ele><time>2026-04-06T10:15:52.171Z</time></trkpt><trkpt lat="38.170615" lon="15.7272233"><ele>276.66666666666663</ele><time>2026-04-06T10:15:53.171Z</time></trkpt><trkpt lat="38.1704483" lon="15.72739"><ele>277.0</ele><time>2026-04-06T10:15:54.171Z</time></trkpt><trkpt lat="38.1702933" lon="15.7275817"><ele>280.0</ele><time>2026-04-06T10:15:55.17Z</time></trkpt><trkpt lat="38.1701567" lon="15.727795"><ele>283.0</ele><time>2026-04-06T10:15:56.171Z</time></trkpt><trkpt lat="38.1700633" lon="15.72802"><ele>286.0</ele><time>2026-04-06T10:15:57.171Z</time></trkpt><trkpt lat="38.16998" lon="15.72827"><ele>286.0</ele><time>2026-04-06T10:15:58.171Z</time></trkpt><trkpt lat="38.1699017" lon="15.7285317"><ele>286.0</ele><time>2026-04-06T10:15:59.171Z</time></trkpt><trkpt lat="38.1698233" lon="15.7287867"><ele>286.0</ele><time>2026-04-06T10:16:00.17Z</time></trkpt><trkpt lat="38.1697383" lon="15.7290367"><ele>285.66666666666663</ele><time>2026-04-06T10:16:01.171Z</time></trkpt><trkpt lat="38.169665" lon="15.7292883"><ele>285.3333333333333</ele><time>2026-04-06T10:16:02.171Z</time></trkpt><trkpt lat="38.169585" lon="15.7295467"><ele>285.0</ele><time>2026-04-06T10:16:03.171Z</time></trkpt><trkpt lat="38.1695017" lon="15.7297967"><ele>285.0</ele><time>2026-04-06T10:16:04.171Z</time></trkpt><trkpt lat="38.1694217" lon="15.7300583"><ele>285.0</ele><time>2026-04-06T10:16:05.171Z</time></trkpt><trkpt lat="38.1693417" lon="15.73032"><ele>285.0</ele><time>2026-04-06T10:16:06.171Z</time></trkpt><trkpt lat="38.16927" lon="15.73058"><ele>286.6666666666667</ele><time>2026-04-06T10:16:07.171Z</time></trkpt><trkpt lat="38.1692283" lon="15.73085"><ele>288.33333333333337</ele><time>2026-04-06T10:16:08.171Z</time></trkpt><trkpt lat="38.1692017" lon="15.7311233"><ele>290.0</ele><time>2026-04-06T10:16:09.17Z</time></trkpt><trkpt lat="38.169215" lon="15.7313983"><ele>293.0</ele><time>2026-04-06T10:16:10.17Z</time></trkpt><trkpt lat="38.16926" lon="15.7316667"><ele>296.0</ele><time>2026-04-06T10:16:11.17Z</time></trkpt><trkpt lat="38.1693083" lon="15.731935"><ele>299.0</ele><time>2026-04-06T10:16:12.171Z</time></trkpt><trkpt lat="38.16936" lon="15.73219"><ele>299.0</ele><time>2026-04-06T10:16:13.171Z</time></trkpt><trkpt lat="38.1694017" lon="15.7324467"><ele>299.0</ele><time>2026-04-06T10:16:14.171Z</time></trkpt><trkpt lat="38.1694067" lon="15.7327117"><ele>299.0</ele><time>2026-04-06T10:16:15.171Z</time></trkpt><trkpt lat="38.16939" lon="15.7329933"><ele>299.0</ele><time>2026-04-06T10:16:16.171Z</time></trkpt><trkpt lat="38.1693433" lon="15.733255"><ele>299.0</ele><time>2026-04-06T10:16:17.171Z</time></trkpt><trkpt lat="38.1692583" lon="15.7335"><ele>299.0</ele><time>2026-04-06T10:16:18.171Z</time></trkpt><trkpt lat="38.1691383" lon="15.7337133"><ele>299.33333333333337</ele><time>2026-04-06T10:16:19.17Z</time></trkpt><trkpt lat="38.1690033" lon="15.7339033"><ele>299.6666666666667</ele><time>2026-04-06T10:16:20.17Z</time></trkpt><trkpt lat="38.1688667" lon="15.73409"><ele>300.0</ele><time>2026-04-06T10:16:21.17Z</time></trkpt><trkpt lat="38.1687267" lon="15.73427"><ele>302.6666666666667</ele><time>2026-04-06T10:16:22.17Z</time></trkpt><trkpt lat="38.1685883" lon="15.7344683"><ele>305.33333333333337</ele><time>2026-04-06T10:16:23.171Z</time></trkpt><trkpt lat="38.168465" lon="15.7346733"><ele>308.0</ele><time>2026-04-06T10:16:24.171Z</time></trkpt><trkpt lat="38.1683583" lon="15.7348867"><ele>308.0</ele><time>2026-04-06T10:16:25.171Z</time></trkpt><trkpt lat="38.1682767" lon="15.7351133"><ele>308.0</ele><time>2026-04-06T10:16:26.171Z</time></trkpt><trkpt lat="38.1682167" lon="15.735355"><ele>308.0</ele><time>2026-04-06T10:16:27.171Z</time></trkpt><trkpt lat="38.1681833" lon="15.7356183"><ele>313.6666666666667</ele><time>2026-04-06T10:16:28.171Z</time></trkpt><trkpt lat="38.1681667" lon="15.735885"><ele>319.3333333333333</ele><time>2026-04-06T10:16:29.171Z</time></trkpt><trkpt lat="38.168175" lon="15.73615"><ele>325.0</ele><time>2026-04-06T10:16:30.171Z</time></trkpt><trkpt lat="38.1681967" lon="15.7364183"><ele>325.0</ele><time>2026-04-06T10:16:31.171Z</time></trkpt><trkpt lat="38.1682267" lon="15.736685"><ele>325.0</ele><time>2026-04-06T10:16:32.171Z</time></trkpt><trkpt lat="38.1682633" lon="15.7369583"><ele>325.0</ele><time>2026-04-06T10:16:33.171Z</time></trkpt><trkpt lat="38.1682917" lon="15.7372383"><ele>324.3333333333333</ele><time>2026-04-06T10:16:34.17Z</time></trkpt><trkpt lat="38.168325" lon="15.7375133"><ele>323.6666666666667</ele><time>2026-04-06T10:16:35.17Z</time></trkpt><trkpt lat="38.168355" lon="15.7377833"><ele>323.0</ele><time>2026-04-06T10:16:36.171Z</time></trkpt><trkpt lat="38.168385" lon="15.7380533"><ele>322.33333333333337</ele><time>2026-04-06T10:16:37.171Z</time></trkpt><trkpt lat="38.16842" lon="15.7383267"><ele>321.6666666666667</ele><time>2026-04-06T10:16:38.171Z</time></trkpt><trkpt lat="38.168455" lon="15.7386"><ele>321.0</ele><time>2026-04-06T10:16:39.171Z</time></trkpt><trkpt lat="38.1684917" lon="15.7388683"><ele>321.0</ele><time>2026-04-06T10:16:40.171Z</time></trkpt><trkpt lat="38.1685267" lon="15.7391433"><ele>321.0</ele><time>2026-04-06T10:16:41.171Z</time></trkpt><trkpt lat="38.1685583" lon="15.7394167"><ele>321.0</ele><time>2026-04-06T10:16:42.171Z</time></trkpt><trkpt lat="38.1685883" lon="15.7396933"><ele>323.6666666666667</ele><time>2026-04-06T10:16:43.171Z</time></trkpt><trkpt lat="38.1686183" lon="15.73996"><ele>326.33333333333337</ele><time>2026-04-06T10:16:44.171Z</time></trkpt><trkpt lat="38.1686517" lon="15.7402367"><ele>329.0</ele><time>2026-04-06T10:16:45.171Z</time></trkpt><trkpt lat="38.16868" lon="15.740515"><ele>330.0</ele><time>2026-04-06T10:16:46.17Z</time></trkpt><trkpt lat="38.1687083" lon="15.7407917"><ele>331.0</ele><time>2026-04-06T10:16:47.171Z</time></trkpt><trkpt lat="38.1687367" lon="15.7410567"><ele>332.0</ele><time>2026-04-06T10:16:48.17Z</time></trkpt><trkpt lat="38.1687483" lon="15.7413267"><ele>332.0</ele><time>2026-04-06T10:16:49.171Z</time></trkpt><trkpt lat="38.168755" lon="15.7415967"><ele>332.0</ele><time>2026-04-06T10:16:50.17Z</time></trkpt><trkpt lat="38.168745" lon="15.74186"><ele>332.0</ele><time>2026-04-06T10:16:51.171Z</time></trkpt><trkpt lat="38.1687167" lon="15.7421167"><ele>336.0</ele><time>2026-04-06T10:16:52.171Z</time></trkpt><trkpt lat="38.16867" lon="15.7423833"><ele>340.0</ele><time>2026-04-06T10:16:53.17Z</time></trkpt><trkpt lat="38.168605" lon="15.7426367"><ele>344.0</ele><time>2026-04-06T10:16:54.17Z</time></trkpt><trkpt lat="38.1685267" lon="15.742885"><ele>347.33333333333337</ele><time>2026-04-06T10:16:55.17Z</time></trkpt><trkpt lat="38.1684283" lon="15.7431367"><ele>350.6666666666667</ele><time>2026-04-06T10:16:56.171Z</time></trkpt><trkpt lat="38.16832" lon="15.7433733"><ele>354.0</ele><time>2026-04-06T10:16:57.171Z</time></trkpt><trkpt lat="38.1681917" lon="15.7436067"><ele>364.5</ele><time>2026-04-06T10:16:58.171Z</time></trkpt><trkpt lat="38.16806" lon="15.743855"><ele>375.0</ele><time>2026-04-06T10:16:59.171Z</time></trkpt><trkpt lat="38.1679317" lon="15.7440883"><ele>375.0</ele><time>2026-04-06T10:17:00.17Z</time></trkpt><trkpt lat="38.1678083" lon="15.74433"><ele>375.0</ele><time>2026-04-06T10:17:01.171Z</time></trkpt><trkpt lat="38.1676867" lon="15.74457"><ele>374.0</ele><time>2026-04-06T10:17:02.17Z</time></trkpt><trkpt lat="38.1675767" lon="15.74482"><ele>373.0</ele><time>2026-04-06T10:17:03.171Z</time></trkpt><trkpt lat="38.1674817" lon="15.745075"><ele>372.0</ele><time>2026-04-06T10:17:04.171Z</time></trkpt><trkpt lat="38.1674067" lon="15.7453483"><ele>375.0</ele><time>2026-04-06T10:17:05.171Z</time></trkpt><trkpt lat="38.1673467" lon="15.74562"><ele>378.0</ele><time>2026-04-06T10:17:06.171Z</time></trkpt><trkpt lat="38.1672967" lon="15.7459067"><ele>381.0</ele><time>2026-04-06T10:17:07.171Z</time></trkpt><trkpt lat="38.167265" lon="15.746195"><ele>384.0</ele><time>2026-04-06T10:17:08.171Z</time></trkpt><trkpt lat="38.16724" lon="15.74648"><ele>384.0</ele><time>2026-04-06T10:17:09.17Z</time></trkpt><trkpt lat="38.1672233" lon="15.7467717"><ele>384.0</ele><time>2026-04-06T10:17:10.171Z</time></trkpt><trkpt lat="38.16721" lon="15.747065"><ele>385.0</ele><time>2026-04-06T10:17:11.171Z</time></trkpt><trkpt lat="38.1671883" lon="15.7473417"><ele>386.0</ele><time>2026-04-06T10:17:12.171Z</time></trkpt><trkpt lat="38.1671717" lon="15.7476167"><ele>387.0</ele><time>2026-04-06T10:17:13.17Z</time></trkpt><trkpt lat="38.1671417" lon="15.7479083"><ele>384.0</ele><time>2026-04-06T10:17:14.171Z</time></trkpt><trkpt lat="38.1671233" lon="15.7481967"><ele>381.0</ele><time>2026-04-06T10:17:15.171Z</time></trkpt><trkpt lat="38.1671083" lon="15.7484833"><ele>379.6666666666667</ele><time>2026-04-06T10:17:16.171Z</time></trkpt><trkpt lat="38.1670983" lon="15.74876"><ele>378.33333333333337</ele><time>2026-04-06T10:17:17.171Z</time></trkpt><trkpt lat="38.1670817" lon="15.7490417"><ele>377.0</ele><time>2026-04-06T10:17:18.171Z</time></trkpt><trkpt lat="38.167065" lon="15.7493267"><ele>381.0</ele><time>2026-04-06T10:17:19.171Z</time></trkpt><trkpt lat="38.16705" lon="15.7496133"><ele>385.0</ele><time>2026-04-06T10:17:20.171Z</time></trkpt><trkpt lat="38.167035" lon="15.7498983"><ele>385.0</ele><time>2026-04-06T10:17:21.171Z</time></trkpt><trkpt lat="38.1670217" lon="15.750185"><ele>385.0</ele><time>2026-04-06T10:17:22.171Z</time></trkpt><trkpt lat="38.1670017" lon="15.75047"><ele>387.0</ele><time>2026-04-06T10:17:23.17Z</time></trkpt><trkpt lat="38.1669883" lon="15.7507483"><ele>389.0</ele><time>2026-04-06T10:17:24.17Z</time></trkpt><trkpt lat="38.1669683" lon="15.7510417"><ele>389.0</ele><time>2026-04-06T10:17:25.171Z</time></trkpt><trkpt lat="38.1669433" lon="15.75133"><ele>389.0</ele><time>2026-04-06T10:17:26.17Z</time></trkpt><trkpt lat="38.166905" lon="15.7516017"><ele>389.0</ele><time>2026-04-06T10:17:27.171Z</time></trkpt><trkpt lat="38.1668483" lon="15.7518867"><ele>391.66666666666663</ele><time>2026-04-06T10:17:28.17Z</time></trkpt><trkpt lat="38.16678" lon="15.7521533"><ele>394.33333333333337</ele><time>2026-04-06T10:17:29.171Z</time></trkpt><trkpt lat="38.1666933" lon="15.752415"><ele>397.0</ele><time>2026-04-06T10:17:30.17Z</time></trkpt><trkpt lat="38.1665883" lon="15.752665"><ele>406.6666666666667</ele><time>2026-04-06T10:17:31.17Z</time></trkpt><trkpt lat="38.1664767" lon="15.7529133"><ele>416.33333333333337</ele><time>2026-04-06T10:17:32.171Z</time></trkpt><trkpt lat="38.1663617" lon="15.7531567"><ele>426.0</ele><time>2026-04-06T10:17:33.17Z</time></trkpt><trkpt lat="38.1662683" lon="15.7534117"><ele>425.0</ele><time>2026-04-06T10:17:34.171Z</time></trkpt><trkpt lat="38.1662083" lon="15.7536817"><ele>424.0</ele><time>2026-04-06T10:17:35.171Z</time></trkpt><trkpt lat="38.1661717" lon="15.75396"><ele>423.0</ele><time>2026-04-06T10:17:36.17Z</time></trkpt><trkpt lat="38.1661583" lon="15.7542467"><ele>416.0</ele><time>2026-04-06T10:17:37.171Z</time></trkpt><trkpt lat="38.1661567" lon="15.7545383"><ele>409.0</ele><time>2026-04-06T10:17:38.17Z</time></trkpt><trkpt lat="38.1661533" lon="15.75482"><ele>409.0</ele><time>2026-04-06T10:17:39.17Z</time></trkpt><trkpt lat="38.1661317" lon="15.7551117"><ele>409.0</ele><time>2026-04-06T10:17:40.171Z</time></trkpt><trkpt lat="38.16609" lon="15.7554"><ele>408.0</ele><time>2026-04-06T10:17:41.17Z</time></trkpt><trkpt lat="38.1660317" lon="15.7556817"><ele>407.0</ele><time>2026-04-06T10:17:42.171Z</time></trkpt><trkpt lat="38.1659567" lon="15.7559583"><ele>411.0</ele><time>2026-04-06T10:17:43.171Z</time></trkpt><trkpt lat="38.1658767" lon="15.7562333"><ele>415.0</ele><time>2026-04-06T10:17:44.171Z</time></trkpt><trkpt lat="38.1658017" lon="15.7565"><ele>415.0</ele><time>2026-04-06T10:17:45.171Z</time></trkpt><trkpt lat="38.1657333" lon="15.7567767"><ele>415.0</ele><time>2026-04-06T10:17:46.17Z</time></trkpt><trkpt lat="38.16567" lon="15.7570583"><ele>424.5</ele><time>2026-04-06T10:17:47.171Z</time></trkpt><trkpt lat="38.1656017" lon="15.7573467"><ele>434.0</ele><time>2026-04-06T10:17:48.17Z</time></trkpt><trkpt lat="38.165545" lon="15.75762"><ele>439.5</ele><time>2026-04-06T10:17:49.171Z</time></trkpt><trkpt lat="38.1655" lon="15.7578967"><ele>445.0</ele><time>2026-04-06T10:17:50.171Z</time></trkpt><trkpt lat="38.1654617" lon="15.7581883"><ele>445.0</ele><time>2026-04-06T10:17:51.171Z</time></trkpt><trkpt lat="38.1654417" lon="15.7584783"><ele>445.0</ele><time>2026-04-06T10:17:52.171Z</time></trkpt><trkpt lat="38.1654317" lon="15.7587567"><ele>445.0</ele><time>2026-04-06T10:17:53.171Z</time></trkpt><trkpt lat="38.165435" lon="15.7590333"><ele>448.0</ele><time>2026-04-06T10:17:54.171Z</time></trkpt><trkpt lat="38.1654467" lon="15.7593033"><ele>451.0</ele><time>2026-04-06T10:17:55.17Z</time></trkpt><trkpt lat="38.16546" lon="15.7595717"><ele>454.0</ele><time>2026-04-06T10:17:56.171Z</time></trkpt><trkpt lat="38.1654767" lon="15.7598367"><ele>456.0</ele><time>2026-04-06T10:17:57.171Z</time></trkpt><trkpt lat="38.1654917" lon="15.760095"><ele>458.0</ele><time>2026-04-06T10:17:58.171Z</time></trkpt><trkpt lat="38.1655133" lon="15.7603433"><ele>460.0</ele><time>2026-04-06T10:17:59.171Z</time></trkpt><trkpt lat="38.1655417" lon="15.76059"><ele>460.6666666666667</ele><time>2026-04-06T10:18:00.17Z</time></trkpt><trkpt lat="38.1655683" lon="15.7608317"><ele>461.33333333333337</ele><time>2026-04-06T10:18:01.171Z</time></trkpt><trkpt lat="38.1655967" lon="15.7610733"><ele>462.0</ele><time>2026-04-06T10:18:02.171Z</time></trkpt><trkpt lat="38.1656267" lon="15.7613183"><ele>464.0</ele><time>2026-04-06T10:18:03.171Z</time></trkpt><trkpt lat="38.165655" lon="15.7615567"><ele>466.0</ele><time>2026-04-06T10:18:04.17Z</time></trkpt><trkpt lat="38.165685" lon="15.7618"><ele>468.0</ele><time>2026-04-06T10:18:05.171Z</time></trkpt><trkpt lat="38.165705" lon="15.7620333"><ele>459.0</ele><time>2026-04-06T10:18:06.171Z</time></trkpt><trkpt lat="38.165725" lon="15.762255"><ele>450.0</ele><time>2026-04-06T10:18:07.171Z</time></trkpt><trkpt lat="38.1657483" lon="15.7624583"><ele>441.0</ele><time>2026-04-06T10:18:08.17Z</time></trkpt><trkpt lat="38.165775" lon="15.7626467"><ele>443.0</ele><time>2026-04-06T10:18:09.17Z</time></trkpt><trkpt lat="38.1657833" lon="15.7628167"><ele>445.0</ele><time>2026-04-06T10:18:10.171Z</time></trkpt><trkpt lat="38.1657883" lon="15.7629733"><ele>447.0</ele><time>2026-04-06T10:18:11.171Z</time></trkpt><trkpt lat="38.1657883" lon="15.763115"><ele>449.0</ele><time>2026-04-06T10:18:12.171Z</time></trkpt><trkpt lat="38.1657767" lon="15.7632367"><ele>449.0</ele><time>2026-04-06T10:18:13.171Z</time></trkpt><trkpt lat="38.1657783" lon="15.76336"><ele>449.0</ele><time>2026-04-06T10:18:14.171Z</time></trkpt><trkpt lat="38.165805" lon="15.7634833"><ele>449.0</ele><time>2026-04-06T10:18:15.171Z</time></trkpt><trkpt lat="38.1658433" lon="15.7636233"><ele>449.0</ele><time>2026-04-06T10:18:16.17Z</time></trkpt><trkpt lat="38.1658917" lon="15.7637817"><ele>449.0</ele><time>2026-04-06T10:18:17.17Z</time></trkpt><trkpt lat="38.165945" lon="15.7639433"><ele>455.0</ele><time>2026-04-06T10:18:18.17Z</time></trkpt><trkpt lat="38.166" lon="15.7641183"><ele>461.0</ele><time>2026-04-06T10:18:19.171Z</time></trkpt><trkpt lat="38.1660817" lon="15.764285"><ele>467.0</ele><time>2026-04-06T10:18:20.17Z</time></trkpt><trkpt lat="38.1661767" lon="15.7644333"><ele>466.66666666666663</ele><time>2026-04-06T10:18:21.171Z</time></trkpt><trkpt lat="38.1663067" lon="15.7645367"><ele>466.33333333333337</ele><time>2026-04-06T10:18:22.171Z</time></trkpt><trkpt lat="38.1664683" lon="15.764595"><ele>466.0</ele><time>2026-04-06T10:18:23.171Z</time></trkpt><trkpt lat="38.1666417" lon="15.7646083"><ele>466.0</ele><time>2026-04-06T10:18:24.17Z</time></trkpt><trkpt lat="38.1668117" lon="15.7646033"><ele>466.0</ele><time>2026-04-06T10:18:25.17Z</time></trkpt><trkpt lat="38.1669733" lon="15.7645917"><ele>466.0</ele><time>2026-04-06T10:18:26.171Z</time></trkpt><trkpt lat="38.1671317" lon="15.764585"><ele>466.0</ele><time>2026-04-06T10:18:27.171Z</time></trkpt><trkpt lat="38.1672917" lon="15.76459"><ele>466.0</ele><time>2026-04-06T10:18:28.17Z</time></trkpt><trkpt lat="38.1674517" lon="15.7646117"><ele>466.0</ele><time>2026-04-06T10:18:29.171Z</time></trkpt><trkpt lat="38.1675983" lon="15.7646767"><ele>464.6666666666667</ele><time>2026-04-06T10:18:30.17Z</time></trkpt><trkpt lat="38.167725" lon="15.7647783"><ele>463.33333333333337</ele><time>2026-04-06T10:18:31.171Z</time></trkpt><trkpt lat="38.16783" lon="15.76492"><ele>462.0</ele><time>2026-04-06T10:18:32.171Z</time></trkpt><trkpt lat="38.1679133" lon="15.76509"><ele>464.66666666666663</ele><time>2026-04-06T10:18:33.17Z</time></trkpt><trkpt lat="38.167975" lon="15.7652867"><ele>467.3333333333333</ele><time>2026-04-06T10:18:34.17Z</time></trkpt><trkpt lat="38.1680317" lon="15.765475"><ele>470.0</ele><time>2026-04-06T10:18:35.17Z</time></trkpt><trkpt lat="38.1681167" lon="15.7656467"><ele>472.66666666666663</ele><time>2026-04-06T10:18:36.171Z</time></trkpt><trkpt lat="38.168225" lon="15.7657867"><ele>475.33333333333337</ele><time>2026-04-06T10:18:37.171Z</time></trkpt><trkpt lat="38.168355" lon="15.765885"><ele>478.0</ele><time>2026-04-06T10:18:38.171Z</time></trkpt><trkpt lat="38.1684967" lon="15.7659517"><ele>478.0</ele><time>2026-04-06T10:18:39.171Z</time></trkpt><trkpt lat="38.1686433" lon="15.7660033"><ele>478.0</ele><time>2026-04-06T10:18:40.171Z</time></trkpt><trkpt lat="38.168775" lon="15.7660733"><ele>478.0</ele><time>2026-04-06T10:18:41.17Z</time></trkpt><trkpt lat="38.1688833" lon="15.766185"><ele>478.0</ele><time>2026-04-06T10:18:42.17Z</time></trkpt><trkpt lat="38.1689633" lon="15.766325"><ele>483.6666666666667</ele><time>2026-04-06T10:18:43.171Z</time></trkpt><trkpt lat="38.1690367" lon="15.7664867"><ele>489.33333333333337</ele><time>2026-04-06T10:18:44.171Z</time></trkpt><trkpt lat="38.1691083" lon="15.7666583"><ele>495.0</ele><time>2026-04-06T10:18:45.171Z</time></trkpt><trkpt lat="38.1691883" lon="15.766835"><ele>495.0</ele><time>2026-04-06T10:18:46.171Z</time></trkpt><trkpt lat="38.1692767" lon="15.76701"><ele>495.0</ele><time>2026-04-06T10:18:47.17Z</time></trkpt><trkpt lat="38.169355" lon="15.767175"><ele>495.0</ele><time>2026-04-06T10:18:48.17Z</time></trkpt><trkpt lat="38.169425" lon="15.76735"><ele>495.0</ele><time>2026-04-06T10:18:49.171Z</time></trkpt><trkpt lat="38.1694933" lon="15.7675417"><ele>495.0</ele><time>2026-04-06T10:18:50.17Z</time></trkpt><trkpt lat="38.1695433" lon="15.76774"><ele>495.0</ele><time>2026-04-06T10:18:51.171Z</time></trkpt><trkpt lat="38.169565" lon="15.7679467"><ele>498.0</ele><time>2026-04-06T10:18:52.171Z</time></trkpt><trkpt lat="38.169555" lon="15.7681483"><ele>501.0</ele><time>2026-04-06T10:18:53.171Z</time></trkpt><trkpt lat="38.16952" lon="15.76834"><ele>504.0</ele><time>2026-04-06T10:18:54.171Z</time></trkpt><trkpt lat="38.1694617" lon="15.76853"><ele>508.33333333333337</ele><time>2026-04-06T10:18:55.17Z</time></trkpt><trkpt lat="38.16939" lon="15.76872"><ele>512.6666666666667</ele><time>2026-04-06T10:18:56.171Z</time></trkpt><trkpt lat="38.16932" lon="15.7688967"><ele>517.0</ele><time>2026-04-06T10:18:57.171Z</time></trkpt><trkpt lat="38.1692533" lon="15.76908"><ele>517.0</ele><time>2026-04-06T10:18:58.171Z</time></trkpt><trkpt lat="38.1692" lon="15.7692633"><ele>517.0</ele><time>2026-04-06T10:18:59.171Z</time></trkpt><trkpt lat="38.1691717" lon="15.76946"><ele>517.0</ele><time>2026-04-06T10:19:00.171Z</time></trkpt><trkpt lat="38.16917" lon="15.7696583"><ele>519.6666666666667</ele><time>2026-04-06T10:19:01.171Z</time></trkpt><trkpt lat="38.1692017" lon="15.7698533"><ele>522.3333333333334</ele><time>2026-04-06T10:19:02.17Z</time></trkpt><trkpt lat="38.16926" lon="15.77004"><ele>525.0</ele><time>2026-04-06T10:19:03.171Z</time></trkpt><trkpt lat="38.1693417" lon="15.770215"><ele>526.0</ele><time>2026-04-06T10:19:04.171Z</time></trkpt><trkpt lat="38.1694183" lon="15.770385"><ele>527.0</ele><time>2026-04-06T10:19:05.171Z</time></trkpt><trkpt lat="38.16947" lon="15.7705683"><ele>528.0</ele><time>2026-04-06T10:19:06.171Z</time></trkpt><trkpt lat="38.1694883" lon="15.770745"><ele>529.0</ele><time>2026-04-06T10:19:07.17Z</time></trkpt><trkpt lat="38.1694817" lon="15.77091"><ele>532.25</ele><time>2026-04-06T10:19:08.171Z</time></trkpt><trkpt lat="38.169455" lon="15.77106"><ele>535.5</ele><time>2026-04-06T10:19:09.171Z</time></trkpt><trkpt lat="38.16942" lon="15.7711933"><ele>538.75</ele><time>2026-04-06T10:19:10.171Z</time></trkpt><trkpt lat="38.16937" lon="15.77133"><ele>542.0</ele><time>2026-04-06T10:19:11.171Z</time></trkpt><trkpt lat="38.169335" lon="15.771465"><ele>542.0</ele><time>2026-04-06T10:19:12.17Z</time></trkpt><trkpt lat="38.1693083" lon="15.7716083"><ele>542.0</ele><time>2026-04-06T10:19:13.171Z</time></trkpt><trkpt lat="38.1692783" lon="15.771765"><ele>542.0</ele><time>2026-04-06T10:19:14.171Z</time></trkpt><trkpt lat="38.1692367" lon="15.77193"><ele>542.0</ele><time>2026-04-06T10:19:15.171Z</time></trkpt><trkpt lat="38.169185" lon="15.7721017"><ele>538.75</ele><time>2026-04-06T10:19:16.17Z</time></trkpt><trkpt lat="38.169105" lon="15.7722533"><ele>535.5</ele><time>2026-04-06T10:19:17.171Z</time></trkpt><trkpt lat="38.16902" lon="15.772385"><ele>532.25</ele><time>2026-04-06T10:19:18.171Z</time></trkpt><trkpt lat="38.1689083" lon="15.77251"><ele>529.0</ele><time>2026-04-06T10:19:19.171Z</time></trkpt><trkpt lat="38.1687983" lon="15.7726333"><ele>535.3333333333334</ele><time>2026-04-06T10:19:20.171Z</time></trkpt><trkpt lat="38.1686867" lon="15.7727633"><ele>541.6666666666666</ele><time>2026-04-06T10:19:21.17Z</time></trkpt><trkpt lat="38.16857" lon="15.7729117"><ele>548.0</ele><time>2026-04-06T10:19:22.17Z</time></trkpt><trkpt lat="38.16848" lon="15.7730817"><ele>548.0</ele><time>2026-04-06T10:19:23.171Z</time></trkpt><trkpt lat="38.1683883" lon="15.773265"><ele>548.0</ele><time>2026-04-06T10:19:24.17Z</time></trkpt><trkpt lat="38.1683033" lon="15.77345"><ele>548.0</ele><time>2026-04-06T10:19:25.17Z</time></trkpt><trkpt lat="38.16823" lon="15.7736467"><ele>539.6666666666666</ele><time>2026-04-06T10:19:26.17Z</time></trkpt><trkpt lat="38.16818" lon="15.7738483"><ele>531.3333333333334</ele><time>2026-04-06T10:19:27.171Z</time></trkpt><trkpt lat="38.1681333" lon="15.7740567"><ele>523.0</ele><time>2026-04-06T10:19:28.17Z</time></trkpt><trkpt lat="38.1680833" lon="15.7742633"><ele>528.3333333333334</ele><time>2026-04-06T10:19:29.17Z</time></trkpt><trkpt lat="38.1680283" lon="15.7744633"><ele>533.6666666666666</ele><time>2026-04-06T10:19:30.17Z</time></trkpt><trkpt lat="38.16798" lon="15.7746583"><ele>539.0</ele><time>2026-04-06T10:19:31.171Z</time></trkpt><trkpt lat="38.1679333" lon="15.7748567"><ele>539.0</ele><time>2026-04-06T10:19:32.17Z</time></trkpt><trkpt lat="38.16789" lon="15.7750517"><ele>539.0</ele><time>2026-04-06T10:19:33.171Z</time></trkpt><trkpt lat="38.1678483" lon="15.775245"><ele>539.0</ele><time>2026-04-06T10:19:34.171Z</time></trkpt><trkpt lat="38.1677983" lon="15.7754317"><ele>540.75</ele><time>2026-04-06T10:19:35.171Z</time></trkpt><trkpt lat="38.1677533" lon="15.775605"><ele>542.5</ele><time>2026-04-06T10:19:36.171Z</time></trkpt><trkpt lat="38.16771" lon="15.7757767"><ele>544.25</ele><time>2026-04-06T10:19:37.171Z</time></trkpt><trkpt lat="38.16767" lon="15.7759617"><ele>546.0</ele><time>2026-04-06T10:19:38.17Z</time></trkpt><trkpt lat="38.167625" lon="15.7761367"><ele>548.0</ele><time>2026-04-06T10:19:39.171Z</time></trkpt><trkpt lat="38.1675833" lon="15.7763167"><ele>550.0</ele><time>2026-04-06T10:19:40.17Z</time></trkpt><trkpt lat="38.167545" lon="15.7764783"><ele>552.0</ele><time>2026-04-06T10:19:41.171Z</time></trkpt><trkpt lat="38.1675067" lon="15.77661"><ele>554.0</ele><time>2026-04-06T10:19:42.171Z</time></trkpt><trkpt lat="38.1674683" lon="15.7767267"><ele>554.0</ele><time>2026-04-06T10:19:43.171Z</time></trkpt><trkpt lat="38.1674333" lon="15.7768167"><ele>554.0</ele><time>2026-04-06T10:19:44.171Z</time></trkpt><trkpt lat="38.1674083" lon="15.7768933"><ele>554.0</ele><time>2026-04-06T10:19:45.171Z</time></trkpt><trkpt lat="38.1673567" lon="15.7770033"><ele>554.0</ele><time>2026-04-06T10:19:47.17Z</time></trkpt><trkpt lat="38.1673133" lon="15.77707"><ele>554.0</ele><time>2026-04-06T10:19:48.17Z</time></trkpt><trkpt lat="38.1672617" lon="15.7771533"><ele>554.0</ele><time>2026-04-06T10:19:49.17Z</time></trkpt><trkpt lat="38.167205" lon="15.77725"><ele>553.5</ele><time>2026-04-06T10:19:50.171Z</time></trkpt><trkpt lat="38.1671483" lon="15.77736"><ele>553.0</ele><time>2026-04-06T10:19:51.171Z</time></trkpt><trkpt lat="38.1670883" lon="15.7774767"><ele>552.5</ele><time>2026-04-06T10:19:52.171Z</time></trkpt><trkpt lat="38.167015" lon="15.777605"><ele>552.0</ele><time>2026-04-06T10:19:53.171Z</time></trkpt><trkpt lat="38.1669433" lon="15.77774"><ele>553.75</ele><time>2026-04-06T10:19:54.17Z</time></trkpt><trkpt lat="38.1668933" lon="15.777875"><ele>555.5</ele><time>2026-04-06T10:19:55.17Z</time></trkpt><trkpt lat="38.1668767" lon="15.7780233"><ele>557.25</ele><time>2026-04-06T10:19:56.171Z</time></trkpt><trkpt lat="38.1668933" lon="15.778175"><ele>559.0</ele><time>2026-04-06T10:19:57.171Z</time></trkpt><trkpt lat="38.16694" lon="15.7783267"><ele>559.0</ele><time>2026-04-06T10:19:58.17Z</time></trkpt><trkpt lat="38.1669983" lon="15.7784717"><ele>559.0</ele><time>2026-04-06T10:19:59.171Z</time></trkpt><trkpt lat="38.1670667" lon="15.77861"><ele>559.0</ele><time>2026-04-06T10:20:00.171Z</time></trkpt><trkpt lat="38.1671383" lon="15.7787433"><ele>559.0</ele><time>2026-04-06T10:20:01.17Z</time></trkpt><trkpt lat="38.16722" lon="15.77889"><ele>561.25</ele><time>2026-04-06T10:20:02.171Z</time></trkpt><trkpt lat="38.1673333" lon="15.7789983"><ele>563.5</ele><time>2026-04-06T10:20:03.17Z</time></trkpt><trkpt lat="38.1674517" lon="15.7790983"><ele>565.75</ele><time>2026-04-06T10:20:04.171Z</time></trkpt><trkpt lat="38.1675483" lon="15.7792133"><ele>568.0</ele><time>2026-04-06T10:20:05.17Z</time></trkpt><trkpt lat="38.1676167" lon="15.7793317"><ele>573.0</ele><time>2026-04-06T10:20:06.171Z</time></trkpt><trkpt lat="38.1676667" lon="15.7794583"><ele>578.0</ele><time>2026-04-06T10:20:07.171Z</time></trkpt><trkpt lat="38.1676833" lon="15.7795683"><ele>583.0</ele><time>2026-04-06T10:20:08.171Z</time></trkpt><trkpt lat="38.1676717" lon="15.779705"><ele>588.0</ele><time>2026-04-06T10:20:10.171Z</time></trkpt><trkpt lat="38.1675983" lon="15.7797833"><ele>593.0</ele><time>2026-04-06T10:20:12.171Z</time></trkpt><trkpt lat="38.1674867" lon="15.7798067"><ele>591.0</ele><time>2026-04-06T10:20:14.171Z</time></trkpt><trkpt lat="38.167355" lon="15.779755"><ele>589.0</ele><time>2026-04-06T10:20:16.171Z</time></trkpt><trkpt lat="38.167265" lon="15.7796883"><ele>587.0</ele><time>2026-04-06T10:20:17.17Z</time></trkpt><trkpt lat="38.1671317" lon="15.77964"><ele>585.0</ele><time>2026-04-06T10:20:18.171Z</time></trkpt><trkpt lat="38.1670367" lon="15.77962"><ele>585.0</ele><time>2026-04-06T10:20:19.171Z</time></trkpt><trkpt lat="38.1669233" lon="15.7796183"><ele>585.0</ele><time>2026-04-06T10:20:20.171Z</time></trkpt><trkpt lat="38.16681" lon="15.779665"><ele>585.0</ele><time>2026-04-06T10:20:21.171Z</time></trkpt><trkpt lat="38.16671" lon="15.77974"><ele>585.0</ele><time>2026-04-06T10:20:22.17Z</time></trkpt><trkpt lat="38.16663" lon="15.7798183"><ele>585.0</ele><time>2026-04-06T10:20:23.171Z</time></trkpt><trkpt lat="38.1665617" lon="15.7799"><ele>585.0</ele><time>2026-04-06T10:20:24.171Z</time></trkpt><trkpt lat="38.1665033" lon="15.7799867"><ele>585.0</ele><time>2026-04-06T10:20:25.171Z</time></trkpt><trkpt lat="38.16646" lon="15.7800733"><ele>585.0</ele><time>2026-04-06T10:20:26.171Z</time></trkpt><trkpt lat="38.1664183" lon="15.7801667"><ele>585.0</ele><time>2026-04-06T10:20:27.171Z</time></trkpt><trkpt lat="38.1663867" lon="15.7802533"><ele>585.0</ele><time>2026-04-06T10:20:28.17Z</time></trkpt><trkpt lat="38.166355" lon="15.7803433"><ele>581.2</ele><time>2026-04-06T10:20:29.171Z</time></trkpt><trkpt lat="38.16633" lon="15.780445"><ele>577.4</ele><time>2026-04-06T10:20:30.171Z</time></trkpt><trkpt lat="38.1663117" lon="15.7805533"><ele>573.6</ele><time>2026-04-06T10:20:31.17Z</time></trkpt><trkpt lat="38.166295" lon="15.780665"><ele>569.8</ele><time>2026-04-06T10:20:32.171Z</time></trkpt><trkpt lat="38.1662767" lon="15.7808017"><ele>566.0</ele><time>2026-04-06T10:20:33.17Z</time></trkpt><trkpt lat="38.1662483" lon="15.78095"><ele>568.0</ele><time>2026-04-06T10:20:34.171Z</time></trkpt><trkpt lat="38.1662183" lon="15.7810933"><ele>570.0</ele><time>2026-04-06T10:20:35.171Z</time></trkpt><trkpt lat="38.166185" lon="15.7812233"><ele>572.0</ele><time>2026-04-06T10:20:36.171Z</time></trkpt><trkpt lat="38.166155" lon="15.7813417"><ele>574.0</ele><time>2026-04-06T10:20:37.171Z</time></trkpt><trkpt lat="38.1661333" lon="15.78146"><ele>576.0</ele><time>2026-04-06T10:20:38.171Z</time></trkpt><trkpt lat="38.1661217" lon="15.7815733"><ele>576.0</ele><time>2026-04-06T10:20:39.171Z</time></trkpt><trkpt lat="38.166125" lon="15.78167"><ele>576.0</ele><time>2026-04-06T10:20:40.17Z</time></trkpt><trkpt lat="38.1661417" lon="15.781795"><ele>576.0</ele><time>2026-04-06T10:20:41.171Z</time></trkpt><trkpt lat="38.16615" lon="15.7819433"><ele>576.0</ele><time>2026-04-06T10:20:42.171Z</time></trkpt><trkpt lat="38.16616" lon="15.7821183"><ele>576.0</ele><time>2026-04-06T10:20:43.171Z</time></trkpt><trkpt lat="38.1661633" lon="15.7822983"><ele>578.0</ele><time>2026-04-06T10:20:44.17Z</time></trkpt><trkpt lat="38.1661667" lon="15.7824883"><ele>580.0</ele><time>2026-04-06T10:20:45.171Z</time></trkpt><trkpt lat="38.1661633" lon="15.7826483"><ele>582.0</ele><time>2026-04-06T10:20:46.171Z</time></trkpt><trkpt lat="38.1661667" lon="15.7827867"><ele>584.0</ele><time>2026-04-06T10:20:47.171Z</time></trkpt><trkpt lat="38.16619" lon="15.782875"><ele>584.0</ele><time>2026-04-06T10:20:48.171Z</time></trkpt><trkpt lat="38.16624" lon="15.7829333"><ele>584.0</ele><time>2026-04-06T10:20:49.17Z</time></trkpt><trkpt lat="38.166365" lon="15.78292"><ele>584.0</ele><time>2026-04-06T10:20:51.171Z</time></trkpt><trkpt lat="38.1664033" lon="15.7828333"><ele>584.0</ele><time>2026-04-06T10:20:52.171Z</time></trkpt><trkpt lat="38.1664317" lon="15.7826883"><ele>584.0</ele><time>2026-04-06T10:20:53.171Z</time></trkpt><trkpt lat="38.1664417" lon="15.7824983"><ele>584.0</ele><time>2026-04-06T10:20:54.17Z</time></trkpt><trkpt lat="38.1664433" lon="15.7822833"><ele>584.0</ele><time>2026-04-06T10:20:55.171Z</time></trkpt><trkpt lat="38.1664733" lon="15.7820633"><ele>584.0</ele><time>2026-04-06T10:20:56.171Z</time></trkpt><trkpt lat="38.1665" lon="15.7818683"><ele>590.5</ele><time>2026-04-06T10:20:57.171Z</time></trkpt><trkpt lat="38.1665283" lon="15.7817017"><ele>597.0</ele><time>2026-04-06T10:20:58.171Z</time></trkpt><trkpt lat="38.166555" lon="15.781555"><ele>603.5</ele><time>2026-04-06T10:20:59.17Z</time></trkpt><trkpt lat="38.1665967" lon="15.7814217"><ele>610.0</ele><time>2026-04-06T10:21:00.171Z</time></trkpt><trkpt lat="38.1666567" lon="15.7813017"><ele>610.0</ele><time>2026-04-06T10:21:01.171Z</time></trkpt><trkpt lat="38.1667233" lon="15.7811783"><ele>610.0</ele><time>2026-04-06T10:21:02.171Z</time></trkpt><trkpt lat="38.1668033" lon="15.78106"><ele>610.0</ele><time>2026-04-06T10:21:03.17Z</time></trkpt><trkpt lat="38.1668767" lon="15.7809633"><ele>610.0</ele><time>2026-04-06T10:21:04.171Z</time></trkpt><trkpt lat="38.1669367" lon="15.7809067"><ele>610.0</ele><time>2026-04-06T10:21:05.17Z</time></trkpt><trkpt lat="38.1669983" lon="15.78083"><ele>610.0</ele><time>2026-04-06T10:21:07.171Z</time></trkpt><trkpt lat="38.167065" lon="15.7807933"><ele>610.0</ele><time>2026-04-06T10:21:09.171Z</time></trkpt><trkpt lat="38.1671383" lon="15.7808517"><ele>610.0</ele><time>2026-04-06T10:21:11.17Z</time></trkpt><trkpt lat="38.1671683" lon="15.78096"><ele>610.0</ele><time>2026-04-06T10:21:13.171Z</time></trkpt><trkpt lat="38.1670933" lon="15.7811167"><ele>610.0</ele><time>2026-04-06T10:21:15.171Z</time></trkpt><trkpt lat="38.1670217" lon="15.78122"><ele>610.0</ele><time>2026-04-06T10:21:16.17Z</time></trkpt><trkpt lat="38.16695" lon="15.7813317"><ele>610.0</ele><time>2026-04-06T10:21:17.171Z</time></trkpt><trkpt lat="38.166885" lon="15.7814367"><ele>610.0</ele><time>2026-04-06T10:21:18.171Z</time></trkpt><trkpt lat="38.1668367" lon="15.7815333"><ele>610.0</ele><time>2026-04-06T10:21:19.171Z</time></trkpt><trkpt lat="38.1668233" lon="15.7816433"><ele>610.0</ele><time>2026-04-06T10:21:20.171Z</time></trkpt><trkpt lat="38.1668267" lon="15.7817717"><ele>611.0</ele><time>2026-04-06T10:21:21.17Z</time></trkpt><trkpt lat="38.16683" lon="15.781915"><ele>612.0</ele><time>2026-04-06T10:21:22.171Z</time></trkpt><trkpt lat="38.1668333" lon="15.7820817"><ele>613.0</ele><time>2026-04-06T10:21:23.171Z</time></trkpt><trkpt lat="38.1668283" lon="15.7822433"><ele>614.0</ele><time>2026-04-06T10:21:24.17Z</time></trkpt><trkpt lat="38.1668233" lon="15.782415"><ele>614.0</ele><time>2026-04-06T10:21:25.17Z</time></trkpt><trkpt lat="38.1668167" lon="15.7825983"><ele>614.0</ele><time>2026-04-06T10:21:26.171Z</time></trkpt><trkpt lat="38.16681" lon="15.7827733"><ele>614.0</ele><time>2026-04-06T10:21:27.17Z</time></trkpt><trkpt lat="38.1668117" lon="15.7829283"><ele>614.0</ele><time>2026-04-06T10:21:28.171Z</time></trkpt><trkpt lat="38.166815" lon="15.78308"><ele>613.4</ele><time>2026-04-06T10:21:29.171Z</time></trkpt><trkpt lat="38.1668433" lon="15.7832"><ele>612.8</ele><time>2026-04-06T10:21:30.17Z</time></trkpt><trkpt lat="38.1668917" lon="15.7832983"><ele>612.2</ele><time>2026-04-06T10:21:31.171Z</time></trkpt><trkpt lat="38.1669717" lon="15.7833867"><ele>611.6</ele><time>2026-04-06T10:21:32.171Z</time></trkpt><trkpt lat="38.1670717" lon="15.783455"><ele>611.0</ele><time>2026-04-06T10:21:33.17Z</time></trkpt><trkpt lat="38.1671783" lon="15.7835217"><ele>609.5</ele><time>2026-04-06T10:21:34.171Z</time></trkpt><trkpt lat="38.1672917" lon="15.7835983"><ele>608.0</ele><time>2026-04-06T10:21:35.171Z</time></trkpt><trkpt lat="38.1674117" lon="15.7836617"><ele>606.5</ele><time>2026-04-06T10:21:36.171Z</time></trkpt><trkpt lat="38.16753" lon="15.7837067"><ele>605.0</ele><time>2026-04-06T10:21:37.171Z</time></trkpt><trkpt lat="38.167645" lon="15.7837483"><ele>608.6666666666666</ele><time>2026-04-06T10:21:38.171Z</time></trkpt><trkpt lat="38.1677517" lon="15.7837917"><ele>612.3333333333333</ele><time>2026-04-06T10:21:39.171Z</time></trkpt><trkpt lat="38.1678367" lon="15.783845"><ele>616.0</ele><time>2026-04-06T10:21:40.171Z</time></trkpt><trkpt lat="38.167895" lon="15.7839083"><ele>619.6666666666666</ele><time>2026-04-06T10:21:41.171Z</time></trkpt><trkpt lat="38.16794" lon="15.783985"><ele>623.3333333333334</ele><time>2026-04-06T10:21:42.171Z</time></trkpt><trkpt lat="38.16793" lon="15.7840833"><ele>627.0</ele><time>2026-04-06T10:21:43.171Z</time></trkpt><trkpt lat="38.1678867" lon="15.78418"><ele>627.0</ele><time>2026-04-06T10:21:44.171Z</time></trkpt><trkpt lat="38.1677967" lon="15.7842867"><ele>627.0</ele><time>2026-04-06T10:21:45.171Z</time></trkpt><trkpt lat="38.1676917" lon="15.7843933"><ele>627.0</ele><time>2026-04-06T10:21:46.171Z</time></trkpt><trkpt lat="38.167575" lon="15.7844967"><ele>627.0</ele><time>2026-04-06T10:21:47.171Z</time></trkpt><trkpt lat="38.1674733" lon="15.7846033"><ele>627.8333333333334</ele><time>2026-04-06T10:21:48.17Z</time></trkpt><trkpt lat="38.167395" lon="15.78469"><ele>628.6666666666666</ele><time>2026-04-06T10:21:49.171Z</time></trkpt><trkpt lat="38.1673383" lon="15.78478"><ele>629.5</ele><time>2026-04-06T10:21:50.17Z</time></trkpt><trkpt lat="38.167325" lon="15.7848633"><ele>630.3333333333333</ele><time>2026-04-06T10:21:51.17Z</time></trkpt><trkpt lat="38.1673383" lon="15.7849467"><ele>631.1666666666666</ele><time>2026-04-06T10:21:52.17Z</time></trkpt><trkpt lat="38.1674417" lon="15.7849683"><ele>632.0</ele><time>2026-04-06T10:21:54.171Z</time></trkpt><trkpt lat="38.1675167" lon="15.7848983"><ele>632.0</ele><time>2026-04-06T10:21:55.171Z</time></trkpt><trkpt lat="38.1676167" lon="15.78478"><ele>632.0</ele><time>2026-04-06T10:21:56.171Z</time></trkpt><trkpt lat="38.167735" lon="15.7846533"><ele>632.0</ele><time>2026-04-06T10:21:57.171Z</time></trkpt><trkpt lat="38.1678383" lon="15.7845317"><ele>632.0</ele><time>2026-04-06T10:21:58.171Z</time></trkpt><trkpt lat="38.1679367" lon="15.7844283"><ele>631.0</ele><time>2026-04-06T10:21:59.171Z</time></trkpt><trkpt lat="38.16804" lon="15.7843383"><ele>630.0</ele><time>2026-04-06T10:22:00.17Z</time></trkpt><trkpt lat="38.1681333" lon="15.7842683"><ele>629.0</ele><time>2026-04-06T10:22:01.171Z</time></trkpt><trkpt lat="38.1682083" lon="15.7842033"><ele>628.0</ele><time>2026-04-06T10:22:02.171Z</time></trkpt><trkpt lat="38.16827" lon="15.78413"><ele>627.0</ele><time>2026-04-06T10:22:03.17Z</time></trkpt><trkpt lat="38.1683117" lon="15.7840267"><ele>633.0</ele><time>2026-04-06T10:22:04.171Z</time></trkpt><trkpt lat="38.1683317" lon="15.783915"><ele>639.0</ele><time>2026-04-06T10:22:05.171Z</time></trkpt><trkpt lat="38.1683267" lon="15.7837733"><ele>645.0</ele><time>2026-04-06T10:22:06.171Z</time></trkpt><trkpt lat="38.16831" lon="15.7836117"><ele>651.0</ele><time>2026-04-06T10:22:07.171Z</time></trkpt><trkpt lat="38.1682933" lon="15.7834233"><ele>652.0</ele><time>2026-04-06T10:22:08.171Z</time></trkpt><trkpt lat="38.1682817" lon="15.7832417"><ele>653.0</ele><time>2026-04-06T10:22:09.171Z</time></trkpt><trkpt lat="38.1682817" lon="15.7830633"><ele>654.0</ele><time>2026-04-06T10:22:10.171Z</time></trkpt><trkpt lat="38.1682617" lon="15.7828617"><ele>655.0</ele><time>2026-04-06T10:22:11.17Z</time></trkpt><trkpt lat="38.1682583" lon="15.7826533"><ele>655.6666666666667</ele><time>2026-04-06T10:22:12.171Z</time></trkpt><trkpt lat="38.16827" lon="15.7824483"><ele>656.3333333333334</ele><time>2026-04-06T10:22:13.171Z</time></trkpt><trkpt lat="38.1682717" lon="15.7822533"><ele>657.0</ele><time>2026-04-06T10:22:14.17Z</time></trkpt><trkpt lat="38.1682583" lon="15.7820783"><ele>657.0</ele><time>2026-04-06T10:22:15.171Z</time></trkpt><trkpt lat="38.1682317" lon="15.781955"><ele>657.0</ele><time>2026-04-06T10:22:16.17Z</time></trkpt><trkpt lat="38.1682217" lon="15.78186"><ele>657.0</ele><time>2026-04-06T10:22:17.171Z</time></trkpt><trkpt lat="38.1682633" lon="15.7817717"><ele>657.0</ele><time>2026-04-06T10:22:19.171Z</time></trkpt><trkpt lat="38.1683" lon="15.7818417"><ele>657.0</ele><time>2026-04-06T10:22:21.17Z</time></trkpt><trkpt lat="38.1682983" lon="15.7819567"><ele>657.0</ele><time>2026-04-06T10:22:22.171Z</time></trkpt><trkpt lat="38.168295" lon="15.78214"><ele>657.0</ele><time>2026-04-06T10:22:23.171Z</time></trkpt><trkpt lat="38.1683117" lon="15.7823433"><ele>657.0</ele><time>2026-04-06T10:22:24.17Z</time></trkpt><trkpt lat="38.1683367" lon="15.782545"><ele>657.0</ele><time>2026-04-06T10:22:25.171Z</time></trkpt><trkpt lat="38.1683783" lon="15.7827317"><ele>656.5</ele><time>2026-04-06T10:22:26.171Z</time></trkpt><trkpt lat="38.1684217" lon="15.7829117"><ele>656.0</ele><time>2026-04-06T10:22:27.171Z</time></trkpt><trkpt lat="38.1684567" lon="15.78309"><ele>655.5</ele><time>2026-04-06T10:22:28.171Z</time></trkpt><trkpt lat="38.1684983" lon="15.7832633"><ele>655.0</ele><time>2026-04-06T10:22:29.171Z</time></trkpt><trkpt lat="38.16854" lon="15.7834417"><ele>654.0</ele><time>2026-04-06T10:22:30.17Z</time></trkpt><trkpt lat="38.16859" lon="15.7836133"><ele>653.0</ele><time>2026-04-06T10:22:31.171Z</time></trkpt><trkpt lat="38.168655" lon="15.7837733"><ele>652.0</ele><time>2026-04-06T10:22:32.171Z</time></trkpt><trkpt lat="38.1687367" lon="15.78391"><ele>651.0</ele><time>2026-04-06T10:22:33.17Z</time></trkpt><trkpt lat="38.1688167" lon="15.7840433"><ele>651.0</ele><time>2026-04-06T10:22:34.17Z</time></trkpt><trkpt lat="38.1688883" lon="15.7841633"><ele>651.0</ele><time>2026-04-06T10:22:35.171Z</time></trkpt><trkpt lat="38.16893" lon="15.7842833"><ele>651.0</ele><time>2026-04-06T10:22:36.17Z</time></trkpt><trkpt lat="38.1689383" lon="15.784395"><ele>651.0</ele><time>2026-04-06T10:22:37.171Z</time></trkpt><trkpt lat="38.1689217" lon="15.7844867"><ele>651.0</ele><time>2026-04-06T10:22:38.17Z</time></trkpt><trkpt lat="38.168855" lon="15.7845617"><ele>654.1999999999999</ele><time>2026-04-06T10:22:39.171Z</time></trkpt><trkpt lat="38.1687733" lon="15.7846033"><ele>657.4</ele><time>2026-04-06T10:22:40.171Z</time></trkpt><trkpt lat="38.1686583" lon="15.7846017"><ele>660.6</ele><time>2026-04-06T10:22:41.171Z</time></trkpt><trkpt lat="38.16854" lon="15.7846333"><ele>663.8</ele><time>2026-04-06T10:22:42.17Z</time></trkpt><trkpt lat="38.1684367" lon="15.784715"><ele>667.0</ele><time>2026-04-06T10:22:43.171Z</time></trkpt><trkpt lat="38.1683617" lon="15.7848367"><ele>667.0</ele><time>2026-04-06T10:22:44.17Z</time></trkpt><trkpt lat="38.16832" lon="15.7849667"><ele>667.0</ele><time>2026-04-06T10:22:45.171Z</time></trkpt><trkpt lat="38.16829" lon="15.7851117"><ele>667.0</ele><time>2026-04-06T10:22:46.17Z</time></trkpt><trkpt lat="38.16827" lon="15.7852683"><ele>667.0</ele><time>2026-04-06T10:22:47.171Z</time></trkpt><trkpt lat="38.1682683" lon="15.7854367"><ele>666.25</ele><time>2026-04-06T10:22:48.17Z</time></trkpt><trkpt lat="38.1682783" lon="15.7856033"><ele>665.5</ele><time>2026-04-06T10:22:49.171Z</time></trkpt><trkpt lat="38.168305" lon="15.7857733"><ele>664.75</ele><time>2026-04-06T10:22:50.171Z</time></trkpt><trkpt lat="38.1683533" lon="15.7859467"><ele>664.0</ele><time>2026-04-06T10:22:51.17Z</time></trkpt><trkpt lat="38.16842" lon="15.7861017"><ele>664.0</ele><time>2026-04-06T10:22:52.171Z</time></trkpt><trkpt lat="38.1685117" lon="15.78624"><ele>664.0</ele><time>2026-04-06T10:22:53.171Z</time></trkpt><trkpt lat="38.1686133" lon="15.7863733"><ele>664.0</ele><time>2026-04-06T10:22:54.171Z</time></trkpt><trkpt lat="38.168735" lon="15.7864967"><ele>664.0</ele><time>2026-04-06T10:22:55.171Z</time></trkpt><trkpt lat="38.16885" lon="15.7866083"><ele>664.0</ele><time>2026-04-06T10:22:56.171Z</time></trkpt><trkpt lat="38.1689517" lon="15.7867317"><ele>664.0</ele><time>2026-04-06T10:22:57.17Z</time></trkpt><trkpt lat="38.1690383" lon="15.7868683"><ele>664.0</ele><time>2026-04-06T10:22:58.171Z</time></trkpt><trkpt lat="38.1691183" lon="15.7870033"><ele>664.0</ele><time>2026-04-06T10:22:59.171Z</time></trkpt><trkpt lat="38.169185" lon="15.787145"><ele>670.25</ele><time>2026-04-06T10:23:00.171Z</time></trkpt><trkpt lat="38.1692467" lon="15.7872833"><ele>676.5</ele><time>2026-04-06T10:23:01.17Z</time></trkpt><trkpt lat="38.1693233" lon="15.7874033"><ele>682.75</ele><time>2026-04-06T10:23:02.171Z</time></trkpt><trkpt lat="38.1694083" lon="15.7875117"><ele>689.0</ele><time>2026-04-06T10:23:03.171Z</time></trkpt><trkpt lat="38.1695267" lon="15.7875833"><ele>689.0</ele><time>2026-04-06T10:23:04.171Z</time></trkpt><trkpt lat="38.169645" lon="15.7876217"><ele>689.0</ele><time>2026-04-06T10:23:05.17Z</time></trkpt><trkpt lat="38.1697617" lon="15.787645"><ele>689.0</ele><time>2026-04-06T10:23:06.17Z</time></trkpt><trkpt lat="38.1698683" lon="15.787665"><ele>689.0</ele><time>2026-04-06T10:23:07.171Z</time></trkpt><trkpt lat="38.1699567" lon="15.7877067"><ele>689.0</ele><time>2026-04-06T10:23:08.171Z</time></trkpt><trkpt lat="38.1700183" lon="15.7877617"><ele>691.5</ele><time>2026-04-06T10:23:09.17Z</time></trkpt><trkpt lat="38.1700017" lon="15.7878783"><ele>694.0</ele><time>2026-04-06T10:23:11.171Z</time></trkpt><trkpt lat="38.169915" lon="15.78793"><ele>696.5</ele><time>2026-04-06T10:23:12.171Z</time></trkpt><trkpt lat="38.169795" lon="15.7879717"><ele>699.0</ele><time>2026-04-06T10:23:13.171Z</time></trkpt><trkpt lat="38.1696533" lon="15.7880217"><ele>699.0</ele><time>2026-04-06T10:23:14.171Z</time></trkpt><trkpt lat="38.1694983" lon="15.7881217"><ele>699.0</ele><time>2026-04-06T10:23:15.171Z</time></trkpt><trkpt lat="38.1693783" lon="15.7881983"><ele>699.0</ele><time>2026-04-06T10:23:16.171Z</time></trkpt><trkpt lat="38.1692767" lon="15.788295"><ele>699.0</ele><time>2026-04-06T10:23:17.171Z</time></trkpt><trkpt lat="38.1691933" lon="15.78841"><ele>701.6</ele><time>2026-04-06T10:23:18.171Z</time></trkpt><trkpt lat="38.1691267" lon="15.7885283"><ele>704.2</ele><time>2026-04-06T10:23:19.171Z</time></trkpt><trkpt lat="38.16908" lon="15.7885883"><ele>706.8000000000001</ele><time>2026-04-06T10:23:20.17Z</time></trkpt><trkpt lat="38.16899" lon="15.7886317"><ele>709.4000000000001</ele><time>2026-04-06T10:23:21.171Z</time></trkpt><trkpt lat="38.168905" lon="15.78863"><ele>712.0</ele><time>2026-04-06T10:23:22.171Z</time></trkpt><trkpt lat="38.1688017" lon="15.7886117"><ele>712.0</ele><time>2026-04-06T10:23:23.171Z</time></trkpt><trkpt lat="38.1687017" lon="15.7885917"><ele>712.0</ele><time>2026-04-06T10:23:24.171Z</time></trkpt><trkpt lat="38.168605" lon="15.7886117"><ele>712.0</ele><time>2026-04-06T10:23:25.171Z</time></trkpt><trkpt lat="38.1685133" lon="15.788655"><ele>712.0</ele><time>2026-04-06T10:23:26.171Z</time></trkpt><trkpt lat="38.168425" lon="15.788745"><ele>712.0</ele><time>2026-04-06T10:23:27.171Z</time></trkpt><trkpt lat="38.1683483" lon="15.7888667"><ele>712.0</ele><time>2026-04-06T10:23:28.171Z</time></trkpt><trkpt lat="38.1682733" lon="15.7889833"><ele>712.0</ele><time>2026-04-06T10:23:29.171Z</time></trkpt><trkpt lat="38.1681833" lon="15.7890933"><ele>712.0</ele><time>2026-04-06T10:23:30.171Z</time></trkpt><trkpt lat="38.1680933" lon="15.7892"><ele>712.0</ele><time>2026-04-06T10:23:31.171Z</time></trkpt><trkpt lat="38.1679967" lon="15.789295"><ele>712.75</ele><time>2026-04-06T10:23:32.17Z</time></trkpt><trkpt lat="38.1678933" lon="15.7894"><ele>713.5</ele><time>2026-04-06T10:23:33.171Z</time></trkpt><trkpt lat="38.16778" lon="15.7894983"><ele>714.25</ele><time>2026-04-06T10:23:34.171Z</time></trkpt><trkpt lat="38.167675" lon="15.789585"><ele>715.0</ele><time>2026-04-06T10:23:35.171Z</time></trkpt><trkpt lat="38.1675733" lon="15.78967"><ele>715.0</ele><time>2026-04-06T10:23:36.171Z</time></trkpt><trkpt lat="38.1674683" lon="15.7897633"><ele>715.0</ele><time>2026-04-06T10:23:37.171Z</time></trkpt><trkpt lat="38.1673667" lon="15.78983"><ele>715.0</ele><time>2026-04-06T10:23:38.171Z</time></trkpt><trkpt lat="38.16729" lon="15.7899033"><ele>715.0</ele><time>2026-04-06T10:23:39.171Z</time></trkpt><trkpt lat="38.16725" lon="15.7899717"><ele>715.0</ele><time>2026-04-06T10:23:40.171Z</time></trkpt><trkpt lat="38.167265" lon="15.790115"><ele>715.0</ele><time>2026-04-06T10:23:42.17Z</time></trkpt><trkpt lat="38.1673117" lon="15.790175"><ele>715.0</ele><time>2026-04-06T10:23:43.171Z</time></trkpt><trkpt lat="38.167405" lon="15.7901983"><ele>715.0</ele><time>2026-04-06T10:23:44.171Z</time></trkpt><trkpt lat="38.1675083" lon="15.790165"><ele>715.0</ele><time>2026-04-06T10:23:45.17Z</time></trkpt><trkpt lat="38.16766" lon="15.7901183"><ele>715.0</ele><time>2026-04-06T10:23:46.17Z</time></trkpt><trkpt lat="38.167795" lon="15.7900633"><ele>715.0</ele><time>2026-04-06T10:23:47.17Z</time></trkpt><trkpt lat="38.1679333" lon="15.7900267"><ele>715.0</ele><time>2026-04-06T10:23:48.17Z</time></trkpt><trkpt lat="38.1680667" lon="15.7899867"><ele>715.0</ele><time>2026-04-06T10:23:49.169Z</time></trkpt><trkpt lat="38.1681833" lon="15.78995"><ele>715.0</ele><time>2026-04-06T10:23:50.17Z</time></trkpt><trkpt lat="38.1683" lon="15.7898983"><ele>718.0</ele><time>2026-04-06T10:23:51.17Z</time></trkpt><trkpt lat="38.16841" lon="15.7898383"><ele>721.0</ele><time>2026-04-06T10:23:52.17Z</time></trkpt><trkpt lat="38.1685233" lon="15.7897883"><ele>724.0</ele><time>2026-04-06T10:23:53.17Z</time></trkpt><trkpt lat="38.1686267" lon="15.7897417"><ele>727.0</ele><time>2026-04-06T10:23:54.169Z</time></trkpt><trkpt lat="38.168735" lon="15.7897167"><ele>727.0</ele><time>2026-04-06T10:23:55.169Z</time></trkpt><trkpt lat="38.168855" lon="15.7896867"><ele>727.0</ele><time>2026-04-06T10:23:56.169Z</time></trkpt><trkpt lat="38.1689583" lon="15.7896467"><ele>727.0</ele><time>2026-04-06T10:23:57.169Z</time></trkpt><trkpt lat="38.1690283" lon="15.789575"><ele>727.0</ele><time>2026-04-06T10:23:58.169Z</time></trkpt><trkpt lat="38.1690833" lon="15.7894883"><ele>727.0</ele><time>2026-04-06T10:23:59.17Z</time></trkpt><trkpt lat="38.1691383" lon="15.78939"><ele>726.6666666666667</ele><time>2026-04-06T10:24:00.17Z</time></trkpt><trkpt lat="38.169195" lon="15.7892933"><ele>726.3333333333334</ele><time>2026-04-06T10:24:01.169Z</time></trkpt><trkpt lat="38.1692533" lon="15.7892183"><ele>726.0</ele><time>2026-04-06T10:24:02.17Z</time></trkpt><trkpt lat="38.1693067" lon="15.7891617"><ele>725.6666666666666</ele><time>2026-04-06T10:24:03.17Z</time></trkpt><trkpt lat="38.1693667" lon="15.7891267"><ele>725.3333333333333</ele><time>2026-04-06T10:24:04.169Z</time></trkpt><trkpt lat="38.16944" lon="15.7891467"><ele>725.0</ele><time>2026-04-06T10:24:05.169Z</time></trkpt><trkpt lat="38.1695183" lon="15.7892"><ele>725.0</ele><time>2026-04-06T10:24:06.17Z</time></trkpt><trkpt lat="38.16961" lon="15.789265"><ele>725.0</ele><time>2026-04-06T10:24:07.17Z</time></trkpt><trkpt lat="38.1697067" lon="15.7893567"><ele>725.0</ele><time>2026-04-06T10:24:08.169Z</time></trkpt><trkpt lat="38.16979" lon="15.789435"><ele>725.0</ele><time>2026-04-06T10:24:09.169Z</time></trkpt><trkpt lat="38.169865" lon="15.7895217"><ele>725.0</ele><time>2026-04-06T10:24:10.169Z</time></trkpt><trkpt lat="38.1699233" lon="15.7896033"><ele>728.6</ele><time>2026-04-06T10:24:11.17Z</time></trkpt><trkpt lat="38.1699817" lon="15.789645"><ele>732.2</ele><time>2026-04-06T10:24:12.169Z</time></trkpt><trkpt lat="38.170085" lon="15.789605"><ele>735.8</ele><time>2026-04-06T10:24:14.17Z</time></trkpt><trkpt lat="38.170085" lon="15.7894517"><ele>739.4</ele><time>2026-04-06T10:24:15.169Z</time></trkpt><trkpt lat="38.1700783" lon="15.7892983"><ele>743.0</ele><time>2026-04-06T10:24:16.17Z</time></trkpt><trkpt lat="38.170055" lon="15.789155"><ele>743.0</ele><time>2026-04-06T10:24:17.17Z</time></trkpt><trkpt lat="38.17001" lon="15.7890183"><ele>743.0</ele><time>2026-04-06T10:24:18.169Z</time></trkpt><trkpt lat="38.16996" lon="15.7889167"><ele>743.0</ele><time>2026-04-06T10:24:19.17Z</time></trkpt><trkpt lat="38.1699367" lon="15.7888117"><ele>743.0</ele><time>2026-04-06T10:24:20.17Z</time></trkpt><trkpt lat="38.1699567" lon="15.7886883"><ele>743.0</ele><time>2026-04-06T10:24:22.17Z</time></trkpt><trkpt lat="38.1700483" lon="15.7886983"><ele>743.0</ele><time>2026-04-06T10:24:24.17Z</time></trkpt><trkpt lat="38.17014" lon="15.78884"><ele>743.0</ele><time>2026-04-06T10:24:26.17Z</time></trkpt><trkpt lat="38.1702017" lon="15.7889767"><ele>743.0</ele><time>2026-04-06T10:24:27.17Z</time></trkpt><trkpt lat="38.1702717" lon="15.7891317"><ele>743.0</ele><time>2026-04-06T10:24:28.17Z</time></trkpt><trkpt lat="38.1703317" lon="15.7892867"><ele>744.75</ele><time>2026-04-06T10:24:29.17Z</time></trkpt><trkpt lat="38.1703933" lon="15.78942"><ele>746.5</ele><time>2026-04-06T10:24:30.17Z</time></trkpt><trkpt lat="38.1704483" lon="15.7895517"><ele>748.25</ele><time>2026-04-06T10:24:31.17Z</time></trkpt><trkpt lat="38.1705" lon="15.7896733"><ele>750.0</ele><time>2026-04-06T10:24:32.169Z</time></trkpt><trkpt lat="38.170545" lon="15.7897917"><ele>750.0</ele><time>2026-04-06T10:24:33.17Z</time></trkpt><trkpt lat="38.1705817" lon="15.7898867"><ele>750.0</ele><time>2026-04-06T10:24:34.169Z</time></trkpt><trkpt lat="38.170605" lon="15.78997"><ele>750.0</ele><time>2026-04-06T10:24:35.17Z</time></trkpt><trkpt lat="38.1705817" lon="15.7901033"><ele>750.0</ele><time>2026-04-06T10:24:37.169Z</time></trkpt><trkpt lat="38.1705333" lon="15.7901633"><ele>750.0</ele><time>2026-04-06T10:24:38.169Z</time></trkpt><trkpt lat="38.1704583" lon="15.7902217"><ele>750.0</ele><time>2026-04-06T10:24:39.169Z</time></trkpt><trkpt lat="38.1703617" lon="15.7902883"><ele>754.0</ele><time>2026-04-06T10:24:40.17Z</time></trkpt><trkpt lat="38.1702517" lon="15.7903283"><ele>758.0</ele><time>2026-04-06T10:24:41.17Z</time></trkpt><trkpt lat="38.1701483" lon="15.7903933"><ele>762.0</ele><time>2026-04-06T10:24:42.17Z</time></trkpt><trkpt lat="38.1700433" lon="15.7904433"><ele>766.0</ele><time>2026-04-06T10:24:43.17Z</time></trkpt><trkpt lat="38.1699417" lon="15.790505"><ele>762.8</ele><time>2026-04-06T10:24:44.169Z</time></trkpt><trkpt lat="38.1698467" lon="15.7905733"><ele>759.5999999999999</ele><time>2026-04-06T10:24:45.169Z</time></trkpt><trkpt lat="38.1697633" lon="15.7906517"><ele>756.4</ele><time>2026-04-06T10:24:46.17Z</time></trkpt><trkpt lat="38.1696867" lon="15.79074"><ele>753.2</ele><time>2026-04-06T10:24:47.17Z</time></trkpt><trkpt lat="38.169635" lon="15.790845"><ele>750.0</ele><time>2026-04-06T10:24:48.169Z</time></trkpt><trkpt lat="38.1696017" lon="15.79094"><ele>752.8333333333334</ele><time>2026-04-06T10:24:49.17Z</time></trkpt><trkpt lat="38.1695783" lon="15.7910383"><ele>755.6666666666666</ele><time>2026-04-06T10:24:50.17Z</time></trkpt><trkpt lat="38.1695833" lon="15.7911433"><ele>758.5</ele><time>2026-04-06T10:24:51.169Z</time></trkpt><trkpt lat="38.1696317" lon="15.791225"><ele>761.3333333333333</ele><time>2026-04-06T10:24:52.169Z</time></trkpt><trkpt lat="38.1697033" lon="15.791275"><ele>764.1666666666666</ele><time>2026-04-06T10:24:53.17Z</time></trkpt><trkpt lat="38.169795" lon="15.7913083"><ele>767.0</ele><time>2026-04-06T10:24:54.169Z</time></trkpt><trkpt lat="38.1698867" lon="15.7913367"><ele>770.2</ele><time>2026-04-06T10:24:55.17Z</time></trkpt><trkpt lat="38.16997" lon="15.7913783"><ele>773.4000000000001</ele><time>2026-04-06T10:24:56.169Z</time></trkpt><trkpt lat="38.1700317" lon="15.7914367"><ele>776.5999999999999</ele><time>2026-04-06T10:24:57.17Z</time></trkpt><trkpt lat="38.1700683" lon="15.791515"><ele>779.8</ele><time>2026-04-06T10:24:58.17Z</time></trkpt><trkpt lat="38.1700517" lon="15.7916233"><ele>783.0</ele><time>2026-04-06T10:25:00.17Z</time></trkpt><trkpt lat="38.1699217" lon="15.791675"><ele>779.8</ele><time>2026-04-06T10:25:02.17Z</time></trkpt><trkpt lat="38.1698083" lon="15.7916817"><ele>776.5999999999999</ele><time>2026-04-06T10:25:03.17Z</time></trkpt><trkpt lat="38.1697067" lon="15.791685"><ele>773.4000000000001</ele><time>2026-04-06T10:25:04.169Z</time></trkpt><trkpt lat="38.16961" lon="15.7916817"><ele>770.2</ele><time>2026-04-06T10:25:05.17Z</time></trkpt><trkpt lat="38.1695017" lon="15.791655"><ele>767.0</ele><time>2026-04-06T10:25:06.17Z</time></trkpt><trkpt lat="38.169405" lon="15.7916567"><ele>767.0</ele><time>2026-04-06T10:25:07.17Z</time></trkpt><trkpt lat="38.169315" lon="15.7916767"><ele>767.0</ele><time>2026-04-06T10:25:08.169Z</time></trkpt><trkpt lat="38.1692233" lon="15.7917183"><ele>767.0</ele><time>2026-04-06T10:25:09.17Z</time></trkpt><trkpt lat="38.1691433" lon="15.7917833"><ele>767.0</ele><time>2026-04-06T10:25:10.17Z</time></trkpt><trkpt lat="38.16907" lon="15.7918517"><ele>767.0</ele><time>2026-04-06T10:25:11.169Z</time></trkpt><trkpt lat="38.1690133" lon="15.79194"><ele>769.1666666666666</ele><time>2026-04-06T10:25:12.17Z</time></trkpt><trkpt lat="38.16899" lon="15.792045"><ele>771.3333333333333</ele><time>2026-04-06T10:25:13.169Z</time></trkpt><trkpt lat="38.1690117" lon="15.7921317"><ele>773.5</ele><time>2026-04-06T10:25:14.169Z</time></trkpt><trkpt lat="38.169095" lon="15.7921767"><ele>775.6666666666666</ele><time>2026-04-06T10:25:16.169Z</time></trkpt><trkpt lat="38.1691717" lon="15.7921383"><ele>777.8333333333334</ele><time>2026-04-06T10:25:17.17Z</time></trkpt><trkpt lat="38.1692783" lon="15.792075"><ele>780.0</ele><time>2026-04-06T10:25:18.17Z</time></trkpt><trkpt lat="38.169385" lon="15.7920233"><ele>780.0</ele><time>2026-04-06T10:25:19.169Z</time></trkpt><trkpt lat="38.1694983" lon="15.7919817"><ele>780.0</ele><time>2026-04-06T10:25:20.17Z</time></trkpt><trkpt lat="38.169615" lon="15.7919567"><ele>780.0</ele><time>2026-04-06T10:25:21.17Z</time></trkpt><trkpt lat="38.16973" lon="15.7919417"><ele>780.0</ele><time>2026-04-06T10:25:22.17Z</time></trkpt><trkpt lat="38.1698367" lon="15.7919317"><ele>784.0</ele><time>2026-04-06T10:25:23.169Z</time></trkpt><trkpt lat="38.1699467" lon="15.7919233"><ele>788.0</ele><time>2026-04-06T10:25:24.17Z</time></trkpt><trkpt lat="38.1700517" lon="15.7919133"><ele>792.0</ele><time>2026-04-06T10:25:25.17Z</time></trkpt><trkpt lat="38.170155" lon="15.791915"><ele>796.0</ele><time>2026-04-06T10:25:26.169Z</time></trkpt><trkpt lat="38.1702483" lon="15.7919483"><ele>800.0</ele><time>2026-04-06T10:25:27.169Z</time></trkpt><trkpt lat="38.17034" lon="15.79196"><ele>800.0</ele><time>2026-04-06T10:25:28.17Z</time></trkpt><trkpt lat="38.1704367" lon="15.7919417"><ele>800.0</ele><time>2026-04-06T10:25:29.17Z</time></trkpt><trkpt lat="38.17052" lon="15.7918767"><ele>800.0</ele><time>2026-04-06T10:25:30.169Z</time></trkpt><trkpt lat="38.1705767" lon="15.7917717"><ele>800.0</ele><time>2026-04-06T10:25:31.17Z</time></trkpt><trkpt lat="38.1706333" lon="15.7916733"><ele>800.0</ele><time>2026-04-06T10:25:32.17Z</time></trkpt><trkpt lat="38.1707033" lon="15.7915767"><ele>800.2</ele><time>2026-04-06T10:25:33.17Z</time></trkpt><trkpt lat="38.1707667" lon="15.7914667"><ele>800.4</ele><time>2026-04-06T10:25:34.17Z</time></trkpt><trkpt lat="38.17083" lon="15.7913483"><ele>800.5999999999999</ele><time>2026-04-06T10:25:35.169Z</time></trkpt><trkpt lat="38.1708767" lon="15.7912317"><ele>800.8</ele><time>2026-04-06T10:25:36.17Z</time></trkpt><trkpt lat="38.1709233" lon="15.7911217"><ele>801.0</ele><time>2026-04-06T10:25:37.17Z</time></trkpt><trkpt lat="38.17098" lon="15.7910267"><ele>797.4</ele><time>2026-04-06T10:25:38.169Z</time></trkpt><trkpt lat="38.171065" lon="15.790955"><ele>793.8</ele><time>2026-04-06T10:25:39.17Z</time></trkpt><trkpt lat="38.1711633" lon="15.7909"><ele>790.1999999999999</ele><time>2026-04-06T10:25:40.169Z</time></trkpt><trkpt lat="38.1712683" lon="15.7908567"><ele>786.5999999999999</ele><time>2026-04-06T10:25:41.17Z</time></trkpt><trkpt lat="38.171385" lon="15.790815"><ele>783.0</ele><time>2026-04-06T10:25:42.17Z</time></trkpt><trkpt lat="38.171495" lon="15.79078"><ele>788.4</ele><time>2026-04-06T10:25:43.17Z</time></trkpt><trkpt lat="38.1715917" lon="15.7907333"><ele>793.8</ele><time>2026-04-06T10:25:44.169Z</time></trkpt><trkpt lat="38.1716783" lon="15.7906633"><ele>799.2</ele><time>2026-04-06T10:25:45.17Z</time></trkpt><trkpt lat="38.171735" lon="15.7905717"><ele>804.6</ele><time>2026-04-06T10:25:46.17Z</time></trkpt><trkpt lat="38.1717733" lon="15.7904933"><ele>810.0</ele><time>2026-04-06T10:25:47.17Z</time></trkpt><trkpt lat="38.1718233" lon="15.7903783"><ele>810.0</ele><time>2026-04-06T10:25:49.17Z</time></trkpt><trkpt lat="38.1718683" lon="15.7903033"><ele>810.0</ele><time>2026-04-06T10:25:51.17Z</time></trkpt><trkpt lat="38.1719133" lon="15.7902217"><ele>810.0</ele><time>2026-04-06T10:25:53.169Z</time></trkpt><trkpt lat="38.1719917" lon="15.79013"><ele>810.0</ele><time>2026-04-06T10:25:55.17Z</time></trkpt><trkpt lat="38.1720917" lon="15.79004"><ele>810.0</ele><time>2026-04-06T10:25:57.17Z</time></trkpt><trkpt lat="38.17216" lon="15.7899883"><ele>811.4</ele><time>2026-04-06T10:25:58.169Z</time></trkpt><trkpt lat="38.1722367" lon="15.789955"><ele>812.8</ele><time>2026-04-06T10:25:59.17Z</time></trkpt><trkpt lat="38.1723217" lon="15.78991"><ele>814.2</ele><time>2026-04-06T10:26:00.17Z</time></trkpt><trkpt lat="38.17241" lon="15.7898667"><ele>815.6</ele><time>2026-04-06T10:26:01.17Z</time></trkpt><trkpt lat="38.1725" lon="15.7898217"><ele>817.0</ele><time>2026-04-06T10:26:02.169Z</time></trkpt><trkpt lat="38.1725833" lon="15.78979"><ele>817.0</ele><time>2026-04-06T10:26:03.17Z</time></trkpt><trkpt lat="38.1726717" lon="15.7897667"><ele>817.0</ele><time>2026-04-06T10:26:04.17Z</time></trkpt><trkpt lat="38.1727617" lon="15.7897633"><ele>817.0</ele><time>2026-04-06T10:26:05.169Z</time></trkpt><trkpt lat="38.1728533" lon="15.78977"><ele>817.0</ele><time>2026-04-06T10:26:06.17Z</time></trkpt><trkpt lat="38.1729483" lon="15.7897883"><ele>817.0</ele><time>2026-04-06T10:26:07.17Z</time></trkpt><trkpt lat="38.17304" lon="15.789805"><ele>816.9999999999999</ele><time>2026-04-06T10:26:08.17Z</time></trkpt><trkpt lat="38.1731167" lon="15.7898133"><ele>817.0</ele><time>2026-04-06T10:26:09.17Z</time></trkpt><trkpt lat="38.1731867" lon="15.7898217"><ele>817.0</ele><time>2026-04-06T10:26:10.169Z</time></trkpt><trkpt lat="38.1732867" lon="15.78983"><ele>817.0</ele><time>2026-04-06T10:26:12.169Z</time></trkpt><trkpt lat="38.1733517" lon="15.7898467"><ele>816.9999999999999</ele><time>2026-04-06T10:26:14.169Z</time></trkpt><trkpt lat="38.17343" lon="15.7899283"><ele>817.0</ele><time>2026-04-06T10:26:17.17Z</time></trkpt><trkpt lat="38.1734933" lon="15.7899717"><ele>820.4999999999999</ele><time>2026-04-06T10:26:19.17Z</time></trkpt><trkpt lat="38.1735617" lon="15.7899867"><ele>824.0</ele><time>2026-04-06T10:26:21.17Z</time></trkpt><trkpt lat="38.17363" lon="15.7899517"><ele>827.5</ele><time>2026-04-06T10:26:23.169Z</time></trkpt><trkpt lat="38.1736717" lon="15.7898717"><ele>831.0</ele><time>2026-04-06T10:26:25.17Z</time></trkpt><trkpt lat="38.1736933" lon="15.7897567"><ele>834.4999999999999</ele><time>2026-04-06T10:26:27.17Z</time></trkpt><trkpt lat="38.173725" lon="15.78964"><ele>838.0</ele><time>2026-04-06T10:26:29.169Z</time></trkpt><trkpt lat="38.1737767" lon="15.7894967"><ele>837.9999999999999</ele><time>2026-04-06T10:26:31.17Z</time></trkpt><trkpt lat="38.1737983" lon="15.78942"><ele>838.0</ele><time>2026-04-06T10:26:32.17Z</time></trkpt><trkpt lat="38.1738467" lon="15.78928"><ele>838.0</ele><time>2026-04-06T10:26:34.169Z</time></trkpt><trkpt lat="38.1738617" lon="15.7891983"><ele>838.0</ele><time>2026-04-06T10:26:35.17Z</time></trkpt><trkpt lat="38.17389" lon="15.7891233"><ele>837.9999999999999</ele><time>2026-04-06T10:26:36.169Z</time></trkpt><trkpt lat="38.1739167" lon="15.7890367"><ele>838.0</ele><time>2026-04-06T10:26:37.17Z</time></trkpt><trkpt lat="38.1739583" lon="15.788935"><ele>837.9999999999999</ele><time>2026-04-06T10:26:38.17Z</time></trkpt><trkpt lat="38.1739917" lon="15.7888617"><ele>838.0</ele><time>2026-04-06T10:26:39.17Z</time></trkpt><trkpt lat="38.174025" lon="15.78879"><ele>838.0</ele><time>2026-04-06T10:26:40.169Z</time></trkpt><trkpt lat="38.17406" lon="15.7887067"><ele>838.0</ele><time>2026-04-06T10:26:41.17Z</time></trkpt><trkpt lat="38.1741" lon="15.7886267"><ele>837.9999999999999</ele><time>2026-04-06T10:26:42.17Z</time></trkpt><trkpt lat="38.174145" lon="15.7885317"><ele>838.0</ele><time>2026-04-06T10:26:43.17Z</time></trkpt><trkpt lat="38.1742" lon="15.7884383"><ele>838.0</ele><time>2026-04-06T10:26:44.17Z</time></trkpt><trkpt lat="38.1742433" lon="15.7883433"><ele>838.0</ele><time>2026-04-06T10:26:45.17Z</time></trkpt><trkpt lat="38.1742967" lon="15.7882483"><ele>838.0</ele><time>2026-04-06T10:26:46.169Z</time></trkpt><trkpt lat="38.1743433" lon="15.7881517"><ele>838.0</ele><time>2026-04-06T10:26:47.17Z</time></trkpt><trkpt lat="38.1743883" lon="15.788045"><ele>838.0</ele><time>2026-04-06T10:26:48.17Z</time></trkpt><trkpt lat="38.1744217" lon="15.7879333"><ele>837.9999999999999</ele><time>2026-04-06T10:26:49.17Z</time></trkpt><trkpt lat="38.1744617" lon="15.7878317"><ele>838.0</ele><time>2026-04-06T10:26:50.169Z</time></trkpt><trkpt lat="38.1744967" lon="15.78774"><ele>838.0</ele><time>2026-04-06T10:26:51.17Z</time></trkpt><trkpt lat="38.1745383" lon="15.7876467"><ele>838.0</ele><time>2026-04-06T10:26:52.17Z</time></trkpt><trkpt lat="38.1745733" lon="15.787555"><ele>837.9999999999999</ele><time>2026-04-06T10:26:53.17Z</time></trkpt><trkpt lat="38.1746183" lon="15.7874467"><ele>838.0</ele><time>2026-04-06T10:26:54.17Z</time></trkpt><trkpt lat="38.1746683" lon="15.7873533"><ele>836.0</ele><time>2026-04-06T10:26:55.169Z</time></trkpt><trkpt lat="38.1747183" lon="15.78726"><ele>834.0</ele><time>2026-04-06T10:26:56.169Z</time></trkpt><trkpt lat="38.1747733" lon="15.7871567"><ele>832.0</ele><time>2026-04-06T10:26:57.17Z</time></trkpt><trkpt lat="38.1748233" lon="15.7870517"><ele>830.0</ele><time>2026-04-06T10:26:58.169Z</time></trkpt><trkpt lat="38.17487" lon="15.7869567"><ele>828.0</ele><time>2026-04-06T10:26:59.17Z</time></trkpt><trkpt lat="38.1749233" lon="15.7868567"><ele>831.8</ele><time>2026-04-06T10:27:00.17Z</time></trkpt><trkpt lat="38.1749917" lon="15.7867583"><ele>835.5999999999999</ele><time>2026-04-06T10:27:01.17Z</time></trkpt><trkpt lat="38.1750667" lon="15.7866617"><ele>839.4000000000001</ele><time>2026-04-06T10:27:02.169Z</time></trkpt><trkpt lat="38.17514" lon="15.7865717"><ele>843.2</ele><time>2026-04-06T10:27:03.17Z</time></trkpt><trkpt lat="38.17521" lon="15.7864683"><ele>847.0</ele><time>2026-04-06T10:27:04.169Z</time></trkpt><trkpt lat="38.175285" lon="15.7863817"><ele>847.0</ele><time>2026-04-06T10:27:05.169Z</time></trkpt><trkpt lat="38.1753517" lon="15.7862967"><ele>847.0</ele><time>2026-04-06T10:27:06.17Z</time></trkpt><trkpt lat="38.175425" lon="15.7861967"><ele>847.0</ele><time>2026-04-06T10:27:07.17Z</time></trkpt><trkpt lat="38.1755033" lon="15.7860967"><ele>847.0</ele><time>2026-04-06T10:27:08.17Z</time></trkpt><trkpt lat="38.1755833" lon="15.7860033"><ele>847.0</ele><time>2026-04-06T10:27:09.169Z</time></trkpt><trkpt lat="38.1756767" lon="15.7859183"><ele>849.2</ele><time>2026-04-06T10:27:10.17Z</time></trkpt><trkpt lat="38.1757717" lon="15.7858333"><ele>851.4000000000001</ele><time>2026-04-06T10:27:11.17Z</time></trkpt><trkpt lat="38.175865" lon="15.78577"><ele>853.5999999999999</ele><time>2026-04-06T10:27:12.169Z</time></trkpt><trkpt lat="38.175955" lon="15.7857233"><ele>855.8</ele><time>2026-04-06T10:27:13.169Z</time></trkpt><trkpt lat="38.176035" lon="15.7857167"><ele>858.0</ele><time>2026-04-06T10:27:14.169Z</time></trkpt><trkpt lat="38.1761033" lon="15.7857417"><ele>858.0</ele><time>2026-04-06T10:27:15.17Z</time></trkpt><trkpt lat="38.1761533" lon="15.7857983"><ele>858.0</ele><time>2026-04-06T10:27:16.169Z</time></trkpt><trkpt lat="38.176175" lon="15.7859467"><ele>858.0</ele><time>2026-04-06T10:27:18.17Z</time></trkpt><trkpt lat="38.1761433" lon="15.78603"><ele>858.0</ele><time>2026-04-06T10:27:19.17Z</time></trkpt><trkpt lat="38.1760783" lon="15.7861417"><ele>858.0</ele><time>2026-04-06T10:27:20.17Z</time></trkpt><trkpt lat="38.1759967" lon="15.7862533"><ele>860.0</ele><time>2026-04-06T10:27:21.169Z</time></trkpt><trkpt lat="38.1759167" lon="15.7863933"><ele>862.0</ele><time>2026-04-06T10:27:22.17Z</time></trkpt><trkpt lat="38.1758467" lon="15.7865433"><ele>864.0</ele><time>2026-04-06T10:27:23.17Z</time></trkpt><trkpt lat="38.1757917" lon="15.7866883"><ele>866.0</ele><time>2026-04-06T10:27:24.17Z</time></trkpt><trkpt lat="38.1757383" lon="15.7868433"><ele>864.25</ele><time>2026-04-06T10:27:25.17Z</time></trkpt><trkpt lat="38.1756883" lon="15.7869917"><ele>862.5</ele><time>2026-04-06T10:27:26.17Z</time></trkpt><trkpt lat="38.1756467" lon="15.787145"><ele>860.75</ele><time>2026-04-06T10:27:27.17Z</time></trkpt><trkpt lat="38.1756067" lon="15.7872967"><ele>859.0</ele><time>2026-04-06T10:27:28.169Z</time></trkpt><trkpt lat="38.1755667" lon="15.7874433"><ele>859.0</ele><time>2026-04-06T10:27:29.17Z</time></trkpt><trkpt lat="38.1755283" lon="15.7875833"><ele>859.0000000000001</ele><time>2026-04-06T10:27:30.169Z</time></trkpt><trkpt lat="38.175495" lon="15.78772"><ele>859.0000000000001</ele><time>2026-04-06T10:27:31.17Z</time></trkpt><trkpt lat="38.1754583" lon="15.7878533"><ele>859.0</ele><time>2026-04-06T10:27:32.169Z</time></trkpt><trkpt lat="38.175425" lon="15.7879833"><ele>859.0</ele><time>2026-04-06T10:27:33.17Z</time></trkpt><trkpt lat="38.1753917" lon="15.78811"><ele>860.8000000000001</ele><time>2026-04-06T10:27:34.169Z</time></trkpt><trkpt lat="38.1753633" lon="15.7882267"><ele>862.6000000000001</ele><time>2026-04-06T10:27:35.17Z</time></trkpt><trkpt lat="38.1753467" lon="15.7883433"><ele>864.4</ele><time>2026-04-06T10:27:36.17Z</time></trkpt><trkpt lat="38.175335" lon="15.7884533"><ele>866.2</ele><time>2026-04-06T10:27:37.17Z</time></trkpt><trkpt lat="38.1753083" lon="15.7885583"><ele>868.0</ele><time>2026-04-06T10:27:38.17Z</time></trkpt><trkpt lat="38.17528" lon="15.7886667"><ele>869.8333333333333</ele><time>2026-04-06T10:27:39.169Z</time></trkpt><trkpt lat="38.1752417" lon="15.7887583"><ele>871.6666666666666</ele><time>2026-04-06T10:27:40.17Z</time></trkpt><trkpt lat="38.1752217" lon="15.78885"><ele>873.5</ele><time>2026-04-06T10:27:41.17Z</time></trkpt><trkpt lat="38.175205" lon="15.7889433"><ele>875.3333333333333</ele><time>2026-04-06T10:27:42.17Z</time></trkpt><trkpt lat="38.1751883" lon="15.7890383"><ele>877.1666666666666</ele><time>2026-04-06T10:27:43.17Z</time></trkpt><trkpt lat="38.1751767" lon="15.789125"><ele>879.0</ele><time>2026-04-06T10:27:44.17Z</time></trkpt><trkpt lat="38.17515" lon="15.7892667"><ele>881.1666666666666</ele><time>2026-04-06T10:27:46.17Z</time></trkpt><trkpt lat="38.17514" lon="15.7893583"><ele>883.3333333333333</ele><time>2026-04-06T10:27:48.17Z</time></trkpt><trkpt lat="38.175135" lon="15.7894467"><ele>885.5</ele><time>2026-04-06T10:27:50.169Z</time></trkpt><trkpt lat="38.175105" lon="15.7895433"><ele>887.6666666666666</ele><time>2026-04-06T10:27:52.17Z</time></trkpt><trkpt lat="38.175055" lon="15.7896433"><ele>889.8333333333333</ele><time>2026-04-06T10:27:54.17Z</time></trkpt><trkpt lat="38.1749717" lon="15.789745"><ele>892.0</ele><time>2026-04-06T10:27:56.17Z</time></trkpt><trkpt lat="38.1749217" lon="15.7898117"><ele>891.9999999999999</ele><time>2026-04-06T10:27:57.17Z</time></trkpt><trkpt lat="38.1748683" lon="15.7898933"><ele>892.0</ele><time>2026-04-06T10:27:58.17Z</time></trkpt><trkpt lat="38.1748217" lon="15.7899917"><ele>892.0</ele><time>2026-04-06T10:27:59.17Z</time></trkpt><trkpt lat="38.174795" lon="15.7900933"><ele>892.0</ele><time>2026-04-06T10:28:00.17Z</time></trkpt><trkpt lat="38.174785" lon="15.7902"><ele>891.9999999999999</ele><time>2026-04-06T10:28:01.17Z</time></trkpt><trkpt lat="38.17478" lon="15.79032"><ele>892.0</ele><time>2026-04-06T10:28:02.17Z</time></trkpt><trkpt lat="38.1747817" lon="15.790435"><ele>892.6666666666666</ele><time>2026-04-06T10:28:03.169Z</time></trkpt><trkpt lat="38.174785" lon="15.7905467"><ele>893.3333333333333</ele><time>2026-04-06T10:28:04.17Z</time></trkpt><trkpt lat="38.1747883" lon="15.7906533"><ele>894.0</ele><time>2026-04-06T10:28:05.169Z</time></trkpt><trkpt lat="38.17478" lon="15.7907583"><ele>894.6666666666667</ele><time>2026-04-06T10:28:06.17Z</time></trkpt><trkpt lat="38.1747583" lon="15.790865"><ele>895.3333333333334</ele><time>2026-04-06T10:28:07.17Z</time></trkpt><trkpt lat="38.1747167" lon="15.790965"><ele>896.0</ele><time>2026-04-06T10:28:08.169Z</time></trkpt><trkpt lat="38.1746467" lon="15.7910467"><ele>896.0</ele><time>2026-04-06T10:28:09.17Z</time></trkpt><trkpt lat="38.174575" lon="15.7911183"><ele>895.9999999999999</ele><time>2026-04-06T10:28:10.17Z</time></trkpt><trkpt lat="38.17451" lon="15.7912133"><ele>895.9999999999999</ele><time>2026-04-06T10:28:11.17Z</time></trkpt><trkpt lat="38.174465" lon="15.7913117"><ele>896.0</ele><time>2026-04-06T10:28:12.169Z</time></trkpt><trkpt lat="38.17443" lon="15.7914133"><ele>896.0</ele><time>2026-04-06T10:28:13.17Z</time></trkpt><trkpt lat="38.1744067" lon="15.791515"><ele>896.0</ele><time>2026-04-06T10:28:14.17Z</time></trkpt><trkpt lat="38.1743867" lon="15.79163"><ele>895.9999999999999</ele><time>2026-04-06T10:28:15.17Z</time></trkpt><trkpt lat="38.1743733" lon="15.7917567"><ele>895.9999999999999</ele><time>2026-04-06T10:28:16.169Z</time></trkpt><trkpt lat="38.1743617" lon="15.79188"><ele>896.0</ele><time>2026-04-06T10:28:17.169Z</time></trkpt><trkpt lat="38.1743583" lon="15.7919967"><ele>896.0</ele><time>2026-04-06T10:28:18.17Z</time></trkpt><trkpt lat="38.1743567" lon="15.7921183"><ele>897.6666666666667</ele><time>2026-04-06T10:28:19.169Z</time></trkpt><trkpt lat="38.17434" lon="15.7922317"><ele>899.3333333333334</ele><time>2026-04-06T10:28:20.17Z</time></trkpt><trkpt lat="38.17433" lon="15.7923367"><ele>901.0</ele><time>2026-04-06T10:28:21.169Z</time></trkpt><trkpt lat="38.17432" lon="15.7924467"><ele>902.6666666666667</ele><time>2026-04-06T10:28:22.17Z</time></trkpt><trkpt lat="38.1743" lon="15.7925567"><ele>904.3333333333334</ele><time>2026-04-06T10:28:23.17Z</time></trkpt><trkpt lat="38.1742683" lon="15.792665"><ele>906.0</ele><time>2026-04-06T10:28:24.169Z</time></trkpt><trkpt lat="38.174215" lon="15.792765"><ele>903.5999999999999</ele><time>2026-04-06T10:28:25.17Z</time></trkpt><trkpt lat="38.1741483" lon="15.792845"><ele>901.1999999999999</ele><time>2026-04-06T10:28:26.17Z</time></trkpt><trkpt lat="38.1740767" lon="15.7929183"><ele>898.8000000000001</ele><time>2026-04-06T10:28:27.169Z</time></trkpt><trkpt lat="38.1739983" lon="15.7929883"><ele>896.4000000000001</ele><time>2026-04-06T10:28:28.17Z</time></trkpt><trkpt lat="38.1739283" lon="15.7930767"><ele>894.0</ele><time>2026-04-06T10:28:29.17Z</time></trkpt><trkpt lat="38.173875" lon="15.7931917"><ele>894.0</ele><time>2026-04-06T10:28:30.17Z</time></trkpt><trkpt lat="38.1738333" lon="15.793325"><ele>894.0</ele><time>2026-04-06T10:28:31.17Z</time></trkpt><trkpt lat="38.1737933" lon="15.7934583"><ele>894.0</ele><time>2026-04-06T10:28:32.17Z</time></trkpt><trkpt lat="38.17375" lon="15.793595"><ele>894.0</ele><time>2026-04-06T10:28:33.169Z</time></trkpt><trkpt lat="38.173695" lon="15.79373"><ele>898.25</ele><time>2026-04-06T10:28:34.17Z</time></trkpt><trkpt lat="38.1736417" lon="15.793865"><ele>902.5</ele><time>2026-04-06T10:28:35.17Z</time></trkpt><trkpt lat="38.173595" lon="15.7940083"><ele>906.75</ele><time>2026-04-06T10:28:36.17Z</time></trkpt><trkpt lat="38.173545" lon="15.794145"><ele>911.0</ele><time>2026-04-06T10:28:37.17Z</time></trkpt><trkpt lat="38.1734933" lon="15.7942883"><ele>915.25</ele><time>2026-04-06T10:28:38.169Z</time></trkpt><trkpt lat="38.173445" lon="15.7944467"><ele>919.5</ele><time>2026-04-06T10:28:39.17Z</time></trkpt><trkpt lat="38.1734" lon="15.7945883"><ele>923.75</ele><time>2026-04-06T10:28:40.169Z</time></trkpt><trkpt lat="38.1733467" lon="15.7947533"><ele>928.0</ele><time>2026-04-06T10:28:41.17Z</time></trkpt><trkpt lat="38.1733017" lon="15.7949117"><ele>928.0</ele><time>2026-04-06T10:28:42.17Z</time></trkpt><trkpt lat="38.173245" lon="15.7950567"><ele>928.0</ele><time>2026-04-06T10:28:43.17Z</time></trkpt><trkpt lat="38.173195" lon="15.7952167"><ele>928.0</ele><time>2026-04-06T10:28:44.17Z</time></trkpt><trkpt lat="38.1731383" lon="15.7953733"><ele>928.0</ele><time>2026-04-06T10:28:45.169Z</time></trkpt><trkpt lat="38.173085" lon="15.7955233"><ele>924.75</ele><time>2026-04-06T10:28:46.17Z</time></trkpt><trkpt lat="38.173045" lon="15.7956733"><ele>921.5</ele><time>2026-04-06T10:28:47.17Z</time></trkpt><trkpt lat="38.1730267" lon="15.79583"><ele>918.25</ele><time>2026-04-06T10:28:48.17Z</time></trkpt><trkpt lat="38.1730483" lon="15.7959867"><ele>915.0</ele><time>2026-04-06T10:28:49.17Z</time></trkpt><trkpt lat="38.1730933" lon="15.79614"><ele>915.0</ele><time>2026-04-06T10:28:50.17Z</time></trkpt><trkpt lat="38.1731233" lon="15.7962833"><ele>915.0</ele><time>2026-04-06T10:28:51.17Z</time></trkpt><trkpt lat="38.1731467" lon="15.7964433"><ele>915.0</ele><time>2026-04-06T10:28:52.17Z</time></trkpt><trkpt lat="38.17315" lon="15.7966033"><ele>915.0</ele><time>2026-04-06T10:28:53.169Z</time></trkpt><trkpt lat="38.17314" lon="15.7967633"><ele>917.0</ele><time>2026-04-06T10:28:54.17Z</time></trkpt><trkpt lat="38.1731133" lon="15.7969167"><ele>919.0</ele><time>2026-04-06T10:28:55.169Z</time></trkpt><trkpt lat="38.1730783" lon="15.7970683"><ele>921.0</ele><time>2026-04-06T10:28:56.17Z</time></trkpt><trkpt lat="38.1730433" lon="15.79723"><ele>923.0</ele><time>2026-04-06T10:28:57.169Z</time></trkpt><trkpt lat="38.1729967" lon="15.797385"><ele>923.0</ele><time>2026-04-06T10:28:58.17Z</time></trkpt><trkpt lat="38.17293" lon="15.797525"><ele>923.0</ele><time>2026-04-06T10:28:59.17Z</time></trkpt><trkpt lat="38.172845" lon="15.7976467"><ele>923.0</ele><time>2026-04-06T10:29:00.17Z</time></trkpt><trkpt lat="38.1727733" lon="15.797765"><ele>923.0</ele><time>2026-04-06T10:29:01.17Z</time></trkpt><trkpt lat="38.1727417" lon="15.797875"><ele>925.0</ele><time>2026-04-06T10:29:02.169Z</time></trkpt><trkpt lat="38.1727533" lon="15.7979717"><ele>927.0</ele><time>2026-04-06T10:29:03.17Z</time></trkpt><trkpt lat="38.1728317" lon="15.7980417"><ele>929.0</ele><time>2026-04-06T10:29:05.17Z</time></trkpt><trkpt lat="38.172895" lon="15.797995"><ele>931.0</ele><time>2026-04-06T10:29:06.17Z</time></trkpt><trkpt lat="38.172965" lon="15.797905"><ele>933.0</ele><time>2026-04-06T10:29:07.17Z</time></trkpt><trkpt lat="38.1730417" lon="15.797785"><ele>930.5</ele><time>2026-04-06T10:29:08.17Z</time></trkpt><trkpt lat="38.1731217" lon="15.797655"><ele>928.0</ele><time>2026-04-06T10:29:09.169Z</time></trkpt><trkpt lat="38.173205" lon="15.79754"><ele>925.5</ele><time>2026-04-06T10:29:10.17Z</time></trkpt><trkpt lat="38.17328" lon="15.797425"><ele>923.0</ele><time>2026-04-06T10:29:11.169Z</time></trkpt><trkpt lat="38.173355" lon="15.7973267"><ele>928.25</ele><time>2026-04-06T10:29:12.17Z</time></trkpt><trkpt lat="38.173425" lon="15.79722"><ele>933.5</ele><time>2026-04-06T10:29:13.17Z</time></trkpt><trkpt lat="38.1735" lon="15.7970933"><ele>938.75</ele><time>2026-04-06T10:29:14.169Z</time></trkpt><trkpt lat="38.17356" lon="15.79696"><ele>944.0</ele><time>2026-04-06T10:29:15.17Z</time></trkpt><trkpt lat="38.173605" lon="15.796815"><ele>944.0</ele><time>2026-04-06T10:29:16.169Z</time></trkpt><trkpt lat="38.1736467" lon="15.796655"><ele>944.0</ele><time>2026-04-06T10:29:17.17Z</time></trkpt><trkpt lat="38.1736883" lon="15.796495"><ele>944.0</ele><time>2026-04-06T10:29:18.17Z</time></trkpt><trkpt lat="38.1737333" lon="15.7963183"><ele>944.0</ele><time>2026-04-06T10:29:19.17Z</time></trkpt><trkpt lat="38.1737883" lon="15.79615"><ele>943.5</ele><time>2026-04-06T10:29:20.17Z</time></trkpt><trkpt lat="38.1738433" lon="15.7959883"><ele>943.0</ele><time>2026-04-06T10:29:21.17Z</time></trkpt><trkpt lat="38.1739033" lon="15.7958333"><ele>942.5</ele><time>2026-04-06T10:29:22.169Z</time></trkpt><trkpt lat="38.1739567" lon="15.795685"><ele>942.0</ele><time>2026-04-06T10:29:23.17Z</time></trkpt><trkpt lat="38.1740017" lon="15.795545"><ele>946.5</ele><time>2026-04-06T10:29:24.17Z</time></trkpt><trkpt lat="38.17404" lon="15.795425"><ele>951.0</ele><time>2026-04-06T10:29:25.17Z</time></trkpt><trkpt lat="38.17407" lon="15.7953233"><ele>955.5</ele><time>2026-04-06T10:29:26.17Z</time></trkpt><trkpt lat="38.17411" lon="15.795235"><ele>960.0</ele><time>2026-04-06T10:29:27.17Z</time></trkpt><trkpt lat="38.17416" lon="15.79517"><ele>964.5</ele><time>2026-04-06T10:29:28.169Z</time></trkpt><trkpt lat="38.1742633" lon="15.79519"><ele>969.0</ele><time>2026-04-06T10:29:30.17Z</time></trkpt><trkpt lat="38.17429" lon="15.7952633"><ele>969.3333333333334</ele><time>2026-04-06T10:29:31.17Z</time></trkpt><trkpt lat="38.1742883" lon="15.7953483"><ele>969.6666666666667</ele><time>2026-04-06T10:29:32.169Z</time></trkpt><trkpt lat="38.1742617" lon="15.7954433"><ele>970.0</ele><time>2026-04-06T10:29:33.169Z</time></trkpt><trkpt lat="38.1742317" lon="15.7955517"><ele>970.3333333333334</ele><time>2026-04-06T10:29:34.17Z</time></trkpt><trkpt lat="38.1742067" lon="15.7956683"><ele>970.6666666666667</ele><time>2026-04-06T10:29:35.169Z</time></trkpt><trkpt lat="38.1741817" lon="15.7957867"><ele>971.0</ele><time>2026-04-06T10:29:36.17Z</time></trkpt><trkpt lat="38.1741717" lon="15.795935"><ele>971.25</ele><time>2026-04-06T10:29:37.169Z</time></trkpt><trkpt lat="38.174165" lon="15.796105"><ele>971.5</ele><time>2026-04-06T10:29:38.169Z</time></trkpt><trkpt lat="38.1741617" lon="15.796275"><ele>971.75</ele><time>2026-04-06T10:29:39.169Z</time></trkpt><trkpt lat="38.1741567" lon="15.7964367"><ele>972.0</ele><time>2026-04-06T10:29:40.17Z</time></trkpt><trkpt lat="38.174155" lon="15.796595"><ele>972.0</ele><time>2026-04-06T10:29:41.17Z</time></trkpt><trkpt lat="38.1741733" lon="15.7967467"><ele>972.0</ele><time>2026-04-06T10:29:42.17Z</time></trkpt><trkpt lat="38.1742033" lon="15.796895"><ele>972.0</ele><time>2026-04-06T10:29:43.17Z</time></trkpt><trkpt lat="38.1742617" lon="15.79702"><ele>972.0</ele><time>2026-04-06T10:29:44.17Z</time></trkpt><trkpt lat="38.1743383" lon="15.7971267"><ele>972.75</ele><time>2026-04-06T10:29:45.17Z</time></trkpt><trkpt lat="38.1744167" lon="15.7972267"><ele>973.5</ele><time>2026-04-06T10:29:46.169Z</time></trkpt><trkpt lat="38.1744933" lon="15.797355"><ele>974.25</ele><time>2026-04-06T10:29:47.17Z</time></trkpt><trkpt lat="38.174545" lon="15.7974883"><ele>975.0</ele><time>2026-04-06T10:29:48.17Z</time></trkpt><trkpt lat="38.1745667" lon="15.79763"><ele>975.75</ele><time>2026-04-06T10:29:49.17Z</time></trkpt><trkpt lat="38.1745667" lon="15.7977883"><ele>976.5</ele><time>2026-04-06T10:29:50.17Z</time></trkpt><trkpt lat="38.1745467" lon="15.7979583"><ele>977.25</ele><time>2026-04-06T10:29:51.17Z</time></trkpt><trkpt lat="38.174525" lon="15.7981283"><ele>978.0</ele><time>2026-04-06T10:29:52.169Z</time></trkpt><trkpt lat="38.1745033" lon="15.79829"><ele>978.0</ele><time>2026-04-06T10:29:53.17Z</time></trkpt><trkpt lat="38.1744883" lon="15.7984517"><ele>978.0</ele><time>2026-04-06T10:29:54.17Z</time></trkpt><trkpt lat="38.1744717" lon="15.79862"><ele>978.0</ele><time>2026-04-06T10:29:55.17Z</time></trkpt><trkpt lat="38.1744583" lon="15.7987883"><ele>978.0</ele><time>2026-04-06T10:29:56.169Z</time></trkpt><trkpt lat="38.1744583" lon="15.7989567"><ele>979.0</ele><time>2026-04-06T10:29:57.169Z</time></trkpt><trkpt lat="38.17447" lon="15.799145"><ele>980.0</ele><time>2026-04-06T10:29:58.17Z</time></trkpt><trkpt lat="38.1745" lon="15.7993267"><ele>981.0</ele><time>2026-04-06T10:29:59.17Z</time></trkpt><trkpt lat="38.1745533" lon="15.7995083"><ele>982.0</ele><time>2026-04-06T10:30:00.17Z</time></trkpt><trkpt lat="38.174605" lon="15.7996933"><ele>983.75</ele><time>2026-04-06T10:30:01.17Z</time></trkpt><trkpt lat="38.174645" lon="15.799865"><ele>985.5</ele><time>2026-04-06T10:30:02.17Z</time></trkpt><trkpt lat="38.174675" lon="15.8000333"><ele>987.25</ele><time>2026-04-06T10:30:03.169Z</time></trkpt><trkpt lat="38.174675" lon="15.800205"><ele>989.0</ele><time>2026-04-06T10:30:04.169Z</time></trkpt><trkpt lat="38.1746517" lon="15.8003617"><ele>990.75</ele><time>2026-04-06T10:30:05.17Z</time></trkpt><trkpt lat="38.17462" lon="15.80052"><ele>992.5</ele><time>2026-04-06T10:30:06.17Z</time></trkpt><trkpt lat="38.1746017" lon="15.80069"><ele>994.25</ele><time>2026-04-06T10:30:07.17Z</time></trkpt><trkpt lat="38.1745833" lon="15.8008533"><ele>996.0</ele><time>2026-04-06T10:30:08.17Z</time></trkpt><trkpt lat="38.1745717" lon="15.8010183"><ele>997.5</ele><time>2026-04-06T10:30:09.17Z</time></trkpt><trkpt lat="38.1745617" lon="15.8011933"><ele>999.0</ele><time>2026-04-06T10:30:10.17Z</time></trkpt><trkpt lat="38.174555" lon="15.8013733"><ele>1000.5</ele><time>2026-04-06T10:30:11.169Z</time></trkpt><trkpt lat="38.174545" lon="15.801545"><ele>1002.0</ele><time>2026-04-06T10:30:12.17Z</time></trkpt><trkpt lat="38.1745283" lon="15.801725"><ele>1003.5</ele><time>2026-04-06T10:30:13.169Z</time></trkpt><trkpt lat="38.1744883" lon="15.8019"><ele>1005.0</ele><time>2026-04-06T10:30:14.169Z</time></trkpt><trkpt lat="38.17443" lon="15.8020667"><ele>1006.5</ele><time>2026-04-06T10:30:15.17Z</time></trkpt><trkpt lat="38.174365" lon="15.8022267"><ele>1008.0</ele><time>2026-04-06T10:30:16.17Z</time></trkpt><trkpt lat="38.1742933" lon="15.8023767"><ele>1008.0</ele><time>2026-04-06T10:30:17.169Z</time></trkpt><trkpt lat="38.1742267" lon="15.8025217"><ele>1008.0</ele><time>2026-04-06T10:30:18.17Z</time></trkpt><trkpt lat="38.174195" lon="15.802665"><ele>1008.0</ele><time>2026-04-06T10:30:19.17Z</time></trkpt><trkpt lat="38.1742033" lon="15.8028183"><ele>1008.0</ele><time>2026-04-06T10:30:20.17Z</time></trkpt><trkpt lat="38.174255" lon="15.802955"><ele>1008.5999999999999</ele><time>2026-04-06T10:30:21.17Z</time></trkpt><trkpt lat="38.1743333" lon="15.8030517"><ele>1009.1999999999999</ele><time>2026-04-06T10:30:22.17Z</time></trkpt><trkpt lat="38.1744383" lon="15.8030967"><ele>1009.8</ele><time>2026-04-06T10:30:23.169Z</time></trkpt><trkpt lat="38.1745467" lon="15.8031033"><ele>1010.4</ele><time>2026-04-06T10:30:24.17Z</time></trkpt><trkpt lat="38.17465" lon="15.80307"><ele>1011.0</ele><time>2026-04-06T10:30:25.17Z</time></trkpt><trkpt lat="38.174745" lon="15.8030083"><ele>1011.0</ele><time>2026-04-06T10:30:26.17Z</time></trkpt><trkpt lat="38.174815" lon="15.80291"><ele>1011.0</ele><time>2026-04-06T10:30:27.17Z</time></trkpt><trkpt lat="38.1748783" lon="15.80278"><ele>1011.0</ele><time>2026-04-06T10:30:28.17Z</time></trkpt><trkpt lat="38.1749483" lon="15.80266"><ele>1011.0</ele><time>2026-04-06T10:30:29.17Z</time></trkpt><trkpt lat="38.1750317" lon="15.80253"><ele>1014.0</ele><time>2026-04-06T10:30:30.17Z</time></trkpt><trkpt lat="38.1751133" lon="15.8023933"><ele>1017.0</ele><time>2026-04-06T10:30:31.17Z</time></trkpt><trkpt lat="38.175185" lon="15.8022683"><ele>1020.0</ele><time>2026-04-06T10:30:32.17Z</time></trkpt><trkpt lat="38.1752383" lon="15.8021317"><ele>1023.0</ele><time>2026-04-06T10:30:33.17Z</time></trkpt><trkpt lat="38.175275" lon="15.8019933"><ele>1023.0</ele><time>2026-04-06T10:30:34.17Z</time></trkpt><trkpt lat="38.1752967" lon="15.80184"><ele>1023.0</ele><time>2026-04-06T10:30:35.169Z</time></trkpt><trkpt lat="38.1753033" lon="15.8016717"><ele>1023.0</ele><time>2026-04-06T10:30:36.17Z</time></trkpt><trkpt lat="38.1752883" lon="15.8014983"><ele>1023.0</ele><time>2026-04-06T10:30:37.17Z</time></trkpt><trkpt lat="38.17527" lon="15.8013317"><ele>1023.0</ele><time>2026-04-06T10:30:38.17Z</time></trkpt><trkpt lat="38.1752533" lon="15.8011667"><ele>1023.0</ele><time>2026-04-06T10:30:39.17Z</time></trkpt><trkpt lat="38.1752333" lon="15.8010183"><ele>1023.0</ele><time>2026-04-06T10:30:40.17Z</time></trkpt><trkpt lat="38.1752283" lon="15.8008833"><ele>1023.0</ele><time>2026-04-06T10:30:41.17Z</time></trkpt><trkpt lat="38.1752483" lon="15.8007617"><ele>1023.0</ele><time>2026-04-06T10:30:42.17Z</time></trkpt><trkpt lat="38.175285" lon="15.8006483"><ele>1023.0</ele><time>2026-04-06T10:30:43.17Z</time></trkpt><trkpt lat="38.1753367" lon="15.80055"><ele>1023.0</ele><time>2026-04-06T10:30:44.17Z</time></trkpt><trkpt lat="38.1753933" lon="15.8004383"><ele>1023.0</ele><time>2026-04-06T10:30:45.169Z</time></trkpt><trkpt lat="38.1754433" lon="15.8003333"><ele>1023.0</ele><time>2026-04-06T10:30:46.169Z</time></trkpt><trkpt lat="38.17549" lon="15.8002433"><ele>1022.1666666666666</ele><time>2026-04-06T10:30:47.169Z</time></trkpt><trkpt lat="38.1755383" lon="15.8001633"><ele>1021.3333333333333</ele><time>2026-04-06T10:30:48.169Z</time></trkpt><trkpt lat="38.1755917" lon="15.8001"><ele>1020.5</ele><time>2026-04-06T10:30:49.17Z</time></trkpt><trkpt lat="38.1757" lon="15.80006"><ele>1019.6666666666666</ele><time>2026-04-06T10:30:51.17Z</time></trkpt><trkpt lat="38.1757617" lon="15.8001067"><ele>1018.8333333333333</ele><time>2026-04-06T10:30:52.17Z</time></trkpt><trkpt lat="38.1757917" lon="15.8001933"><ele>1018.0</ele><time>2026-04-06T10:30:53.17Z</time></trkpt><trkpt lat="38.1758083" lon="15.800325"><ele>1026.0</ele><time>2026-04-06T10:30:54.17Z</time></trkpt><trkpt lat="38.175815" lon="15.8004933"><ele>1034.0</ele><time>2026-04-06T10:30:55.17Z</time></trkpt><trkpt lat="38.1757967" lon="15.8006917"><ele>1042.0</ele><time>2026-04-06T10:30:56.169Z</time></trkpt><trkpt lat="38.1757867" lon="15.8008733"><ele>1050.0</ele><time>2026-04-06T10:30:57.17Z</time></trkpt><trkpt lat="38.175785" lon="15.8010383"><ele>1050.75</ele><time>2026-04-06T10:30:58.17Z</time></trkpt><trkpt lat="38.1757583" lon="15.801225"><ele>1051.5</ele><time>2026-04-06T10:30:59.17Z</time></trkpt><trkpt lat="38.1757333" lon="15.8013933"><ele>1052.25</ele><time>2026-04-06T10:31:00.17Z</time></trkpt><trkpt lat="38.1757167" lon="15.8015717"><ele>1053.0</ele><time>2026-04-06T10:31:01.169Z</time></trkpt><trkpt lat="38.17571" lon="15.8017333"><ele>1052.2</ele><time>2026-04-06T10:31:02.169Z</time></trkpt><trkpt lat="38.1757233" lon="15.801875"><ele>1051.4</ele><time>2026-04-06T10:31:03.17Z</time></trkpt><trkpt lat="38.17574" lon="15.8020167"><ele>1050.6000000000001</ele><time>2026-04-06T10:31:04.17Z</time></trkpt><trkpt lat="38.1757783" lon="15.8021367"><ele>1049.8</ele><time>2026-04-06T10:31:05.169Z</time></trkpt><trkpt lat="38.1758317" lon="15.8022433"><ele>1049.0</ele><time>2026-04-06T10:31:06.17Z</time></trkpt><trkpt lat="38.175905" lon="15.8023367"><ele>1049.0</ele><time>2026-04-06T10:31:07.17Z</time></trkpt><trkpt lat="38.1759833" lon="15.8024133"><ele>1049.0</ele><time>2026-04-06T10:31:08.17Z</time></trkpt><trkpt lat="38.1760633" lon="15.80249"><ele>1049.0</ele><time>2026-04-06T10:31:09.17Z</time></trkpt><trkpt lat="38.176145" lon="15.8025667"><ele>1049.0</ele><time>2026-04-06T10:31:10.169Z</time></trkpt><trkpt lat="38.17622" lon="15.8026467"><ele>1049.0</ele><time>2026-04-06T10:31:11.17Z</time></trkpt><trkpt lat="38.17628" lon="15.8027383"><ele>1049.2</ele><time>2026-04-06T10:31:12.169Z</time></trkpt><trkpt lat="38.1763267" lon="15.8028417"><ele>1049.4</ele><time>2026-04-06T10:31:13.17Z</time></trkpt><trkpt lat="38.1763517" lon="15.8029533"><ele>1049.6</ele><time>2026-04-06T10:31:14.169Z</time></trkpt><trkpt lat="38.1763583" lon="15.803065"><ele>1049.8</ele><time>2026-04-06T10:31:15.17Z</time></trkpt><trkpt lat="38.17634" lon="15.80317"><ele>1050.0</ele><time>2026-04-06T10:31:16.17Z</time></trkpt><trkpt lat="38.1763083" lon="15.803285"><ele>1050.0</ele><time>2026-04-06T10:31:17.169Z</time></trkpt><trkpt lat="38.176255" lon="15.8034017"><ele>1050.0</ele><time>2026-04-06T10:31:18.169Z</time></trkpt><trkpt lat="38.1762033" lon="15.80352"><ele>1050.0</ele><time>2026-04-06T10:31:19.17Z</time></trkpt><trkpt lat="38.1761467" lon="15.8036533"><ele>1050.0</ele><time>2026-04-06T10:31:20.17Z</time></trkpt><trkpt lat="38.1760967" lon="15.8037983"><ele>1053.25</ele><time>2026-04-06T10:31:21.17Z</time></trkpt><trkpt lat="38.176055" lon="15.8039433"><ele>1056.5</ele><time>2026-04-06T10:31:22.169Z</time></trkpt><trkpt lat="38.1760133" lon="15.8040967"><ele>1059.75</ele><time>2026-04-06T10:31:23.17Z</time></trkpt><trkpt lat="38.17596" lon="15.8042583"><ele>1063.0</ele><time>2026-04-06T10:31:24.169Z</time></trkpt><trkpt lat="38.1759017" lon="15.8044217"><ele>1058.5</ele><time>2026-04-06T10:31:25.17Z</time></trkpt><trkpt lat="38.1758333" lon="15.8045917"><ele>1054.0</ele><time>2026-04-06T10:31:26.17Z</time></trkpt><trkpt lat="38.1757683" lon="15.80475"><ele>1049.5</ele><time>2026-04-06T10:31:27.169Z</time></trkpt><trkpt lat="38.1757083" lon="15.80492"><ele>1045.0</ele><time>2026-04-06T10:31:28.17Z</time></trkpt><trkpt lat="38.1756533" lon="15.8050867"><ele>1050.75</ele><time>2026-04-06T10:31:29.17Z</time></trkpt><trkpt lat="38.1755967" lon="15.8052517"><ele>1056.5</ele><time>2026-04-06T10:31:30.17Z</time></trkpt><trkpt lat="38.1755317" lon="15.8054083"><ele>1062.25</ele><time>2026-04-06T10:31:31.17Z</time></trkpt><trkpt lat="38.1754583" lon="15.805565"><ele>1068.0</ele><time>2026-04-06T10:31:32.17Z</time></trkpt><trkpt lat="38.1754" lon="15.8057317"><ele>1068.0</ele><time>2026-04-06T10:31:33.169Z</time></trkpt><trkpt lat="38.1753633" lon="15.8058933"><ele>1068.0</ele><time>2026-04-06T10:31:34.17Z</time></trkpt><trkpt lat="38.17534" lon="15.8060583"><ele>1068.0</ele><time>2026-04-06T10:31:35.17Z</time></trkpt><trkpt lat="38.1753417" lon="15.8062217"><ele>1068.0</ele><time>2026-04-06T10:31:36.17Z</time></trkpt><trkpt lat="38.17536" lon="15.806385"><ele>1070.4</ele><time>2026-04-06T10:31:37.17Z</time></trkpt><trkpt lat="38.175365" lon="15.806535"><ele>1072.8</ele><time>2026-04-06T10:31:38.17Z</time></trkpt><trkpt lat="38.1753783" lon="15.8066567"><ele>1075.2</ele><time>2026-04-06T10:31:39.17Z</time></trkpt><trkpt lat="38.175375" lon="15.8067483"><ele>1077.6</ele><time>2026-04-06T10:31:40.17Z</time></trkpt><trkpt lat="38.1753267" lon="15.8069083"><ele>1080.0</ele><time>2026-04-06T10:31:42.169Z</time></trkpt><trkpt lat="38.1753" lon="15.8070117"><ele>1081.0</ele><time>2026-04-06T10:31:43.169Z</time></trkpt><trkpt lat="38.1752717" lon="15.807115"><ele>1082.0</ele><time>2026-04-06T10:31:44.169Z</time></trkpt><trkpt lat="38.1752433" lon="15.8072167"><ele>1083.0</ele><time>2026-04-06T10:31:45.17Z</time></trkpt><trkpt lat="38.17522" lon="15.8073167"><ele>1084.0</ele><time>2026-04-06T10:31:46.169Z</time></trkpt><trkpt lat="38.1752033" lon="15.8074233"><ele>1085.0</ele><time>2026-04-06T10:31:47.169Z</time></trkpt><trkpt lat="38.175185" lon="15.8075317"><ele>1086.0</ele><time>2026-04-06T10:31:48.17Z</time></trkpt><trkpt lat="38.1751683" lon="15.8076583"><ele>1087.0</ele><time>2026-04-06T10:31:49.17Z</time></trkpt><trkpt lat="38.1751533" lon="15.8078067"><ele>1088.0</ele><time>2026-04-06T10:31:50.17Z</time></trkpt><trkpt lat="38.175145" lon="15.80796"><ele>1089.0</ele><time>2026-04-06T10:31:51.17Z</time></trkpt><trkpt lat="38.1751383" lon="15.80811"><ele>1090.0</ele><time>2026-04-06T10:31:52.17Z</time></trkpt><trkpt lat="38.17513" lon="15.80827"><ele>1090.0</ele><time>2026-04-06T10:31:53.169Z</time></trkpt><trkpt lat="38.1751217" lon="15.8084517"><ele>1090.0</ele><time>2026-04-06T10:31:54.169Z</time></trkpt><trkpt lat="38.1751017" lon="15.8086283"><ele>1090.0</ele><time>2026-04-06T10:31:55.169Z</time></trkpt><trkpt lat="38.1750767" lon="15.8087933"><ele>1090.0</ele><time>2026-04-06T10:31:56.17Z</time></trkpt><trkpt lat="38.1750533" lon="15.80895"><ele>1091.25</ele><time>2026-04-06T10:31:57.17Z</time></trkpt><trkpt lat="38.1750333" lon="15.8091117"><ele>1092.5</ele><time>2026-04-06T10:31:58.169Z</time></trkpt><trkpt lat="38.175025" lon="15.809265"><ele>1093.75</ele><time>2026-04-06T10:31:59.17Z</time></trkpt><trkpt lat="38.1750333" lon="15.8094"><ele>1095.0</ele><time>2026-04-06T10:32:00.17Z</time></trkpt><trkpt lat="38.17506" lon="15.8095317"><ele>1095.0</ele><time>2026-04-06T10:32:01.17Z</time></trkpt><trkpt lat="38.175105" lon="15.8096567"><ele>1095.0</ele><time>2026-04-06T10:32:02.17Z</time></trkpt><trkpt lat="38.17514" lon="15.80978"><ele>1095.0</ele><time>2026-04-06T10:32:03.17Z</time></trkpt><trkpt lat="38.1751683" lon="15.8099017"><ele>1095.0</ele><time>2026-04-06T10:32:04.169Z</time></trkpt><trkpt lat="38.1751967" lon="15.810015"><ele>1095.0</ele><time>2026-04-06T10:32:05.169Z</time></trkpt><trkpt lat="38.175215" lon="15.810135"><ele>1095.4</ele><time>2026-04-06T10:32:06.17Z</time></trkpt><trkpt lat="38.17523" lon="15.810265"><ele>1095.8</ele><time>2026-04-06T10:32:07.17Z</time></trkpt><trkpt lat="38.1752417" lon="15.810405"><ele>1096.2</ele><time>2026-04-06T10:32:08.17Z</time></trkpt><trkpt lat="38.17525" lon="15.8105433"><ele>1096.6</ele><time>2026-04-06T10:32:09.17Z</time></trkpt><trkpt lat="38.1752617" lon="15.810675"><ele>1097.0</ele><time>2026-04-06T10:32:10.169Z</time></trkpt><trkpt lat="38.1752817" lon="15.8108"><ele>1097.0</ele><time>2026-04-06T10:32:11.17Z</time></trkpt><trkpt lat="38.175305" lon="15.8109233"><ele>1097.0</ele><time>2026-04-06T10:32:12.17Z</time></trkpt><trkpt lat="38.1753317" lon="15.81103"><ele>1097.0</ele><time>2026-04-06T10:32:13.17Z</time></trkpt><trkpt lat="38.175355" lon="15.8111417"><ele>1097.0</ele><time>2026-04-06T10:32:14.17Z</time></trkpt><trkpt lat="38.1753767" lon="15.8112417"><ele>1097.0</ele><time>2026-04-06T10:32:15.17Z</time></trkpt><trkpt lat="38.1753917" lon="15.8113333"><ele>1097.0</ele><time>2026-04-06T10:32:16.17Z</time></trkpt><trkpt lat="38.175395" lon="15.8114267"><ele>1099.4</ele><time>2026-04-06T10:32:17.17Z</time></trkpt><trkpt lat="38.1753783" lon="15.81157"><ele>1101.8000000000002</ele><time>2026-04-06T10:32:19.17Z</time></trkpt><trkpt lat="38.1753417" lon="15.81164"><ele>1104.2</ele><time>2026-04-06T10:32:20.169Z</time></trkpt><trkpt lat="38.1752733" lon="15.81169"><ele>1106.6000000000001</ele><time>2026-04-06T10:32:21.17Z</time></trkpt><trkpt lat="38.1751783" lon="15.8117433"><ele>1109.0</ele><time>2026-04-06T10:32:22.17Z</time></trkpt><trkpt lat="38.175025" lon="15.8117917"><ele>1111.0</ele><time>2026-04-06T10:32:23.17Z</time></trkpt><trkpt lat="38.1748817" lon="15.8118467"><ele>1113.0</ele><time>2026-04-06T10:32:24.169Z</time></trkpt><trkpt lat="38.17474" lon="15.8119233"><ele>1115.0</ele><time>2026-04-06T10:32:25.17Z</time></trkpt><trkpt lat="38.1746233" lon="15.8119983"><ele>1117.0</ele><time>2026-04-06T10:32:26.169Z</time></trkpt><trkpt lat="38.1745317" lon="15.812095"><ele>1117.0</ele><time>2026-04-06T10:32:27.17Z</time></trkpt><trkpt lat="38.1744467" lon="15.812215"><ele>1117.0</ele><time>2026-04-06T10:32:28.17Z</time></trkpt><trkpt lat="38.1743433" lon="15.8123567"><ele>1117.0</ele><time>2026-04-06T10:32:29.17Z</time></trkpt><trkpt lat="38.1742317" lon="15.8124983"><ele>1117.0</ele><time>2026-04-06T10:32:30.17Z</time></trkpt><trkpt lat="38.174115" lon="15.8126367"><ele>1118.5</ele><time>2026-04-06T10:32:31.17Z</time></trkpt><trkpt lat="38.1740217" lon="15.8127617"><ele>1120.0</ele><time>2026-04-06T10:32:32.17Z</time></trkpt><trkpt lat="38.173935" lon="15.8128817"><ele>1121.5</ele><time>2026-04-06T10:32:33.17Z</time></trkpt><trkpt lat="38.1738633" lon="15.8129883"><ele>1123.0</ele><time>2026-04-06T10:32:34.169Z</time></trkpt><trkpt lat="38.1737983" lon="15.8130933"><ele>1123.0</ele><time>2026-04-06T10:32:35.169Z</time></trkpt><trkpt lat="38.1737283" lon="15.8132033"><ele>1123.0</ele><time>2026-04-06T10:32:36.169Z</time></trkpt><trkpt lat="38.1736383" lon="15.8132983"><ele>1123.0</ele><time>2026-04-06T10:32:37.17Z</time></trkpt><trkpt lat="38.1735333" lon="15.8133767"><ele>1123.0</ele><time>2026-04-06T10:32:38.17Z</time></trkpt><trkpt lat="38.173435" lon="15.8134467"><ele>1128.0</ele><time>2026-04-06T10:32:39.17Z</time></trkpt><trkpt lat="38.1733233" lon="15.8134967"><ele>1133.0</ele><time>2026-04-06T10:32:40.169Z</time></trkpt><trkpt lat="38.1732133" lon="15.81355"><ele>1138.0</ele><time>2026-04-06T10:32:41.169Z</time></trkpt><trkpt lat="38.173075" lon="15.813595"><ele>1143.0</ele><time>2026-04-06T10:32:42.169Z</time></trkpt><trkpt lat="38.17292" lon="15.8136533"><ele>1143.6666666666667</ele><time>2026-04-06T10:32:43.17Z</time></trkpt><trkpt lat="38.1727667" lon="15.8136967"><ele>1144.3333333333335</ele><time>2026-04-06T10:32:44.17Z</time></trkpt><trkpt lat="38.1726067" lon="15.8137367"><ele>1145.0</ele><time>2026-04-06T10:32:45.169Z</time></trkpt><trkpt lat="38.172455" lon="15.8137733"><ele>1145.0</ele><time>2026-04-06T10:32:46.169Z</time></trkpt><trkpt lat="38.1723017" lon="15.81382"><ele>1145.0</ele><time>2026-04-06T10:32:47.169Z</time></trkpt><trkpt lat="38.17215" lon="15.8138717"><ele>1145.0</ele><time>2026-04-06T10:32:48.17Z</time></trkpt><trkpt lat="38.1719983" lon="15.8139167"><ele>1145.0</ele><time>2026-04-06T10:32:49.17Z</time></trkpt><trkpt lat="38.1718683" lon="15.8139517"><ele>1145.0</ele><time>2026-04-06T10:32:50.17Z</time></trkpt><trkpt lat="38.17174" lon="15.8140033"><ele>1145.0</ele><time>2026-04-06T10:32:51.169Z</time></trkpt><trkpt lat="38.1716267" lon="15.81408"><ele>1145.0</ele><time>2026-04-06T10:32:52.17Z</time></trkpt><trkpt lat="38.1715267" lon="15.81418"><ele>1142.25</ele><time>2026-04-06T10:32:53.17Z</time></trkpt><trkpt lat="38.1714483" lon="15.8143"><ele>1139.5</ele><time>2026-04-06T10:32:54.17Z</time></trkpt><trkpt lat="38.1714267" lon="15.81444"><ele>1136.75</ele><time>2026-04-06T10:32:55.17Z</time></trkpt><trkpt lat="38.1714367" lon="15.814615"><ele>1134.0</ele><time>2026-04-06T10:32:56.17Z</time></trkpt><trkpt lat="38.1714883" lon="15.8148033"><ele>1138.5</ele><time>2026-04-06T10:32:57.17Z</time></trkpt><trkpt lat="38.1715317" lon="15.8149733"><ele>1143.0</ele><time>2026-04-06T10:32:58.17Z</time></trkpt><trkpt lat="38.171565" lon="15.8151483"><ele>1147.5</ele><time>2026-04-06T10:32:59.17Z</time></trkpt><trkpt lat="38.17158" lon="15.8153333"><ele>1152.0</ele><time>2026-04-06T10:33:00.17Z</time></trkpt><trkpt lat="38.1715833" lon="15.8155117"><ele>1149.6666666666667</ele><time>2026-04-06T10:33:01.169Z</time></trkpt><trkpt lat="38.1715683" lon="15.8157"><ele>1147.3333333333335</ele><time>2026-04-06T10:33:02.17Z</time></trkpt><trkpt lat="38.171545" lon="15.8158833"><ele>1145.0</ele><time>2026-04-06T10:33:03.17Z</time></trkpt><trkpt lat="38.1715167" lon="15.816085"><ele>1145.0</ele><time>2026-04-06T10:33:04.17Z</time></trkpt><trkpt lat="38.17149" lon="15.8162867"><ele>1145.0</ele><time>2026-04-06T10:33:05.17Z</time></trkpt><trkpt lat="38.1714883" lon="15.8164717"><ele>1145.0</ele><time>2026-04-06T10:33:06.17Z</time></trkpt><trkpt lat="38.17151" lon="15.8166617"><ele>1150.25</ele><time>2026-04-06T10:33:07.17Z</time></trkpt><trkpt lat="38.1715583" lon="15.8168433"><ele>1155.5</ele><time>2026-04-06T10:33:08.17Z</time></trkpt><trkpt lat="38.17162" lon="15.817"><ele>1160.75</ele><time>2026-04-06T10:33:09.17Z</time></trkpt><trkpt lat="38.1716983" lon="15.8171483"><ele>1166.0</ele><time>2026-04-06T10:33:10.17Z</time></trkpt><trkpt lat="38.171785" lon="15.8172917"><ele>1166.0</ele><time>2026-04-06T10:33:11.17Z</time></trkpt><trkpt lat="38.17189" lon="15.81745"><ele>1166.0</ele><time>2026-04-06T10:33:12.169Z</time></trkpt><trkpt lat="38.1719467" lon="15.8176183"><ele>1166.0</ele><time>2026-04-06T10:33:13.17Z</time></trkpt><trkpt lat="38.172" lon="15.8177783"><ele>1166.0</ele><time>2026-04-06T10:33:14.169Z</time></trkpt><trkpt lat="38.17203" lon="15.8179467"><ele>1167.0</ele><time>2026-04-06T10:33:15.17Z</time></trkpt><trkpt lat="38.1720417" lon="15.81811"><ele>1168.0</ele><time>2026-04-06T10:33:16.17Z</time></trkpt><trkpt lat="38.1720617" lon="15.8182767"><ele>1169.0</ele><time>2026-04-06T10:33:17.169Z</time></trkpt><trkpt lat="38.1720717" lon="15.8184367"><ele>1170.0</ele><time>2026-04-06T10:33:18.17Z</time></trkpt><trkpt lat="38.172085" lon="15.8186183"><ele>1170.0</ele><time>2026-04-06T10:33:19.169Z</time></trkpt><trkpt lat="38.172085" lon="15.8187833"><ele>1170.0</ele><time>2026-04-06T10:33:20.169Z</time></trkpt><trkpt lat="38.1720783" lon="15.8189317"><ele>1170.0</ele><time>2026-04-06T10:33:21.17Z</time></trkpt><trkpt lat="38.1720833" lon="15.8190783"><ele>1170.0</ele><time>2026-04-06T10:33:22.169Z</time></trkpt><trkpt lat="38.1720717" lon="15.819215"><ele>1169.5</ele><time>2026-04-06T10:33:23.169Z</time></trkpt><trkpt lat="38.1720617" lon="15.8193333"><ele>1169.0</ele><time>2026-04-06T10:33:24.17Z</time></trkpt><trkpt lat="38.1720517" lon="15.8194467"><ele>1168.5</ele><time>2026-04-06T10:33:25.17Z</time></trkpt><trkpt lat="38.172035" lon="15.8195633"><ele>1168.0</ele><time>2026-04-06T10:33:26.17Z</time></trkpt><trkpt lat="38.172015" lon="15.8196683"><ele>1167.5</ele><time>2026-04-06T10:33:27.17Z</time></trkpt><trkpt lat="38.1719883" lon="15.8197733"><ele>1167.0</ele><time>2026-04-06T10:33:28.17Z</time></trkpt><trkpt lat="38.1719583" lon="15.8198767"><ele>1167.0</ele><time>2026-04-06T10:33:29.169Z</time></trkpt><trkpt lat="38.1719433" lon="15.8199567"><ele>1167.0</ele><time>2026-04-06T10:33:30.17Z</time></trkpt><trkpt lat="38.17193" lon="15.820045"><ele>1167.0</ele><time>2026-04-06T10:33:32.17Z</time></trkpt><trkpt lat="38.1718983" lon="15.8201367"><ele>1167.0</ele><time>2026-04-06T10:33:35.169Z</time></trkpt><trkpt lat="38.171845" lon="15.82018"><ele>1167.0</ele><time>2026-04-06T10:35:01.17Z</time></trkpt><trkpt lat="38.17182" lon="15.8202567"><ele>1167.0</ele><time>2026-04-06T10:35:05.17Z</time></trkpt><trkpt lat="38.1717583" lon="15.8202983"><ele>1167.0</ele><time>2026-04-06T10:35:09.17Z</time></trkpt><trkpt lat="38.17175" lon="15.8203933"><ele>1167.0</ele><time>2026-04-06T10:39:36.17Z</time></trkpt><trkpt lat="38.1718217" lon="15.8203233"><ele>1167.0</ele><time>2026-04-06T10:39:49.169Z</time></trkpt><trkpt lat="38.171855" lon="15.820195"><ele>1167.0</ele><time>2026-04-06T10:40:00.17Z</time></trkpt><trkpt lat="38.171993" lon="15.8201565"><ele>1167.0</ele><time>2026-04-06T10:40:55.169Z</time></trkpt><trkpt lat="38.1719775" lon="15.820244"><ele>1167.0</ele><time>2026-04-06T10:41:03.169Z</time></trkpt><trkpt lat="38.1719427" lon="15.8203602"><ele>1167.0</ele><time>2026-04-06T10:46:54.168Z</time></trkpt><trkpt lat="38.1719074" lon="15.8202452"><ele>1167.0</ele><time>2026-04-06T11:09:37.166Z</time></trkpt><trkpt lat="38.1719036" lon="15.8203478"><ele>1167.0</ele><time>2026-04-06T11:43:34.165Z</time></trkpt><trkpt lat="38.1719758" lon="15.8202325"><ele>1167.0</ele><time>2026-04-06T11:43:42.165Z</time></trkpt><trkpt lat="38.1719283" lon="15.8201494"><ele>1167.0</ele><time>2026-04-06T11:44:09.165Z</time></trkpt><trkpt lat="38.1718631" lon="15.8201371"><ele>1167.0</ele><time>2026-04-06T11:44:18.165Z</time></trkpt><trkpt lat="38.1718028" lon="15.8202065"><ele>1167.0</ele><time>2026-04-06T11:44:34.164Z</time></trkpt><trkpt lat="38.1717465" lon="15.8202537"><ele>1167.0</ele><time>2026-04-06T11:44:38.164Z</time></trkpt><trkpt lat="38.1717085" lon="15.8203407"><ele>1167.0</ele><time>2026-04-06T11:45:25.163Z</time></trkpt><trkpt lat="38.17177" lon="15.8203817"><ele>1167.0</ele><time>2026-04-06T11:52:13.163Z</time></trkpt><trkpt lat="38.1717467" lon="15.8204783"><ele>1167.0</ele><time>2026-04-06T11:52:17.164Z</time></trkpt><trkpt lat="38.1717017" lon="15.8205917"><ele>1167.0</ele><time>2026-04-06T11:53:52.164Z</time></trkpt><trkpt lat="38.171675" lon="15.820665"><ele>1167.0</ele><time>2026-04-06T11:53:54.163Z</time></trkpt><trkpt lat="38.1716433" lon="15.8207783"><ele>1167.0</ele><time>2026-04-06T11:53:56.163Z</time></trkpt><trkpt lat="38.1716167" lon="15.820925"><ele>1167.0</ele><time>2026-04-06T11:53:58.163Z</time></trkpt><trkpt lat="38.1715967" lon="15.8210067"><ele>1167.0</ele><time>2026-04-06T11:53:59.164Z</time></trkpt><trkpt lat="38.1715767" lon="15.8210933"><ele>1167.0</ele><time>2026-04-06T11:54:00.163Z</time></trkpt><trkpt lat="38.1715533" lon="15.8211817"><ele>1167.0</ele><time>2026-04-06T11:54:01.163Z</time></trkpt><trkpt lat="38.1715267" lon="15.8212717"><ele>1165.0</ele><time>2026-04-06T11:54:02.164Z</time></trkpt><trkpt lat="38.1715033" lon="15.8213767"><ele>1163.0</ele><time>2026-04-06T11:54:03.163Z</time></trkpt><trkpt lat="38.1714817" lon="15.8214817"><ele>1161.0</ele><time>2026-04-06T11:54:04.164Z</time></trkpt><trkpt lat="38.1714567" lon="15.821595"><ele>1159.0</ele><time>2026-04-06T11:54:05.163Z</time></trkpt><trkpt lat="38.17143" lon="15.8217067"><ele>1157.0</ele><time>2026-04-06T11:54:06.163Z</time></trkpt><trkpt lat="38.1714067" lon="15.8218283"><ele>1157.0</ele><time>2026-04-06T11:54:07.164Z</time></trkpt><trkpt lat="38.1713867" lon="15.82196"><ele>1157.0</ele><time>2026-04-06T11:54:08.164Z</time></trkpt><trkpt lat="38.171365" lon="15.8220967"><ele>1157.0</ele><time>2026-04-06T11:54:09.164Z</time></trkpt><trkpt lat="38.1713417" lon="15.8222283"><ele>1157.0</ele><time>2026-04-06T11:54:10.164Z</time></trkpt><trkpt lat="38.1713133" lon="15.8223667"><ele>1157.0</ele><time>2026-04-06T11:54:11.164Z</time></trkpt><trkpt lat="38.1712883" lon="15.82251"><ele>1160.8</ele><time>2026-04-06T11:54:12.164Z</time></trkpt><trkpt lat="38.171265" lon="15.8226517"><ele>1164.6</ele><time>2026-04-06T11:54:13.164Z</time></trkpt><trkpt lat="38.17124" lon="15.8227883"><ele>1168.3999999999999</ele><time>2026-04-06T11:54:14.164Z</time></trkpt><trkpt lat="38.1712133" lon="15.822925"><ele>1172.2</ele><time>2026-04-06T11:54:15.163Z</time></trkpt><trkpt lat="38.171185" lon="15.8230583"><ele>1176.0</ele><time>2026-04-06T11:54:16.164Z</time></trkpt><trkpt lat="38.1711617" lon="15.8231983"><ele>1176.0</ele><time>2026-04-06T11:54:17.164Z</time></trkpt><trkpt lat="38.1711383" lon="15.8233517"><ele>1176.0</ele><time>2026-04-06T11:54:18.164Z</time></trkpt><trkpt lat="38.1711167" lon="15.8235033"><ele>1176.0</ele><time>2026-04-06T11:54:19.164Z</time></trkpt><trkpt lat="38.17109" lon="15.8236483"><ele>1176.0</ele><time>2026-04-06T11:54:20.164Z</time></trkpt><trkpt lat="38.1710733" lon="15.8237933"><ele>1178.6</ele><time>2026-04-06T11:54:21.164Z</time></trkpt><trkpt lat="38.17106" lon="15.8239367"><ele>1181.1999999999998</ele><time>2026-04-06T11:54:22.164Z</time></trkpt><trkpt lat="38.17105" lon="15.8240717"><ele>1183.8000000000002</ele><time>2026-04-06T11:54:23.164Z</time></trkpt><trkpt lat="38.1710467" lon="15.8242017"><ele>1186.4</ele><time>2026-04-06T11:54:24.164Z</time></trkpt><trkpt lat="38.1710467" lon="15.8243183"><ele>1189.0</ele><time>2026-04-06T11:54:25.164Z</time></trkpt><trkpt lat="38.171045" lon="15.824445"><ele>1191.0</ele><time>2026-04-06T11:54:26.164Z</time></trkpt><trkpt lat="38.1710417" lon="15.8245717"><ele>1193.0</ele><time>2026-04-06T11:54:27.164Z</time></trkpt><trkpt lat="38.17103" lon="15.8246917"><ele>1195.0</ele><time>2026-04-06T11:54:28.164Z</time></trkpt><trkpt lat="38.1710167" lon="15.8248067"><ele>1197.0</ele><time>2026-04-06T11:54:29.163Z</time></trkpt><trkpt lat="38.1710117" lon="15.8249283"><ele>1199.0</ele><time>2026-04-06T11:54:30.163Z</time></trkpt><trkpt lat="38.17101" lon="15.8250517"><ele>1201.2</ele><time>2026-04-06T11:54:31.163Z</time></trkpt><trkpt lat="38.171005" lon="15.825175"><ele>1203.4</ele><time>2026-04-06T11:54:32.164Z</time></trkpt><trkpt lat="38.1709933" lon="15.8252967"><ele>1205.6</ele><time>2026-04-06T11:54:33.164Z</time></trkpt><trkpt lat="38.170985" lon="15.825415"><ele>1207.8</ele><time>2026-04-06T11:54:34.164Z</time></trkpt><trkpt lat="38.1709717" lon="15.82553"><ele>1210.0</ele><time>2026-04-06T11:54:35.163Z</time></trkpt><trkpt lat="38.1709517" lon="15.8256483"><ele>1210.0</ele><time>2026-04-06T11:54:36.164Z</time></trkpt><trkpt lat="38.170925" lon="15.8257667"><ele>1210.0</ele><time>2026-04-06T11:54:37.164Z</time></trkpt><trkpt lat="38.1708967" lon="15.8258883"><ele>1210.0</ele><time>2026-04-06T11:54:38.164Z</time></trkpt><trkpt lat="38.1708633" lon="15.8260083"><ele>1210.0</ele><time>2026-04-06T11:54:39.164Z</time></trkpt><trkpt lat="38.17083" lon="15.826125"><ele>1210.0</ele><time>2026-04-06T11:54:40.164Z</time></trkpt><trkpt lat="38.17079" lon="15.8262333"><ele>1211.2</ele><time>2026-04-06T11:54:41.164Z</time></trkpt><trkpt lat="38.17074" lon="15.8263367"><ele>1212.4</ele><time>2026-04-06T11:54:42.164Z</time></trkpt><trkpt lat="38.1706867" lon="15.8264383"><ele>1213.6</ele><time>2026-04-06T11:54:43.164Z</time></trkpt><trkpt lat="38.1706417" lon="15.8265483"><ele>1214.8</ele><time>2026-04-06T11:54:44.164Z</time></trkpt><trkpt lat="38.1705883" lon="15.82667"><ele>1216.0</ele><time>2026-04-06T11:54:45.164Z</time></trkpt><trkpt lat="38.1705467" lon="15.8267833"><ele>1216.0</ele><time>2026-04-06T11:54:46.163Z</time></trkpt><trkpt lat="38.1705067" lon="15.8268883"><ele>1216.0</ele><time>2026-04-06T11:54:47.164Z</time></trkpt><trkpt lat="38.17046" lon="15.826995"><ele>1216.0</ele><time>2026-04-06T11:54:48.163Z</time></trkpt><trkpt lat="38.1704117" lon="15.8271033"><ele>1216.0</ele><time>2026-04-06T11:54:49.163Z</time></trkpt><trkpt lat="38.1703717" lon="15.8272133"><ele>1216.0</ele><time>2026-04-06T11:54:50.163Z</time></trkpt><trkpt lat="38.1703483" lon="15.82732"><ele>1216.0</ele><time>2026-04-06T11:54:51.164Z</time></trkpt><trkpt lat="38.1703567" lon="15.827435"><ele>1216.0</ele><time>2026-04-06T11:54:52.164Z</time></trkpt><trkpt lat="38.1703833" lon="15.8275317"><ele>1216.0</ele><time>2026-04-06T11:54:53.164Z</time></trkpt><trkpt lat="38.1704533" lon="15.82762"><ele>1216.0</ele><time>2026-04-06T11:54:54.163Z</time></trkpt><trkpt lat="38.1705383" lon="15.8277033"><ele>1216.0</ele><time>2026-04-06T11:54:55.163Z</time></trkpt><trkpt lat="38.1705983" lon="15.82778"><ele>1219.8</ele><time>2026-04-06T11:54:56.164Z</time></trkpt><trkpt lat="38.1706467" lon="15.827855"><ele>1223.6</ele><time>2026-04-06T11:54:57.164Z</time></trkpt><trkpt lat="38.1706533" lon="15.8279867"><ele>1227.4</ele><time>2026-04-06T11:54:59.163Z</time></trkpt><trkpt lat="38.17056" lon="15.8280517"><ele>1231.2</ele><time>2026-04-06T11:55:01.164Z</time></trkpt><trkpt lat="38.1704667" lon="15.8280483"><ele>1235.0</ele><time>2026-04-06T11:55:02.163Z</time></trkpt><trkpt lat="38.1703583" lon="15.828045"><ele>1235.0</ele><time>2026-04-06T11:55:03.163Z</time></trkpt><trkpt lat="38.1702383" lon="15.8280617"><ele>1235.0</ele><time>2026-04-06T11:55:04.164Z</time></trkpt><trkpt lat="38.17012" lon="15.8280833"><ele>1235.0</ele><time>2026-04-06T11:55:05.164Z</time></trkpt><trkpt lat="38.1699883" lon="15.82811"><ele>1235.0</ele><time>2026-04-06T11:55:06.164Z</time></trkpt><trkpt lat="38.1698733" lon="15.8281383"><ele>1237.2</ele><time>2026-04-06T11:55:07.164Z</time></trkpt><trkpt lat="38.16976" lon="15.8281617"><ele>1239.4</ele><time>2026-04-06T11:55:08.164Z</time></trkpt><trkpt lat="38.169665" lon="15.8281917"><ele>1241.6</ele><time>2026-04-06T11:55:09.164Z</time></trkpt><trkpt lat="38.169585" lon="15.8282383"><ele>1243.8</ele><time>2026-04-06T11:55:10.164Z</time></trkpt><trkpt lat="38.1695267" lon="15.8282933"><ele>1246.0</ele><time>2026-04-06T11:55:11.164Z</time></trkpt><trkpt lat="38.1695183" lon="15.8284017"><ele>1246.0</ele><time>2026-04-06T11:55:13.163Z</time></trkpt><trkpt lat="38.1695817" lon="15.8284583"><ele>1246.0</ele><time>2026-04-06T11:55:14.163Z</time></trkpt><trkpt lat="38.169675" lon="15.828495"><ele>1246.0</ele><time>2026-04-06T11:55:15.164Z</time></trkpt><trkpt lat="38.16979" lon="15.8285017"><ele>1246.0</ele><time>2026-04-06T11:55:16.163Z</time></trkpt><trkpt lat="38.1699083" lon="15.8284817"><ele>1246.0</ele><time>2026-04-06T11:55:17.164Z</time></trkpt><trkpt lat="38.170025" lon="15.8284633"><ele>1247.0</ele><time>2026-04-06T11:55:18.164Z</time></trkpt><trkpt lat="38.170125" lon="15.8284683"><ele>1248.0</ele><time>2026-04-06T11:55:19.164Z</time></trkpt><trkpt lat="38.170205" lon="15.82849"><ele>1249.0</ele><time>2026-04-06T11:55:20.164Z</time></trkpt><trkpt lat="38.17027" lon="15.82859"><ele>1250.0</ele><time>2026-04-06T11:55:22.163Z</time></trkpt><trkpt lat="38.1702267" lon="15.828665"><ele>1251.0</ele><time>2026-04-06T11:55:24.163Z</time></trkpt><trkpt lat="38.170165" lon="15.8286933"><ele>1252.0</ele><time>2026-04-06T11:55:25.164Z</time></trkpt><trkpt lat="38.1700817" lon="15.828725"><ele>1252.0</ele><time>2026-04-06T11:55:26.164Z</time></trkpt><trkpt lat="38.1699517" lon="15.8287683"><ele>1252.0</ele><time>2026-04-06T11:55:27.164Z</time></trkpt><trkpt lat="38.1698567" lon="15.8288117"><ele>1252.0</ele><time>2026-04-06T11:55:28.164Z</time></trkpt><trkpt lat="38.1697717" lon="15.8288667"><ele>1252.0</ele><time>2026-04-06T11:55:29.164Z</time></trkpt><trkpt lat="38.1696867" lon="15.8289367"><ele>1252.0</ele><time>2026-04-06T11:55:30.163Z</time></trkpt><trkpt lat="38.1696067" lon="15.8290467"><ele>1256.25</ele><time>2026-04-06T11:55:31.163Z</time></trkpt><trkpt lat="38.1695283" lon="15.8291617"><ele>1260.5</ele><time>2026-04-06T11:55:32.164Z</time></trkpt><trkpt lat="38.1694583" lon="15.8292767"><ele>1264.75</ele><time>2026-04-06T11:55:33.163Z</time></trkpt><trkpt lat="38.1694083" lon="15.8294083"><ele>1269.0</ele><time>2026-04-06T11:55:34.163Z</time></trkpt><trkpt lat="38.1693733" lon="15.8295367"><ele>1269.0</ele><time>2026-04-06T11:55:35.163Z</time></trkpt><trkpt lat="38.1693433" lon="15.8296533"><ele>1269.0</ele><time>2026-04-06T11:55:36.163Z</time></trkpt><trkpt lat="38.1693133" lon="15.8297633"><ele>1269.0</ele><time>2026-04-06T11:55:37.164Z</time></trkpt><trkpt lat="38.1692833" lon="15.8298617"><ele>1269.0</ele><time>2026-04-06T11:55:38.164Z</time></trkpt><trkpt lat="38.1692617" lon="15.8299383"><ele>1269.0</ele><time>2026-04-06T11:55:39.164Z</time></trkpt><trkpt lat="38.1692217" lon="15.83003"><ele>1269.0</ele><time>2026-04-06T11:55:41.164Z</time></trkpt><trkpt lat="38.1692283" lon="15.8299167"><ele>1269.0</ele><time>2026-04-06T11:55:45.163Z</time></trkpt><trkpt lat="38.1692533" lon="15.8297333"><ele>1269.0</ele><time>2026-04-06T11:55:47.164Z</time></trkpt><trkpt lat="38.1692567" lon="15.8296117"><ele>1269.0</ele><time>2026-04-06T11:55:48.163Z</time></trkpt><trkpt lat="38.16925" lon="15.8295067"><ele>1269.0</ele><time>2026-04-06T11:55:49.164Z</time></trkpt><trkpt lat="38.1692183" lon="15.8293983"><ele>1269.0</ele><time>2026-04-06T11:55:50.164Z</time></trkpt><trkpt lat="38.169165" lon="15.8293183"><ele>1269.2</ele><time>2026-04-06T11:55:51.164Z</time></trkpt><trkpt lat="38.16911" lon="15.8292783"><ele>1269.4</ele><time>2026-04-06T11:55:52.164Z</time></trkpt><trkpt lat="38.169035" lon="15.8292933"><ele>1269.6</ele><time>2026-04-06T11:55:53.164Z</time></trkpt><trkpt lat="38.168945" lon="15.8293567"><ele>1269.8</ele><time>2026-04-06T11:55:54.164Z</time></trkpt><trkpt lat="38.16886" lon="15.8294633"><ele>1270.0</ele><time>2026-04-06T11:55:55.164Z</time></trkpt><trkpt lat="38.1687933" lon="15.8295817"><ele>1269.6</ele><time>2026-04-06T11:55:56.164Z</time></trkpt><trkpt lat="38.1687233" lon="15.8297033"><ele>1269.2</ele><time>2026-04-06T11:55:57.164Z</time></trkpt><trkpt lat="38.16866" lon="15.8298033"><ele>1268.8</ele><time>2026-04-06T11:55:58.163Z</time></trkpt><trkpt lat="38.168605" lon="15.829905"><ele>1268.4</ele><time>2026-04-06T11:55:59.164Z</time></trkpt><trkpt lat="38.1685483" lon="15.8300117"><ele>1268.0</ele><time>2026-04-06T11:56:00.164Z</time></trkpt><trkpt lat="38.1684917" lon="15.8301167"><ele>1269.6</ele><time>2026-04-06T11:56:01.163Z</time></trkpt><trkpt lat="38.1684383" lon="15.83022"><ele>1271.1999999999998</ele><time>2026-04-06T11:56:02.164Z</time></trkpt><trkpt lat="38.1683767" lon="15.8303217"><ele>1272.8</ele><time>2026-04-06T11:56:03.164Z</time></trkpt><trkpt lat="38.1683167" lon="15.830425"><ele>1274.3999999999999</ele><time>2026-04-06T11:56:04.164Z</time></trkpt><trkpt lat="38.1682617" lon="15.830535"><ele>1276.0</ele><time>2026-04-06T11:56:05.164Z</time></trkpt><trkpt lat="38.1682067" lon="15.8306383"><ele>1275.3999999999999</ele><time>2026-04-06T11:56:06.164Z</time></trkpt><trkpt lat="38.1681517" lon="15.83075"><ele>1274.8</ele><time>2026-04-06T11:56:07.164Z</time></trkpt><trkpt lat="38.1680833" lon="15.8308583"><ele>1274.1999999999998</ele><time>2026-04-06T11:56:08.163Z</time></trkpt><trkpt lat="38.168005" lon="15.830945"><ele>1273.6</ele><time>2026-04-06T11:56:09.164Z</time></trkpt><trkpt lat="38.16792" lon="15.8310233"><ele>1273.0</ele><time>2026-04-06T11:56:10.163Z</time></trkpt><trkpt lat="38.167825" lon="15.8310817"><ele>1276.6</ele><time>2026-04-06T11:56:11.164Z</time></trkpt><trkpt lat="38.16773" lon="15.831125"><ele>1280.1999999999998</ele><time>2026-04-06T11:56:12.164Z</time></trkpt><trkpt lat="38.1676367" lon="15.831155"><ele>1283.8</ele><time>2026-04-06T11:56:13.164Z</time></trkpt><trkpt lat="38.167545" lon="15.8312"><ele>1287.3999999999999</ele><time>2026-04-06T11:56:14.163Z</time></trkpt><trkpt lat="38.1674617" lon="15.831265"><ele>1291.0</ele><time>2026-04-06T11:56:15.164Z</time></trkpt><trkpt lat="38.1673983" lon="15.8313333"><ele>1291.0</ele><time>2026-04-06T11:56:16.164Z</time></trkpt><trkpt lat="38.1673767" lon="15.83142"><ele>1291.0</ele><time>2026-04-06T11:56:17.164Z</time></trkpt><trkpt lat="38.1673817" lon="15.8315233"><ele>1291.0</ele><time>2026-04-06T11:56:18.163Z</time></trkpt><trkpt lat="38.1674133" lon="15.83162"><ele>1291.0</ele><time>2026-04-06T11:56:19.164Z</time></trkpt><trkpt lat="38.1674717" lon="15.8316933"><ele>1291.0</ele><time>2026-04-06T11:56:20.164Z</time></trkpt><trkpt lat="38.16755" lon="15.8317633"><ele>1291.0</ele><time>2026-04-06T11:56:21.164Z</time></trkpt><trkpt lat="38.1676383" lon="15.831825"><ele>1292.8</ele><time>2026-04-06T11:56:22.164Z</time></trkpt><trkpt lat="38.1677333" lon="15.831905"><ele>1294.6</ele><time>2026-04-06T11:56:23.163Z</time></trkpt><trkpt lat="38.16782" lon="15.8319817"><ele>1296.4</ele><time>2026-04-06T11:56:24.164Z</time></trkpt><trkpt lat="38.1679083" lon="15.8320667"><ele>1298.2</ele><time>2026-04-06T11:56:25.164Z</time></trkpt><trkpt lat="38.1679933" lon="15.832155"><ele>1300.0</ele><time>2026-04-06T11:56:26.163Z</time></trkpt><trkpt lat="38.1680583" lon="15.832245"><ele>1300.0</ele><time>2026-04-06T11:56:27.164Z</time></trkpt><trkpt lat="38.1681067" lon="15.8323417"><ele>1300.0</ele><time>2026-04-06T11:56:28.164Z</time></trkpt><trkpt lat="38.1681483" lon="15.8324433"><ele>1300.0</ele><time>2026-04-06T11:56:29.164Z</time></trkpt><trkpt lat="38.168175" lon="15.8325583"><ele>1300.0</ele><time>2026-04-06T11:56:30.164Z</time></trkpt><trkpt lat="38.1681917" lon="15.8326817"><ele>1300.0</ele><time>2026-04-06T11:56:31.164Z</time></trkpt><trkpt lat="38.1682117" lon="15.8327933"><ele>1300.8</ele><time>2026-04-06T11:56:32.164Z</time></trkpt><trkpt lat="38.1682417" lon="15.832915"><ele>1301.6</ele><time>2026-04-06T11:56:33.164Z</time></trkpt><trkpt lat="38.1682733" lon="15.83304"><ele>1302.4</ele><time>2026-04-06T11:56:34.164Z</time></trkpt><trkpt lat="38.1683017" lon="15.833165"><ele>1303.2</ele><time>2026-04-06T11:56:35.163Z</time></trkpt><trkpt lat="38.1683333" lon="15.8332967"><ele>1304.0</ele><time>2026-04-06T11:56:36.164Z</time></trkpt><trkpt lat="38.168365" lon="15.8334217"><ele>1305.0</ele><time>2026-04-06T11:56:37.164Z</time></trkpt><trkpt lat="38.1683933" lon="15.8335433"><ele>1306.0</ele><time>2026-04-06T11:56:38.163Z</time></trkpt><trkpt lat="38.1684217" lon="15.8336833"><ele>1307.0</ele><time>2026-04-06T11:56:39.164Z</time></trkpt><trkpt lat="38.1684483" lon="15.8338083"><ele>1308.0</ele><time>2026-04-06T11:56:40.164Z</time></trkpt><trkpt lat="38.1684683" lon="15.8339433"><ele>1309.0</ele><time>2026-04-06T11:56:41.164Z</time></trkpt><trkpt lat="38.1684917" lon="15.8340733"><ele>1309.0</ele><time>2026-04-06T11:56:42.164Z</time></trkpt><trkpt lat="38.1685083" lon="15.8342067"><ele>1309.0</ele><time>2026-04-06T11:56:43.164Z</time></trkpt><trkpt lat="38.168515" lon="15.8343367"><ele>1309.0</ele><time>2026-04-06T11:56:44.163Z</time></trkpt><trkpt lat="38.1685083" lon="15.83448"><ele>1309.0</ele><time>2026-04-06T11:56:45.164Z</time></trkpt><trkpt lat="38.1684933" lon="15.8346233"><ele>1309.0</ele><time>2026-04-06T11:56:46.164Z</time></trkpt><trkpt lat="38.1684667" lon="15.8347667"><ele>1309.25</ele><time>2026-04-06T11:56:47.163Z</time></trkpt><trkpt lat="38.1684367" lon="15.8349083"><ele>1309.5</ele><time>2026-04-06T11:56:48.163Z</time></trkpt><trkpt lat="38.168385" lon="15.8350417"><ele>1309.75</ele><time>2026-04-06T11:56:49.164Z</time></trkpt><trkpt lat="38.1683283" lon="15.83517"><ele>1310.0</ele><time>2026-04-06T11:56:50.164Z</time></trkpt><trkpt lat="38.16827" lon="15.8352867"><ele>1310.0</ele><time>2026-04-06T11:56:51.163Z</time></trkpt><trkpt lat="38.1682117" lon="15.8353917"><ele>1310.0</ele><time>2026-04-06T11:56:52.163Z</time></trkpt><trkpt lat="38.1681383" lon="15.8354717"><ele>1310.0</ele><time>2026-04-06T11:56:53.164Z</time></trkpt><trkpt lat="38.1680683" lon="15.8355417"><ele>1310.0</ele><time>2026-04-06T11:56:54.164Z</time></trkpt><trkpt lat="38.167995" lon="15.8355983"><ele>1310.0</ele><time>2026-04-06T11:56:55.164Z</time></trkpt><trkpt lat="38.1679167" lon="15.83564"><ele>1311.4</ele><time>2026-04-06T11:56:56.163Z</time></trkpt><trkpt lat="38.1678233" lon="15.835685"><ele>1312.8</ele><time>2026-04-06T11:56:57.164Z</time></trkpt><trkpt lat="38.1677367" lon="15.835735"><ele>1314.1999999999998</ele><time>2026-04-06T11:56:58.164Z</time></trkpt><trkpt lat="38.1676517" lon="15.8357783"><ele>1315.6</ele><time>2026-04-06T11:56:59.163Z</time></trkpt><trkpt lat="38.1675667" lon="15.835815"><ele>1317.0</ele><time>2026-04-06T11:57:00.164Z</time></trkpt><trkpt lat="38.1674933" lon="15.8358567"><ele>1317.0</ele><time>2026-04-06T11:57:01.164Z</time></trkpt><trkpt lat="38.16743" lon="15.83589"><ele>1317.0</ele><time>2026-04-06T11:57:02.163Z</time></trkpt><trkpt lat="38.167335" lon="15.8359367"><ele>1317.0</ele><time>2026-04-06T11:57:04.163Z</time></trkpt><trkpt lat="38.1672683" lon="15.8359917"><ele>1317.0</ele><time>2026-04-06T11:57:06.164Z</time></trkpt><trkpt lat="38.1672167" lon="15.8360833"><ele>1317.0</ele><time>2026-04-06T11:57:08.163Z</time></trkpt><trkpt lat="38.167155" lon="15.8361733"><ele>1317.0</ele><time>2026-04-06T11:57:10.164Z</time></trkpt><trkpt lat="38.1671517" lon="15.8362967"><ele>1317.6666666666667</ele><time>2026-04-06T11:57:12.164Z</time></trkpt><trkpt lat="38.16718" lon="15.8364117"><ele>1318.3333333333333</ele><time>2026-04-06T11:57:14.164Z</time></trkpt><trkpt lat="38.1672133" lon="15.8365167"><ele>1319.0</ele><time>2026-04-06T11:57:16.164Z</time></trkpt><trkpt lat="38.1672433" lon="15.83662"><ele>1319.6666666666665</ele><time>2026-04-06T11:57:18.164Z</time></trkpt><trkpt lat="38.1672967" lon="15.8366717"><ele>1320.3333333333333</ele><time>2026-04-06T11:57:21.163Z</time></trkpt><trkpt lat="38.1672617" lon="15.8365783"><ele>1321.0</ele><time>2026-04-06T11:57:27.163Z</time></trkpt><trkpt lat="38.1673057" lon="15.8366671"><ele>1321.0</ele><time>2026-04-06T12:01:48.163Z</time></trkpt><trkpt lat="38.1673573" lon="15.8367681"><ele>1321.0</ele><time>2026-04-06T12:02:07.164Z</time></trkpt><trkpt lat="38.1673878" lon="15.8368683"><ele>1321.0</ele><time>2026-04-06T12:02:57.164Z</time></trkpt><trkpt lat="38.1674569" lon="15.8368078"><ele>1321.0</ele><time>2026-04-06T12:06:23.466Z</time></trkpt><trkpt lat="38.1674581" lon="15.8366068"><ele>1321.0</ele><time>2026-04-06T12:06:28.785Z</time></trkpt><trkpt lat="38.1674598" lon="15.8364551"><ele>1320.0</ele><time>2026-04-06T12:06:33.906Z</time></trkpt><trkpt lat="38.1674594" lon="15.8369398"><ele>1319.0</ele><time>2026-04-06T12:06:44.607Z</time></trkpt><trkpt lat="38.1674179" lon="15.8368738"><ele>1318.0</ele><time>2026-04-06T12:07:14.188Z</time></trkpt><trkpt lat="38.1673797" lon="15.8367875"><ele>1318.0</ele><time>2026-04-06T12:07:20.189Z</time></trkpt><trkpt lat="38.1674196" lon="15.8366765"><ele>1318.0</ele><time>2026-04-06T12:07:24.189Z</time></trkpt><trkpt lat="38.1674494" lon="15.8367813"><ele>1318.0</ele><time>2026-04-06T12:07:34.189Z</time></trkpt><trkpt lat="38.1674543" lon="15.8368622"><ele>1318.0</ele><time>2026-04-06T12:07:41.189Z</time></trkpt><trkpt lat="38.1675048" lon="15.8368011"><ele>1318.0</ele><time>2026-04-06T12:07:49.188Z</time></trkpt><trkpt lat="38.1674411" lon="15.8367098"><ele>1318.0</ele><time>2026-04-06T12:07:57.188Z</time></trkpt><trkpt lat="38.1673985" lon="15.836575"><ele>1318.0</ele><time>2026-04-06T12:07:59.188Z</time></trkpt><trkpt lat="38.1673731" lon="15.8365017"><ele>1318.0</ele><time>2026-04-06T12:08:00.188Z</time></trkpt><trkpt lat="38.1673371" lon="15.8364254"><ele>1318.0</ele><time>2026-04-06T12:08:01.188Z</time></trkpt><trkpt lat="38.1673838" lon="15.836486"><ele>1318.0</ele><time>2026-04-06T12:08:05.189Z</time></trkpt><trkpt lat="38.1674194" lon="15.836568"><ele>1318.0</ele><time>2026-04-06T12:08:31.189Z</time></trkpt><trkpt lat="38.1674584" lon="15.8366943"><ele>1318.0</ele><time>2026-04-06T12:09:35.189Z</time></trkpt><trkpt lat="38.1674517" lon="15.8368517"><ele>1318.0</ele><time>2026-04-06T12:12:37.189Z</time></trkpt><trkpt lat="38.1673867" lon="15.8367717"><ele>1318.0</ele><time>2026-04-06T12:13:07.188Z</time></trkpt><trkpt lat="38.1673116" lon="15.8366639"><ele>1318.0</ele><time>2026-04-06T12:13:22.189Z</time></trkpt><trkpt lat="38.1672733" lon="15.8364867"><ele>1318.0</ele><time>2026-04-06T12:21:50.19Z</time></trkpt><trkpt lat="38.1671931" lon="15.8364764"><ele>1318.0</ele><time>2026-04-06T12:23:50.19Z</time></trkpt><trkpt lat="38.1671048" lon="15.8364384"><ele>1318.6000000000001</ele><time>2026-04-06T12:24:04.19Z</time></trkpt><trkpt lat="38.1670105" lon="15.8364446"><ele>1319.2</ele><time>2026-04-06T12:24:20.19Z</time></trkpt><trkpt lat="38.1669204" lon="15.8365367"><ele>1319.8</ele><time>2026-04-06T12:24:46.189Z</time></trkpt><trkpt lat="38.1668156" lon="15.8366082"><ele>1320.4</ele><time>2026-04-06T12:25:13.189Z</time></trkpt><trkpt lat="38.1667281" lon="15.8366786"><ele>1321.0</ele><time>2026-04-06T12:25:35.19Z</time></trkpt><trkpt lat="38.1666453" lon="15.8367613"><ele>1321.0</ele><time>2026-04-06T12:25:58.19Z</time></trkpt><trkpt lat="38.1665199" lon="15.8368021"><ele>1321.0</ele><time>2026-04-06T12:26:50.189Z</time></trkpt><trkpt lat="38.1666701" lon="15.8367826"><ele>1321.0</ele><time>2026-04-06T12:56:21.187Z</time></trkpt><trkpt lat="38.1667773" lon="15.8367649"><ele>1321.0</ele><time>2026-04-06T12:56:40.188Z</time></trkpt><trkpt lat="38.1668856" lon="15.8367893"><ele>1321.0</ele><time>2026-04-06T12:57:19.188Z</time></trkpt><trkpt lat="38.1669896" lon="15.8367887"><ele>1321.0</ele><time>2026-04-06T12:57:34.187Z</time></trkpt><trkpt lat="38.1670541" lon="15.8367807"><ele>1321.0</ele><time>2026-04-06T12:57:38.187Z</time></trkpt><trkpt lat="38.1671364" lon="15.8367545"><ele>1321.0</ele><time>2026-04-06T12:58:02.188Z</time></trkpt><trkpt lat="38.1671968" lon="15.8366701"><ele>1321.0</ele><time>2026-04-06T12:58:17.187Z</time></trkpt><trkpt lat="38.1671883" lon="15.8365384"><ele>1321.0</ele><time>2026-04-06T12:58:53.188Z</time></trkpt><trkpt lat="38.1671163" lon="15.8364752"><ele>1321.0</ele><time>2026-04-06T12:59:12.188Z</time></trkpt><trkpt lat="38.1670853" lon="15.8363681"><ele>1321.0</ele><time>2026-04-06T13:00:37.188Z</time></trkpt><trkpt lat="38.1671553" lon="15.8363566"><ele>1321.0</ele><time>2026-04-06T13:01:01.188Z</time></trkpt><trkpt lat="38.1672172" lon="15.8364679"><ele>1321.0</ele><time>2026-04-06T13:01:22.187Z</time></trkpt><trkpt lat="38.1672125" lon="15.8366104"><ele>1321.0</ele><time>2026-04-06T13:05:56.187Z</time></trkpt><trkpt lat="38.167213" lon="15.8366973"><ele>1321.0</ele><time>2026-04-06T13:05:59.188Z</time></trkpt><trkpt lat="38.1672797" lon="15.836765"><ele>1321.0</ele><time>2026-04-06T13:06:07.187Z</time></trkpt><trkpt lat="38.1673515" lon="15.8367621"><ele>1321.0</ele><time>2026-04-06T13:06:12.188Z</time></trkpt><trkpt lat="38.1674205" lon="15.8367407"><ele>1321.0</ele><time>2026-04-06T13:06:15.188Z</time></trkpt><trkpt lat="38.1675007" lon="15.8367347"><ele>1321.0</ele><time>2026-04-06T13:06:18.187Z</time></trkpt><trkpt lat="38.1675638" lon="15.8367519"><ele>1321.0</ele><time>2026-04-06T13:06:21.188Z</time></trkpt><trkpt lat="38.1676036" lon="15.8368661"><ele>1321.0</ele><time>2026-04-06T13:06:24.188Z</time></trkpt><trkpt lat="38.1676283" lon="15.8369717"><ele>1320.5</ele><time>2026-04-06T13:06:26.188Z</time></trkpt><trkpt lat="38.1676417" lon="15.837055"><ele>1320.0</ele><time>2026-04-06T13:06:28.187Z</time></trkpt><trkpt lat="38.16765" lon="15.837165"><ele>1319.5</ele><time>2026-04-06T13:06:31.188Z</time></trkpt><trkpt lat="38.1676717" lon="15.8372783"><ele>1319.0</ele><time>2026-04-06T13:06:34.187Z</time></trkpt><trkpt lat="38.1676917" lon="15.8373983"><ele>1318.5</ele><time>2026-04-06T13:06:37.188Z</time></trkpt><trkpt lat="38.1676883" lon="15.83751"><ele>1318.0</ele><time>2026-04-06T13:06:39.188Z</time></trkpt><trkpt lat="38.16771" lon="15.837615"><ele>1317.8333333333333</ele><time>2026-04-06T13:06:41.188Z</time></trkpt><trkpt lat="38.167745" lon="15.837715"><ele>1317.6666666666665</ele><time>2026-04-06T13:06:43.188Z</time></trkpt><trkpt lat="38.1677833" lon="15.8378167"><ele>1317.5</ele><time>2026-04-06T13:06:45.188Z</time></trkpt><trkpt lat="38.167825" lon="15.8379117"><ele>1317.3333333333333</ele><time>2026-04-06T13:06:47.188Z</time></trkpt><trkpt lat="38.1678633" lon="15.838"><ele>1317.1666666666667</ele><time>2026-04-06T13:06:49.188Z</time></trkpt><trkpt lat="38.1679183" lon="15.8381"><ele>1317.0</ele><time>2026-04-06T13:06:51.187Z</time></trkpt><trkpt lat="38.1679833" lon="15.8381933"><ele>1317.0</ele><time>2026-04-06T13:06:53.188Z</time></trkpt><trkpt lat="38.1680567" lon="15.83826"><ele>1317.0</ele><time>2026-04-06T13:06:55.188Z</time></trkpt><trkpt lat="38.16814" lon="15.8383067"><ele>1317.0</ele><time>2026-04-06T13:06:57.188Z</time></trkpt><trkpt lat="38.1682067" lon="15.8383367"><ele>1317.0</ele><time>2026-04-06T13:06:59.187Z</time></trkpt><trkpt lat="38.1682883" lon="15.8383717"><ele>1317.0</ele><time>2026-04-06T13:07:01.188Z</time></trkpt><trkpt lat="38.168385" lon="15.8383967"><ele>1317.0</ele><time>2026-04-06T13:07:03.187Z</time></trkpt><trkpt lat="38.1684667" lon="15.8384217"><ele>1317.3333333333333</ele><time>2026-04-06T13:07:05.188Z</time></trkpt><trkpt lat="38.16853" lon="15.8384417"><ele>1317.6666666666667</ele><time>2026-04-06T13:07:07.188Z</time></trkpt><trkpt lat="38.1686233" lon="15.8384733"><ele>1318.0</ele><time>2026-04-06T13:07:10.188Z</time></trkpt><trkpt lat="38.168705" lon="15.8385267"><ele>1318.3333333333335</ele><time>2026-04-06T13:07:13.188Z</time></trkpt><trkpt lat="38.16876" lon="15.838575"><ele>1318.6666666666667</ele><time>2026-04-06T13:07:15.188Z</time></trkpt><trkpt lat="38.1688333" lon="15.8386567"><ele>1319.0</ele><time>2026-04-06T13:07:18.187Z</time></trkpt><trkpt lat="38.1688767" lon="15.8387167"><ele>1320.7142857142856</ele><time>2026-04-06T13:07:20.188Z</time></trkpt><trkpt lat="38.16892" lon="15.8387833"><ele>1322.4285714285713</ele><time>2026-04-06T13:07:21.188Z</time></trkpt><trkpt lat="38.1689467" lon="15.8388633"><ele>1324.142857142857</ele><time>2026-04-06T13:07:23.188Z</time></trkpt><trkpt lat="38.16899" lon="15.8389433"><ele>1325.8571428571427</ele><time>2026-04-06T13:07:25.188Z</time></trkpt><trkpt lat="38.16903" lon="15.83903"><ele>1327.5714285714284</ele><time>2026-04-06T13:07:27.187Z</time></trkpt><trkpt lat="38.16908" lon="15.8391167"><ele>1329.2857142857142</ele><time>2026-04-06T13:07:29.187Z</time></trkpt><trkpt lat="38.1691217" lon="15.8391833"><ele>1331.0</ele><time>2026-04-06T13:07:30.187Z</time></trkpt><trkpt lat="38.1691733" lon="15.839295"><ele>1333.4</ele><time>2026-04-06T13:07:32.188Z</time></trkpt><trkpt lat="38.1692067" lon="15.8393683"><ele>1335.8</ele><time>2026-04-06T13:07:33.187Z</time></trkpt><trkpt lat="38.1692433" lon="15.8394383"><ele>1338.2</ele><time>2026-04-06T13:07:34.188Z</time></trkpt><trkpt lat="38.1693233" lon="15.8395733"><ele>1340.6000000000001</ele><time>2026-04-06T13:07:36.187Z</time></trkpt><trkpt lat="38.1694167" lon="15.83966"><ele>1343.0</ele><time>2026-04-06T13:07:38.188Z</time></trkpt><trkpt lat="38.169475" lon="15.839715"><ele>1343.0</ele><time>2026-04-06T13:07:39.188Z</time></trkpt><trkpt lat="38.1695467" lon="15.8398283"><ele>1343.0</ele><time>2026-04-06T13:07:41.188Z</time></trkpt><trkpt lat="38.1695733" lon="15.8399517"><ele>1343.0</ele><time>2026-04-06T13:07:43.187Z</time></trkpt><trkpt lat="38.1695767" lon="15.8400833"><ele>1343.0</ele><time>2026-04-06T13:07:45.188Z</time></trkpt><trkpt lat="38.1695867" lon="15.84022"><ele>1343.0</ele><time>2026-04-06T13:07:47.187Z</time></trkpt><trkpt lat="38.16964" lon="15.84034"><ele>1343.4</ele><time>2026-04-06T13:07:49.188Z</time></trkpt><trkpt lat="38.1697117" lon="15.8404467"><ele>1343.8000000000002</ele><time>2026-04-06T13:07:51.187Z</time></trkpt><trkpt lat="38.16981" lon="15.840515"><ele>1344.2</ele><time>2026-04-06T13:07:53.188Z</time></trkpt><trkpt lat="38.1699167" lon="15.8405733"><ele>1344.6</ele><time>2026-04-06T13:07:55.188Z</time></trkpt><trkpt lat="38.1700067" lon="15.8405983"><ele>1345.0</ele><time>2026-04-06T13:07:57.188Z</time></trkpt><trkpt lat="38.17011" lon="15.8406133"><ele>1344.1666666666665</ele><time>2026-04-06T13:07:59.188Z</time></trkpt><trkpt lat="38.1702283" lon="15.840625"><ele>1343.3333333333333</ele><time>2026-04-06T13:08:01.188Z</time></trkpt><trkpt lat="38.170295" lon="15.8406517"><ele>1342.5</ele><time>2026-04-06T13:08:02.188Z</time></trkpt><trkpt lat="38.1703667" lon="15.8406833"><ele>1341.6666666666667</ele><time>2026-04-06T13:08:03.188Z</time></trkpt><trkpt lat="38.1704333" lon="15.8407267"><ele>1340.8333333333335</ele><time>2026-04-06T13:08:04.188Z</time></trkpt><trkpt lat="38.1705167" lon="15.8407783"><ele>1340.0</ele><time>2026-04-06T13:08:05.188Z</time></trkpt><trkpt lat="38.1705833" lon="15.8408317"><ele>1340.0</ele><time>2026-04-06T13:08:06.188Z</time></trkpt><trkpt lat="38.17065" lon="15.8408833"><ele>1340.0</ele><time>2026-04-06T13:08:07.188Z</time></trkpt><trkpt lat="38.1707183" lon="15.8409383"><ele>1340.0</ele><time>2026-04-06T13:08:08.187Z</time></trkpt><trkpt lat="38.17078" lon="15.8410117"><ele>1340.0</ele><time>2026-04-06T13:08:09.188Z</time></trkpt><trkpt lat="38.1708417" lon="15.8410883"><ele>1340.0</ele><time>2026-04-06T13:08:10.188Z</time></trkpt><trkpt lat="38.1709183" lon="15.8411717"><ele>1340.0</ele><time>2026-04-06T13:08:11.188Z</time></trkpt><trkpt lat="38.17098" lon="15.8412433"><ele>1341.5</ele><time>2026-04-06T13:08:12.188Z</time></trkpt><trkpt lat="38.171025" lon="15.8413117"><ele>1343.0</ele><time>2026-04-06T13:08:13.188Z</time></trkpt><trkpt lat="38.1710667" lon="15.841375"><ele>1344.5</ele><time>2026-04-06T13:08:14.188Z</time></trkpt><trkpt lat="38.171115" lon="15.8414367"><ele>1346.0</ele><time>2026-04-06T13:08:15.188Z</time></trkpt><trkpt lat="38.1711583" lon="15.8414967"><ele>1347.5</ele><time>2026-04-06T13:08:16.188Z</time></trkpt><trkpt lat="38.1712317" lon="15.84162"><ele>1349.0</ele><time>2026-04-06T13:08:18.188Z</time></trkpt><trkpt lat="38.1712717" lon="15.8416883"><ele>1349.0</ele><time>2026-04-06T13:08:19.188Z</time></trkpt><trkpt lat="38.171315" lon="15.8417567"><ele>1349.0</ele><time>2026-04-06T13:08:20.188Z</time></trkpt><trkpt lat="38.1713533" lon="15.8418267"><ele>1349.0</ele><time>2026-04-06T13:08:21.187Z</time></trkpt><trkpt lat="38.1713983" lon="15.8418983"><ele>1349.0</ele><time>2026-04-06T13:08:22.187Z</time></trkpt><trkpt lat="38.1714433" lon="15.8419767"><ele>1349.0</ele><time>2026-04-06T13:08:23.188Z</time></trkpt><trkpt lat="38.171485" lon="15.8420567"><ele>1349.0</ele><time>2026-04-06T13:08:24.188Z</time></trkpt><trkpt lat="38.1715317" lon="15.84213"><ele>1349.0</ele><time>2026-04-06T13:08:25.187Z</time></trkpt><trkpt lat="38.171575" lon="15.8422083"><ele>1348.857142857143</ele><time>2026-04-06T13:08:26.187Z</time></trkpt><trkpt lat="38.171615" lon="15.8422967"><ele>1348.7142857142858</ele><time>2026-04-06T13:08:27.188Z</time></trkpt><trkpt lat="38.1716483" lon="15.842385"><ele>1348.5714285714287</ele><time>2026-04-06T13:08:28.188Z</time></trkpt><trkpt lat="38.1716767" lon="15.842465"><ele>1348.4285714285716</ele><time>2026-04-06T13:08:29.188Z</time></trkpt><trkpt lat="38.1716983" lon="15.8425467"><ele>1348.2857142857142</ele><time>2026-04-06T13:08:30.188Z</time></trkpt><trkpt lat="38.1717217" lon="15.842625"><ele>1348.1428571428573</ele><time>2026-04-06T13:08:31.188Z</time></trkpt><trkpt lat="38.1717517" lon="15.8427033"><ele>1348.0</ele><time>2026-04-06T13:08:32.188Z</time></trkpt><trkpt lat="38.1718" lon="15.8427767"><ele>1349.0000000000002</ele><time>2026-04-06T13:08:33.187Z</time></trkpt><trkpt lat="38.171855" lon="15.842845"><ele>1350.0</ele><time>2026-04-06T13:08:34.188Z</time></trkpt><trkpt lat="38.1719167" lon="15.84291"><ele>1351.0</ele><time>2026-04-06T13:08:35.188Z</time></trkpt><trkpt lat="38.17197" lon="15.8429817"><ele>1352.0</ele><time>2026-04-06T13:08:36.187Z</time></trkpt><trkpt lat="38.1720233" lon="15.8430433"><ele>1353.0</ele><time>2026-04-06T13:08:37.188Z</time></trkpt><trkpt lat="38.1720683" lon="15.84311"><ele>1354.0000000000002</ele><time>2026-04-06T13:08:38.187Z</time></trkpt><trkpt lat="38.1721133" lon="15.8431767"><ele>1355.0</ele><time>2026-04-06T13:08:39.188Z</time></trkpt><trkpt lat="38.1721817" lon="15.8432583"><ele>1355.0</ele><time>2026-04-06T13:08:40.188Z</time></trkpt><trkpt lat="38.17222" lon="15.8433333"><ele>1355.0</ele><time>2026-04-06T13:08:41.188Z</time></trkpt><trkpt lat="38.1722683" lon="15.8434117"><ele>1355.0</ele><time>2026-04-06T13:08:42.187Z</time></trkpt><trkpt lat="38.1723283" lon="15.8435033"><ele>1355.0</ele><time>2026-04-06T13:08:43.188Z</time></trkpt><trkpt lat="38.1723983" lon="15.84359"><ele>1355.0</ele><time>2026-04-06T13:08:44.187Z</time></trkpt><trkpt lat="38.172445" lon="15.8436683"><ele>1355.0</ele><time>2026-04-06T13:08:45.188Z</time></trkpt><trkpt lat="38.1724767" lon="15.8437467"><ele>1354.8333333333335</ele><time>2026-04-06T13:08:46.188Z</time></trkpt><trkpt lat="38.1725133" lon="15.8438333"><ele>1354.6666666666667</ele><time>2026-04-06T13:08:47.188Z</time></trkpt><trkpt lat="38.172555" lon="15.84392"><ele>1354.5</ele><time>2026-04-06T13:08:48.188Z</time></trkpt><trkpt lat="38.1726017" lon="15.8439933"><ele>1354.3333333333333</ele><time>2026-04-06T13:08:49.188Z</time></trkpt><trkpt lat="38.1726533" lon="15.84407"><ele>1354.1666666666665</ele><time>2026-04-06T13:08:50.188Z</time></trkpt><trkpt lat="38.172705" lon="15.8441383"><ele>1354.0</ele><time>2026-04-06T13:08:51.187Z</time></trkpt><trkpt lat="38.1727517" lon="15.844205"><ele>1353.9999999999998</ele><time>2026-04-06T13:08:52.188Z</time></trkpt><trkpt lat="38.1727967" lon="15.8442717"><ele>1354.0</ele><time>2026-04-06T13:08:53.187Z</time></trkpt><trkpt lat="38.1728417" lon="15.84433"><ele>1354.0</ele><time>2026-04-06T13:08:54.188Z</time></trkpt><trkpt lat="38.172885" lon="15.844395"><ele>1354.0</ele><time>2026-04-06T13:08:55.188Z</time></trkpt><trkpt lat="38.172935" lon="15.8444667"><ele>1354.0</ele><time>2026-04-06T13:08:56.187Z</time></trkpt><trkpt lat="38.1729833" lon="15.8445333"><ele>1353.9999999999998</ele><time>2026-04-06T13:08:57.187Z</time></trkpt><trkpt lat="38.1730267" lon="15.8446067"><ele>1354.0</ele><time>2026-04-06T13:08:58.188Z</time></trkpt><trkpt lat="38.173075" lon="15.84468"><ele>1354.5</ele><time>2026-04-06T13:08:59.188Z</time></trkpt><trkpt lat="38.1731267" lon="15.8447517"><ele>1355.0</ele><time>2026-04-06T13:09:00.187Z</time></trkpt><trkpt lat="38.173175" lon="15.8448233"><ele>1355.5</ele><time>2026-04-06T13:09:01.187Z</time></trkpt><trkpt lat="38.1732133" lon="15.844895"><ele>1356.0</ele><time>2026-04-06T13:09:02.188Z</time></trkpt><trkpt lat="38.173285" lon="15.8449717"><ele>1356.5</ele><time>2026-04-06T13:09:03.188Z</time></trkpt><trkpt lat="38.17334" lon="15.845045"><ele>1357.0</ele><time>2026-04-06T13:09:04.188Z</time></trkpt><trkpt lat="38.1734033" lon="15.84511"><ele>1356.7142857142858</ele><time>2026-04-06T13:09:05.188Z</time></trkpt><trkpt lat="38.1734717" lon="15.8451733"><ele>1356.4285714285716</ele><time>2026-04-06T13:09:06.188Z</time></trkpt><trkpt lat="38.1735317" lon="15.8452433"><ele>1356.1428571428573</ele><time>2026-04-06T13:09:07.188Z</time></trkpt><trkpt lat="38.173575" lon="15.8453017"><ele>1355.857142857143</ele><time>2026-04-06T13:09:08.187Z</time></trkpt><trkpt lat="38.1736333" lon="15.8453567"><ele>1355.5714285714287</ele><time>2026-04-06T13:09:09.188Z</time></trkpt><trkpt lat="38.17369" lon="15.845415"><ele>1355.2857142857144</ele><time>2026-04-06T13:09:10.187Z</time></trkpt><trkpt lat="38.1737483" lon="15.8454683"><ele>1355.0</ele><time>2026-04-06T13:09:11.187Z</time></trkpt><trkpt lat="38.1738317" lon="15.84555"><ele>1355.0</ele><time>2026-04-06T13:09:13.188Z</time></trkpt><trkpt lat="38.173915" lon="15.8455883"><ele>1355.0</ele><time>2026-04-06T13:09:15.188Z</time></trkpt><trkpt lat="38.174005" lon="15.84561"><ele>1355.0</ele><time>2026-04-06T13:09:17.187Z</time></trkpt><trkpt lat="38.1740917" lon="15.8456083"><ele>1355.0</ele><time>2026-04-06T13:09:19.188Z</time></trkpt><trkpt lat="38.1741933" lon="15.84563"><ele>1355.0</ele><time>2026-04-06T13:09:21.188Z</time></trkpt><trkpt lat="38.1742817" lon="15.845685"><ele>1354.4</ele><time>2026-04-06T13:09:23.188Z</time></trkpt><trkpt lat="38.1743783" lon="15.8457517"><ele>1353.8</ele><time>2026-04-06T13:09:24.188Z</time></trkpt><trkpt lat="38.1744817" lon="15.8458267"><ele>1353.1999999999998</ele><time>2026-04-06T13:09:25.188Z</time></trkpt><trkpt lat="38.1745433" lon="15.84588"><ele>1352.6</ele><time>2026-04-06T13:09:26.187Z</time></trkpt><trkpt lat="38.174615" lon="15.8459383"><ele>1352.0</ele><time>2026-04-06T13:09:27.187Z</time></trkpt><trkpt lat="38.1746967" lon="15.846035"><ele>1352.0</ele><time>2026-04-06T13:09:28.188Z</time></trkpt><trkpt lat="38.1747617" lon="15.84611"><ele>1352.0</ele><time>2026-04-06T13:09:29.187Z</time></trkpt><trkpt lat="38.1748067" lon="15.8462"><ele>1352.0</ele><time>2026-04-06T13:09:30.187Z</time></trkpt><trkpt lat="38.1748617" lon="15.8462983"><ele>1352.0</ele><time>2026-04-06T13:09:31.188Z</time></trkpt><trkpt lat="38.174935" lon="15.846415"><ele>1352.0</ele><time>2026-04-06T13:09:32.188Z</time></trkpt><trkpt lat="38.1749783" lon="15.8465283"><ele>1352.0</ele><time>2026-04-06T13:09:33.188Z</time></trkpt><trkpt lat="38.17499" lon="15.846645"><ele>1352.0</ele><time>2026-04-06T13:09:34.188Z</time></trkpt><trkpt lat="38.1749167" lon="15.8467433"><ele>1352.0</ele><time>2026-04-06T13:09:35.188Z</time></trkpt><trkpt lat="38.174875" lon="15.8468183"><ele>1352.0</ele><time>2026-04-06T13:09:36.187Z</time></trkpt><trkpt lat="38.1748333" lon="15.8468983"><ele>1352.0</ele><time>2026-04-06T13:09:37.188Z</time></trkpt><trkpt lat="38.17478" lon="15.8469817"><ele>1352.0</ele><time>2026-04-06T13:09:38.188Z</time></trkpt><trkpt lat="38.1747283" lon="15.8470567"><ele>1352.0</ele><time>2026-04-06T13:09:39.187Z</time></trkpt><trkpt lat="38.1746883" lon="15.8471367"><ele>1352.0</ele><time>2026-04-06T13:09:40.188Z</time></trkpt><trkpt lat="38.174655" lon="15.8472067"><ele>1352.0</ele><time>2026-04-06T13:09:41.187Z</time></trkpt><trkpt lat="38.1746283" lon="15.847295"><ele>1352.0</ele><time>2026-04-06T13:09:42.187Z</time></trkpt><trkpt lat="38.1746133" lon="15.8473817"><ele>1352.0</ele><time>2026-04-06T13:09:43.188Z</time></trkpt><trkpt lat="38.1745983" lon="15.8474667"><ele>1352.0</ele><time>2026-04-06T13:09:44.187Z</time></trkpt><trkpt lat="38.17459" lon="15.8476217"><ele>1352.25</ele><time>2026-04-06T13:09:46.187Z</time></trkpt><trkpt lat="38.1745867" lon="15.847705"><ele>1352.5</ele><time>2026-04-06T13:09:47.188Z</time></trkpt><trkpt lat="38.1746" lon="15.8478567"><ele>1352.75</ele><time>2026-04-06T13:09:49.188Z</time></trkpt><trkpt lat="38.174665" lon="15.8480433"><ele>1353.0</ele><time>2026-04-06T13:09:51.188Z</time></trkpt><trkpt lat="38.1747417" lon="15.8481567"><ele>1353.0</ele><time>2026-04-06T13:09:52.188Z</time></trkpt><trkpt lat="38.1748267" lon="15.848265"><ele>1353.0</ele><time>2026-04-06T13:09:53.188Z</time></trkpt><trkpt lat="38.1749067" lon="15.84834"><ele>1353.0</ele><time>2026-04-06T13:09:54.188Z</time></trkpt><trkpt lat="38.1749917" lon="15.8484117"><ele>1353.0</ele><time>2026-04-06T13:09:55.188Z</time></trkpt><trkpt lat="38.175125" lon="15.84852"><ele>1348.5</ele><time>2026-04-06T13:09:56.188Z</time></trkpt><trkpt lat="38.175185" lon="15.848595"><ele>1344.0</ele><time>2026-04-06T13:09:57.187Z</time></trkpt><trkpt lat="38.17522" lon="15.84867"><ele>1339.5</ele><time>2026-04-06T13:09:58.187Z</time></trkpt><trkpt lat="38.1752417" lon="15.84875"><ele>1335.0</ele><time>2026-04-06T13:09:59.188Z</time></trkpt><trkpt lat="38.1752217" lon="15.8488817"><ele>1330.5</ele><time>2026-04-06T13:10:01.188Z</time></trkpt><trkpt lat="38.1751833" lon="15.8490083"><ele>1326.0</ele><time>2026-04-06T13:10:03.188Z</time></trkpt><trkpt lat="38.175135" lon="15.84914"><ele>1326.0</ele><time>2026-04-06T13:10:05.187Z</time></trkpt><trkpt lat="38.1751317" lon="15.8492483"><ele>1326.0</ele><time>2026-04-06T13:10:06.188Z</time></trkpt><trkpt lat="38.1751517" lon="15.8493483"><ele>1326.0</ele><time>2026-04-06T13:10:07.187Z</time></trkpt><trkpt lat="38.1751817" lon="15.8494417"><ele>1326.0</ele><time>2026-04-06T13:10:08.187Z</time></trkpt><trkpt lat="38.17522" lon="15.8495333"><ele>1326.0</ele><time>2026-04-06T13:10:09.188Z</time></trkpt><trkpt lat="38.17526" lon="15.8496183"><ele>1326.0</ele><time>2026-04-06T13:10:10.188Z</time></trkpt><trkpt lat="38.1753133" lon="15.8496833"><ele>1325.8</ele><time>2026-04-06T13:10:11.188Z</time></trkpt><trkpt lat="38.1753717" lon="15.8497133"><ele>1325.6</ele><time>2026-04-06T13:10:12.187Z</time></trkpt><trkpt lat="38.17551" lon="15.8496967"><ele>1325.4</ele><time>2026-04-06T13:10:14.187Z</time></trkpt><trkpt lat="38.1755867" lon="15.8496617"><ele>1325.2</ele><time>2026-04-06T13:10:15.188Z</time></trkpt><trkpt lat="38.1756717" lon="15.8496267"><ele>1325.0</ele><time>2026-04-06T13:10:16.188Z</time></trkpt><trkpt lat="38.1757567" lon="15.8495833"><ele>1325.0</ele><time>2026-04-06T13:10:17.188Z</time></trkpt><trkpt lat="38.175845" lon="15.8495483"><ele>1325.0</ele><time>2026-04-06T13:10:18.188Z</time></trkpt><trkpt lat="38.17593" lon="15.8495133"><ele>1325.0</ele><time>2026-04-06T13:10:19.188Z</time></trkpt><trkpt lat="38.1760117" lon="15.8494867"><ele>1325.0</ele><time>2026-04-06T13:10:20.188Z</time></trkpt><trkpt lat="38.1760967" lon="15.8494767"><ele>1325.0</ele><time>2026-04-06T13:10:21.188Z</time></trkpt><trkpt lat="38.1761633" lon="15.8494533"><ele>1325.0</ele><time>2026-04-06T13:10:22.188Z</time></trkpt><trkpt lat="38.17623" lon="15.84942"><ele>1325.0</ele><time>2026-04-06T13:10:23.187Z</time></trkpt><trkpt lat="38.1762917" lon="15.8493733"><ele>1325.0</ele><time>2026-04-06T13:10:24.187Z</time></trkpt><trkpt lat="38.1763533" lon="15.849315"><ele>1325.0</ele><time>2026-04-06T13:10:25.188Z</time></trkpt><trkpt lat="38.1764083" lon="15.8492583"><ele>1325.0</ele><time>2026-04-06T13:10:26.187Z</time></trkpt><trkpt lat="38.1764583" lon="15.849185"><ele>1325.0</ele><time>2026-04-06T13:10:27.188Z</time></trkpt><trkpt lat="38.1765117" lon="15.84911"><ele>1325.0</ele><time>2026-04-06T13:10:28.188Z</time></trkpt><trkpt lat="38.1765583" lon="15.849015"><ele>1325.857142857143</ele><time>2026-04-06T13:10:29.187Z</time></trkpt><trkpt lat="38.1765983" lon="15.8489217"><ele>1326.7142857142856</ele><time>2026-04-06T13:10:30.188Z</time></trkpt><trkpt lat="38.1766317" lon="15.8488383"><ele>1327.5714285714284</ele><time>2026-04-06T13:10:31.187Z</time></trkpt><trkpt lat="38.1766633" lon="15.848755"><ele>1328.4285714285716</ele><time>2026-04-06T13:10:32.188Z</time></trkpt><trkpt lat="38.1766783" lon="15.8486683"><ele>1329.2857142857142</ele><time>2026-04-06T13:10:33.188Z</time></trkpt><trkpt lat="38.1766967" lon="15.848585"><ele>1330.142857142857</ele><time>2026-04-06T13:10:34.187Z</time></trkpt><trkpt lat="38.1767133" lon="15.8485033"><ele>1331.0</ele><time>2026-04-06T13:10:35.188Z</time></trkpt><trkpt lat="38.17673" lon="15.848425"><ele>1329.0</ele><time>2026-04-06T13:10:36.188Z</time></trkpt><trkpt lat="38.1767483" lon="15.8483317"><ele>1327.0</ele><time>2026-04-06T13:10:37.188Z</time></trkpt><trkpt lat="38.1767683" lon="15.8482467"><ele>1325.0</ele><time>2026-04-06T13:10:38.188Z</time></trkpt><trkpt lat="38.176795" lon="15.84817"><ele>1323.0</ele><time>2026-04-06T13:10:39.188Z</time></trkpt><trkpt lat="38.176845" lon="15.8480883"><ele>1321.0</ele><time>2026-04-06T13:10:40.187Z</time></trkpt><trkpt lat="38.1768933" lon="15.848005"><ele>1319.0</ele><time>2026-04-06T13:10:41.188Z</time></trkpt><trkpt lat="38.1769467" lon="15.8479233"><ele>1319.0</ele><time>2026-04-06T13:10:42.188Z</time></trkpt><trkpt lat="38.1769967" lon="15.847845"><ele>1319.0</ele><time>2026-04-06T13:10:43.188Z</time></trkpt><trkpt lat="38.1770467" lon="15.8477667"><ele>1319.0</ele><time>2026-04-06T13:10:44.188Z</time></trkpt><trkpt lat="38.1771017" lon="15.8476933"><ele>1319.0</ele><time>2026-04-06T13:10:45.188Z</time></trkpt><trkpt lat="38.1771467" lon="15.8476183"><ele>1319.0</ele><time>2026-04-06T13:10:46.188Z</time></trkpt><trkpt lat="38.1771917" lon="15.84753"><ele>1319.0</ele><time>2026-04-06T13:10:47.187Z</time></trkpt><trkpt lat="38.1772267" lon="15.84743"><ele>1316.4</ele><time>2026-04-06T13:10:48.188Z</time></trkpt><trkpt lat="38.177265" lon="15.84733"><ele>1313.8000000000002</ele><time>2026-04-06T13:10:49.188Z</time></trkpt><trkpt lat="38.1773083" lon="15.84723"><ele>1311.1999999999998</ele><time>2026-04-06T13:10:50.188Z</time></trkpt><trkpt lat="38.177355" lon="15.8471133"><ele>1308.6</ele><time>2026-04-06T13:10:51.188Z</time></trkpt><trkpt lat="38.177395" lon="15.8470117"><ele>1306.0</ele><time>2026-04-06T13:10:52.188Z</time></trkpt><trkpt lat="38.1774483" lon="15.8469083"><ele>1310.0</ele><time>2026-04-06T13:10:53.188Z</time></trkpt><trkpt lat="38.1775033" lon="15.8468"><ele>1314.0</ele><time>2026-04-06T13:10:54.188Z</time></trkpt><trkpt lat="38.1775617" lon="15.8466933"><ele>1318.0</ele><time>2026-04-06T13:10:55.188Z</time></trkpt><trkpt lat="38.1776233" lon="15.846585"><ele>1322.0</ele><time>2026-04-06T13:10:56.187Z</time></trkpt><trkpt lat="38.1776783" lon="15.846465"><ele>1326.0</ele><time>2026-04-06T13:10:57.187Z</time></trkpt><trkpt lat="38.177725" lon="15.84636"><ele>1326.0</ele><time>2026-04-06T13:10:58.187Z</time></trkpt><trkpt lat="38.177775" lon="15.846265"><ele>1326.0</ele><time>2026-04-06T13:10:59.188Z</time></trkpt><trkpt lat="38.177815" lon="15.846175"><ele>1326.0</ele><time>2026-04-06T13:11:00.188Z</time></trkpt><trkpt lat="38.1778533" lon="15.8460833"><ele>1326.0</ele><time>2026-04-06T13:11:01.188Z</time></trkpt><trkpt lat="38.1778783" lon="15.8459967"><ele>1326.0</ele><time>2026-04-06T13:11:02.187Z</time></trkpt><trkpt lat="38.1778983" lon="15.8458983"><ele>1326.0</ele><time>2026-04-06T13:11:03.188Z</time></trkpt><trkpt lat="38.1779183" lon="15.8458117"><ele>1326.1999999999998</ele><time>2026-04-06T13:11:04.187Z</time></trkpt><trkpt lat="38.1779417" lon="15.845735"><ele>1326.3999999999999</ele><time>2026-04-06T13:11:05.187Z</time></trkpt><trkpt lat="38.1779883" lon="15.8456083"><ele>1326.6</ele><time>2026-04-06T13:11:07.187Z</time></trkpt><trkpt lat="38.1780483" lon="15.8454983"><ele>1326.8</ele><time>2026-04-06T13:11:09.188Z</time></trkpt><trkpt lat="38.1781117" lon="15.8453783"><ele>1327.0</ele><time>2026-04-06T13:11:11.188Z</time></trkpt><trkpt lat="38.1781917" lon="15.8452633"><ele>1327.0</ele><time>2026-04-06T13:11:13.187Z</time></trkpt><trkpt lat="38.1782383" lon="15.8452"><ele>1327.0</ele><time>2026-04-06T13:11:14.188Z</time></trkpt><trkpt lat="38.1782883" lon="15.8451367"><ele>1327.0</ele><time>2026-04-06T13:11:15.188Z</time></trkpt><trkpt lat="38.1783783" lon="15.845025"><ele>1327.0</ele><time>2026-04-06T13:11:17.188Z</time></trkpt><trkpt lat="38.178465" lon="15.8449267"><ele>1327.0</ele><time>2026-04-06T13:11:19.187Z</time></trkpt><trkpt lat="38.1785467" lon="15.844875"><ele>1326.5</ele><time>2026-04-06T13:11:21.188Z</time></trkpt><trkpt lat="38.1786233" lon="15.8448467"><ele>1326.0</ele><time>2026-04-06T13:11:23.187Z</time></trkpt><trkpt lat="38.17869" lon="15.844805"><ele>1325.5</ele><time>2026-04-06T13:11:25.187Z</time></trkpt><trkpt lat="38.17877" lon="15.844805"><ele>1325.0</ele><time>2026-04-06T13:11:27.188Z</time></trkpt><trkpt lat="38.178855" lon="15.8448383"><ele>1324.5</ele><time>2026-04-06T13:11:29.188Z</time></trkpt><trkpt lat="38.17895" lon="15.84488"><ele>1324.0</ele><time>2026-04-06T13:11:31.187Z</time></trkpt><trkpt lat="38.179045" lon="15.844915"><ele>1324.0</ele><time>2026-04-06T13:11:33.188Z</time></trkpt><trkpt lat="38.1791317" lon="15.8449467"><ele>1324.0</ele><time>2026-04-06T13:11:35.188Z</time></trkpt><trkpt lat="38.1792317" lon="15.84499"><ele>1324.0</ele><time>2026-04-06T13:11:37.188Z</time></trkpt><trkpt lat="38.1793233" lon="15.8450233"><ele>1324.0</ele><time>2026-04-06T13:11:39.188Z</time></trkpt><trkpt lat="38.1794083" lon="15.8450683"><ele>1324.0</ele><time>2026-04-06T13:11:41.188Z</time></trkpt><trkpt lat="38.1795067" lon="15.845115"><ele>1324.0</ele><time>2026-04-06T13:11:43.188Z</time></trkpt><trkpt lat="38.1796167" lon="15.8451633"><ele>1324.0</ele><time>2026-04-06T13:11:45.188Z</time></trkpt><trkpt lat="38.1797183" lon="15.8452133"><ele>1324.0</ele><time>2026-04-06T13:11:47.188Z</time></trkpt><trkpt lat="38.1798333" lon="15.8452583"><ele>1324.0</ele><time>2026-04-06T13:11:49.188Z</time></trkpt><trkpt lat="38.1799467" lon="15.84532"><ele>1324.0</ele><time>2026-04-06T13:11:51.188Z</time></trkpt><trkpt lat="38.1800533" lon="15.8453717"><ele>1324.0</ele><time>2026-04-06T13:11:53.188Z</time></trkpt><trkpt lat="38.180155" lon="15.8454283"><ele>1324.0</ele><time>2026-04-06T13:11:55.187Z</time></trkpt><trkpt lat="38.1802567" lon="15.8454717"><ele>1324.0</ele><time>2026-04-06T13:11:57.188Z</time></trkpt><trkpt lat="38.1803567" lon="15.8455183"><ele>1324.0</ele><time>2026-04-06T13:11:59.188Z</time></trkpt><trkpt lat="38.1804633" lon="15.845555"><ele>1324.0</ele><time>2026-04-06T13:12:01.188Z</time></trkpt><trkpt lat="38.1805783" lon="15.8455933"><ele>1324.0</ele><time>2026-04-06T13:12:03.187Z</time></trkpt><trkpt lat="38.1806883" lon="15.8456367"><ele>1324.0</ele><time>2026-04-06T13:12:05.188Z</time></trkpt><trkpt lat="38.180775" lon="15.84569"><ele>1324.0</ele><time>2026-04-06T13:12:07.188Z</time></trkpt><trkpt lat="38.180845" lon="15.8457517"><ele>1324.0</ele><time>2026-04-06T13:12:09.187Z</time></trkpt><trkpt lat="38.180905" lon="15.845805"><ele>1323.5</ele><time>2026-04-06T13:12:11.187Z</time></trkpt><trkpt lat="38.1809467" lon="15.8458883"><ele>1323.0</ele><time>2026-04-06T13:12:14.187Z</time></trkpt><trkpt lat="38.1810117" lon="15.8458883"><ele>1322.5</ele><time>2026-04-06T13:12:19.187Z</time></trkpt><trkpt lat="38.180955" lon="15.8458217"><ele>1322.0</ele><time>2026-04-06T13:12:41.188Z</time></trkpt><trkpt lat="38.1808967" lon="15.8457733"><ele>1321.5</ele><time>2026-04-06T13:12:43.188Z</time></trkpt><trkpt lat="38.1808367" lon="15.8457083"><ele>1321.0</ele><time>2026-04-06T13:12:45.188Z</time></trkpt><trkpt lat="38.1807617" lon="15.8456467"><ele>1321.6</ele><time>2026-04-06T13:12:48.188Z</time></trkpt><trkpt lat="38.1806733" lon="15.8456"><ele>1322.1999999999998</ele><time>2026-04-06T13:12:51.188Z</time></trkpt><trkpt lat="38.1805967" lon="15.8455867"><ele>1322.8000000000002</ele><time>2026-04-06T13:12:53.187Z</time></trkpt><trkpt lat="38.1805283" lon="15.8455633"><ele>1323.4</ele><time>2026-04-06T13:12:55.187Z</time></trkpt><trkpt lat="38.180445" lon="15.8455167"><ele>1324.0</ele><time>2026-04-06T13:12:57.188Z</time></trkpt><trkpt lat="38.1803217" lon="15.8454517"><ele>1324.0</ele><time>2026-04-06T13:12:59.187Z</time></trkpt><trkpt lat="38.18025" lon="15.84542"><ele>1324.0</ele><time>2026-04-06T13:13:00.188Z</time></trkpt><trkpt lat="38.1801767" lon="15.8453867"><ele>1324.0</ele><time>2026-04-06T13:13:01.188Z</time></trkpt><trkpt lat="38.1801017" lon="15.8453517"><ele>1324.0</ele><time>2026-04-06T13:13:02.187Z</time></trkpt><trkpt lat="38.18002" lon="15.8453183"><ele>1324.0</ele><time>2026-04-06T13:13:03.188Z</time></trkpt><trkpt lat="38.179945" lon="15.845285"><ele>1324.0</ele><time>2026-04-06T13:13:04.188Z</time></trkpt><trkpt lat="38.1798733" lon="15.8452467"><ele>1324.0</ele><time>2026-04-06T13:13:05.188Z</time></trkpt><trkpt lat="38.1798033" lon="15.8452133"><ele>1324.0</ele><time>2026-04-06T13:13:06.187Z</time></trkpt><trkpt lat="38.179735" lon="15.8451783"><ele>1324.0</ele><time>2026-04-06T13:13:07.188Z</time></trkpt><trkpt lat="38.179665" lon="15.845145"><ele>1324.0</ele><time>2026-04-06T13:13:08.187Z</time></trkpt><trkpt lat="38.179595" lon="15.8451133"><ele>1324.0</ele><time>2026-04-06T13:13:09.188Z</time></trkpt><trkpt lat="38.179525" lon="15.84508"><ele>1324.0</ele><time>2026-04-06T13:13:10.188Z</time></trkpt><trkpt lat="38.1794583" lon="15.845045"><ele>1324.0</ele><time>2026-04-06T13:13:11.187Z</time></trkpt><trkpt lat="38.1793867" lon="15.8450133"><ele>1324.0</ele><time>2026-04-06T13:13:12.188Z</time></trkpt><trkpt lat="38.17932" lon="15.8449833"><ele>1324.0</ele><time>2026-04-06T13:13:13.188Z</time></trkpt><trkpt lat="38.1792533" lon="15.844955"><ele>1324.0</ele><time>2026-04-06T13:13:14.188Z</time></trkpt><trkpt lat="38.1791883" lon="15.8449283"><ele>1324.0</ele><time>2026-04-06T13:13:15.188Z</time></trkpt><trkpt lat="38.179125" lon="15.8449033"><ele>1324.0</ele><time>2026-04-06T13:13:16.187Z</time></trkpt><trkpt lat="38.1790083" lon="15.8448533"><ele>1324.0</ele><time>2026-04-06T13:13:18.187Z</time></trkpt><trkpt lat="38.1789" lon="15.8448083"><ele>1323.8333333333333</ele><time>2026-04-06T13:13:20.188Z</time></trkpt><trkpt lat="38.178835" lon="15.8447583"><ele>1323.6666666666665</ele><time>2026-04-06T13:13:22.188Z</time></trkpt><trkpt lat="38.1788233" lon="15.844645"><ele>1323.5</ele><time>2026-04-06T13:13:25.188Z</time></trkpt><trkpt lat="38.1788517" lon="15.844555"><ele>1323.3333333333333</ele><time>2026-04-06T13:13:27.188Z</time></trkpt><trkpt lat="38.178845" lon="15.84447"><ele>1323.1666666666667</ele><time>2026-04-06T13:13:29.188Z</time></trkpt><trkpt lat="38.1787833" lon="15.8444083"><ele>1323.0</ele><time>2026-04-06T13:13:31.188Z</time></trkpt><trkpt lat="38.1786833" lon="15.8443433"><ele>1322.3333333333333</ele><time>2026-04-06T13:13:33.188Z</time></trkpt><trkpt lat="38.1785883" lon="15.8442567"><ele>1321.6666666666667</ele><time>2026-04-06T13:13:35.187Z</time></trkpt><trkpt lat="38.1785483" lon="15.84419"><ele>1321.0</ele><time>2026-04-06T13:13:36.187Z</time></trkpt><trkpt lat="38.1785283" lon="15.84411"><ele>1320.3333333333335</ele><time>2026-04-06T13:13:37.187Z</time></trkpt><trkpt lat="38.1785033" lon="15.8440333"><ele>1319.6666666666667</ele><time>2026-04-06T13:13:38.188Z</time></trkpt><trkpt lat="38.17847" lon="15.8439483"><ele>1319.0</ele><time>2026-04-06T13:13:39.188Z</time></trkpt><trkpt lat="38.1784367" lon="15.8438633"><ele>1318.9999999999998</ele><time>2026-04-06T13:13:40.188Z</time></trkpt><trkpt lat="38.1783967" lon="15.8437783"><ele>1319.0</ele><time>2026-04-06T13:13:41.188Z</time></trkpt><trkpt lat="38.1783633" lon="15.8436933"><ele>1319.0</ele><time>2026-04-06T13:13:42.188Z</time></trkpt><trkpt lat="38.178335" lon="15.8436067"><ele>1319.0</ele><time>2026-04-06T13:13:43.187Z</time></trkpt><trkpt lat="38.1783183" lon="15.8435167"><ele>1319.0</ele><time>2026-04-06T13:13:44.188Z</time></trkpt><trkpt lat="38.1783033" lon="15.843435"><ele>1318.9999999999998</ele><time>2026-04-06T13:13:45.187Z</time></trkpt><trkpt lat="38.1782933" lon="15.8433533"><ele>1319.0</ele><time>2026-04-06T13:13:46.188Z</time></trkpt><trkpt lat="38.1782967" lon="15.8431867"><ele>1318.1666666666667</ele><time>2026-04-06T13:13:48.188Z</time></trkpt><trkpt lat="38.1782933" lon="15.8430867"><ele>1317.3333333333335</ele><time>2026-04-06T13:13:49.187Z</time></trkpt><trkpt lat="38.1783" lon="15.8430067"><ele>1316.5</ele><time>2026-04-06T13:13:50.188Z</time></trkpt><trkpt lat="38.1783833" lon="15.8428717"><ele>1315.6666666666667</ele><time>2026-04-06T13:13:52.187Z</time></trkpt><trkpt lat="38.178455" lon="15.84281"><ele>1314.8333333333333</ele><time>2026-04-06T13:13:53.187Z</time></trkpt><trkpt lat="38.1785183" lon="15.842745"><ele>1314.0</ele><time>2026-04-06T13:13:54.188Z</time></trkpt><trkpt lat="38.178585" lon="15.8426617"><ele>1311.25</ele><time>2026-04-06T13:13:55.188Z</time></trkpt><trkpt lat="38.1786483" lon="15.8425517"><ele>1308.5</ele><time>2026-04-06T13:13:56.187Z</time></trkpt><trkpt lat="38.1787033" lon="15.84243"><ele>1305.75</ele><time>2026-04-06T13:13:57.188Z</time></trkpt><trkpt lat="38.1787483" lon="15.8422867"><ele>1303.0</ele><time>2026-04-06T13:13:58.188Z</time></trkpt><trkpt lat="38.1787917" lon="15.8421417"><ele>1303.0</ele><time>2026-04-06T13:13:59.187Z</time></trkpt><trkpt lat="38.178845" lon="15.84198"><ele>1303.0</ele><time>2026-04-06T13:14:00.188Z</time></trkpt><trkpt lat="38.1788867" lon="15.8418367"><ele>1303.0</ele><time>2026-04-06T13:14:01.188Z</time></trkpt><trkpt lat="38.1789167" lon="15.841715"><ele>1303.0</ele><time>2026-04-06T13:14:02.188Z</time></trkpt><trkpt lat="38.178955" lon="15.8415817"><ele>1303.2</ele><time>2026-04-06T13:14:03.188Z</time></trkpt><trkpt lat="38.17899" lon="15.8414617"><ele>1303.4</ele><time>2026-04-06T13:14:04.187Z</time></trkpt><trkpt lat="38.1790217" lon="15.84134"><ele>1303.6000000000001</ele><time>2026-04-06T13:14:05.188Z</time></trkpt><trkpt lat="38.1790683" lon="15.84119"><ele>1303.8000000000002</ele><time>2026-04-06T13:14:06.187Z</time></trkpt><trkpt lat="38.1791133" lon="15.8410467"><ele>1304.0</ele><time>2026-04-06T13:14:07.188Z</time></trkpt><trkpt lat="38.179155" lon="15.8409167"><ele>1301.4</ele><time>2026-04-06T13:14:08.188Z</time></trkpt><trkpt lat="38.1791933" lon="15.8407933"><ele>1298.8000000000002</ele><time>2026-04-06T13:14:09.187Z</time></trkpt><trkpt lat="38.1792217" lon="15.84067"><ele>1296.1999999999998</ele><time>2026-04-06T13:14:10.188Z</time></trkpt><trkpt lat="38.1792417" lon="15.840555"><ele>1293.6</ele><time>2026-04-06T13:14:11.188Z</time></trkpt><trkpt lat="38.17927" lon="15.8404167"><ele>1291.0</ele><time>2026-04-06T13:14:12.188Z</time></trkpt><trkpt lat="38.1792783" lon="15.8402883"><ele>1291.0</ele><time>2026-04-06T13:14:13.188Z</time></trkpt><trkpt lat="38.1792783" lon="15.8401683"><ele>1291.0</ele><time>2026-04-06T13:14:14.188Z</time></trkpt><trkpt lat="38.1792733" lon="15.8400467"><ele>1291.0</ele><time>2026-04-06T13:14:15.187Z</time></trkpt><trkpt lat="38.1792683" lon="15.8399217"><ele>1291.0</ele><time>2026-04-06T13:14:16.188Z</time></trkpt><trkpt lat="38.1792633" lon="15.8397917"><ele>1291.0</ele><time>2026-04-06T13:14:17.188Z</time></trkpt><trkpt lat="38.179265" lon="15.8396533"><ele>1288.5</ele><time>2026-04-06T13:14:18.188Z</time></trkpt><trkpt lat="38.1792683" lon="15.8395217"><ele>1286.0</ele><time>2026-04-06T13:14:19.188Z</time></trkpt><trkpt lat="38.1792983" lon="15.8393567"><ele>1283.5</ele><time>2026-04-06T13:14:20.187Z</time></trkpt><trkpt lat="38.179335" lon="15.8392"><ele>1281.0</ele><time>2026-04-06T13:14:21.188Z</time></trkpt><trkpt lat="38.1793783" lon="15.83905"><ele>1279.0</ele><time>2026-04-06T13:14:22.188Z</time></trkpt><trkpt lat="38.179435" lon="15.8389317"><ele>1277.0</ele><time>2026-04-06T13:14:23.187Z</time></trkpt><trkpt lat="38.1794967" lon="15.838835"><ele>1275.0</ele><time>2026-04-06T13:14:24.187Z</time></trkpt><trkpt lat="38.1795767" lon="15.83875"><ele>1273.0</ele><time>2026-04-06T13:14:25.187Z</time></trkpt><trkpt lat="38.1796833" lon="15.8386933"><ele>1271.0</ele><time>2026-04-06T13:14:26.187Z</time></trkpt><trkpt lat="38.1797983" lon="15.83865"><ele>1274.25</ele><time>2026-04-06T13:14:27.188Z</time></trkpt><trkpt lat="38.17991" lon="15.8386283"><ele>1277.5</ele><time>2026-04-06T13:14:28.187Z</time></trkpt><trkpt lat="38.1800217" lon="15.8386417"><ele>1280.75</ele><time>2026-04-06T13:14:29.188Z</time></trkpt><trkpt lat="38.180135" lon="15.83871"><ele>1284.0</ele><time>2026-04-06T13:14:30.187Z</time></trkpt><trkpt lat="38.1802517" lon="15.838845"><ele>1284.0</ele><time>2026-04-06T13:14:31.188Z</time></trkpt><trkpt lat="38.180335" lon="15.8389967"><ele>1284.0</ele><time>2026-04-06T13:14:32.187Z</time></trkpt><trkpt lat="38.1804183" lon="15.839115"><ele>1284.0</ele><time>2026-04-06T13:14:33.187Z</time></trkpt><trkpt lat="38.1805083" lon="15.8391583"><ele>1284.0</ele><time>2026-04-06T13:14:34.188Z</time></trkpt><trkpt lat="38.18062" lon="15.839145"><ele>1282.4</ele><time>2026-04-06T13:14:35.188Z</time></trkpt><trkpt lat="38.180695" lon="15.8391133"><ele>1280.8000000000002</ele><time>2026-04-06T13:14:36.187Z</time></trkpt><trkpt lat="38.180785" lon="15.8390433"><ele>1279.1999999999998</ele><time>2026-04-06T13:14:37.187Z</time></trkpt><trkpt lat="38.1808733" lon="15.8389617"><ele>1277.6</ele><time>2026-04-06T13:14:38.188Z</time></trkpt><trkpt lat="38.180955" lon="15.8389"><ele>1276.0</ele><time>2026-04-06T13:14:39.188Z</time></trkpt><trkpt lat="38.1810467" lon="15.8388583"><ele>1276.0</ele><time>2026-04-06T13:14:40.187Z</time></trkpt><trkpt lat="38.181135" lon="15.838845"><ele>1276.0</ele><time>2026-04-06T13:14:41.188Z</time></trkpt><trkpt lat="38.181215" lon="15.8388667"><ele>1276.0</ele><time>2026-04-06T13:14:42.188Z</time></trkpt><trkpt lat="38.18131" lon="15.8388917"><ele>1276.0</ele><time>2026-04-06T13:14:43.188Z</time></trkpt><trkpt lat="38.1814167" lon="15.838925"><ele>1276.0</ele><time>2026-04-06T13:14:44.188Z</time></trkpt><trkpt lat="38.18153" lon="15.8389567"><ele>1275.25</ele><time>2026-04-06T13:14:45.187Z</time></trkpt><trkpt lat="38.1816367" lon="15.8389917"><ele>1274.5</ele><time>2026-04-06T13:14:46.187Z</time></trkpt><trkpt lat="38.18176" lon="15.83903"><ele>1273.75</ele><time>2026-04-06T13:14:47.188Z</time></trkpt><trkpt lat="38.18189" lon="15.83906"><ele>1273.0</ele><time>2026-04-06T13:14:48.188Z</time></trkpt><trkpt lat="38.18202" lon="15.83908"><ele>1273.0</ele><time>2026-04-06T13:14:49.187Z</time></trkpt><trkpt lat="38.1821383" lon="15.839105"><ele>1273.0</ele><time>2026-04-06T13:14:50.188Z</time></trkpt><trkpt lat="38.1822583" lon="15.8391483"><ele>1273.0</ele><time>2026-04-06T13:14:51.188Z</time></trkpt><trkpt lat="38.182375" lon="15.8391717"><ele>1273.0</ele><time>2026-04-06T13:14:52.188Z</time></trkpt><trkpt lat="38.1824867" lon="15.83921"><ele>1272.0</ele><time>2026-04-06T13:14:53.187Z</time></trkpt><trkpt lat="38.1825967" lon="15.8392417"><ele>1271.0</ele><time>2026-04-06T13:14:54.188Z</time></trkpt><trkpt lat="38.1827133" lon="15.8392833"><ele>1270.0</ele><time>2026-04-06T13:14:55.188Z</time></trkpt><trkpt lat="38.1828183" lon="15.8393233"><ele>1269.0</ele><time>2026-04-06T13:14:56.188Z</time></trkpt><trkpt lat="38.182925" lon="15.839355"><ele>1269.0</ele><time>2026-04-06T13:14:57.188Z</time></trkpt><trkpt lat="38.1830333" lon="15.839375"><ele>1269.0</ele><time>2026-04-06T13:14:58.187Z</time></trkpt><trkpt lat="38.183135" lon="15.83937"><ele>1269.0</ele><time>2026-04-06T13:14:59.187Z</time></trkpt><trkpt lat="38.1832183" lon="15.8393483"><ele>1269.0</ele><time>2026-04-06T13:15:00.188Z</time></trkpt><trkpt lat="38.1833067" lon="15.8393033"><ele>1269.0</ele><time>2026-04-06T13:15:01.188Z</time></trkpt><trkpt lat="38.1833917" lon="15.8392517"><ele>1266.0</ele><time>2026-04-06T13:15:02.188Z</time></trkpt><trkpt lat="38.18348" lon="15.8391917"><ele>1263.0</ele><time>2026-04-06T13:15:03.187Z</time></trkpt><trkpt lat="38.1835667" lon="15.8391217"><ele>1260.0</ele><time>2026-04-06T13:15:04.188Z</time></trkpt><trkpt lat="38.1836533" lon="15.8390533"><ele>1257.0</ele><time>2026-04-06T13:15:05.187Z</time></trkpt><trkpt lat="38.18374" lon="15.8389983"><ele>1254.0</ele><time>2026-04-06T13:15:06.188Z</time></trkpt><trkpt lat="38.18383" lon="15.8389317"><ele>1254.0</ele><time>2026-04-06T13:15:07.188Z</time></trkpt><trkpt lat="38.18391" lon="15.8388767"><ele>1254.0</ele><time>2026-04-06T13:15:08.187Z</time></trkpt><trkpt lat="38.1839983" lon="15.83881"><ele>1254.0</ele><time>2026-04-06T13:15:09.187Z</time></trkpt><trkpt lat="38.1840817" lon="15.8387417"><ele>1254.0</ele><time>2026-04-06T13:15:10.188Z</time></trkpt><trkpt lat="38.1841767" lon="15.8386717"><ele>1254.0</ele><time>2026-04-06T13:15:11.188Z</time></trkpt><trkpt lat="38.184265" lon="15.8385933"><ele>1252.25</ele><time>2026-04-06T13:15:12.188Z</time></trkpt><trkpt lat="38.1843517" lon="15.8385117"><ele>1250.5</ele><time>2026-04-06T13:15:13.188Z</time></trkpt><trkpt lat="38.184445" lon="15.8384"><ele>1248.75</ele><time>2026-04-06T13:15:14.188Z</time></trkpt><trkpt lat="38.1845367" lon="15.838275"><ele>1247.0</ele><time>2026-04-06T13:15:15.188Z</time></trkpt><trkpt lat="38.1846067" lon="15.8381533"><ele>1245.6</ele><time>2026-04-06T13:15:16.188Z</time></trkpt><trkpt lat="38.1846567" lon="15.83803"><ele>1244.2</ele><time>2026-04-06T13:15:17.188Z</time></trkpt><trkpt lat="38.1847117" lon="15.837915"><ele>1242.8</ele><time>2026-04-06T13:15:18.188Z</time></trkpt><trkpt lat="38.184755" lon="15.8378017"><ele>1241.4</ele><time>2026-04-06T13:15:19.187Z</time></trkpt><trkpt lat="38.1847717" lon="15.837685"><ele>1240.0</ele><time>2026-04-06T13:15:20.188Z</time></trkpt><trkpt lat="38.1847883" lon="15.8375483"><ele>1238.2</ele><time>2026-04-06T13:15:21.188Z</time></trkpt><trkpt lat="38.1848033" lon="15.8374167"><ele>1236.4</ele><time>2026-04-06T13:15:22.187Z</time></trkpt><trkpt lat="38.1848183" lon="15.8372883"><ele>1234.6</ele><time>2026-04-06T13:15:23.188Z</time></trkpt><trkpt lat="38.1848283" lon="15.8371567"><ele>1232.8</ele><time>2026-04-06T13:15:24.187Z</time></trkpt><trkpt lat="38.1848467" lon="15.8370217"><ele>1231.0</ele><time>2026-04-06T13:15:25.188Z</time></trkpt><trkpt lat="38.1848733" lon="15.8368667"><ele>1229.75</ele><time>2026-04-06T13:15:26.187Z</time></trkpt><trkpt lat="38.1849" lon="15.8367067"><ele>1228.5</ele><time>2026-04-06T13:15:27.187Z</time></trkpt><trkpt lat="38.1849217" lon="15.8365567"><ele>1227.25</ele><time>2026-04-06T13:15:28.188Z</time></trkpt><trkpt lat="38.1849383" lon="15.8364117"><ele>1226.0</ele><time>2026-04-06T13:15:29.187Z</time></trkpt><trkpt lat="38.1849583" lon="15.836255"><ele>1226.0</ele><time>2026-04-06T13:15:30.188Z</time></trkpt><trkpt lat="38.18498" lon="15.836085"><ele>1226.0</ele><time>2026-04-06T13:15:31.188Z</time></trkpt><trkpt lat="38.1850067" lon="15.8359233"><ele>1226.0</ele><time>2026-04-06T13:15:32.187Z</time></trkpt><trkpt lat="38.1850333" lon="15.8357683"><ele>1226.0</ele><time>2026-04-06T13:15:33.187Z</time></trkpt><trkpt lat="38.185065" lon="15.8356083"><ele>1224.75</ele><time>2026-04-06T13:15:34.187Z</time></trkpt><trkpt lat="38.1850917" lon="15.8354433"><ele>1223.5</ele><time>2026-04-06T13:15:35.188Z</time></trkpt><trkpt lat="38.1851167" lon="15.8352833"><ele>1222.25</ele><time>2026-04-06T13:15:36.188Z</time></trkpt><trkpt lat="38.18514" lon="15.8351217"><ele>1221.0</ele><time>2026-04-06T13:15:37.188Z</time></trkpt><trkpt lat="38.1851617" lon="15.8349567"><ele>1220.0</ele><time>2026-04-06T13:15:38.187Z</time></trkpt><trkpt lat="38.1851883" lon="15.834795"><ele>1219.0</ele><time>2026-04-06T13:15:39.188Z</time></trkpt><trkpt lat="38.18522" lon="15.8346167"><ele>1218.0</ele><time>2026-04-06T13:15:40.188Z</time></trkpt><trkpt lat="38.1852433" lon="15.834445"><ele>1217.0</ele><time>2026-04-06T13:15:41.187Z</time></trkpt><trkpt lat="38.1852683" lon="15.8342717"><ele>1216.0</ele><time>2026-04-06T13:15:42.188Z</time></trkpt><trkpt lat="38.1852917" lon="15.83411"><ele>1215.0</ele><time>2026-04-06T13:15:43.188Z</time></trkpt><trkpt lat="38.1853167" lon="15.8339433"><ele>1214.0</ele><time>2026-04-06T13:15:44.188Z</time></trkpt><trkpt lat="38.185345" lon="15.833785"><ele>1213.0</ele><time>2026-04-06T13:15:45.188Z</time></trkpt><trkpt lat="38.1853483" lon="15.8336283"><ele>1211.25</ele><time>2026-04-06T13:15:46.188Z</time></trkpt><trkpt lat="38.1853683" lon="15.8334467"><ele>1209.5</ele><time>2026-04-06T13:15:47.188Z</time></trkpt><trkpt lat="38.1853967" lon="15.8332683"><ele>1207.75</ele><time>2026-04-06T13:15:48.187Z</time></trkpt><trkpt lat="38.185415" lon="15.83309"><ele>1206.0</ele><time>2026-04-06T13:15:49.187Z</time></trkpt><trkpt lat="38.185435" lon="15.8329033"><ele>1206.0</ele><time>2026-04-06T13:15:50.188Z</time></trkpt><trkpt lat="38.1854533" lon="15.8327217"><ele>1206.0</ele><time>2026-04-06T13:15:51.187Z</time></trkpt><trkpt lat="38.18548" lon="15.83254"><ele>1206.0</ele><time>2026-04-06T13:15:52.188Z</time></trkpt><trkpt lat="38.1855267" lon="15.8323483"><ele>1206.0</ele><time>2026-04-06T13:15:53.188Z</time></trkpt><trkpt lat="38.1855517" lon="15.8321567"><ele>1204.6666666666667</ele><time>2026-04-06T13:15:54.188Z</time></trkpt><trkpt lat="38.1855817" lon="15.8319617"><ele>1203.3333333333335</ele><time>2026-04-06T13:15:55.188Z</time></trkpt><trkpt lat="38.1856083" lon="15.8317783"><ele>1202.0</ele><time>2026-04-06T13:15:56.187Z</time></trkpt><trkpt lat="38.1856267" lon="15.83159"><ele>1200.3333333333335</ele><time>2026-04-06T13:15:57.188Z</time></trkpt><trkpt lat="38.1856567" lon="15.83141"><ele>1198.6666666666667</ele><time>2026-04-06T13:15:58.188Z</time></trkpt><trkpt lat="38.1856817" lon="15.8312167"><ele>1197.0</ele><time>2026-04-06T13:15:59.188Z</time></trkpt><trkpt lat="38.185705" lon="15.8310183"><ele>1196.0</ele><time>2026-04-06T13:16:00.187Z</time></trkpt><trkpt lat="38.1857317" lon="15.830825"><ele>1195.0</ele><time>2026-04-06T13:16:01.188Z</time></trkpt><trkpt lat="38.185755" lon="15.8306383"><ele>1194.0</ele><time>2026-04-06T13:16:02.188Z</time></trkpt><trkpt lat="38.18577" lon="15.830475"><ele>1193.0</ele><time>2026-04-06T13:16:03.188Z</time></trkpt><trkpt lat="38.1857983" lon="15.8303083"><ele>1191.6666666666667</ele><time>2026-04-06T13:16:04.188Z</time></trkpt><trkpt lat="38.18582" lon="15.8301017"><ele>1190.3333333333333</ele><time>2026-04-06T13:16:05.187Z</time></trkpt><trkpt lat="38.1858417" lon="15.8299167"><ele>1189.0</ele><time>2026-04-06T13:16:06.188Z</time></trkpt><trkpt lat="38.185885" lon="15.82971"><ele>1189.0</ele><time>2026-04-06T13:16:07.188Z</time></trkpt><trkpt lat="38.1859117" lon="15.8295067"><ele>1189.0</ele><time>2026-04-06T13:16:08.188Z</time></trkpt><trkpt lat="38.18594" lon="15.8293"><ele>1189.0</ele><time>2026-04-06T13:16:09.188Z</time></trkpt><trkpt lat="38.18597" lon="15.829105"><ele>1187.3333333333333</ele><time>2026-04-06T13:16:10.188Z</time></trkpt><trkpt lat="38.1859967" lon="15.828895"><ele>1185.6666666666667</ele><time>2026-04-06T13:16:11.187Z</time></trkpt><trkpt lat="38.1860283" lon="15.82869"><ele>1184.0</ele><time>2026-04-06T13:16:12.187Z</time></trkpt><trkpt lat="38.1860567" lon="15.8284833"><ele>1183.0</ele><time>2026-04-06T13:16:13.188Z</time></trkpt><trkpt lat="38.18608" lon="15.8282817"><ele>1182.0</ele><time>2026-04-06T13:16:14.187Z</time></trkpt><trkpt lat="38.1861017" lon="15.8280917"><ele>1181.0</ele><time>2026-04-06T13:16:15.187Z</time></trkpt><trkpt lat="38.186115" lon="15.8279"><ele>1181.0</ele><time>2026-04-06T13:16:16.188Z</time></trkpt><trkpt lat="38.1861317" lon="15.8277017"><ele>1181.0</ele><time>2026-04-06T13:16:17.187Z</time></trkpt><trkpt lat="38.186155" lon="15.8275067"><ele>1181.0</ele><time>2026-04-06T13:16:18.187Z</time></trkpt><trkpt lat="38.1861783" lon="15.8273117"><ele>1180.5</ele><time>2026-04-06T13:16:19.188Z</time></trkpt><trkpt lat="38.1861883" lon="15.827135"><ele>1180.0</ele><time>2026-04-06T13:16:20.188Z</time></trkpt><trkpt lat="38.1862167" lon="15.82695"><ele>1179.5</ele><time>2026-04-06T13:16:21.188Z</time></trkpt><trkpt lat="38.1862433" lon="15.82677"><ele>1179.0</ele><time>2026-04-06T13:16:22.188Z</time></trkpt><trkpt lat="38.1862667" lon="15.8265833"><ele>1177.75</ele><time>2026-04-06T13:16:23.188Z</time></trkpt><trkpt lat="38.1863067" lon="15.8263917"><ele>1176.5</ele><time>2026-04-06T13:16:24.188Z</time></trkpt><trkpt lat="38.18635" lon="15.8262033"><ele>1175.25</ele><time>2026-04-06T13:16:25.188Z</time></trkpt><trkpt lat="38.1863717" lon="15.82603"><ele>1174.0</ele><time>2026-04-06T13:16:26.187Z</time></trkpt><trkpt lat="38.1863933" lon="15.8258583"><ele>1172.5</ele><time>2026-04-06T13:16:27.187Z</time></trkpt><trkpt lat="38.1864133" lon="15.8256767"><ele>1171.0</ele><time>2026-04-06T13:16:28.188Z</time></trkpt><trkpt lat="38.1864467" lon="15.825505"><ele>1169.5</ele><time>2026-04-06T13:16:29.188Z</time></trkpt><trkpt lat="38.1864833" lon="15.825335"><ele>1168.0</ele><time>2026-04-06T13:16:30.187Z</time></trkpt><trkpt lat="38.1865267" lon="15.8251617"><ele>1166.75</ele><time>2026-04-06T13:16:31.187Z</time></trkpt><trkpt lat="38.1865817" lon="15.8249933"><ele>1165.5</ele><time>2026-04-06T13:16:32.188Z</time></trkpt><trkpt lat="38.18665" lon="15.824825"><ele>1164.25</ele><time>2026-04-06T13:16:33.188Z</time></trkpt><trkpt lat="38.1867283" lon="15.8246667"><ele>1163.0</ele><time>2026-04-06T13:16:34.187Z</time></trkpt><trkpt lat="38.18681" lon="15.8245033"><ele>1163.0</ele><time>2026-04-06T13:16:35.187Z</time></trkpt><trkpt lat="38.186895" lon="15.8243467"><ele>1163.0</ele><time>2026-04-06T13:16:36.188Z</time></trkpt><trkpt lat="38.18699" lon="15.82421"><ele>1163.0</ele><time>2026-04-06T13:16:37.187Z</time></trkpt><trkpt lat="38.1870983" lon="15.8240833"><ele>1163.0</ele><time>2026-04-06T13:16:38.188Z</time></trkpt><trkpt lat="38.1872067" lon="15.8239617"><ele>1162.75</ele><time>2026-04-06T13:16:39.188Z</time></trkpt><trkpt lat="38.1873183" lon="15.8238533"><ele>1162.5</ele><time>2026-04-06T13:16:40.187Z</time></trkpt><trkpt lat="38.1874317" lon="15.82375"><ele>1162.25</ele><time>2026-04-06T13:16:41.188Z</time></trkpt><trkpt lat="38.187535" lon="15.8236533"><ele>1162.0</ele><time>2026-04-06T13:16:42.188Z</time></trkpt><trkpt lat="38.187625" lon="15.8235517"><ele>1161.25</ele><time>2026-04-06T13:16:43.188Z</time></trkpt><trkpt lat="38.1877283" lon="15.8234517"><ele>1160.5</ele><time>2026-04-06T13:16:44.187Z</time></trkpt><trkpt lat="38.1878333" lon="15.8233533"><ele>1159.75</ele><time>2026-04-06T13:16:45.188Z</time></trkpt><trkpt lat="38.187935" lon="15.8232567"><ele>1159.0</ele><time>2026-04-06T13:16:46.187Z</time></trkpt><trkpt lat="38.1880317" lon="15.8231533"><ele>1159.0</ele><time>2026-04-06T13:16:47.188Z</time></trkpt><trkpt lat="38.1881233" lon="15.8230617"><ele>1159.0</ele><time>2026-04-06T13:16:48.188Z</time></trkpt><trkpt lat="38.188205" lon="15.822975"><ele>1159.0</ele><time>2026-04-06T13:16:49.188Z</time></trkpt><trkpt lat="38.1882867" lon="15.8228883"><ele>1159.0</ele><time>2026-04-06T13:16:50.188Z</time></trkpt><trkpt lat="38.1883733" lon="15.8228033"><ele>1159.0</ele><time>2026-04-06T13:16:51.188Z</time></trkpt><trkpt lat="38.1884583" lon="15.82272"><ele>1158.4</ele><time>2026-04-06T13:16:52.188Z</time></trkpt><trkpt lat="38.188545" lon="15.822635"><ele>1157.8000000000002</ele><time>2026-04-06T13:16:53.188Z</time></trkpt><trkpt lat="38.18863" lon="15.8225483"><ele>1157.1999999999998</ele><time>2026-04-06T13:16:54.188Z</time></trkpt><trkpt lat="38.1887217" lon="15.822465"><ele>1156.6</ele><time>2026-04-06T13:16:55.187Z</time></trkpt><trkpt lat="38.1888" lon="15.8223783"><ele>1156.0</ele><time>2026-04-06T13:16:56.188Z</time></trkpt><trkpt lat="38.1888917" lon="15.8222933"><ele>1156.0</ele><time>2026-04-06T13:16:57.188Z</time></trkpt><trkpt lat="38.1889883" lon="15.8222"><ele>1156.0</ele><time>2026-04-06T13:16:58.188Z</time></trkpt><trkpt lat="38.1890733" lon="15.8221067"><ele>1156.0</ele><time>2026-04-06T13:16:59.188Z</time></trkpt><trkpt lat="38.1891683" lon="15.8220083"><ele>1156.0</ele><time>2026-04-06T13:17:00.188Z</time></trkpt><trkpt lat="38.1892717" lon="15.8219033"><ele>1155.0</ele><time>2026-04-06T13:17:01.187Z</time></trkpt><trkpt lat="38.1893683" lon="15.8217917"><ele>1154.0</ele><time>2026-04-06T13:17:02.187Z</time></trkpt><trkpt lat="38.1894733" lon="15.821685"><ele>1153.0</ele><time>2026-04-06T13:17:03.188Z</time></trkpt><trkpt lat="38.1895817" lon="15.8215767"><ele>1152.0</ele><time>2026-04-06T13:17:04.187Z</time></trkpt><trkpt lat="38.1896883" lon="15.8214667"><ele>1152.0</ele><time>2026-04-06T13:17:05.188Z</time></trkpt><trkpt lat="38.1897967" lon="15.8213567"><ele>1152.0</ele><time>2026-04-06T13:17:06.188Z</time></trkpt><trkpt lat="38.189915" lon="15.821245"><ele>1152.0</ele><time>2026-04-06T13:17:07.187Z</time></trkpt><trkpt lat="38.1900333" lon="15.8211367"><ele>1152.0</ele><time>2026-04-06T13:17:08.188Z</time></trkpt><trkpt lat="38.1901333" lon="15.8210267"><ele>1152.0</ele><time>2026-04-06T13:17:09.188Z</time></trkpt><trkpt lat="38.1902333" lon="15.8209067"><ele>1152.0</ele><time>2026-04-06T13:17:10.188Z</time></trkpt><trkpt lat="38.190335" lon="15.820805"><ele>1152.0</ele><time>2026-04-06T13:17:11.188Z</time></trkpt><trkpt lat="38.1904367" lon="15.8207017"><ele>1152.0</ele><time>2026-04-06T13:17:12.188Z</time></trkpt><trkpt lat="38.190545" lon="15.8205917"><ele>1152.0</ele><time>2026-04-06T13:17:13.187Z</time></trkpt><trkpt lat="38.1906633" lon="15.82048"><ele>1152.0</ele><time>2026-04-06T13:17:14.188Z</time></trkpt><trkpt lat="38.1907817" lon="15.8203767"><ele>1152.0</ele><time>2026-04-06T13:17:15.187Z</time></trkpt><trkpt lat="38.1908933" lon="15.8202633"><ele>1152.0</ele><time>2026-04-06T13:17:16.187Z</time></trkpt><trkpt lat="38.1910067" lon="15.8201467"><ele>1150.75</ele><time>2026-04-06T13:17:17.187Z</time></trkpt><trkpt lat="38.1911183" lon="15.820035"><ele>1149.5</ele><time>2026-04-06T13:17:18.187Z</time></trkpt><trkpt lat="38.19123" lon="15.81993"><ele>1148.25</ele><time>2026-04-06T13:17:19.188Z</time></trkpt><trkpt lat="38.191345" lon="15.819815"><ele>1147.0</ele><time>2026-04-06T13:17:20.188Z</time></trkpt><trkpt lat="38.191455" lon="15.8197017"><ele>1146.75</ele><time>2026-04-06T13:17:21.188Z</time></trkpt><trkpt lat="38.1915683" lon="15.8195883"><ele>1146.5</ele><time>2026-04-06T13:17:22.187Z</time></trkpt><trkpt lat="38.1916833" lon="15.8194767"><ele>1146.25</ele><time>2026-04-06T13:17:23.187Z</time></trkpt><trkpt lat="38.1917917" lon="15.8193683"><ele>1146.0</ele><time>2026-04-06T13:17:24.188Z</time></trkpt><trkpt lat="38.1919067" lon="15.81925"><ele>1146.0</ele><time>2026-04-06T13:17:25.188Z</time></trkpt><trkpt lat="38.1920133" lon="15.8191333"><ele>1146.0</ele><time>2026-04-06T13:17:26.188Z</time></trkpt><trkpt lat="38.1921183" lon="15.8190283"><ele>1146.0</ele><time>2026-04-06T13:17:27.188Z</time></trkpt><trkpt lat="38.1922217" lon="15.8189217"><ele>1146.0</ele><time>2026-04-06T13:17:28.188Z</time></trkpt><trkpt lat="38.19233" lon="15.8188133"><ele>1146.0</ele><time>2026-04-06T13:17:29.187Z</time></trkpt><trkpt lat="38.1924283" lon="15.8187083"><ele>1146.0</ele><time>2026-04-06T13:17:30.187Z</time></trkpt><trkpt lat="38.1925283" lon="15.8186"><ele>1146.0</ele><time>2026-04-06T13:17:31.188Z</time></trkpt><trkpt lat="38.1926333" lon="15.8184967"><ele>1146.0</ele><time>2026-04-06T13:17:32.188Z</time></trkpt><trkpt lat="38.1927383" lon="15.818385"><ele>1145.25</ele><time>2026-04-06T13:17:33.187Z</time></trkpt><trkpt lat="38.1928417" lon="15.81828"><ele>1144.5</ele><time>2026-04-06T13:17:34.188Z</time></trkpt><trkpt lat="38.192945" lon="15.8181733"><ele>1143.75</ele><time>2026-04-06T13:17:35.188Z</time></trkpt><trkpt lat="38.1930567" lon="15.8180667"><ele>1143.0</ele><time>2026-04-06T13:17:36.188Z</time></trkpt><trkpt lat="38.1931717" lon="15.8179567"><ele>1143.0</ele><time>2026-04-06T13:17:37.188Z</time></trkpt><trkpt lat="38.193295" lon="15.81786"><ele>1143.0</ele><time>2026-04-06T13:17:38.188Z</time></trkpt><trkpt lat="38.1934067" lon="15.8177667"><ele>1143.0</ele><time>2026-04-06T13:17:39.188Z</time></trkpt><trkpt lat="38.1935267" lon="15.8176767"><ele>1143.0</ele><time>2026-04-06T13:17:40.188Z</time></trkpt><trkpt lat="38.193645" lon="15.8176067"><ele>1142.25</ele><time>2026-04-06T13:17:41.187Z</time></trkpt><trkpt lat="38.1937817" lon="15.81754"><ele>1141.5</ele><time>2026-04-06T13:17:42.188Z</time></trkpt><trkpt lat="38.19392" lon="15.8174683"><ele>1140.75</ele><time>2026-04-06T13:17:43.188Z</time></trkpt><trkpt lat="38.1940567" lon="15.817405"><ele>1140.0</ele><time>2026-04-06T13:17:44.188Z</time></trkpt><trkpt lat="38.1941933" lon="15.8173433"><ele>1139.75</ele><time>2026-04-06T13:17:45.188Z</time></trkpt><trkpt lat="38.1943367" lon="15.8172733"><ele>1139.5</ele><time>2026-04-06T13:17:46.188Z</time></trkpt><trkpt lat="38.1944733" lon="15.8172183"><ele>1139.25</ele><time>2026-04-06T13:17:47.188Z</time></trkpt><trkpt lat="38.1946017" lon="15.81716"><ele>1139.0</ele><time>2026-04-06T13:17:48.188Z</time></trkpt><trkpt lat="38.1947283" lon="15.8171083"><ele>1139.0</ele><time>2026-04-06T13:17:49.187Z</time></trkpt><trkpt lat="38.19485" lon="15.8170617"><ele>1139.0</ele><time>2026-04-06T13:17:50.187Z</time></trkpt><trkpt lat="38.19496" lon="15.8170183"><ele>1139.0</ele><time>2026-04-06T13:17:51.188Z</time></trkpt><trkpt lat="38.19507" lon="15.816955"><ele>1139.0</ele><time>2026-04-06T13:17:52.188Z</time></trkpt><trkpt lat="38.1951833" lon="15.8168767"><ele>1138.5</ele><time>2026-04-06T13:17:53.187Z</time></trkpt><trkpt lat="38.1952883" lon="15.8167817"><ele>1138.0</ele><time>2026-04-06T13:17:54.188Z</time></trkpt><trkpt lat="38.1953833" lon="15.8166783"><ele>1137.5</ele><time>2026-04-06T13:17:55.188Z</time></trkpt><trkpt lat="38.1954767" lon="15.8165667"><ele>1137.0</ele><time>2026-04-06T13:17:56.188Z</time></trkpt><trkpt lat="38.1955667" lon="15.816445"><ele>1137.0</ele><time>2026-04-06T13:17:57.188Z</time></trkpt><trkpt lat="38.1956367" lon="15.8163167"><ele>1137.0</ele><time>2026-04-06T13:17:58.187Z</time></trkpt><trkpt lat="38.1956967" lon="15.81618"><ele>1137.0</ele><time>2026-04-06T13:17:59.187Z</time></trkpt><trkpt lat="38.19577" lon="15.8160483"><ele>1137.0</ele><time>2026-04-06T13:18:00.188Z</time></trkpt><trkpt lat="38.1958317" lon="15.81591"><ele>1136.0</ele><time>2026-04-06T13:18:01.188Z</time></trkpt><trkpt lat="38.1959017" lon="15.8157867"><ele>1135.0</ele><time>2026-04-06T13:18:02.187Z</time></trkpt><trkpt lat="38.1959683" lon="15.815675"><ele>1134.0</ele><time>2026-04-06T13:18:03.188Z</time></trkpt><trkpt lat="38.196045" lon="15.8155733"><ele>1133.0</ele><time>2026-04-06T13:18:04.188Z</time></trkpt><trkpt lat="38.1961267" lon="15.8154733"><ele>1133.0</ele><time>2026-04-06T13:18:05.188Z</time></trkpt><trkpt lat="38.196215" lon="15.8153783"><ele>1133.0</ele><time>2026-04-06T13:18:06.188Z</time></trkpt><trkpt lat="38.1963083" lon="15.81529"><ele>1133.0</ele><time>2026-04-06T13:18:07.187Z</time></trkpt><trkpt lat="38.1964033" lon="15.8152067"><ele>1133.0</ele><time>2026-04-06T13:18:08.188Z</time></trkpt><trkpt lat="38.19651" lon="15.8151317"><ele>1132.25</ele><time>2026-04-06T13:18:09.188Z</time></trkpt><trkpt lat="38.1966167" lon="15.8150717"><ele>1131.5</ele><time>2026-04-06T13:18:10.188Z</time></trkpt><trkpt lat="38.1967267" lon="15.8150167"><ele>1130.75</ele><time>2026-04-06T13:18:11.188Z</time></trkpt><trkpt lat="38.19686" lon="15.81496"><ele>1130.0</ele><time>2026-04-06T13:18:12.188Z</time></trkpt><trkpt lat="38.1969933" lon="15.8149133"><ele>1130.0</ele><time>2026-04-06T13:18:13.188Z</time></trkpt><trkpt lat="38.1971283" lon="15.8148533"><ele>1130.0</ele><time>2026-04-06T13:18:14.188Z</time></trkpt><trkpt lat="38.1972583" lon="15.8147967"><ele>1130.0</ele><time>2026-04-06T13:18:15.188Z</time></trkpt><trkpt lat="38.197385" lon="15.8147417"><ele>1130.0</ele><time>2026-04-06T13:18:16.188Z</time></trkpt><trkpt lat="38.1975117" lon="15.8146833"><ele>1129.0</ele><time>2026-04-06T13:18:17.188Z</time></trkpt><trkpt lat="38.19764" lon="15.814625"><ele>1128.0</ele><time>2026-04-06T13:18:18.187Z</time></trkpt><trkpt lat="38.1977717" lon="15.8145633"><ele>1127.0</ele><time>2026-04-06T13:18:19.188Z</time></trkpt><trkpt lat="38.1979017" lon="15.8144967"><ele>1126.0</ele><time>2026-04-06T13:18:20.187Z</time></trkpt><trkpt lat="38.1980367" lon="15.81443"><ele>1125.25</ele><time>2026-04-06T13:18:21.187Z</time></trkpt><trkpt lat="38.1981733" lon="15.8143667"><ele>1124.5</ele><time>2026-04-06T13:18:22.188Z</time></trkpt><trkpt lat="38.19831" lon="15.814305"><ele>1123.75</ele><time>2026-04-06T13:18:23.187Z</time></trkpt><trkpt lat="38.1984417" lon="15.814255"><ele>1123.0</ele><time>2026-04-06T13:18:24.188Z</time></trkpt><trkpt lat="38.1985683" lon="15.8141983"><ele>1122.75</ele><time>2026-04-06T13:18:25.188Z</time></trkpt><trkpt lat="38.1986867" lon="15.8141417"><ele>1122.5</ele><time>2026-04-06T13:18:26.188Z</time></trkpt><trkpt lat="38.198805" lon="15.81408"><ele>1122.25</ele><time>2026-04-06T13:18:27.188Z</time></trkpt><trkpt lat="38.1989267" lon="15.8140183"><ele>1122.0</ele><time>2026-04-06T13:18:28.188Z</time></trkpt><trkpt lat="38.1990483" lon="15.81396"><ele>1121.25</ele><time>2026-04-06T13:18:29.187Z</time></trkpt><trkpt lat="38.199175" lon="15.813895"><ele>1120.5</ele><time>2026-04-06T13:18:30.188Z</time></trkpt><trkpt lat="38.199305" lon="15.8138367"><ele>1119.75</ele><time>2026-04-06T13:18:31.188Z</time></trkpt><trkpt lat="38.19943" lon="15.8137717"><ele>1119.0</ele><time>2026-04-06T13:18:32.188Z</time></trkpt><trkpt lat="38.1995583" lon="15.813715"><ele>1119.0</ele><time>2026-04-06T13:18:33.187Z</time></trkpt><trkpt lat="38.199685" lon="15.813665"><ele>1119.0</ele><time>2026-04-06T13:18:34.188Z</time></trkpt><trkpt lat="38.19981" lon="15.8136183"><ele>1119.0</ele><time>2026-04-06T13:18:35.188Z</time></trkpt><trkpt lat="38.19994" lon="15.81356"><ele>1119.0</ele><time>2026-04-06T13:18:36.188Z</time></trkpt><trkpt lat="38.20007" lon="15.8135067"><ele>1118.75</ele><time>2026-04-06T13:18:37.187Z</time></trkpt><trkpt lat="38.2001817" lon="15.8134467"><ele>1118.5</ele><time>2026-04-06T13:18:38.188Z</time></trkpt><trkpt lat="38.2003117" lon="15.81339"><ele>1118.25</ele><time>2026-04-06T13:18:39.188Z</time></trkpt><trkpt lat="38.200435" lon="15.8133333"><ele>1118.0</ele><time>2026-04-06T13:18:40.188Z</time></trkpt><trkpt lat="38.20056" lon="15.8132767"><ele>1117.25</ele><time>2026-04-06T13:18:41.188Z</time></trkpt><trkpt lat="38.2006833" lon="15.8132183"><ele>1116.5</ele><time>2026-04-06T13:18:42.188Z</time></trkpt><trkpt lat="38.2008117" lon="15.813155"><ele>1115.75</ele><time>2026-04-06T13:18:43.188Z</time></trkpt><trkpt lat="38.2009433" lon="15.8130933"><ele>1115.0</ele><time>2026-04-06T13:18:44.188Z</time></trkpt><trkpt lat="38.2010667" lon="15.81304"><ele>1115.0</ele><time>2026-04-06T13:18:45.187Z</time></trkpt><trkpt lat="38.2011933" lon="15.8129867"><ele>1115.0</ele><time>2026-04-06T13:18:46.188Z</time></trkpt><trkpt lat="38.2013217" lon="15.8129267"><ele>1115.0</ele><time>2026-04-06T13:18:47.188Z</time></trkpt><trkpt lat="38.2014533" lon="15.8128617"><ele>1115.0</ele><time>2026-04-06T13:18:48.188Z</time></trkpt><trkpt lat="38.2015883" lon="15.812795"><ele>1113.25</ele><time>2026-04-06T13:18:49.187Z</time></trkpt><trkpt lat="38.2017167" lon="15.8127317"><ele>1111.5</ele><time>2026-04-06T13:18:50.187Z</time></trkpt><trkpt lat="38.2018467" lon="15.812675"><ele>1109.75</ele><time>2026-04-06T13:18:51.187Z</time></trkpt><trkpt lat="38.20198" lon="15.81262"><ele>1108.0</ele><time>2026-04-06T13:18:52.188Z</time></trkpt><trkpt lat="38.2021183" lon="15.8125567"><ele>1107.5</ele><time>2026-04-06T13:18:53.188Z</time></trkpt><trkpt lat="38.2022533" lon="15.8124933"><ele>1107.0</ele><time>2026-04-06T13:18:54.188Z</time></trkpt><trkpt lat="38.2023933" lon="15.8124317"><ele>1106.5</ele><time>2026-04-06T13:18:55.188Z</time></trkpt><trkpt lat="38.202525" lon="15.8123717"><ele>1106.0</ele><time>2026-04-06T13:18:56.188Z</time></trkpt><trkpt lat="38.2026567" lon="15.8123117"><ele>1105.5</ele><time>2026-04-06T13:18:57.187Z</time></trkpt><trkpt lat="38.20278" lon="15.812255"><ele>1105.0</ele><time>2026-04-06T13:18:58.188Z</time></trkpt><trkpt lat="38.2029033" lon="15.8121967"><ele>1104.5</ele><time>2026-04-06T13:18:59.188Z</time></trkpt><trkpt lat="38.2030317" lon="15.812135"><ele>1104.0</ele><time>2026-04-06T13:19:00.188Z</time></trkpt><trkpt lat="38.2031583" lon="15.8120717"><ele>1104.0</ele><time>2026-04-06T13:19:01.187Z</time></trkpt><trkpt lat="38.2032883" lon="15.81201"><ele>1104.0</ele><time>2026-04-06T13:19:02.188Z</time></trkpt><trkpt lat="38.20342" lon="15.8119483"><ele>1104.0</ele><time>2026-04-06T13:19:03.187Z</time></trkpt><trkpt lat="38.2035483" lon="15.8118833"><ele>1104.0</ele><time>2026-04-06T13:19:04.188Z</time></trkpt><trkpt lat="38.2036767" lon="15.8118233"><ele>1104.0</ele><time>2026-04-06T13:19:05.188Z</time></trkpt><trkpt lat="38.2038067" lon="15.8117633"><ele>1104.0</ele><time>2026-04-06T13:19:06.188Z</time></trkpt><trkpt lat="38.2039367" lon="15.81171"><ele>1104.0</ele><time>2026-04-06T13:19:07.188Z</time></trkpt><trkpt lat="38.2040733" lon="15.8116517"><ele>1104.0</ele><time>2026-04-06T13:19:08.187Z</time></trkpt><trkpt lat="38.2042017" lon="15.81159"><ele>1102.75</ele><time>2026-04-06T13:19:09.188Z</time></trkpt><trkpt lat="38.2043367" lon="15.8115267"><ele>1101.5</ele><time>2026-04-06T13:19:10.187Z</time></trkpt><trkpt lat="38.2044617" lon="15.811455"><ele>1100.25</ele><time>2026-04-06T13:19:11.187Z</time></trkpt><trkpt lat="38.20458" lon="15.8113967"><ele>1099.0</ele><time>2026-04-06T13:19:12.187Z</time></trkpt><trkpt lat="38.2047167" lon="15.811335"><ele>1098.0</ele><time>2026-04-06T13:19:13.187Z</time></trkpt><trkpt lat="38.2048517" lon="15.8112717"><ele>1097.0</ele><time>2026-04-06T13:19:14.187Z</time></trkpt><trkpt lat="38.2049867" lon="15.81122"><ele>1096.0</ele><time>2026-04-06T13:19:15.187Z</time></trkpt><trkpt lat="38.2051217" lon="15.8111583"><ele>1095.0</ele><time>2026-04-06T13:19:16.188Z</time></trkpt><trkpt lat="38.2052517" lon="15.8110983"><ele>1095.0</ele><time>2026-04-06T13:19:17.188Z</time></trkpt><trkpt lat="38.205385" lon="15.8110333"><ele>1095.0</ele><time>2026-04-06T13:19:18.188Z</time></trkpt><trkpt lat="38.2055183" lon="15.8109733"><ele>1095.0</ele><time>2026-04-06T13:19:19.188Z</time></trkpt><trkpt lat="38.2056517" lon="15.8109217"><ele>1095.0</ele><time>2026-04-06T13:19:20.187Z</time></trkpt><trkpt lat="38.205785" lon="15.8108567"><ele>1094.25</ele><time>2026-04-06T13:19:21.188Z</time></trkpt><trkpt lat="38.2059233" lon="15.81079"><ele>1093.5</ele><time>2026-04-06T13:19:22.187Z</time></trkpt><trkpt lat="38.2060533" lon="15.8107317"><ele>1092.75</ele><time>2026-04-06T13:19:23.187Z</time></trkpt><trkpt lat="38.2061817" lon="15.8106617"><ele>1092.0</ele><time>2026-04-06T13:19:24.188Z</time></trkpt><trkpt lat="38.2063167" lon="15.8106017"><ele>1092.0</ele><time>2026-04-06T13:19:25.187Z</time></trkpt><trkpt lat="38.2064517" lon="15.8105433"><ele>1092.0</ele><time>2026-04-06T13:19:26.188Z</time></trkpt><trkpt lat="38.2065933" lon="15.8104783"><ele>1092.0</ele><time>2026-04-06T13:19:27.188Z</time></trkpt><trkpt lat="38.20674" lon="15.810415"><ele>1092.0</ele><time>2026-04-06T13:19:28.188Z</time></trkpt><trkpt lat="38.2068867" lon="15.8103417"><ele>1091.5</ele><time>2026-04-06T13:19:29.187Z</time></trkpt><trkpt lat="38.20702" lon="15.810285"><ele>1091.0</ele><time>2026-04-06T13:19:30.187Z</time></trkpt><trkpt lat="38.2071633" lon="15.8102133"><ele>1090.5</ele><time>2026-04-06T13:19:31.188Z</time></trkpt><trkpt lat="38.2073083" lon="15.810145"><ele>1090.0</ele><time>2026-04-06T13:19:32.188Z</time></trkpt><trkpt lat="38.2074467" lon="15.8100717"><ele>1089.25</ele><time>2026-04-06T13:19:33.188Z</time></trkpt><trkpt lat="38.207585" lon="15.8100133"><ele>1088.5</ele><time>2026-04-06T13:19:34.188Z</time></trkpt><trkpt lat="38.20772" lon="15.8099533"><ele>1087.75</ele><time>2026-04-06T13:19:35.188Z</time></trkpt><trkpt lat="38.2078533" lon="15.8099"><ele>1087.0</ele><time>2026-04-06T13:19:36.188Z</time></trkpt><trkpt lat="38.2079967" lon="15.8098317"><ele>1087.0</ele><time>2026-04-06T13:19:37.187Z</time></trkpt><trkpt lat="38.2081433" lon="15.80976"><ele>1087.0</ele><time>2026-04-06T13:19:38.188Z</time></trkpt><trkpt lat="38.2082883" lon="15.8096917"><ele>1087.0</ele><time>2026-04-06T13:19:39.188Z</time></trkpt><trkpt lat="38.20843" lon="15.809625"><ele>1085.0</ele><time>2026-04-06T13:19:40.188Z</time></trkpt><trkpt lat="38.20857" lon="15.80956"><ele>1083.0</ele><time>2026-04-06T13:19:41.188Z</time></trkpt><trkpt lat="38.2087167" lon="15.8094817"><ele>1081.0</ele><time>2026-04-06T13:19:42.188Z</time></trkpt><trkpt lat="38.2088667" lon="15.8094133"><ele>1080.0</ele><time>2026-04-06T13:19:43.188Z</time></trkpt><trkpt lat="38.20902" lon="15.8093433"><ele>1079.0</ele><time>2026-04-06T13:19:44.188Z</time></trkpt><trkpt lat="38.2091717" lon="15.809285"><ele>1078.0</ele><time>2026-04-06T13:19:45.188Z</time></trkpt><trkpt lat="38.2093233" lon="15.8092133"><ele>1077.6666666666665</ele><time>2026-04-06T13:19:46.187Z</time></trkpt><trkpt lat="38.2094783" lon="15.8091383"><ele>1077.3333333333333</ele><time>2026-04-06T13:19:47.187Z</time></trkpt><trkpt lat="38.2096317" lon="15.8090683"><ele>1077.0</ele><time>2026-04-06T13:19:48.187Z</time></trkpt><trkpt lat="38.2097767" lon="15.8090067"><ele>1076.0</ele><time>2026-04-06T13:19:49.187Z</time></trkpt><trkpt lat="38.2099333" lon="15.80894"><ele>1075.0</ele><time>2026-04-06T13:19:50.188Z</time></trkpt><trkpt lat="38.210075" lon="15.8088717"><ele>1074.0</ele><time>2026-04-06T13:19:51.188Z</time></trkpt><trkpt lat="38.210225" lon="15.8087967"><ele>1074.0</ele><time>2026-04-06T13:19:52.188Z</time></trkpt><trkpt lat="38.2103783" lon="15.808725"><ele>1074.0</ele><time>2026-04-06T13:19:53.188Z</time></trkpt><trkpt lat="38.2105267" lon="15.8086633"><ele>1074.0</ele><time>2026-04-06T13:19:54.187Z</time></trkpt><trkpt lat="38.21066" lon="15.8085883"><ele>1073.25</ele><time>2026-04-06T13:19:55.188Z</time></trkpt><trkpt lat="38.2107783" lon="15.80849"><ele>1072.5</ele><time>2026-04-06T13:19:56.188Z</time></trkpt><trkpt lat="38.2108883" lon="15.8083733"><ele>1071.75</ele><time>2026-04-06T13:19:57.188Z</time></trkpt><trkpt lat="38.2109883" lon="15.8082333"><ele>1071.0</ele><time>2026-04-06T13:19:58.187Z</time></trkpt><trkpt lat="38.2110767" lon="15.8080817"><ele>1071.0</ele><time>2026-04-06T13:19:59.187Z</time></trkpt><trkpt lat="38.21116" lon="15.8079183"><ele>1071.0</ele><time>2026-04-06T13:20:00.188Z</time></trkpt><trkpt lat="38.2112183" lon="15.8077517"><ele>1071.0</ele><time>2026-04-06T13:20:01.187Z</time></trkpt><trkpt lat="38.21126" lon="15.8075817"><ele>1071.0</ele><time>2026-04-06T13:20:02.187Z</time></trkpt><trkpt lat="38.21129" lon="15.807415"><ele>1070.0</ele><time>2026-04-06T13:20:03.188Z</time></trkpt><trkpt lat="38.2113217" lon="15.8072467"><ele>1069.0</ele><time>2026-04-06T13:20:04.187Z</time></trkpt><trkpt lat="38.21135" lon="15.8070767"><ele>1068.0</ele><time>2026-04-06T13:20:05.187Z</time></trkpt><trkpt lat="38.2113767" lon="15.80691"><ele>1067.0</ele><time>2026-04-06T13:20:06.188Z</time></trkpt><trkpt lat="38.2114017" lon="15.80674"><ele>1066.75</ele><time>2026-04-06T13:20:07.187Z</time></trkpt><trkpt lat="38.211435" lon="15.8065683"><ele>1066.5</ele><time>2026-04-06T13:20:08.188Z</time></trkpt><trkpt lat="38.2114667" lon="15.8063983"><ele>1066.25</ele><time>2026-04-06T13:20:09.187Z</time></trkpt><trkpt lat="38.211495" lon="15.80623"><ele>1066.0</ele><time>2026-04-06T13:20:10.187Z</time></trkpt><trkpt lat="38.2115283" lon="15.8060583"><ele>1067.5</ele><time>2026-04-06T13:20:11.187Z</time></trkpt><trkpt lat="38.21155" lon="15.805895"><ele>1069.0</ele><time>2026-04-06T13:20:12.188Z</time></trkpt><trkpt lat="38.2115783" lon="15.8057283"><ele>1070.5</ele><time>2026-04-06T13:20:13.187Z</time></trkpt><trkpt lat="38.21161" lon="15.805565"><ele>1072.0</ele><time>2026-04-06T13:20:14.187Z</time></trkpt><trkpt lat="38.2116367" lon="15.8053883"><ele>1072.0</ele><time>2026-04-06T13:20:15.188Z</time></trkpt><trkpt lat="38.2116633" lon="15.8052167"><ele>1072.0</ele><time>2026-04-06T13:20:16.187Z</time></trkpt><trkpt lat="38.2116833" lon="15.8050467"><ele>1072.0</ele><time>2026-04-06T13:20:17.187Z</time></trkpt><trkpt lat="38.2117117" lon="15.8048683"><ele>1072.0</ele><time>2026-04-06T13:20:18.187Z</time></trkpt><trkpt lat="38.2117383" lon="15.8046917"><ele>1071.5</ele><time>2026-04-06T13:20:19.188Z</time></trkpt><trkpt lat="38.211765" lon="15.8045167"><ele>1071.0</ele><time>2026-04-06T13:20:20.188Z</time></trkpt><trkpt lat="38.211795" lon="15.80434"><ele>1070.5</ele><time>2026-04-06T13:20:21.187Z</time></trkpt><trkpt lat="38.2118233" lon="15.8041583"><ele>1070.0</ele><time>2026-04-06T13:20:22.188Z</time></trkpt><trkpt lat="38.2118517" lon="15.80398"><ele>1069.75</ele><time>2026-04-06T13:20:23.188Z</time></trkpt><trkpt lat="38.211885" lon="15.803805"><ele>1069.5</ele><time>2026-04-06T13:20:24.187Z</time></trkpt><trkpt lat="38.2119183" lon="15.8036333"><ele>1069.25</ele><time>2026-04-06T13:20:25.188Z</time></trkpt><trkpt lat="38.211945" lon="15.8034533"><ele>1069.0</ele><time>2026-04-06T13:20:26.187Z</time></trkpt><trkpt lat="38.2119717" lon="15.8032817"><ele>1069.0</ele><time>2026-04-06T13:20:27.187Z</time></trkpt><trkpt lat="38.212005" lon="15.803105"><ele>1069.0</ele><time>2026-04-06T13:20:28.188Z</time></trkpt><trkpt lat="38.2120417" lon="15.8029367"><ele>1069.0</ele><time>2026-04-06T13:20:29.188Z</time></trkpt><trkpt lat="38.21208" lon="15.8027717"><ele>1069.0</ele><time>2026-04-06T13:20:30.187Z</time></trkpt><trkpt lat="38.21212" lon="15.8026083"><ele>1068.0</ele><time>2026-04-06T13:20:31.188Z</time></trkpt><trkpt lat="38.21216" lon="15.8024583"><ele>1067.0</ele><time>2026-04-06T13:20:32.188Z</time></trkpt><trkpt lat="38.2121983" lon="15.8023067"><ele>1066.0</ele><time>2026-04-06T13:20:33.188Z</time></trkpt><trkpt lat="38.2122383" lon="15.8021633"><ele>1065.0</ele><time>2026-04-06T13:20:34.187Z</time></trkpt><trkpt lat="38.2122767" lon="15.80201"><ele>1065.0</ele><time>2026-04-06T13:20:35.188Z</time></trkpt><trkpt lat="38.2123167" lon="15.8018517"><ele>1065.0</ele><time>2026-04-06T13:20:36.188Z</time></trkpt><trkpt lat="38.2123583" lon="15.8017"><ele>1065.0</ele><time>2026-04-06T13:20:37.187Z</time></trkpt><trkpt lat="38.2124017" lon="15.8015517"><ele>1065.0</ele><time>2026-04-06T13:20:38.188Z</time></trkpt><trkpt lat="38.2124467" lon="15.8013967"><ele>1065.0</ele><time>2026-04-06T13:20:39.188Z</time></trkpt><trkpt lat="38.2124867" lon="15.8012367"><ele>1065.0</ele><time>2026-04-06T13:20:40.188Z</time></trkpt><trkpt lat="38.2125367" lon="15.8010833"><ele>1065.0</ele><time>2026-04-06T13:20:41.188Z</time></trkpt><trkpt lat="38.212595" lon="15.8009217"><ele>1065.0</ele><time>2026-04-06T13:20:42.188Z</time></trkpt><trkpt lat="38.2126433" lon="15.80076"><ele>1065.0</ele><time>2026-04-06T13:20:43.188Z</time></trkpt><trkpt lat="38.2126967" lon="15.8006017"><ele>1065.0</ele><time>2026-04-06T13:20:44.188Z</time></trkpt><trkpt lat="38.212745" lon="15.8004383"><ele>1065.0</ele><time>2026-04-06T13:20:45.188Z</time></trkpt><trkpt lat="38.2127917" lon="15.8002733"><ele>1065.0</ele><time>2026-04-06T13:20:46.188Z</time></trkpt><trkpt lat="38.212835" lon="15.80011"><ele>1064.0</ele><time>2026-04-06T13:20:47.187Z</time></trkpt><trkpt lat="38.2128867" lon="15.79995"><ele>1063.0</ele><time>2026-04-06T13:20:48.188Z</time></trkpt><trkpt lat="38.2129483" lon="15.7997817"><ele>1062.0</ele><time>2026-04-06T13:20:49.187Z</time></trkpt><trkpt lat="38.2129917" lon="15.7995967"><ele>1061.0</ele><time>2026-04-06T13:20:50.188Z</time></trkpt><trkpt lat="38.2130483" lon="15.7994233"><ele>1060.75</ele><time>2026-04-06T13:20:51.188Z</time></trkpt><trkpt lat="38.2131033" lon="15.7992567"><ele>1060.5</ele><time>2026-04-06T13:20:52.187Z</time></trkpt><trkpt lat="38.2131583" lon="15.7990983"><ele>1060.25</ele><time>2026-04-06T13:20:53.188Z</time></trkpt><trkpt lat="38.2132083" lon="15.79895"><ele>1060.0</ele><time>2026-04-06T13:20:54.188Z</time></trkpt><trkpt lat="38.2132567" lon="15.79879"><ele>1060.0</ele><time>2026-04-06T13:20:55.188Z</time></trkpt><trkpt lat="38.2133033" lon="15.7986317"><ele>1060.0</ele><time>2026-04-06T13:20:56.188Z</time></trkpt><trkpt lat="38.21335" lon="15.7984633"><ele>1060.0</ele><time>2026-04-06T13:20:57.188Z</time></trkpt><trkpt lat="38.2133867" lon="15.798295"><ele>1060.0</ele><time>2026-04-06T13:20:58.187Z</time></trkpt><trkpt lat="38.2134217" lon="15.7981267"><ele>1059.5</ele><time>2026-04-06T13:20:59.188Z</time></trkpt><trkpt lat="38.2134483" lon="15.7979483"><ele>1059.0</ele><time>2026-04-06T13:21:00.187Z</time></trkpt><trkpt lat="38.2134717" lon="15.79779"><ele>1058.5</ele><time>2026-04-06T13:21:01.187Z</time></trkpt><trkpt lat="38.2134983" lon="15.7976233"><ele>1058.0</ele><time>2026-04-06T13:21:02.187Z</time></trkpt><trkpt lat="38.2135167" lon="15.7974633"><ele>1056.5</ele><time>2026-04-06T13:21:03.187Z</time></trkpt><trkpt lat="38.21354" lon="15.7973033"><ele>1055.0</ele><time>2026-04-06T13:21:04.188Z</time></trkpt><trkpt lat="38.2135617" lon="15.797135"><ele>1053.5</ele><time>2026-04-06T13:21:05.188Z</time></trkpt><trkpt lat="38.2135783" lon="15.7969767"><ele>1052.0</ele><time>2026-04-06T13:21:06.187Z</time></trkpt><trkpt lat="38.2136" lon="15.7968117"><ele>1050.75</ele><time>2026-04-06T13:21:07.188Z</time></trkpt><trkpt lat="38.2136217" lon="15.7966417"><ele>1049.5</ele><time>2026-04-06T13:21:08.188Z</time></trkpt><trkpt lat="38.2136483" lon="15.7964717"><ele>1048.25</ele><time>2026-04-06T13:21:09.188Z</time></trkpt><trkpt lat="38.2136833" lon="15.7962933"><ele>1047.0</ele><time>2026-04-06T13:21:10.188Z</time></trkpt><trkpt lat="38.213705" lon="15.79611"><ele>1045.0</ele><time>2026-04-06T13:21:11.187Z</time></trkpt><trkpt lat="38.2137333" lon="15.795925"><ele>1043.0</ele><time>2026-04-06T13:21:12.187Z</time></trkpt><trkpt lat="38.213755" lon="15.79575"><ele>1041.0</ele><time>2026-04-06T13:21:13.187Z</time></trkpt><trkpt lat="38.21378" lon="15.7955783"><ele>1039.0</ele><time>2026-04-06T13:21:14.188Z</time></trkpt><trkpt lat="38.2138083" lon="15.7954067"><ele>1039.0</ele><time>2026-04-06T13:21:15.188Z</time></trkpt><trkpt lat="38.2138383" lon="15.795235"><ele>1039.0</ele><time>2026-04-06T13:21:16.187Z</time></trkpt><trkpt lat="38.213855" lon="15.795055"><ele>1039.0</ele><time>2026-04-06T13:21:17.188Z</time></trkpt><trkpt lat="38.213875" lon="15.7948767"><ele>1039.0</ele><time>2026-04-06T13:21:18.188Z</time></trkpt><trkpt lat="38.2139" lon="15.794705"><ele>1035.25</ele><time>2026-04-06T13:21:19.188Z</time></trkpt><trkpt lat="38.2139217" lon="15.7945433"><ele>1031.5</ele><time>2026-04-06T13:21:20.188Z</time></trkpt><trkpt lat="38.2139483" lon="15.7943867"><ele>1027.75</ele><time>2026-04-06T13:21:21.188Z</time></trkpt><trkpt lat="38.2139883" lon="15.7942367"><ele>1024.0</ele><time>2026-04-06T13:21:22.188Z</time></trkpt><trkpt lat="38.214035" lon="15.794105"><ele>1023.6</ele><time>2026-04-06T13:21:23.187Z</time></trkpt><trkpt lat="38.2140867" lon="15.7939933"><ele>1023.2</ele><time>2026-04-06T13:21:24.188Z</time></trkpt><trkpt lat="38.214125" lon="15.7939067"><ele>1022.8000000000001</ele><time>2026-04-06T13:21:25.188Z</time></trkpt><trkpt lat="38.2141883" lon="15.7938033"><ele>1022.4000000000001</ele><time>2026-04-06T13:21:27.188Z</time></trkpt><trkpt lat="38.214255" lon="15.7936917"><ele>1022.0</ele><time>2026-04-06T13:21:50.188Z</time></trkpt><trkpt lat="38.2142767" lon="15.7936133"><ele>1021.2</ele><time>2026-04-06T13:21:52.187Z</time></trkpt><trkpt lat="38.21432" lon="15.793495"><ele>1020.4000000000001</ele><time>2026-04-06T13:21:54.188Z</time></trkpt><trkpt lat="38.2143517" lon="15.7933683"><ele>1019.5999999999999</ele><time>2026-04-06T13:21:56.187Z</time></trkpt><trkpt lat="38.2143483" lon="15.7932183"><ele>1018.8</ele><time>2026-04-06T13:21:58.188Z</time></trkpt><trkpt lat="38.214335" lon="15.7931283"><ele>1018.0</ele><time>2026-04-06T13:21:59.188Z</time></trkpt><trkpt lat="38.2143117" lon="15.7930417"><ele>1017.9999999999999</ele><time>2026-04-06T13:22:00.187Z</time></trkpt><trkpt lat="38.2142783" lon="15.7929617"><ele>1018.0</ele><time>2026-04-06T13:22:01.187Z</time></trkpt><trkpt lat="38.214235" lon="15.7928733"><ele>1018.0</ele><time>2026-04-06T13:22:02.188Z</time></trkpt><trkpt lat="38.2141833" lon="15.7927867"><ele>1018.0</ele><time>2026-04-06T13:22:03.188Z</time></trkpt><trkpt lat="38.21414" lon="15.7926867"><ele>1017.9999999999999</ele><time>2026-04-06T13:22:04.188Z</time></trkpt><trkpt lat="38.214105" lon="15.7925717"><ele>1018.0</ele><time>2026-04-06T13:22:05.188Z</time></trkpt><trkpt lat="38.2140633" lon="15.7924483"><ele>1018.4</ele><time>2026-04-06T13:22:06.187Z</time></trkpt><trkpt lat="38.2140233" lon="15.7923167"><ele>1018.8</ele><time>2026-04-06T13:22:07.187Z</time></trkpt><trkpt lat="38.2139817" lon="15.7921833"><ele>1019.2</ele><time>2026-04-06T13:22:08.187Z</time></trkpt><trkpt lat="38.2139433" lon="15.7920483"><ele>1019.6</ele><time>2026-04-06T13:22:09.187Z</time></trkpt><trkpt lat="38.21391" lon="15.7919183"><ele>1020.0</ele><time>2026-04-06T13:22:10.188Z</time></trkpt><trkpt lat="38.2138883" lon="15.7917833"><ele>1011.0</ele><time>2026-04-06T13:22:11.188Z</time></trkpt><trkpt lat="38.2138783" lon="15.7916483"><ele>1002.0</ele><time>2026-04-06T13:22:12.188Z</time></trkpt><trkpt lat="38.2138783" lon="15.7915083"><ele>993.0</ele><time>2026-04-06T13:22:13.188Z</time></trkpt><trkpt lat="38.213895" lon="15.79136"><ele>984.0</ele><time>2026-04-06T13:22:14.187Z</time></trkpt><trkpt lat="38.2139167" lon="15.7912067"><ele>984.0</ele><time>2026-04-06T13:22:15.188Z</time></trkpt><trkpt lat="38.2139267" lon="15.791035"><ele>984.0</ele><time>2026-04-06T13:22:16.188Z</time></trkpt><trkpt lat="38.2139217" lon="15.7908833"><ele>984.0</ele><time>2026-04-06T13:22:17.188Z</time></trkpt><trkpt lat="38.213895" lon="15.79073"><ele>984.0</ele><time>2026-04-06T13:22:18.188Z</time></trkpt><trkpt lat="38.2138667" lon="15.7905783"><ele>983.8000000000001</ele><time>2026-04-06T13:22:19.188Z</time></trkpt><trkpt lat="38.213855" lon="15.79044"><ele>983.6000000000001</ele><time>2026-04-06T13:22:20.188Z</time></trkpt><trkpt lat="38.213855" lon="15.7903033"><ele>983.4</ele><time>2026-04-06T13:22:21.187Z</time></trkpt><trkpt lat="38.2138517" lon="15.7901667"><ele>983.2</ele><time>2026-04-06T13:22:22.188Z</time></trkpt><trkpt lat="38.2138533" lon="15.79003"><ele>983.0</ele><time>2026-04-06T13:22:23.188Z</time></trkpt><trkpt lat="38.21381" lon="15.7899133"><ele>985.2</ele><time>2026-04-06T13:22:24.188Z</time></trkpt><trkpt lat="38.21376" lon="15.7898233"><ele>987.4</ele><time>2026-04-06T13:22:25.188Z</time></trkpt><trkpt lat="38.2136883" lon="15.7897533"><ele>989.6000000000001</ele><time>2026-04-06T13:22:26.187Z</time></trkpt><trkpt lat="38.2135933" lon="15.7896967"><ele>991.8000000000001</ele><time>2026-04-06T13:22:27.188Z</time></trkpt><trkpt lat="38.2134917" lon="15.7896367"><ele>994.0</ele><time>2026-04-06T13:22:28.187Z</time></trkpt><trkpt lat="38.2134" lon="15.789555"><ele>994.0</ele><time>2026-04-06T13:22:29.188Z</time></trkpt><trkpt lat="38.21332" lon="15.7894433"><ele>994.0000000000001</ele><time>2026-04-06T13:22:30.188Z</time></trkpt><trkpt lat="38.2132617" lon="15.78933"><ele>994.0000000000001</ele><time>2026-04-06T13:22:31.188Z</time></trkpt><trkpt lat="38.21323" lon="15.7892033"><ele>994.0</ele><time>2026-04-06T13:22:32.188Z</time></trkpt><trkpt lat="38.213225" lon="15.78907"><ele>994.0</ele><time>2026-04-06T13:22:33.188Z</time></trkpt><trkpt lat="38.2132417" lon="15.788915"><ele>995.0</ele><time>2026-04-06T13:22:34.187Z</time></trkpt><trkpt lat="38.2132917" lon="15.7887233"><ele>996.0</ele><time>2026-04-06T13:22:35.188Z</time></trkpt><trkpt lat="38.2133567" lon="15.7885133"><ele>997.0</ele><time>2026-04-06T13:22:36.187Z</time></trkpt><trkpt lat="38.2133967" lon="15.78833"><ele>993.6666666666666</ele><time>2026-04-06T13:22:37.188Z</time></trkpt><trkpt lat="38.21345" lon="15.7881333"><ele>990.3333333333333</ele><time>2026-04-06T13:22:38.188Z</time></trkpt><trkpt lat="38.2135017" lon="15.7879467"><ele>987.0</ele><time>2026-04-06T13:22:39.187Z</time></trkpt><trkpt lat="38.2135817" lon="15.7877867"><ele>983.0</ele><time>2026-04-06T13:22:40.187Z</time></trkpt><trkpt lat="38.2136467" lon="15.7876567"><ele>979.0</ele><time>2026-04-06T13:22:41.188Z</time></trkpt><trkpt lat="38.2137167" lon="15.7875317"><ele>975.0</ele><time>2026-04-06T13:22:42.187Z</time></trkpt><trkpt lat="38.2138083" lon="15.7874183"><ele>971.0</ele><time>2026-04-06T13:22:43.188Z</time></trkpt><trkpt lat="38.2139033" lon="15.7873267"><ele>979.0</ele><time>2026-04-06T13:22:44.188Z</time></trkpt><trkpt lat="38.2139983" lon="15.7872283"><ele>987.0</ele><time>2026-04-06T13:22:45.188Z</time></trkpt><trkpt lat="38.2141" lon="15.7871383"><ele>995.0</ele><time>2026-04-06T13:22:46.187Z</time></trkpt><trkpt lat="38.2141967" lon="15.78704"><ele>1003.0</ele><time>2026-04-06T13:22:47.188Z</time></trkpt><trkpt lat="38.21428" lon="15.7869333"><ele>996.75</ele><time>2026-04-06T13:22:48.187Z</time></trkpt><trkpt lat="38.21435" lon="15.7868067"><ele>990.5</ele><time>2026-04-06T13:22:49.188Z</time></trkpt><trkpt lat="38.2143817" lon="15.7866767"><ele>984.25</ele><time>2026-04-06T13:22:50.188Z</time></trkpt><trkpt lat="38.214375" lon="15.7865267"><ele>978.0</ele><time>2026-04-06T13:22:51.187Z</time></trkpt><trkpt lat="38.2143417" lon="15.78638"><ele>978.0</ele><time>2026-04-06T13:22:52.187Z</time></trkpt><trkpt lat="38.2142967" lon="15.7862433"><ele>978.0</ele><time>2026-04-06T13:22:53.187Z</time></trkpt><trkpt lat="38.214245" lon="15.7861083"><ele>978.0</ele><time>2026-04-06T13:22:54.188Z</time></trkpt><trkpt lat="38.21419" lon="15.785975"><ele>978.0</ele><time>2026-04-06T13:22:55.187Z</time></trkpt><trkpt lat="38.2141483" lon="15.785845"><ele>977.2</ele><time>2026-04-06T13:22:56.188Z</time></trkpt><trkpt lat="38.2141133" lon="15.7857283"><ele>976.4</ele><time>2026-04-06T13:22:57.188Z</time></trkpt><trkpt lat="38.2140967" lon="15.78562"><ele>975.6000000000001</ele><time>2026-04-06T13:22:58.188Z</time></trkpt><trkpt lat="38.2141033" lon="15.785515"><ele>974.8000000000001</ele><time>2026-04-06T13:22:59.187Z</time></trkpt><trkpt lat="38.214135" lon="15.7854133"><ele>974.0</ele><time>2026-04-06T13:23:00.188Z</time></trkpt><trkpt lat="38.2141867" lon="15.7853033"><ele>974.0</ele><time>2026-04-06T13:23:01.187Z</time></trkpt><trkpt lat="38.2142533" lon="15.7851883"><ele>974.0</ele><time>2026-04-06T13:23:02.187Z</time></trkpt><trkpt lat="38.21434" lon="15.7850633"><ele>974.0</ele><time>2026-04-06T13:23:03.188Z</time></trkpt><trkpt lat="38.2144333" lon="15.7849583"><ele>974.0</ele><time>2026-04-06T13:23:04.187Z</time></trkpt><trkpt lat="38.21452" lon="15.78485"><ele>970.25</ele><time>2026-04-06T13:23:05.187Z</time></trkpt><trkpt lat="38.2146" lon="15.784725"><ele>966.5</ele><time>2026-04-06T13:23:06.188Z</time></trkpt><trkpt lat="38.2146567" lon="15.7845867"><ele>962.75</ele><time>2026-04-06T13:23:07.188Z</time></trkpt><trkpt lat="38.21472" lon="15.7844717"><ele>959.0</ele><time>2026-04-06T13:23:08.187Z</time></trkpt><trkpt lat="38.214735" lon="15.7843317"><ele>951.5</ele><time>2026-04-06T13:23:09.188Z</time></trkpt><trkpt lat="38.2147433" lon="15.7841817"><ele>944.0</ele><time>2026-04-06T13:23:10.188Z</time></trkpt><trkpt lat="38.214745" lon="15.7840367"><ele>936.5</ele><time>2026-04-06T13:23:11.188Z</time></trkpt><trkpt lat="38.2147417" lon="15.7838967"><ele>929.0</ele><time>2026-04-06T13:23:12.188Z</time></trkpt><trkpt lat="38.2147533" lon="15.7837517"><ele>929.0</ele><time>2026-04-06T13:23:13.188Z</time></trkpt><trkpt lat="38.2147767" lon="15.7836317"><ele>929.0000000000001</ele><time>2026-04-06T13:23:14.188Z</time></trkpt><trkpt lat="38.2148183" lon="15.78353"><ele>929.0000000000001</ele><time>2026-04-06T13:23:15.187Z</time></trkpt><trkpt lat="38.2148733" lon="15.7834633"><ele>929.0</ele><time>2026-04-06T13:23:16.187Z</time></trkpt><trkpt lat="38.2149283" lon="15.78342"><ele>929.0</ele><time>2026-04-06T13:23:17.188Z</time></trkpt><trkpt lat="38.215055" lon="15.7834383"><ele>933.4000000000001</ele><time>2026-04-06T13:23:19.188Z</time></trkpt><trkpt lat="38.2151233" lon="15.7835133"><ele>937.8000000000001</ele><time>2026-04-06T13:23:20.188Z</time></trkpt><trkpt lat="38.215195" lon="15.78361"><ele>942.1999999999999</ele><time>2026-04-06T13:23:21.188Z</time></trkpt><trkpt lat="38.215265" lon="15.7837"><ele>946.5999999999999</ele><time>2026-04-06T13:23:22.187Z</time></trkpt><trkpt lat="38.215355" lon="15.78379"><ele>951.0</ele><time>2026-04-06T13:23:23.188Z</time></trkpt><trkpt lat="38.2154633" lon="15.7838717"><ele>955.1999999999999</ele><time>2026-04-06T13:23:24.188Z</time></trkpt><trkpt lat="38.2155833" lon="15.7839317"><ele>959.3999999999999</ele><time>2026-04-06T13:23:25.187Z</time></trkpt><trkpt lat="38.2156883" lon="15.7839583"><ele>963.6</ele><time>2026-04-06T13:23:26.188Z</time></trkpt><trkpt lat="38.21578" lon="15.783965"><ele>967.8</ele><time>2026-04-06T13:23:27.188Z</time></trkpt><trkpt lat="38.2158433" lon="15.783915"><ele>972.0</ele><time>2026-04-06T13:23:28.187Z</time></trkpt><trkpt lat="38.215885" lon="15.78383"><ele>972.1666666666666</ele><time>2026-04-06T13:23:29.188Z</time></trkpt><trkpt lat="38.2159117" lon="15.78374"><ele>972.3333333333333</ele><time>2026-04-06T13:23:30.188Z</time></trkpt><trkpt lat="38.2159267" lon="15.7836333"><ele>972.5</ele><time>2026-04-06T13:23:31.188Z</time></trkpt><trkpt lat="38.2159417" lon="15.7835267"><ele>972.6666666666666</ele><time>2026-04-06T13:23:32.188Z</time></trkpt><trkpt lat="38.2159633" lon="15.7834183"><ele>972.8333333333333</ele><time>2026-04-06T13:23:33.188Z</time></trkpt><trkpt lat="38.216" lon="15.783315"><ele>973.0</ele><time>2026-04-06T13:23:34.187Z</time></trkpt><trkpt lat="38.2160383" lon="15.7832033"><ele>966.5</ele><time>2026-04-06T13:23:35.188Z</time></trkpt><trkpt lat="38.216085" lon="15.7830833"><ele>960.0</ele><time>2026-04-06T13:23:36.188Z</time></trkpt><trkpt lat="38.2161433" lon="15.7829583"><ele>953.5</ele><time>2026-04-06T13:23:37.188Z</time></trkpt><trkpt lat="38.2162117" lon="15.7828317"><ele>947.0</ele><time>2026-04-06T13:23:38.187Z</time></trkpt><trkpt lat="38.2162733" lon="15.7827033"><ele>940.25</ele><time>2026-04-06T13:23:39.188Z</time></trkpt><trkpt lat="38.2163383" lon="15.7825733"><ele>933.5</ele><time>2026-04-06T13:23:40.188Z</time></trkpt><trkpt lat="38.2163933" lon="15.7824367"><ele>926.75</ele><time>2026-04-06T13:23:41.188Z</time></trkpt><trkpt lat="38.2164283" lon="15.7822917"><ele>920.0</ele><time>2026-04-06T13:23:42.188Z</time></trkpt><trkpt lat="38.2164433" lon="15.782125"><ele>920.0</ele><time>2026-04-06T13:23:43.188Z</time></trkpt><trkpt lat="38.216445" lon="15.7819617"><ele>920.0</ele><time>2026-04-06T13:23:44.188Z</time></trkpt><trkpt lat="38.2164433" lon="15.7817983"><ele>920.0</ele><time>2026-04-06T13:23:45.188Z</time></trkpt><trkpt lat="38.2164433" lon="15.7816433"><ele>920.0</ele><time>2026-04-06T13:23:46.187Z</time></trkpt><trkpt lat="38.2164583" lon="15.7815017"><ele>924.75</ele><time>2026-04-06T13:23:47.187Z</time></trkpt><trkpt lat="38.2164633" lon="15.78135"><ele>929.5</ele><time>2026-04-06T13:23:48.188Z</time></trkpt><trkpt lat="38.216475" lon="15.7812"><ele>934.25</ele><time>2026-04-06T13:23:49.188Z</time></trkpt><trkpt lat="38.2165" lon="15.7810683"><ele>939.0</ele><time>2026-04-06T13:23:50.188Z</time></trkpt><trkpt lat="38.2165467" lon="15.7809417"><ele>939.0</ele><time>2026-04-06T13:23:51.188Z</time></trkpt><trkpt lat="38.2165967" lon="15.7808083"><ele>939.0</ele><time>2026-04-06T13:23:52.188Z</time></trkpt><trkpt lat="38.21663" lon="15.78068"><ele>939.0</ele><time>2026-04-06T13:23:53.188Z</time></trkpt><trkpt lat="38.2166367" lon="15.7805333"><ele>939.0</ele><time>2026-04-06T13:23:54.188Z</time></trkpt><trkpt lat="38.2166183" lon="15.780385"><ele>939.0</ele><time>2026-04-06T13:23:55.188Z</time></trkpt><trkpt lat="38.2165833" lon="15.78023"><ele>939.0</ele><time>2026-04-06T13:23:56.188Z</time></trkpt><trkpt lat="38.2165367" lon="15.7800917"><ele>939.0</ele><time>2026-04-06T13:23:57.188Z</time></trkpt><trkpt lat="38.21651" lon="15.77996"><ele>939.0</ele><time>2026-04-06T13:23:58.188Z</time></trkpt><trkpt lat="38.2164733" lon="15.7798217"><ele>927.8000000000001</ele><time>2026-04-06T13:23:59.188Z</time></trkpt><trkpt lat="38.2164333" lon="15.7796867"><ele>916.6000000000001</ele><time>2026-04-06T13:24:00.187Z</time></trkpt><trkpt lat="38.2164067" lon="15.7795667"><ele>905.4</ele><time>2026-04-06T13:24:01.188Z</time></trkpt><trkpt lat="38.2163833" lon="15.7794367"><ele>894.2</ele><time>2026-04-06T13:24:02.188Z</time></trkpt><trkpt lat="38.2163833" lon="15.7793167"><ele>883.0</ele><time>2026-04-06T13:24:03.188Z</time></trkpt><trkpt lat="38.2164033" lon="15.7791933"><ele>883.0</ele><time>2026-04-06T13:24:04.187Z</time></trkpt><trkpt lat="38.2164533" lon="15.7790917"><ele>883.0</ele><time>2026-04-06T13:24:05.187Z</time></trkpt><trkpt lat="38.2165317" lon="15.779005"><ele>883.0</ele><time>2026-04-06T13:24:06.187Z</time></trkpt><trkpt lat="38.216635" lon="15.7789433"><ele>883.0</ele><time>2026-04-06T13:24:07.188Z</time></trkpt><trkpt lat="38.2167567" lon="15.7789117"><ele>883.0</ele><time>2026-04-06T13:24:08.188Z</time></trkpt><trkpt lat="38.2168783" lon="15.77889"><ele>890.0</ele><time>2026-04-06T13:24:09.187Z</time></trkpt><trkpt lat="38.2169983" lon="15.7788817"><ele>897.0</ele><time>2026-04-06T13:24:10.188Z</time></trkpt><trkpt lat="38.217105" lon="15.7788633"><ele>904.0</ele><time>2026-04-06T13:24:11.188Z</time></trkpt><trkpt lat="38.2172017" lon="15.7788367"><ele>911.0</ele><time>2026-04-06T13:24:12.188Z</time></trkpt><trkpt lat="38.21728" lon="15.7787617"><ele>918.0</ele><time>2026-04-06T13:24:13.188Z</time></trkpt><trkpt lat="38.217355" lon="15.778665"><ele>915.5</ele><time>2026-04-06T13:24:14.187Z</time></trkpt><trkpt lat="38.21741" lon="15.77853"><ele>913.0</ele><time>2026-04-06T13:24:15.188Z</time></trkpt><trkpt lat="38.2174483" lon="15.7783867"><ele>910.5</ele><time>2026-04-06T13:24:16.188Z</time></trkpt><trkpt lat="38.2174733" lon="15.7782417"><ele>908.0</ele><time>2026-04-06T13:24:17.187Z</time></trkpt><trkpt lat="38.2175" lon="15.7781117"><ele>908.0</ele><time>2026-04-06T13:24:18.187Z</time></trkpt><trkpt lat="38.21754" lon="15.7779983"><ele>908.0</ele><time>2026-04-06T13:24:19.188Z</time></trkpt><trkpt lat="38.2175983" lon="15.7779083"><ele>908.0</ele><time>2026-04-06T13:24:20.188Z</time></trkpt><trkpt lat="38.2176767" lon="15.7778367"><ele>908.0</ele><time>2026-04-06T13:24:21.188Z</time></trkpt><trkpt lat="38.2177733" lon="15.7778017"><ele>908.0</ele><time>2026-04-06T13:24:22.188Z</time></trkpt><trkpt lat="38.217865" lon="15.7778117"><ele>908.0</ele><time>2026-04-06T13:24:23.188Z</time></trkpt><trkpt lat="38.21794" lon="15.7778783"><ele>908.0</ele><time>2026-04-06T13:24:24.187Z</time></trkpt><trkpt lat="38.2180017" lon="15.7779783"><ele>908.0</ele><time>2026-04-06T13:24:25.187Z</time></trkpt><trkpt lat="38.21806" lon="15.7780817"><ele>908.0</ele><time>2026-04-06T13:24:26.188Z</time></trkpt><trkpt lat="38.2181167" lon="15.7781783"><ele>908.0</ele><time>2026-04-06T13:24:27.188Z</time></trkpt><trkpt lat="38.21818" lon="15.778265"><ele>907.0</ele><time>2026-04-06T13:24:28.188Z</time></trkpt><trkpt lat="38.218255" lon="15.778335"><ele>906.0</ele><time>2026-04-06T13:24:29.188Z</time></trkpt><trkpt lat="38.2183333" lon="15.7783817"><ele>905.0</ele><time>2026-04-06T13:24:30.188Z</time></trkpt><trkpt lat="38.2184267" lon="15.7784083"><ele>904.0</ele><time>2026-04-06T13:24:31.188Z</time></trkpt><trkpt lat="38.21853" lon="15.77842"><ele>903.0</ele><time>2026-04-06T13:24:32.187Z</time></trkpt><trkpt lat="38.2186333" lon="15.7784233"><ele>903.0</ele><time>2026-04-06T13:24:33.187Z</time></trkpt><trkpt lat="38.21875" lon="15.7784433"><ele>903.0</ele><time>2026-04-06T13:24:34.187Z</time></trkpt><trkpt lat="38.2188567" lon="15.77844"><ele>903.0</ele><time>2026-04-06T13:24:35.188Z</time></trkpt><trkpt lat="38.218965" lon="15.778435"><ele>903.0</ele><time>2026-04-06T13:24:36.187Z</time></trkpt><trkpt lat="38.21907" lon="15.778445"><ele>903.0</ele><time>2026-04-06T13:24:37.188Z</time></trkpt><trkpt lat="38.2191667" lon="15.778475"><ele>903.0</ele><time>2026-04-06T13:24:38.187Z</time></trkpt><trkpt lat="38.2192533" lon="15.778535"><ele>903.0</ele><time>2026-04-06T13:24:39.188Z</time></trkpt><trkpt lat="38.2193183" lon="15.7786267"><ele>903.0</ele><time>2026-04-06T13:24:40.188Z</time></trkpt><trkpt lat="38.2193667" lon="15.7787417"><ele>903.0</ele><time>2026-04-06T13:24:41.188Z</time></trkpt><trkpt lat="38.2193883" lon="15.7788817"><ele>903.0</ele><time>2026-04-06T13:24:42.188Z</time></trkpt><trkpt lat="38.219385" lon="15.77902"><ele>903.0</ele><time>2026-04-06T13:24:43.188Z</time></trkpt><trkpt lat="38.219365" lon="15.7791567"><ele>903.0</ele><time>2026-04-06T13:24:44.188Z</time></trkpt><trkpt lat="38.2193383" lon="15.77929"><ele>903.0</ele><time>2026-04-06T13:24:45.187Z</time></trkpt><trkpt lat="38.219325" lon="15.7794167"><ele>903.0</ele><time>2026-04-06T13:24:46.187Z</time></trkpt><trkpt lat="38.21933" lon="15.779535"><ele>903.0</ele><time>2026-04-06T13:24:47.187Z</time></trkpt><trkpt lat="38.2193667" lon="15.7796433"><ele>903.4</ele><time>2026-04-06T13:24:48.188Z</time></trkpt><trkpt lat="38.2194417" lon="15.77972"><ele>903.8</ele><time>2026-04-06T13:24:49.188Z</time></trkpt><trkpt lat="38.2195183" lon="15.7797717"><ele>904.2</ele><time>2026-04-06T13:24:50.188Z</time></trkpt><trkpt lat="38.219635" lon="15.7797683"><ele>904.6</ele><time>2026-04-06T13:24:51.187Z</time></trkpt><trkpt lat="38.2197667" lon="15.7797417"><ele>905.0</ele><time>2026-04-06T13:24:52.188Z</time></trkpt><trkpt lat="38.2199" lon="15.7796917"><ele>905.0</ele><time>2026-04-06T13:24:53.187Z</time></trkpt><trkpt lat="38.22001" lon="15.779645"><ele>905.0</ele><time>2026-04-06T13:24:54.188Z</time></trkpt><trkpt lat="38.220115" lon="15.7796067"><ele>905.0</ele><time>2026-04-06T13:24:55.187Z</time></trkpt><trkpt lat="38.2202217" lon="15.7795717"><ele>905.0</ele><time>2026-04-06T13:24:56.187Z</time></trkpt><trkpt lat="38.22033" lon="15.779535"><ele>905.0</ele><time>2026-04-06T13:24:57.188Z</time></trkpt><trkpt lat="38.2204417" lon="15.7795117"><ele>905.0</ele><time>2026-04-06T13:24:58.187Z</time></trkpt><trkpt lat="38.2205433" lon="15.7795183"><ele>905.0</ele><time>2026-04-06T13:24:59.188Z</time></trkpt><trkpt lat="38.2206433" lon="15.77955"><ele>905.0</ele><time>2026-04-06T13:25:00.187Z</time></trkpt><trkpt lat="38.2207383" lon="15.779605"><ele>905.0</ele><time>2026-04-06T13:25:01.188Z</time></trkpt><trkpt lat="38.220825" lon="15.779675"><ele>905.0</ele><time>2026-04-06T13:25:02.188Z</time></trkpt><trkpt lat="38.220905" lon="15.77976"><ele>906.4</ele><time>2026-04-06T13:25:03.187Z</time></trkpt><trkpt lat="38.22094" lon="15.77987"><ele>907.8</ele><time>2026-04-06T13:25:04.188Z</time></trkpt><trkpt lat="38.220965" lon="15.7799967"><ele>909.2</ele><time>2026-04-06T13:25:05.188Z</time></trkpt><trkpt lat="38.221" lon="15.7801267"><ele>910.6</ele><time>2026-04-06T13:25:06.188Z</time></trkpt><trkpt lat="38.2210367" lon="15.7802383"><ele>912.0</ele><time>2026-04-06T13:25:07.188Z</time></trkpt><trkpt lat="38.221095" lon="15.7803333"><ele>912.0</ele><time>2026-04-06T13:25:08.188Z</time></trkpt><trkpt lat="38.2211617" lon="15.7804017"><ele>912.0</ele><time>2026-04-06T13:25:09.188Z</time></trkpt><trkpt lat="38.221265" lon="15.78043"><ele>912.0</ele><time>2026-04-06T13:25:10.188Z</time></trkpt><trkpt lat="38.221365" lon="15.7804333"><ele>912.0</ele><time>2026-04-06T13:25:11.188Z</time></trkpt><trkpt lat="38.221485" lon="15.7804067"><ele>912.0</ele><time>2026-04-06T13:25:12.188Z</time></trkpt><trkpt lat="38.2216083" lon="15.78038"><ele>904.75</ele><time>2026-04-06T13:25:13.188Z</time></trkpt><trkpt lat="38.22172" lon="15.7803833"><ele>897.5</ele><time>2026-04-06T13:25:14.188Z</time></trkpt><trkpt lat="38.2218417" lon="15.7804017"><ele>890.25</ele><time>2026-04-06T13:25:15.188Z</time></trkpt><trkpt lat="38.2219483" lon="15.7804283"><ele>883.0</ele><time>2026-04-06T13:25:16.188Z</time></trkpt><trkpt lat="38.2220467" lon="15.7804933"><ele>883.0</ele><time>2026-04-06T13:25:17.187Z</time></trkpt><trkpt lat="38.2221283" lon="15.7805783"><ele>883.0</ele><time>2026-04-06T13:25:18.188Z</time></trkpt><trkpt lat="38.2221717" lon="15.7807133"><ele>883.0</ele><time>2026-04-06T13:25:19.188Z</time></trkpt><trkpt lat="38.22218" lon="15.7808583"><ele>883.0</ele><time>2026-04-06T13:25:20.188Z</time></trkpt><trkpt lat="38.22217" lon="15.7809983"><ele>883.0</ele><time>2026-04-06T13:25:21.188Z</time></trkpt><trkpt lat="38.2221683" lon="15.78114"><ele>886.0</ele><time>2026-04-06T13:25:22.187Z</time></trkpt><trkpt lat="38.2221933" lon="15.7812583"><ele>889.0</ele><time>2026-04-06T13:25:23.188Z</time></trkpt><trkpt lat="38.2222233" lon="15.7813633"><ele>892.0</ele><time>2026-04-06T13:25:24.188Z</time></trkpt><trkpt lat="38.2222883" lon="15.7814433"><ele>895.0</ele><time>2026-04-06T13:25:25.188Z</time></trkpt><trkpt lat="38.22237" lon="15.7814983"><ele>898.0</ele><time>2026-04-06T13:25:26.188Z</time></trkpt><trkpt lat="38.222465" lon="15.7815283"><ele>890.0</ele><time>2026-04-06T13:25:27.188Z</time></trkpt><trkpt lat="38.2225633" lon="15.78153"><ele>882.0</ele><time>2026-04-06T13:25:28.188Z</time></trkpt><trkpt lat="38.2226783" lon="15.78149"><ele>874.0</ele><time>2026-04-06T13:25:29.188Z</time></trkpt><trkpt lat="38.2227867" lon="15.7814067"><ele>866.0</ele><time>2026-04-06T13:25:30.188Z</time></trkpt><trkpt lat="38.2228917" lon="15.78129"><ele>866.0</ele><time>2026-04-06T13:25:31.188Z</time></trkpt><trkpt lat="38.22299" lon="15.78117"><ele>866.0</ele><time>2026-04-06T13:25:32.188Z</time></trkpt><trkpt lat="38.2230867" lon="15.7810683"><ele>866.0</ele><time>2026-04-06T13:25:33.187Z</time></trkpt><trkpt lat="38.2231933" lon="15.7809917"><ele>866.0</ele><time>2026-04-06T13:25:34.188Z</time></trkpt><trkpt lat="38.2233033" lon="15.780965"><ele>862.1999999999999</ele><time>2026-04-06T13:25:35.188Z</time></trkpt><trkpt lat="38.223405" lon="15.78096"><ele>858.3999999999999</ele><time>2026-04-06T13:25:36.188Z</time></trkpt><trkpt lat="38.2235083" lon="15.7810217"><ele>854.6</ele><time>2026-04-06T13:25:37.188Z</time></trkpt><trkpt lat="38.2235917" lon="15.7811"><ele>850.8</ele><time>2026-04-06T13:25:38.187Z</time></trkpt><trkpt lat="38.2236583" lon="15.7812083"><ele>847.0</ele><time>2026-04-06T13:25:39.188Z</time></trkpt><trkpt lat="38.2236933" lon="15.781335"><ele>846.9999999999999</ele><time>2026-04-06T13:25:40.188Z</time></trkpt><trkpt lat="38.2237417" lon="15.7814483"><ele>847.0</ele><time>2026-04-06T13:25:41.187Z</time></trkpt><trkpt lat="38.2237983" lon="15.781545"><ele>847.0</ele><time>2026-04-06T13:25:42.187Z</time></trkpt><trkpt lat="38.2238583" lon="15.78161"><ele>847.0</ele><time>2026-04-06T13:25:43.187Z</time></trkpt><trkpt lat="38.223935" lon="15.7816383"><ele>846.9999999999999</ele><time>2026-04-06T13:25:44.187Z</time></trkpt><trkpt lat="38.2240083" lon="15.78162"><ele>847.0</ele><time>2026-04-06T13:25:45.187Z</time></trkpt><trkpt lat="38.2240683" lon="15.7815783"><ele>847.0</ele><time>2026-04-06T13:25:46.188Z</time></trkpt><trkpt lat="38.2241117" lon="15.78148"><ele>847.0</ele><time>2026-04-06T13:25:47.187Z</time></trkpt><trkpt lat="38.2241317" lon="15.7813617"><ele>847.0</ele><time>2026-04-06T13:25:48.188Z</time></trkpt><trkpt lat="38.22412" lon="15.7812567"><ele>847.0</ele><time>2026-04-06T13:25:49.188Z</time></trkpt><trkpt lat="38.22406" lon="15.781165"><ele>847.0</ele><time>2026-04-06T13:25:50.187Z</time></trkpt><trkpt lat="38.2239567" lon="15.7810833"><ele>845.0</ele><time>2026-04-06T13:25:51.187Z</time></trkpt><trkpt lat="38.2238433" lon="15.7809983"><ele>843.0</ele><time>2026-04-06T13:25:52.188Z</time></trkpt><trkpt lat="38.2237383" lon="15.78092"><ele>841.0</ele><time>2026-04-06T13:25:53.188Z</time></trkpt><trkpt lat="38.2236467" lon="15.7808433"><ele>839.0</ele><time>2026-04-06T13:25:54.188Z</time></trkpt><trkpt lat="38.2235567" lon="15.780775"><ele>839.0</ele><time>2026-04-06T13:25:55.188Z</time></trkpt><trkpt lat="38.2234683" lon="15.7807133"><ele>839.0</ele><time>2026-04-06T13:25:56.188Z</time></trkpt><trkpt lat="38.2233767" lon="15.7806683"><ele>839.0</ele><time>2026-04-06T13:25:57.188Z</time></trkpt><trkpt lat="38.223275" lon="15.7806433"><ele>839.0</ele><time>2026-04-06T13:25:58.187Z</time></trkpt><trkpt lat="38.2231767" lon="15.7806467"><ele>839.0</ele><time>2026-04-06T13:25:59.188Z</time></trkpt><trkpt lat="38.2230817" lon="15.7806667"><ele>841.0</ele><time>2026-04-06T13:26:00.188Z</time></trkpt><trkpt lat="38.222985" lon="15.7807017"><ele>843.0</ele><time>2026-04-06T13:26:01.187Z</time></trkpt><trkpt lat="38.2228933" lon="15.7807317"><ele>845.0</ele><time>2026-04-06T13:26:02.188Z</time></trkpt><trkpt lat="38.22279" lon="15.78072"><ele>847.0</ele><time>2026-04-06T13:26:03.188Z</time></trkpt><trkpt lat="38.2227017" lon="15.7806817"><ele>849.0</ele><time>2026-04-06T13:26:04.187Z</time></trkpt><trkpt lat="38.222625" lon="15.7806083"><ele>849.0</ele><time>2026-04-06T13:26:05.187Z</time></trkpt><trkpt lat="38.2225767" lon="15.78053"><ele>849.0</ele><time>2026-04-06T13:26:06.188Z</time></trkpt><trkpt lat="38.2225583" lon="15.7804067"><ele>849.0</ele><time>2026-04-06T13:26:07.188Z</time></trkpt><trkpt lat="38.222545" lon="15.7802733"><ele>849.0</ele><time>2026-04-06T13:26:08.188Z</time></trkpt><trkpt lat="38.222535" lon="15.78013"><ele>849.0</ele><time>2026-04-06T13:26:09.188Z</time></trkpt><trkpt lat="38.22253" lon="15.7799767"><ele>846.8000000000001</ele><time>2026-04-06T13:26:10.187Z</time></trkpt><trkpt lat="38.2225383" lon="15.7798367"><ele>844.6</ele><time>2026-04-06T13:26:11.188Z</time></trkpt><trkpt lat="38.2225783" lon="15.7796983"><ele>842.4</ele><time>2026-04-06T13:26:12.188Z</time></trkpt><trkpt lat="38.2226083" lon="15.7795683"><ele>840.2</ele><time>2026-04-06T13:26:13.188Z</time></trkpt><trkpt lat="38.2226133" lon="15.7794383"><ele>838.0</ele><time>2026-04-06T13:26:14.187Z</time></trkpt><trkpt lat="38.2225867" lon="15.7793167"><ele>838.0</ele><time>2026-04-06T13:26:15.188Z</time></trkpt><trkpt lat="38.2225317" lon="15.7791983"><ele>838.0</ele><time>2026-04-06T13:26:16.187Z</time></trkpt><trkpt lat="38.2224483" lon="15.7791033"><ele>838.0</ele><time>2026-04-06T13:26:17.188Z</time></trkpt><trkpt lat="38.2223583" lon="15.7790167"><ele>838.0</ele><time>2026-04-06T13:26:18.188Z</time></trkpt><trkpt lat="38.222275" lon="15.77893"><ele>838.0</ele><time>2026-04-06T13:26:19.188Z</time></trkpt><trkpt lat="38.22219" lon="15.7788383"><ele>838.0</ele><time>2026-04-06T13:26:20.188Z</time></trkpt><trkpt lat="38.2221017" lon="15.7787517"><ele>838.0</ele><time>2026-04-06T13:26:21.187Z</time></trkpt><trkpt lat="38.222015" lon="15.77868"><ele>838.0</ele><time>2026-04-06T13:26:22.188Z</time></trkpt><trkpt lat="38.221905" lon="15.77863"><ele>838.0</ele><time>2026-04-06T13:26:23.188Z</time></trkpt><trkpt lat="38.2217933" lon="15.7786233"><ele>838.0</ele><time>2026-04-06T13:26:24.187Z</time></trkpt><trkpt lat="38.2216817" lon="15.778635"><ele>837.9999999999999</ele><time>2026-04-06T13:26:25.187Z</time></trkpt><trkpt lat="38.22158" lon="15.7786433"><ele>838.0</ele><time>2026-04-06T13:26:26.188Z</time></trkpt><trkpt lat="38.2214933" lon="15.7786233"><ele>838.0</ele><time>2026-04-06T13:26:27.188Z</time></trkpt><trkpt lat="38.2214167" lon="15.7785833"><ele>838.0</ele><time>2026-04-06T13:26:28.187Z</time></trkpt><trkpt lat="38.2213667" lon="15.7785133"><ele>837.9999999999999</ele><time>2026-04-06T13:26:29.187Z</time></trkpt><trkpt lat="38.2213417" lon="15.77843"><ele>838.0</ele><time>2026-04-06T13:26:30.187Z</time></trkpt><trkpt lat="38.221345" lon="15.7783333"><ele>835.8333333333333</ele><time>2026-04-06T13:26:31.187Z</time></trkpt><trkpt lat="38.221375" lon="15.7782433"><ele>833.6666666666666</ele><time>2026-04-06T13:26:32.188Z</time></trkpt><trkpt lat="38.2214167" lon="15.7781733"><ele>831.5</ele><time>2026-04-06T13:26:33.187Z</time></trkpt><trkpt lat="38.22149" lon="15.7781233"><ele>829.3333333333333</ele><time>2026-04-06T13:26:34.188Z</time></trkpt><trkpt lat="38.2215817" lon="15.7781167"><ele>827.1666666666666</ele><time>2026-04-06T13:26:35.187Z</time></trkpt><trkpt lat="38.22169" lon="15.778145"><ele>825.0</ele><time>2026-04-06T13:26:36.188Z</time></trkpt><trkpt lat="38.2218017" lon="15.7782"><ele>822.75</ele><time>2026-04-06T13:26:37.188Z</time></trkpt><trkpt lat="38.2219033" lon="15.7782617"><ele>820.5</ele><time>2026-04-06T13:26:38.187Z</time></trkpt><trkpt lat="38.22201" lon="15.77832"><ele>818.25</ele><time>2026-04-06T13:26:39.188Z</time></trkpt><trkpt lat="38.2221217" lon="15.7783783"><ele>816.0</ele><time>2026-04-06T13:26:40.188Z</time></trkpt><trkpt lat="38.222235" lon="15.7784367"><ele>818.0</ele><time>2026-04-06T13:26:41.187Z</time></trkpt><trkpt lat="38.2223517" lon="15.7784883"><ele>820.0</ele><time>2026-04-06T13:26:42.187Z</time></trkpt><trkpt lat="38.2224733" lon="15.7785217"><ele>822.0</ele><time>2026-04-06T13:26:43.187Z</time></trkpt><trkpt lat="38.2226017" lon="15.778525"><ele>824.0</ele><time>2026-04-06T13:26:44.188Z</time></trkpt><trkpt lat="38.22273" lon="15.7785017"><ele>819.75</ele><time>2026-04-06T13:26:45.187Z</time></trkpt><trkpt lat="38.222865" lon="15.7784583"><ele>815.5</ele><time>2026-04-06T13:26:46.188Z</time></trkpt><trkpt lat="38.22299" lon="15.7784067"><ele>811.25</ele><time>2026-04-06T13:26:47.188Z</time></trkpt><trkpt lat="38.2231117" lon="15.7783483"><ele>807.0</ele><time>2026-04-06T13:26:48.188Z</time></trkpt><trkpt lat="38.22323" lon="15.778305"><ele>805.75</ele><time>2026-04-06T13:26:49.187Z</time></trkpt><trkpt lat="38.223355" lon="15.7782533"><ele>804.5</ele><time>2026-04-06T13:26:50.187Z</time></trkpt><trkpt lat="38.2234767" lon="15.778215"><ele>803.25</ele><time>2026-04-06T13:26:51.188Z</time></trkpt><trkpt lat="38.2235867" lon="15.7781967"><ele>802.0</ele><time>2026-04-06T13:26:52.188Z</time></trkpt><trkpt lat="38.2237017" lon="15.7782067"><ele>802.0</ele><time>2026-04-06T13:26:53.188Z</time></trkpt><trkpt lat="38.2238017" lon="15.7782367"><ele>802.0</ele><time>2026-04-06T13:26:54.188Z</time></trkpt><trkpt lat="38.2238883" lon="15.7783033"><ele>802.0</ele><time>2026-04-06T13:26:55.188Z</time></trkpt><trkpt lat="38.22397" lon="15.7783617"><ele>802.0</ele><time>2026-04-06T13:26:56.187Z</time></trkpt><trkpt lat="38.2240467" lon="15.7784083"><ele>802.0</ele><time>2026-04-06T13:26:57.188Z</time></trkpt><trkpt lat="38.22412" lon="15.778405"><ele>799.6</ele><time>2026-04-06T13:26:58.188Z</time></trkpt><trkpt lat="38.2242017" lon="15.77835"><ele>797.2</ele><time>2026-04-06T13:26:59.187Z</time></trkpt><trkpt lat="38.224275" lon="15.7782533"><ele>794.8</ele><time>2026-04-06T13:27:00.188Z</time></trkpt><trkpt lat="38.2243117" lon="15.7781383"><ele>792.4</ele><time>2026-04-06T13:27:01.187Z</time></trkpt><trkpt lat="38.2243033" lon="15.7780133"><ele>790.0</ele><time>2026-04-06T13:27:02.188Z</time></trkpt><trkpt lat="38.22427" lon="15.7779017"><ele>790.0</ele><time>2026-04-06T13:27:03.188Z</time></trkpt><trkpt lat="38.2242033" lon="15.77779"><ele>790.0</ele><time>2026-04-06T13:27:04.188Z</time></trkpt><trkpt lat="38.2241217" lon="15.777695"><ele>790.0</ele><time>2026-04-06T13:27:05.188Z</time></trkpt><trkpt lat="38.2240267" lon="15.7776117"><ele>790.0</ele><time>2026-04-06T13:27:06.187Z</time></trkpt><trkpt lat="38.2239233" lon="15.7775383"><ele>789.5</ele><time>2026-04-06T13:27:07.188Z</time></trkpt><trkpt lat="38.2238133" lon="15.777485"><ele>789.0</ele><time>2026-04-06T13:27:08.187Z</time></trkpt><trkpt lat="38.2236917" lon="15.7774433"><ele>788.5</ele><time>2026-04-06T13:27:09.188Z</time></trkpt><trkpt lat="38.2235517" lon="15.7774017"><ele>788.0</ele><time>2026-04-06T13:27:10.188Z</time></trkpt><trkpt lat="38.2233933" lon="15.7773467"><ele>788.0</ele><time>2026-04-06T13:27:11.187Z</time></trkpt><trkpt lat="38.2232317" lon="15.7772867"><ele>788.0</ele><time>2026-04-06T13:27:12.188Z</time></trkpt><trkpt lat="38.2230733" lon="15.7772267"><ele>788.0</ele><time>2026-04-06T13:27:13.188Z</time></trkpt><trkpt lat="38.2229217" lon="15.7771817"><ele>788.25</ele><time>2026-04-06T13:27:14.187Z</time></trkpt><trkpt lat="38.222785" lon="15.7771467"><ele>788.5</ele><time>2026-04-06T13:27:15.187Z</time></trkpt><trkpt lat="38.2226583" lon="15.77712"><ele>788.75</ele><time>2026-04-06T13:27:16.188Z</time></trkpt><trkpt lat="38.2225517" lon="15.7770917"><ele>789.0</ele><time>2026-04-06T13:27:17.188Z</time></trkpt><trkpt lat="38.2224683" lon="15.7770683"><ele>789.0</ele><time>2026-04-06T13:27:18.187Z</time></trkpt><trkpt lat="38.2224017" lon="15.777045"><ele>789.0</ele><time>2026-04-06T13:27:19.187Z</time></trkpt><trkpt lat="38.22235" lon="15.7769533"><ele>789.0</ele><time>2026-04-06T13:27:21.188Z</time></trkpt><trkpt lat="38.22234" lon="15.77686"><ele>789.0</ele><time>2026-04-06T13:27:23.188Z</time></trkpt><trkpt lat="38.2223467" lon="15.7767467"><ele>789.0</ele><time>2026-04-06T13:27:25.187Z</time></trkpt><trkpt lat="38.2223883" lon="15.7766017"><ele>789.0</ele><time>2026-04-06T13:27:27.188Z</time></trkpt><trkpt lat="38.22243" lon="15.7765367"><ele>787.0</ele><time>2026-04-06T13:27:28.188Z</time></trkpt><trkpt lat="38.2224883" lon="15.7764783"><ele>785.0</ele><time>2026-04-06T13:27:29.187Z</time></trkpt><trkpt lat="38.2225567" lon="15.77644"><ele>783.0</ele><time>2026-04-06T13:27:30.187Z</time></trkpt><trkpt lat="38.2226433" lon="15.7764383"><ele>781.0</ele><time>2026-04-06T13:27:31.188Z</time></trkpt><trkpt lat="38.22273" lon="15.77645"><ele>779.0</ele><time>2026-04-06T13:27:32.187Z</time></trkpt><trkpt lat="38.2228233" lon="15.77646"><ele>777.0</ele><time>2026-04-06T13:27:33.188Z</time></trkpt><trkpt lat="38.2229167" lon="15.7764767"><ele>777.0</ele><time>2026-04-06T13:27:34.188Z</time></trkpt><trkpt lat="38.2230117" lon="15.7765"><ele>777.0</ele><time>2026-04-06T13:27:35.187Z</time></trkpt><trkpt lat="38.22311" lon="15.7765217"><ele>777.0</ele><time>2026-04-06T13:27:36.188Z</time></trkpt><trkpt lat="38.223205" lon="15.7765333"><ele>777.0</ele><time>2026-04-06T13:27:37.188Z</time></trkpt><trkpt lat="38.2232983" lon="15.7765483"><ele>777.0</ele><time>2026-04-06T13:27:38.188Z</time></trkpt><trkpt lat="38.2233983" lon="15.7765667"><ele>777.0</ele><time>2026-04-06T13:27:39.188Z</time></trkpt><trkpt lat="38.2235017" lon="15.7765967"><ele>777.0</ele><time>2026-04-06T13:27:40.188Z</time></trkpt><trkpt lat="38.223615" lon="15.7766267"><ele>777.0</ele><time>2026-04-06T13:27:41.187Z</time></trkpt><trkpt lat="38.2237267" lon="15.7766517"><ele>777.0</ele><time>2026-04-06T13:27:42.188Z</time></trkpt><trkpt lat="38.2238483" lon="15.776675"><ele>777.0</ele><time>2026-04-06T13:27:43.188Z</time></trkpt><trkpt lat="38.2239683" lon="15.7766933"><ele>777.0</ele><time>2026-04-06T13:27:44.188Z</time></trkpt><trkpt lat="38.224085" lon="15.7767183"><ele>777.0</ele><time>2026-04-06T13:27:45.188Z</time></trkpt><trkpt lat="38.2242017" lon="15.7767483"><ele>777.0</ele><time>2026-04-06T13:27:46.187Z</time></trkpt><trkpt lat="38.2243233" lon="15.7767733"><ele>775.75</ele><time>2026-04-06T13:27:47.187Z</time></trkpt><trkpt lat="38.2244383" lon="15.7767867"><ele>774.5</ele><time>2026-04-06T13:27:48.188Z</time></trkpt><trkpt lat="38.2245517" lon="15.776805"><ele>773.25</ele><time>2026-04-06T13:27:49.187Z</time></trkpt><trkpt lat="38.224675" lon="15.7768317"><ele>772.0</ele><time>2026-04-06T13:27:50.187Z</time></trkpt><trkpt lat="38.2247883" lon="15.77685"><ele>771.6666666666666</ele><time>2026-04-06T13:27:51.187Z</time></trkpt><trkpt lat="38.22488" lon="15.7768683"><ele>771.3333333333333</ele><time>2026-04-06T13:27:52.187Z</time></trkpt><trkpt lat="38.22497" lon="15.7768917"><ele>771.0</ele><time>2026-04-06T13:27:53.188Z</time></trkpt><trkpt lat="38.225055" lon="15.7769133"><ele>770.6666666666667</ele><time>2026-04-06T13:27:54.187Z</time></trkpt><trkpt lat="38.225125" lon="15.7769467"><ele>770.3333333333334</ele><time>2026-04-06T13:27:55.188Z</time></trkpt><trkpt lat="38.2251867" lon="15.77697"><ele>770.0</ele><time>2026-04-06T13:27:56.188Z</time></trkpt><trkpt lat="38.2252833" lon="15.7770117"><ele>770.0</ele><time>2026-04-06T13:27:58.188Z</time></trkpt><trkpt lat="38.2253783" lon="15.7770067"><ele>770.0</ele><time>2026-04-06T13:28:00.188Z</time></trkpt><trkpt lat="38.2254633" lon="15.7769333"><ele>770.0</ele><time>2026-04-06T13:28:02.187Z</time></trkpt><trkpt lat="38.225505" lon="15.7768567"><ele>770.0</ele><time>2026-04-06T13:28:03.187Z</time></trkpt><trkpt lat="38.2255283" lon="15.7767483"><ele>770.0</ele><time>2026-04-06T13:28:04.188Z</time></trkpt><trkpt lat="38.2255267" lon="15.7766233"><ele>769.8</ele><time>2026-04-06T13:28:05.187Z</time></trkpt><trkpt lat="38.2255017" lon="15.776525"><ele>769.6</ele><time>2026-04-06T13:28:06.188Z</time></trkpt><trkpt lat="38.2254333" lon="15.7764367"><ele>769.4000000000001</ele><time>2026-04-06T13:28:07.188Z</time></trkpt><trkpt lat="38.2253383" lon="15.7763533"><ele>769.2</ele><time>2026-04-06T13:28:08.188Z</time></trkpt><trkpt lat="38.22523" lon="15.7762733"><ele>769.0</ele><time>2026-04-06T13:28:09.187Z</time></trkpt><trkpt lat="38.2251283" lon="15.77619"><ele>769.0</ele><time>2026-04-06T13:28:10.188Z</time></trkpt><trkpt lat="38.2250417" lon="15.7761183"><ele>769.0</ele><time>2026-04-06T13:28:11.187Z</time></trkpt><trkpt lat="38.2249567" lon="15.7760467"><ele>769.0</ele><time>2026-04-06T13:28:12.188Z</time></trkpt><trkpt lat="38.2248733" lon="15.7759783"><ele>769.0</ele><time>2026-04-06T13:28:13.188Z</time></trkpt><trkpt lat="38.224795" lon="15.77591"><ele>769.0</ele><time>2026-04-06T13:28:14.188Z</time></trkpt><trkpt lat="38.2247133" lon="15.7758333"><ele>767.8000000000001</ele><time>2026-04-06T13:28:15.188Z</time></trkpt><trkpt lat="38.2246267" lon="15.7757583"><ele>766.6</ele><time>2026-04-06T13:28:16.188Z</time></trkpt><trkpt lat="38.2245417" lon="15.7756833"><ele>765.4</ele><time>2026-04-06T13:28:17.188Z</time></trkpt><trkpt lat="38.224455" lon="15.7756083"><ele>764.2</ele><time>2026-04-06T13:28:18.188Z</time></trkpt><trkpt lat="38.2243683" lon="15.7755267"><ele>763.0</ele><time>2026-04-06T13:28:19.188Z</time></trkpt><trkpt lat="38.2242817" lon="15.7754433"><ele>763.0</ele><time>2026-04-06T13:28:20.188Z</time></trkpt><trkpt lat="38.2241933" lon="15.7753683"><ele>763.0</ele><time>2026-04-06T13:28:21.188Z</time></trkpt><trkpt lat="38.2240983" lon="15.775285"><ele>763.0</ele><time>2026-04-06T13:28:22.188Z</time></trkpt><trkpt lat="38.2240083" lon="15.7752033"><ele>763.0</ele><time>2026-04-06T13:28:23.188Z</time></trkpt><trkpt lat="38.2239033" lon="15.7751533"><ele>763.0</ele><time>2026-04-06T13:28:24.188Z</time></trkpt><trkpt lat="38.223795" lon="15.77513"><ele>762.4</ele><time>2026-04-06T13:28:25.188Z</time></trkpt><trkpt lat="38.223685" lon="15.775125"><ele>761.8</ele><time>2026-04-06T13:28:26.187Z</time></trkpt><trkpt lat="38.2235867" lon="15.7751483"><ele>761.2</ele><time>2026-04-06T13:28:27.188Z</time></trkpt><trkpt lat="38.223485" lon="15.775205"><ele>760.6</ele><time>2026-04-06T13:28:28.187Z</time></trkpt><trkpt lat="38.223395" lon="15.7752817"><ele>760.0</ele><time>2026-04-06T13:28:29.187Z</time></trkpt><trkpt lat="38.2233117" lon="15.7753617"><ele>760.0</ele><time>2026-04-06T13:28:30.188Z</time></trkpt><trkpt lat="38.2232233" lon="15.77543"><ele>760.0</ele><time>2026-04-06T13:28:31.188Z</time></trkpt><trkpt lat="38.2231267" lon="15.7754667"><ele>760.0</ele><time>2026-04-06T13:28:32.188Z</time></trkpt><trkpt lat="38.2230233" lon="15.7754667"><ele>760.0</ele><time>2026-04-06T13:28:33.188Z</time></trkpt><trkpt lat="38.22292" lon="15.77544"><ele>760.0</ele><time>2026-04-06T13:28:34.187Z</time></trkpt><trkpt lat="38.22282" lon="15.7754033"><ele>760.8</ele><time>2026-04-06T13:28:35.188Z</time></trkpt><trkpt lat="38.222725" lon="15.7753667"><ele>761.6</ele><time>2026-04-06T13:28:36.187Z</time></trkpt><trkpt lat="38.222635" lon="15.7753067"><ele>762.4000000000001</ele><time>2026-04-06T13:28:37.188Z</time></trkpt><trkpt lat="38.2225617" lon="15.7752117"><ele>763.2</ele><time>2026-04-06T13:28:38.187Z</time></trkpt><trkpt lat="38.2225133" lon="15.7750983"><ele>764.0</ele><time>2026-04-06T13:28:39.187Z</time></trkpt><trkpt lat="38.2225" lon="15.7749467"><ele>761.0</ele><time>2026-04-06T13:28:40.187Z</time></trkpt><trkpt lat="38.2225083" lon="15.774775"><ele>758.0</ele><time>2026-04-06T13:28:41.188Z</time></trkpt><trkpt lat="38.2225033" lon="15.7746067"><ele>755.0</ele><time>2026-04-06T13:28:42.188Z</time></trkpt><trkpt lat="38.2224983" lon="15.774455"><ele>752.0</ele><time>2026-04-06T13:28:43.187Z</time></trkpt><trkpt lat="38.222495" lon="15.7742867"><ele>748.25</ele><time>2026-04-06T13:28:44.188Z</time></trkpt><trkpt lat="38.2224883" lon="15.77412"><ele>744.5</ele><time>2026-04-06T13:28:45.188Z</time></trkpt><trkpt lat="38.2224667" lon="15.77396"><ele>740.75</ele><time>2026-04-06T13:28:46.188Z</time></trkpt><trkpt lat="38.2224567" lon="15.7738"><ele>737.0</ele><time>2026-04-06T13:28:47.188Z</time></trkpt><trkpt lat="38.22245" lon="15.7736333"><ele>734.25</ele><time>2026-04-06T13:28:48.187Z</time></trkpt><trkpt lat="38.2224383" lon="15.7734667"><ele>731.5</ele><time>2026-04-06T13:28:49.187Z</time></trkpt><trkpt lat="38.22243" lon="15.7733067"><ele>728.75</ele><time>2026-04-06T13:28:50.188Z</time></trkpt><trkpt lat="38.2224383" lon="15.7731433"><ele>726.0</ele><time>2026-04-06T13:28:51.188Z</time></trkpt><trkpt lat="38.2224383" lon="15.77299"><ele>726.0</ele><time>2026-04-06T13:28:52.188Z</time></trkpt><trkpt lat="38.2224467" lon="15.772835"><ele>726.0</ele><time>2026-04-06T13:28:53.188Z</time></trkpt><trkpt lat="38.222465" lon="15.77268"><ele>726.0</ele><time>2026-04-06T13:28:54.188Z</time></trkpt><trkpt lat="38.222505" lon="15.7725417"><ele>726.0</ele><time>2026-04-06T13:28:55.187Z</time></trkpt><trkpt lat="38.2225633" lon="15.7724183"><ele>725.1999999999999</ele><time>2026-04-06T13:28:56.188Z</time></trkpt><trkpt lat="38.2226333" lon="15.772315"><ele>724.4</ele><time>2026-04-06T13:28:57.188Z</time></trkpt><trkpt lat="38.222705" lon="15.77224"><ele>723.6</ele><time>2026-04-06T13:28:58.188Z</time></trkpt><trkpt lat="38.2227967" lon="15.7721767"><ele>722.8</ele><time>2026-04-06T13:28:59.188Z</time></trkpt><trkpt lat="38.2228983" lon="15.7721383"><ele>722.0</ele><time>2026-04-06T13:29:00.188Z</time></trkpt><trkpt lat="38.2230117" lon="15.77211"><ele>722.0</ele><time>2026-04-06T13:29:01.188Z</time></trkpt><trkpt lat="38.22313" lon="15.7720917"><ele>722.0</ele><time>2026-04-06T13:29:02.188Z</time></trkpt><trkpt lat="38.2232467" lon="15.77209"><ele>722.0</ele><time>2026-04-06T13:29:03.188Z</time></trkpt><trkpt lat="38.2233633" lon="15.77209"><ele>722.0</ele><time>2026-04-06T13:29:04.188Z</time></trkpt><trkpt lat="38.223485" lon="15.772085"><ele>720.6</ele><time>2026-04-06T13:29:05.188Z</time></trkpt><trkpt lat="38.2235917" lon="15.772075"><ele>719.2</ele><time>2026-04-06T13:29:06.188Z</time></trkpt><trkpt lat="38.2237017" lon="15.7720633"><ele>717.8</ele><time>2026-04-06T13:29:07.188Z</time></trkpt><trkpt lat="38.223805" lon="15.7720467"><ele>716.4</ele><time>2026-04-06T13:29:08.188Z</time></trkpt><trkpt lat="38.2239" lon="15.7719983"><ele>715.0</ele><time>2026-04-06T13:29:09.188Z</time></trkpt><trkpt lat="38.2239783" lon="15.7718967"><ele>714.4</ele><time>2026-04-06T13:29:10.188Z</time></trkpt><trkpt lat="38.2240217" lon="15.771775"><ele>713.8</ele><time>2026-04-06T13:29:11.187Z</time></trkpt><trkpt lat="38.2240233" lon="15.7716467"><ele>713.2</ele><time>2026-04-06T13:29:12.188Z</time></trkpt><trkpt lat="38.223995" lon="15.7715367"><ele>712.6</ele><time>2026-04-06T13:29:13.188Z</time></trkpt><trkpt lat="38.2239467" lon="15.7714117"><ele>712.0</ele><time>2026-04-06T13:29:14.188Z</time></trkpt><trkpt lat="38.2238967" lon="15.771305"><ele>712.0</ele><time>2026-04-06T13:29:15.187Z</time></trkpt><trkpt lat="38.2238483" lon="15.7712067"><ele>712.0</ele><time>2026-04-06T13:29:16.188Z</time></trkpt><trkpt lat="38.22379" lon="15.77111"><ele>712.0</ele><time>2026-04-06T13:29:17.188Z</time></trkpt><trkpt lat="38.2237283" lon="15.771025"><ele>712.0</ele><time>2026-04-06T13:29:18.188Z</time></trkpt><trkpt lat="38.2236533" lon="15.7709617"><ele>712.0</ele><time>2026-04-06T13:29:19.187Z</time></trkpt><trkpt lat="38.2235633" lon="15.7709117"><ele>710.4000000000001</ele><time>2026-04-06T13:29:20.188Z</time></trkpt><trkpt lat="38.223465" lon="15.7708817"><ele>708.8000000000001</ele><time>2026-04-06T13:29:21.188Z</time></trkpt><trkpt lat="38.223375" lon="15.77086"><ele>707.2</ele><time>2026-04-06T13:29:22.187Z</time></trkpt><trkpt lat="38.2232917" lon="15.770825"><ele>705.6</ele><time>2026-04-06T13:29:23.188Z</time></trkpt><trkpt lat="38.22321" lon="15.770765"><ele>704.0</ele><time>2026-04-06T13:29:24.188Z</time></trkpt><trkpt lat="38.223155" lon="15.7706817"><ele>704.0</ele><time>2026-04-06T13:29:25.188Z</time></trkpt><trkpt lat="38.22312" lon="15.7705817"><ele>704.0</ele><time>2026-04-06T13:29:26.187Z</time></trkpt><trkpt lat="38.22312" lon="15.7704733"><ele>704.0</ele><time>2026-04-06T13:29:27.188Z</time></trkpt><trkpt lat="38.2231517" lon="15.7703817"><ele>704.0</ele><time>2026-04-06T13:29:28.188Z</time></trkpt><trkpt lat="38.2232117" lon="15.7703183"><ele>704.0</ele><time>2026-04-06T13:29:29.187Z</time></trkpt><trkpt lat="38.2232983" lon="15.77028"><ele>704.0</ele><time>2026-04-06T13:29:30.188Z</time></trkpt><trkpt lat="38.2233967" lon="15.7702417"><ele>702.6</ele><time>2026-04-06T13:29:31.188Z</time></trkpt><trkpt lat="38.2234933" lon="15.770185"><ele>701.2</ele><time>2026-04-06T13:29:32.187Z</time></trkpt><trkpt lat="38.2235717" lon="15.7700983"><ele>699.8000000000001</ele><time>2026-04-06T13:29:33.188Z</time></trkpt><trkpt lat="38.22364" lon="15.769975"><ele>698.4000000000001</ele><time>2026-04-06T13:29:34.188Z</time></trkpt><trkpt lat="38.223685" lon="15.7698467"><ele>697.0</ele><time>2026-04-06T13:29:35.188Z</time></trkpt><trkpt lat="38.2237267" lon="15.769705"><ele>697.0</ele><time>2026-04-06T13:29:36.187Z</time></trkpt><trkpt lat="38.2237617" lon="15.76956"><ele>697.0</ele><time>2026-04-06T13:29:37.188Z</time></trkpt><trkpt lat="38.2237983" lon="15.769425"><ele>697.0</ele><time>2026-04-06T13:29:38.188Z</time></trkpt><trkpt lat="38.223845" lon="15.76929"><ele>697.0</ele><time>2026-04-06T13:29:39.187Z</time></trkpt><trkpt lat="38.2238983" lon="15.7691617"><ele>694.8</ele><time>2026-04-06T13:29:40.188Z</time></trkpt><trkpt lat="38.2239533" lon="15.7690367"><ele>692.6</ele><time>2026-04-06T13:29:41.187Z</time></trkpt><trkpt lat="38.2240183" lon="15.7689383"><ele>690.4</ele><time>2026-04-06T13:29:42.187Z</time></trkpt><trkpt lat="38.2240833" lon="15.7688567"><ele>688.1999999999999</ele><time>2026-04-06T13:29:43.187Z</time></trkpt><trkpt lat="38.2241567" lon="15.7687967"><ele>686.0</ele><time>2026-04-06T13:29:44.188Z</time></trkpt><trkpt lat="38.224235" lon="15.7687617"><ele>686.0</ele><time>2026-04-06T13:29:45.188Z</time></trkpt><trkpt lat="38.2243233" lon="15.76873"><ele>686.0</ele><time>2026-04-06T13:29:46.187Z</time></trkpt><trkpt lat="38.2244383" lon="15.7687233"><ele>686.0</ele><time>2026-04-06T13:29:47.188Z</time></trkpt><trkpt lat="38.2245433" lon="15.7687067"><ele>686.0</ele><time>2026-04-06T13:29:48.187Z</time></trkpt><trkpt lat="38.2246583" lon="15.7686933"><ele>686.0</ele><time>2026-04-06T13:29:49.188Z</time></trkpt><trkpt lat="38.2247767" lon="15.7686633"><ele>685.0</ele><time>2026-04-06T13:29:50.187Z</time></trkpt><trkpt lat="38.2248783" lon="15.7686217"><ele>684.0</ele><time>2026-04-06T13:29:51.188Z</time></trkpt><trkpt lat="38.22497" lon="15.76859"><ele>683.0</ele><time>2026-04-06T13:29:52.187Z</time></trkpt><trkpt lat="38.2250467" lon="15.768535"><ele>682.0</ele><time>2026-04-06T13:29:53.188Z</time></trkpt><trkpt lat="38.22513" lon="15.7684417"><ele>681.0</ele><time>2026-04-06T13:29:54.187Z</time></trkpt><trkpt lat="38.2251983" lon="15.7683333"><ele>679.5</ele><time>2026-04-06T13:29:55.188Z</time></trkpt><trkpt lat="38.2252567" lon="15.7682033"><ele>678.0</ele><time>2026-04-06T13:29:56.188Z</time></trkpt><trkpt lat="38.2253167" lon="15.7680817"><ele>676.5</ele><time>2026-04-06T13:29:57.187Z</time></trkpt><trkpt lat="38.225385" lon="15.7679483"><ele>675.0</ele><time>2026-04-06T13:29:58.188Z</time></trkpt><trkpt lat="38.2254533" lon="15.7678033"><ele>674.5</ele><time>2026-04-06T13:29:59.187Z</time></trkpt><trkpt lat="38.2255167" lon="15.7676633"><ele>674.0</ele><time>2026-04-06T13:30:00.188Z</time></trkpt><trkpt lat="38.2255817" lon="15.7675283"><ele>673.5</ele><time>2026-04-06T13:30:01.187Z</time></trkpt><trkpt lat="38.2256483" lon="15.7673917"><ele>673.0</ele><time>2026-04-06T13:30:02.188Z</time></trkpt><trkpt lat="38.22571" lon="15.7672433"><ele>673.0</ele><time>2026-04-06T13:30:03.188Z</time></trkpt><trkpt lat="38.225775" lon="15.7670933"><ele>673.0</ele><time>2026-04-06T13:30:04.187Z</time></trkpt><trkpt lat="38.22584" lon="15.76695"><ele>673.0</ele><time>2026-04-06T13:30:05.188Z</time></trkpt><trkpt lat="38.2259" lon="15.766815"><ele>673.0</ele><time>2026-04-06T13:30:06.187Z</time></trkpt><trkpt lat="38.22595" lon="15.7666733"><ele>671.25</ele><time>2026-04-06T13:30:07.188Z</time></trkpt><trkpt lat="38.226" lon="15.766535"><ele>669.5</ele><time>2026-04-06T13:30:08.188Z</time></trkpt><trkpt lat="38.22605" lon="15.76639"><ele>667.75</ele><time>2026-04-06T13:30:09.188Z</time></trkpt><trkpt lat="38.2260917" lon="15.7662533"><ele>666.0</ele><time>2026-04-06T13:30:10.188Z</time></trkpt><trkpt lat="38.22613" lon="15.7661117"><ele>665.5</ele><time>2026-04-06T13:30:11.187Z</time></trkpt><trkpt lat="38.2261667" lon="15.7659717"><ele>665.0</ele><time>2026-04-06T13:30:12.187Z</time></trkpt><trkpt lat="38.2261967" lon="15.7658333"><ele>664.5</ele><time>2026-04-06T13:30:13.187Z</time></trkpt><trkpt lat="38.2262217" lon="15.7656833"><ele>664.0</ele><time>2026-04-06T13:30:14.187Z</time></trkpt><trkpt lat="38.226245" lon="15.765525"><ele>664.0</ele><time>2026-04-06T13:30:15.188Z</time></trkpt><trkpt lat="38.2262667" lon="15.76538"><ele>664.0</ele><time>2026-04-06T13:30:16.188Z</time></trkpt><trkpt lat="38.2263" lon="15.7652383"><ele>664.0</ele><time>2026-04-06T13:30:17.188Z</time></trkpt><trkpt lat="38.2263317" lon="15.7650883"><ele>664.0</ele><time>2026-04-06T13:30:18.188Z</time></trkpt><trkpt lat="38.2263517" lon="15.7649483"><ele>663.5</ele><time>2026-04-06T13:30:19.187Z</time></trkpt><trkpt lat="38.2263833" lon="15.764785"><ele>663.0</ele><time>2026-04-06T13:30:20.188Z</time></trkpt><trkpt lat="38.2264317" lon="15.7646267"><ele>662.5</ele><time>2026-04-06T13:30:21.188Z</time></trkpt><trkpt lat="38.2264867" lon="15.7644783"><ele>662.0</ele><time>2026-04-06T13:30:22.187Z</time></trkpt><trkpt lat="38.22656" lon="15.7643433"><ele>658.5</ele><time>2026-04-06T13:30:23.188Z</time></trkpt><trkpt lat="38.22663" lon="15.7642183"><ele>655.0</ele><time>2026-04-06T13:30:24.188Z</time></trkpt><trkpt lat="38.2267217" lon="15.764105"><ele>651.5</ele><time>2026-04-06T13:30:25.188Z</time></trkpt><trkpt lat="38.2267883" lon="15.7639833"><ele>648.0</ele><time>2026-04-06T13:30:26.188Z</time></trkpt><trkpt lat="38.22686" lon="15.7638733"><ele>648.0</ele><time>2026-04-06T13:30:27.188Z</time></trkpt><trkpt lat="38.2269317" lon="15.7637383"><ele>648.0</ele><time>2026-04-06T13:30:28.188Z</time></trkpt><trkpt lat="38.226985" lon="15.7635733"><ele>648.0</ele><time>2026-04-06T13:30:29.187Z</time></trkpt><trkpt lat="38.2270317" lon="15.7633817"><ele>648.0</ele><time>2026-04-06T13:30:30.188Z</time></trkpt><trkpt lat="38.2270933" lon="15.7632"><ele>647.25</ele><time>2026-04-06T13:30:31.188Z</time></trkpt><trkpt lat="38.2271467" lon="15.7630317"><ele>646.5</ele><time>2026-04-06T13:30:32.187Z</time></trkpt><trkpt lat="38.227205" lon="15.7628583"><ele>645.75</ele><time>2026-04-06T13:30:33.187Z</time></trkpt><trkpt lat="38.2272367" lon="15.7626783"><ele>645.0</ele><time>2026-04-06T13:30:34.188Z</time></trkpt><trkpt lat="38.2272733" lon="15.7625017"><ele>646.5</ele><time>2026-04-06T13:30:35.188Z</time></trkpt><trkpt lat="38.2273233" lon="15.7623417"><ele>648.0</ele><time>2026-04-06T13:30:36.187Z</time></trkpt><trkpt lat="38.2273833" lon="15.762185"><ele>649.5</ele><time>2026-04-06T13:30:37.187Z</time></trkpt><trkpt lat="38.227455" lon="15.76205"><ele>651.0</ele><time>2026-04-06T13:30:38.188Z</time></trkpt><trkpt lat="38.2275167" lon="15.7619083"><ele>653.4</ele><time>2026-04-06T13:30:39.188Z</time></trkpt><trkpt lat="38.22757" lon="15.7617583"><ele>655.8</ele><time>2026-04-06T13:30:40.187Z</time></trkpt><trkpt lat="38.227615" lon="15.7616367"><ele>658.1999999999999</ele><time>2026-04-06T13:30:41.187Z</time></trkpt><trkpt lat="38.2276533" lon="15.7615083"><ele>660.5999999999999</ele><time>2026-04-06T13:30:42.188Z</time></trkpt><trkpt lat="38.2276867" lon="15.76139"><ele>663.0</ele><time>2026-04-06T13:30:43.188Z</time></trkpt><trkpt lat="38.2277233" lon="15.761265"><ele>663.0</ele><time>2026-04-06T13:30:44.188Z</time></trkpt><trkpt lat="38.2277483" lon="15.7611333"><ele>663.0</ele><time>2026-04-06T13:30:45.188Z</time></trkpt><trkpt lat="38.2277683" lon="15.7609967"><ele>663.0</ele><time>2026-04-06T13:30:46.187Z</time></trkpt><trkpt lat="38.227795" lon="15.7608583"><ele>663.0</ele><time>2026-04-06T13:30:47.187Z</time></trkpt><trkpt lat="38.227815" lon="15.76071"><ele>663.0</ele><time>2026-04-06T13:30:48.187Z</time></trkpt><trkpt lat="38.2278367" lon="15.7605667"><ele>661.0</ele><time>2026-04-06T13:30:49.187Z</time></trkpt><trkpt lat="38.2278683" lon="15.76042"><ele>659.0</ele><time>2026-04-06T13:30:50.188Z</time></trkpt><trkpt lat="38.2279083" lon="15.760275"><ele>657.0</ele><time>2026-04-06T13:30:51.187Z</time></trkpt><trkpt lat="38.2279467" lon="15.7601367"><ele>655.0</ele><time>2026-04-06T13:30:52.187Z</time></trkpt><trkpt lat="38.2279917" lon="15.760005"><ele>655.5</ele><time>2026-04-06T13:30:53.188Z</time></trkpt><trkpt lat="38.2280267" lon="15.75986"><ele>656.0</ele><time>2026-04-06T13:30:54.187Z</time></trkpt><trkpt lat="38.228065" lon="15.7597183"><ele>656.5</ele><time>2026-04-06T13:30:55.188Z</time></trkpt><trkpt lat="38.2281083" lon="15.7595817"><ele>657.0</ele><time>2026-04-06T13:30:56.188Z</time></trkpt><trkpt lat="38.228165" lon="15.759445"><ele>656.5</ele><time>2026-04-06T13:30:57.187Z</time></trkpt><trkpt lat="38.2282183" lon="15.7593017"><ele>656.0</ele><time>2026-04-06T13:30:58.188Z</time></trkpt><trkpt lat="38.22828" lon="15.75916"><ele>655.5</ele><time>2026-04-06T13:30:59.187Z</time></trkpt><trkpt lat="38.2283383" lon="15.7590333"><ele>655.0</ele><time>2026-04-06T13:31:00.188Z</time></trkpt><trkpt lat="38.228395" lon="15.7588967"><ele>655.0</ele><time>2026-04-06T13:31:01.188Z</time></trkpt><trkpt lat="38.2284517" lon="15.75876"><ele>655.0</ele><time>2026-04-06T13:31:02.187Z</time></trkpt><trkpt lat="38.2284983" lon="15.7586183"><ele>655.0</ele><time>2026-04-06T13:31:03.188Z</time></trkpt><trkpt lat="38.2285467" lon="15.7584783"><ele>655.0</ele><time>2026-04-06T13:31:04.187Z</time></trkpt><trkpt lat="38.2285983" lon="15.7583467"><ele>653.4</ele><time>2026-04-06T13:31:05.187Z</time></trkpt><trkpt lat="38.22863" lon="15.7582017"><ele>651.8</ele><time>2026-04-06T13:31:06.187Z</time></trkpt><trkpt lat="38.228665" lon="15.7580667"><ele>650.2</ele><time>2026-04-06T13:31:07.187Z</time></trkpt><trkpt lat="38.2286933" lon="15.757935"><ele>648.6</ele><time>2026-04-06T13:31:08.188Z</time></trkpt><trkpt lat="38.228705" lon="15.7577933"><ele>647.0</ele><time>2026-04-06T13:31:09.187Z</time></trkpt><trkpt lat="38.2287267" lon="15.757655"><ele>646.0</ele><time>2026-04-06T13:31:10.188Z</time></trkpt><trkpt lat="38.2287433" lon="15.7575183"><ele>645.0</ele><time>2026-04-06T13:31:11.187Z</time></trkpt><trkpt lat="38.228755" lon="15.7573967"><ele>644.0</ele><time>2026-04-06T13:31:12.188Z</time></trkpt><trkpt lat="38.2287667" lon="15.75727"><ele>643.0</ele><time>2026-04-06T13:31:13.188Z</time></trkpt><trkpt lat="38.2287883" lon="15.7571583"><ele>642.0</ele><time>2026-04-06T13:31:14.188Z</time></trkpt><trkpt lat="38.2288183" lon="15.75705"><ele>642.0</ele><time>2026-04-06T13:31:15.188Z</time></trkpt><trkpt lat="38.2288633" lon="15.7569467"><ele>642.0</ele><time>2026-04-06T13:31:16.188Z</time></trkpt><trkpt lat="38.228905" lon="15.7568467"><ele>642.0</ele><time>2026-04-06T13:31:17.188Z</time></trkpt><trkpt lat="38.2289483" lon="15.7567483"><ele>642.0</ele><time>2026-04-06T13:31:18.187Z</time></trkpt><trkpt lat="38.2289883" lon="15.756655"><ele>642.0</ele><time>2026-04-06T13:31:19.188Z</time></trkpt><trkpt lat="38.2290317" lon="15.7565917"><ele>642.0</ele><time>2026-04-06T13:31:20.187Z</time></trkpt><trkpt lat="38.2290767" lon="15.756535"><ele>644.2</ele><time>2026-04-06T13:31:21.188Z</time></trkpt><trkpt lat="38.229155" lon="15.75642"><ele>646.4000000000001</ele><time>2026-04-06T13:31:23.187Z</time></trkpt><trkpt lat="38.2292133" lon="15.7563033"><ele>648.5999999999999</ele><time>2026-04-06T13:31:25.188Z</time></trkpt><trkpt lat="38.2292767" lon="15.7561767"><ele>650.8</ele><time>2026-04-06T13:31:27.188Z</time></trkpt><trkpt lat="38.229335" lon="15.7561267"><ele>653.0</ele><time>2026-04-06T13:31:29.188Z</time></trkpt><trkpt lat="38.2294" lon="15.7561433"><ele>653.0</ele><time>2026-04-06T13:31:31.187Z</time></trkpt><trkpt lat="38.229465" lon="15.7562133"><ele>653.0</ele><time>2026-04-06T13:31:33.187Z</time></trkpt><trkpt lat="38.2295317" lon="15.75628"><ele>653.0</ele><time>2026-04-06T13:31:35.188Z</time></trkpt><trkpt lat="38.2296183" lon="15.7563367"><ele>653.0</ele><time>2026-04-06T13:31:37.188Z</time></trkpt><trkpt lat="38.2297233" lon="15.7564067"><ele>653.0</ele><time>2026-04-06T13:31:39.188Z</time></trkpt><trkpt lat="38.2298233" lon="15.7564783"><ele>652.2</ele><time>2026-04-06T13:31:41.188Z</time></trkpt><trkpt lat="38.22988" lon="15.7565183"><ele>651.4</ele><time>2026-04-06T13:31:42.187Z</time></trkpt><trkpt lat="38.229995" lon="15.75658"><ele>650.6</ele><time>2026-04-06T13:31:44.188Z</time></trkpt><trkpt lat="38.2301283" lon="15.7566083"><ele>649.8000000000001</ele><time>2026-04-06T13:31:46.187Z</time></trkpt><trkpt lat="38.2302067" lon="15.7566"><ele>649.0</ele><time>2026-04-06T13:31:47.188Z</time></trkpt><trkpt lat="38.2302883" lon="15.7565833"><ele>649.0</ele><time>2026-04-06T13:31:48.187Z</time></trkpt><trkpt lat="38.2303717" lon="15.756545"><ele>649.0</ele><time>2026-04-06T13:31:49.188Z</time></trkpt><trkpt lat="38.2304517" lon="15.75651"><ele>649.0</ele><time>2026-04-06T13:31:50.187Z</time></trkpt><trkpt lat="38.2305317" lon="15.7564767"><ele>649.0</ele><time>2026-04-06T13:31:51.188Z</time></trkpt><trkpt lat="38.23061" lon="15.7564567"><ele>649.0</ele><time>2026-04-06T13:31:52.188Z</time></trkpt><trkpt lat="38.2306833" lon="15.75645"><ele>649.0</ele><time>2026-04-06T13:31:53.187Z</time></trkpt><trkpt lat="38.230745" lon="15.7564767"><ele>647.1428571428571</ele><time>2026-04-06T13:31:54.187Z</time></trkpt><trkpt lat="38.2308" lon="15.75653"><ele>645.2857142857142</ele><time>2026-04-06T13:31:55.187Z</time></trkpt><trkpt lat="38.23085" lon="15.7565967"><ele>643.4285714285713</ele><time>2026-04-06T13:31:56.188Z</time></trkpt><trkpt lat="38.2308883" lon="15.7566783"><ele>641.5714285714286</ele><time>2026-04-06T13:31:57.187Z</time></trkpt><trkpt lat="38.2309317" lon="15.7567617"><ele>639.7142857142858</ele><time>2026-04-06T13:31:58.188Z</time></trkpt><trkpt lat="38.2309667" lon="15.7568417"><ele>637.8571428571428</ele><time>2026-04-06T13:31:59.188Z</time></trkpt><trkpt lat="38.2310133" lon="15.75692"><ele>636.0</ele><time>2026-04-06T13:32:00.188Z</time></trkpt><trkpt lat="38.2310583" lon="15.7569933"><ele>635.1666666666666</ele><time>2026-04-06T13:32:01.188Z</time></trkpt><trkpt lat="38.23109" lon="15.757065"><ele>634.3333333333334</ele><time>2026-04-06T13:32:02.187Z</time></trkpt><trkpt lat="38.2310967" lon="15.7571467"><ele>633.5</ele><time>2026-04-06T13:32:03.188Z</time></trkpt><trkpt lat="38.2310617" lon="15.757305"><ele>632.6666666666667</ele><time>2026-04-06T13:32:05.188Z</time></trkpt><trkpt lat="38.2310283" lon="15.75739"><ele>631.8333333333334</ele><time>2026-04-06T13:32:06.188Z</time></trkpt><trkpt lat="38.2309983" lon="15.7574867"><ele>631.0</ele><time>2026-04-06T13:32:07.188Z</time></trkpt><trkpt lat="38.2309733" lon="15.757585"><ele>631.0</ele><time>2026-04-06T13:32:08.188Z</time></trkpt><trkpt lat="38.23096" lon="15.75768"><ele>631.0</ele><time>2026-04-06T13:32:09.188Z</time></trkpt><trkpt lat="38.2309417" lon="15.75778"><ele>631.0</ele><time>2026-04-06T13:32:10.188Z</time></trkpt><trkpt lat="38.2309283" lon="15.757885"><ele>631.0</ele><time>2026-04-06T13:32:11.187Z</time></trkpt><trkpt lat="38.2309167" lon="15.757985"><ele>631.0</ele><time>2026-04-06T13:32:12.188Z</time></trkpt><trkpt lat="38.2308967" lon="15.7580883"><ele>631.0</ele><time>2026-04-06T13:32:13.188Z</time></trkpt><trkpt lat="38.23088" lon="15.7581917"><ele>629.8333333333334</ele><time>2026-04-06T13:32:14.188Z</time></trkpt><trkpt lat="38.2308633" lon="15.758295"><ele>628.6666666666667</ele><time>2026-04-06T13:32:15.187Z</time></trkpt><trkpt lat="38.2308483" lon="15.7583867"><ele>627.5</ele><time>2026-04-06T13:32:16.187Z</time></trkpt><trkpt lat="38.2308417" lon="15.7584883"><ele>626.3333333333334</ele><time>2026-04-06T13:32:17.187Z</time></trkpt><trkpt lat="38.23085" lon="15.7585817"><ele>625.1666666666666</ele><time>2026-04-06T13:32:18.188Z</time></trkpt><trkpt lat="38.230865" lon="15.7586733"><ele>624.0</ele><time>2026-04-06T13:32:19.187Z</time></trkpt><trkpt lat="38.2308833" lon="15.75876"><ele>623.6666666666666</ele><time>2026-04-06T13:32:20.187Z</time></trkpt><trkpt lat="38.2309117" lon="15.7588467"><ele>623.3333333333334</ele><time>2026-04-06T13:32:21.188Z</time></trkpt><trkpt lat="38.230945" lon="15.75894"><ele>623.0</ele><time>2026-04-06T13:32:22.188Z</time></trkpt><trkpt lat="38.23098" lon="15.7590233"><ele>622.6666666666667</ele><time>2026-04-06T13:32:23.188Z</time></trkpt><trkpt lat="38.23102" lon="15.7591183"><ele>622.3333333333334</ele><time>2026-04-06T13:32:24.188Z</time></trkpt><trkpt lat="38.2310767" lon="15.759195"><ele>622.0</ele><time>2026-04-06T13:32:25.188Z</time></trkpt><trkpt lat="38.231135" lon="15.75926"><ele>622.0</ele><time>2026-04-06T13:32:26.187Z</time></trkpt><trkpt lat="38.2311933" lon="15.7593183"><ele>622.0</ele><time>2026-04-06T13:32:27.188Z</time></trkpt><trkpt lat="38.23125" lon="15.759365"><ele>622.0</ele><time>2026-04-06T13:32:28.188Z</time></trkpt><trkpt lat="38.2313067" lon="15.7594017"><ele>622.0</ele><time>2026-04-06T13:32:29.187Z</time></trkpt><trkpt lat="38.2313917" lon="15.7594617"><ele>622.0</ele><time>2026-04-06T13:32:31.188Z</time></trkpt><trkpt lat="38.2314333" lon="15.7595317"><ele>622.0</ele><time>2026-04-06T13:32:34.188Z</time></trkpt><trkpt lat="38.23139" lon="15.7595983"><ele>622.0</ele><time>2026-04-06T13:32:36.187Z</time></trkpt><trkpt lat="38.23134" lon="15.7596817"><ele>622.4</ele><time>2026-04-06T13:32:38.187Z</time></trkpt><trkpt lat="38.2312867" lon="15.759795"><ele>622.8000000000001</ele><time>2026-04-06T13:32:40.188Z</time></trkpt><trkpt lat="38.2312183" lon="15.7599067"><ele>623.2</ele><time>2026-04-06T13:32:42.187Z</time></trkpt><trkpt lat="38.2311333" lon="15.7600233"><ele>623.6</ele><time>2026-04-06T13:32:44.187Z</time></trkpt><trkpt lat="38.23106" lon="15.7601267"><ele>624.0</ele><time>2026-04-06T13:32:46.187Z</time></trkpt><trkpt lat="38.2309867" lon="15.7602283"><ele>622.0</ele><time>2026-04-06T13:32:48.188Z</time></trkpt><trkpt lat="38.230935" lon="15.76035"><ele>620.0</ele><time>2026-04-06T13:32:50.188Z</time></trkpt><trkpt lat="38.2309133" lon="15.7604717"><ele>618.0</ele><time>2026-04-06T13:32:52.188Z</time></trkpt><trkpt lat="38.230935" lon="15.7605933"><ele>616.0</ele><time>2026-04-06T13:32:54.188Z</time></trkpt><trkpt lat="38.2310067" lon="15.7606983"><ele>614.0</ele><time>2026-04-06T13:32:56.188Z</time></trkpt><trkpt lat="38.23107" lon="15.76074"><ele>613.9999999999999</ele><time>2026-04-06T13:32:57.188Z</time></trkpt><trkpt lat="38.2311367" lon="15.760765"><ele>614.0</ele><time>2026-04-06T13:32:58.188Z</time></trkpt><trkpt lat="38.2312033" lon="15.760775"><ele>614.0</ele><time>2026-04-06T13:32:59.187Z</time></trkpt><trkpt lat="38.2312667" lon="15.7607733"><ele>614.0</ele><time>2026-04-06T13:33:00.188Z</time></trkpt><trkpt lat="38.231335" lon="15.76076"><ele>614.0</ele><time>2026-04-06T13:33:01.187Z</time></trkpt><trkpt lat="38.2314117" lon="15.7607417"><ele>613.9999999999999</ele><time>2026-04-06T13:33:02.188Z</time></trkpt><trkpt lat="38.2314867" lon="15.7607133"><ele>614.0</ele><time>2026-04-06T13:33:03.188Z</time></trkpt><trkpt lat="38.2315583" lon="15.760675"><ele>612.3333333333333</ele><time>2026-04-06T13:33:04.187Z</time></trkpt><trkpt lat="38.23167" lon="15.76067"><ele>610.6666666666666</ele><time>2026-04-06T13:33:06.187Z</time></trkpt><trkpt lat="38.231725" lon="15.760765"><ele>609.0</ele><time>2026-04-06T13:33:08.188Z</time></trkpt><trkpt lat="38.2317167" lon="15.76085"><ele>607.3333333333334</ele><time>2026-04-06T13:33:09.188Z</time></trkpt><trkpt lat="38.23171" lon="15.76094"><ele>605.6666666666667</ele><time>2026-04-06T13:33:10.188Z</time></trkpt><trkpt lat="38.2317083" lon="15.76103"><ele>604.0</ele><time>2026-04-06T13:33:11.187Z</time></trkpt><trkpt lat="38.231705" lon="15.7611117"><ele>600.0</ele><time>2026-04-06T13:33:12.188Z</time></trkpt><trkpt lat="38.23173" lon="15.761275"><ele>596.0</ele><time>2026-04-06T13:33:14.188Z</time></trkpt><trkpt lat="38.2317583" lon="15.7613567"><ele>592.0</ele><time>2026-04-06T13:33:15.188Z</time></trkpt><trkpt lat="38.2318" lon="15.7614467"><ele>588.0</ele><time>2026-04-06T13:33:16.188Z</time></trkpt><trkpt lat="38.2318517" lon="15.76154"><ele>584.0</ele><time>2026-04-06T13:33:17.188Z</time></trkpt><trkpt lat="38.231905" lon="15.761625"><ele>584.0</ele><time>2026-04-06T13:33:18.188Z</time></trkpt><trkpt lat="38.231955" lon="15.7617"><ele>584.0</ele><time>2026-04-06T13:33:19.188Z</time></trkpt><trkpt lat="38.2320083" lon="15.7617667"><ele>584.0</ele><time>2026-04-06T13:33:20.187Z</time></trkpt><trkpt lat="38.23206" lon="15.7618283"><ele>584.0</ele><time>2026-04-06T13:33:21.187Z</time></trkpt><trkpt lat="38.2321367" lon="15.7619483"><ele>584.0</ele><time>2026-04-06T13:33:23.187Z</time></trkpt><trkpt lat="38.232195" lon="15.7620817"><ele>582.8333333333333</ele><time>2026-04-06T13:33:25.187Z</time></trkpt><trkpt lat="38.23222" lon="15.7621683"><ele>581.6666666666666</ele><time>2026-04-06T13:33:26.187Z</time></trkpt><trkpt lat="38.232235" lon="15.7622717"><ele>580.5</ele><time>2026-04-06T13:33:27.188Z</time></trkpt><trkpt lat="38.2322417" lon="15.7623783"><ele>579.3333333333334</ele><time>2026-04-06T13:33:28.188Z</time></trkpt><trkpt lat="38.2322333" lon="15.7624767"><ele>578.1666666666667</ele><time>2026-04-06T13:33:29.188Z</time></trkpt><trkpt lat="38.2322083" lon="15.7625717"><ele>577.0</ele><time>2026-04-06T13:33:30.188Z</time></trkpt><trkpt lat="38.232185" lon="15.762655"><ele>576.4</ele><time>2026-04-06T13:33:31.187Z</time></trkpt><trkpt lat="38.2321567" lon="15.7627983"><ele>575.8000000000001</ele><time>2026-04-06T13:33:33.188Z</time></trkpt><trkpt lat="38.2321967" lon="15.7629433"><ele>575.2</ele><time>2026-04-06T13:33:35.187Z</time></trkpt><trkpt lat="38.2322533" lon="15.7629983"><ele>574.6</ele><time>2026-04-06T13:33:36.188Z</time></trkpt><trkpt lat="38.232335" lon="15.7630483"><ele>574.0</ele><time>2026-04-06T13:33:37.187Z</time></trkpt><trkpt lat="38.2324167" lon="15.7630933"><ele>573.5</ele><time>2026-04-06T13:33:38.187Z</time></trkpt><trkpt lat="38.2325033" lon="15.7631417"><ele>573.0</ele><time>2026-04-06T13:33:39.188Z</time></trkpt><trkpt lat="38.23259" lon="15.7631867"><ele>572.5</ele><time>2026-04-06T13:33:40.187Z</time></trkpt><trkpt lat="38.2326617" lon="15.763245"><ele>572.0</ele><time>2026-04-06T13:33:41.188Z</time></trkpt><trkpt lat="38.2327267" lon="15.7633083"><ele>571.5</ele><time>2026-04-06T13:33:42.188Z</time></trkpt><trkpt lat="38.2327717" lon="15.76338"><ele>571.0</ele><time>2026-04-06T13:33:43.188Z</time></trkpt><trkpt lat="38.2328067" lon="15.7634517"><ele>571.0</ele><time>2026-04-06T13:33:44.187Z</time></trkpt><trkpt lat="38.2328417" lon="15.7635267"><ele>571.0</ele><time>2026-04-06T13:33:45.187Z</time></trkpt><trkpt lat="38.2328767" lon="15.7636033"><ele>571.0</ele><time>2026-04-06T13:33:46.187Z</time></trkpt><trkpt lat="38.2329083" lon="15.7636833"><ele>571.0</ele><time>2026-04-06T13:33:47.188Z</time></trkpt><trkpt lat="38.23294" lon="15.763765"><ele>571.0</ele><time>2026-04-06T13:33:48.187Z</time></trkpt><trkpt lat="38.2329683" lon="15.7638483"><ele>571.0</ele><time>2026-04-06T13:33:49.188Z</time></trkpt><trkpt lat="38.23298" lon="15.76394"><ele>571.0</ele><time>2026-04-06T13:33:50.188Z</time></trkpt><trkpt lat="38.2329833" lon="15.7640333"><ele>570.3333333333334</ele><time>2026-04-06T13:33:51.188Z</time></trkpt><trkpt lat="38.2329783" lon="15.7641333"><ele>569.6666666666667</ele><time>2026-04-06T13:33:52.188Z</time></trkpt><trkpt lat="38.232975" lon="15.7642317"><ele>569.0</ele><time>2026-04-06T13:33:53.187Z</time></trkpt><trkpt lat="38.232965" lon="15.7643317"><ele>568.3333333333334</ele><time>2026-04-06T13:33:54.187Z</time></trkpt><trkpt lat="38.2329583" lon="15.76443"><ele>567.6666666666666</ele><time>2026-04-06T13:33:55.188Z</time></trkpt><trkpt lat="38.23295" lon="15.764535"><ele>567.0</ele><time>2026-04-06T13:33:56.187Z</time></trkpt><trkpt lat="38.2329467" lon="15.7646333"><ele>565.5</ele><time>2026-04-06T13:33:57.188Z</time></trkpt><trkpt lat="38.2329383" lon="15.7647333"><ele>564.0</ele><time>2026-04-06T13:33:58.187Z</time></trkpt><trkpt lat="38.2329283" lon="15.764825"><ele>562.5</ele><time>2026-04-06T13:33:59.188Z</time></trkpt><trkpt lat="38.232925" lon="15.764915"><ele>561.0</ele><time>2026-04-06T13:34:00.187Z</time></trkpt><trkpt lat="38.2329167" lon="15.7650033"><ele>559.5</ele><time>2026-04-06T13:34:01.187Z</time></trkpt><trkpt lat="38.2329017" lon="15.7650867"><ele>558.0</ele><time>2026-04-06T13:34:02.187Z</time></trkpt><trkpt lat="38.2329033" lon="15.7652367"><ele>558.0</ele><time>2026-04-06T13:34:04.188Z</time></trkpt><trkpt lat="38.2329783" lon="15.7653417"><ele>558.0</ele><time>2026-04-06T13:34:06.187Z</time></trkpt><trkpt lat="38.233025" lon="15.76541"><ele>558.0</ele><time>2026-04-06T13:34:07.188Z</time></trkpt><trkpt lat="38.2330533" lon="15.765545"><ele>558.0</ele><time>2026-04-06T13:34:09.187Z</time></trkpt><trkpt lat="38.2329933" lon="15.7656083"><ele>558.0</ele><time>2026-04-06T13:34:11.188Z</time></trkpt><trkpt lat="38.23289" lon="15.7655817"><ele>558.0</ele><time>2026-04-06T13:34:13.188Z</time></trkpt><trkpt lat="38.2328333" lon="15.765545"><ele>558.0</ele><time>2026-04-06T13:34:14.187Z</time></trkpt><trkpt lat="38.23278" lon="15.7654967"><ele>558.0</ele><time>2026-04-06T13:34:15.188Z</time></trkpt><trkpt lat="38.2327" lon="15.7654033"><ele>558.0</ele><time>2026-04-06T13:34:17.188Z</time></trkpt><trkpt lat="38.232625" lon="15.765365"><ele>558.0</ele><time>2026-04-06T13:34:19.187Z</time></trkpt><trkpt lat="38.23256" lon="15.7654417"><ele>558.0</ele><time>2026-04-06T13:34:22.188Z</time></trkpt><trkpt lat="38.2325617" lon="15.7655433"><ele>558.0</ele><time>2026-04-06T13:34:24.188Z</time></trkpt><trkpt lat="38.232605" lon="15.7656567"><ele>558.0</ele><time>2026-04-06T13:34:27.188Z</time></trkpt><trkpt lat="38.2326567" lon="15.7657567"><ele>558.0</ele><time>2026-04-06T13:34:29.187Z</time></trkpt><trkpt lat="38.2326983" lon="15.765845"><ele>558.0</ele><time>2026-04-06T13:34:31.187Z</time></trkpt><trkpt lat="38.2327217" lon="15.7659283"><ele>558.0</ele><time>2026-04-06T13:34:33.188Z</time></trkpt><trkpt lat="38.2327367" lon="15.7660083"><ele>558.0</ele><time>2026-04-06T13:34:35.188Z</time></trkpt><trkpt lat="38.232745" lon="15.76613"><ele>560.8571428571428</ele><time>2026-04-06T13:34:37.188Z</time></trkpt><trkpt lat="38.2327667" lon="15.766215"><ele>563.7142857142857</ele><time>2026-04-06T13:34:38.188Z</time></trkpt><trkpt lat="38.2328083" lon="15.7663017"><ele>566.5714285714286</ele><time>2026-04-06T13:34:39.187Z</time></trkpt><trkpt lat="38.2328483" lon="15.7663767"><ele>569.4285714285713</ele><time>2026-04-06T13:34:40.187Z</time></trkpt><trkpt lat="38.2329017" lon="15.76644"><ele>572.2857142857142</ele><time>2026-04-06T13:34:41.188Z</time></trkpt><trkpt lat="38.2329583" lon="15.7664917"><ele>575.1428571428571</ele><time>2026-04-06T13:34:42.188Z</time></trkpt><trkpt lat="38.2330367" lon="15.7665333"><ele>578.0</ele><time>2026-04-06T13:34:43.188Z</time></trkpt><trkpt lat="38.233115" lon="15.7665617"><ele>571.0</ele><time>2026-04-06T13:34:44.187Z</time></trkpt><trkpt lat="38.2332017" lon="15.7665833"><ele>564.0</ele><time>2026-04-06T13:34:45.187Z</time></trkpt><trkpt lat="38.233285" lon="15.7666117"><ele>557.0</ele><time>2026-04-06T13:34:46.188Z</time></trkpt><trkpt lat="38.23336" lon="15.7666417"><ele>550.0</ele><time>2026-04-06T13:34:47.188Z</time></trkpt><trkpt lat="38.233425" lon="15.76668"><ele>543.0</ele><time>2026-04-06T13:34:48.188Z</time></trkpt><trkpt lat="38.233485" lon="15.7667367"><ele>536.0</ele><time>2026-04-06T13:34:49.188Z</time></trkpt><trkpt lat="38.2335467" lon="15.7667967"><ele>536.0</ele><time>2026-04-06T13:34:50.187Z</time></trkpt><trkpt lat="38.23361" lon="15.7668583"><ele>536.0</ele><time>2026-04-06T13:34:51.187Z</time></trkpt><trkpt lat="38.2336733" lon="15.7669233"><ele>536.0</ele><time>2026-04-06T13:34:52.188Z</time></trkpt><trkpt lat="38.233725" lon="15.76699"><ele>536.0</ele><time>2026-04-06T13:34:53.188Z</time></trkpt><trkpt lat="38.2337717" lon="15.7670517"><ele>536.0</ele><time>2026-04-06T13:34:54.188Z</time></trkpt><trkpt lat="38.233835" lon="15.76719"><ele>536.0</ele><time>2026-04-06T13:34:56.187Z</time></trkpt><trkpt lat="38.2338617" lon="15.7672683"><ele>533.1428571428571</ele><time>2026-04-06T13:34:57.188Z</time></trkpt><trkpt lat="38.2338783" lon="15.7673533"><ele>530.2857142857142</ele><time>2026-04-06T13:34:58.187Z</time></trkpt><trkpt lat="38.233895" lon="15.7674317"><ele>527.4285714285713</ele><time>2026-04-06T13:34:59.188Z</time></trkpt><trkpt lat="38.23393" lon="15.7675083"><ele>524.5714285714286</ele><time>2026-04-06T13:35:00.187Z</time></trkpt><trkpt lat="38.23398" lon="15.7675733"><ele>521.7142857142857</ele><time>2026-04-06T13:35:01.187Z</time></trkpt><trkpt lat="38.2340367" lon="15.7676267"><ele>518.8571428571428</ele><time>2026-04-06T13:35:02.187Z</time></trkpt><trkpt lat="38.2340967" lon="15.7676817"><ele>516.0</ele><time>2026-04-06T13:35:03.187Z</time></trkpt><trkpt lat="38.234155" lon="15.7677283"><ele>516.0</ele><time>2026-04-06T13:35:04.188Z</time></trkpt><trkpt lat="38.2342133" lon="15.7677683"><ele>516.0</ele><time>2026-04-06T13:35:05.187Z</time></trkpt><trkpt lat="38.2343217" lon="15.7678233"><ele>516.0</ele><time>2026-04-06T13:35:07.187Z</time></trkpt><trkpt lat="38.2344283" lon="15.767895"><ele>516.0</ele><time>2026-04-06T13:35:09.187Z</time></trkpt><trkpt lat="38.2344817" lon="15.7679783"><ele>516.0</ele><time>2026-04-06T13:35:11.187Z</time></trkpt><trkpt lat="38.2344833" lon="15.768065"><ele>515.9999999999999</ele><time>2026-04-06T13:35:13.188Z</time></trkpt><trkpt lat="38.2344933" lon="15.7681633"><ele>516.0</ele><time>2026-04-06T13:35:16.188Z</time></trkpt><trkpt lat="38.2345333" lon="15.7680967"><ele>516.0</ele><time>2026-04-06T13:35:20.188Z</time></trkpt><trkpt lat="38.2345283" lon="15.7680067"><ele>516.0</ele><time>2026-04-06T13:35:45.187Z</time></trkpt><trkpt lat="38.23448" lon="15.7679033"><ele>516.0</ele><time>2026-04-06T13:35:47.188Z</time></trkpt><trkpt lat="38.2344283" lon="15.7678483"><ele>515.9999999999999</ele><time>2026-04-06T13:35:48.188Z</time></trkpt><trkpt lat="38.234365" lon="15.7678033"><ele>516.0</ele><time>2026-04-06T13:35:49.188Z</time></trkpt><trkpt lat="38.2343" lon="15.7677683"><ele>515.9999999999999</ele><time>2026-04-06T13:35:50.187Z</time></trkpt><trkpt lat="38.2342367" lon="15.76773"><ele>516.0</ele><time>2026-04-06T13:35:51.188Z</time></trkpt><trkpt lat="38.234175" lon="15.7676833"><ele>516.0</ele><time>2026-04-06T13:35:52.188Z</time></trkpt><trkpt lat="38.2341167" lon="15.7676383"><ele>516.0</ele><time>2026-04-06T13:35:53.187Z</time></trkpt><trkpt lat="38.23406" lon="15.767585"><ele>516.0</ele><time>2026-04-06T13:35:54.188Z</time></trkpt><trkpt lat="38.234005" lon="15.7675317"><ele>515.9999999999999</ele><time>2026-04-06T13:35:55.187Z</time></trkpt><trkpt lat="38.2339517" lon="15.7674667"><ele>516.0</ele><time>2026-04-06T13:35:56.187Z</time></trkpt><trkpt lat="38.233905" lon="15.7673917"><ele>518.8571428571428</ele><time>2026-04-06T13:35:57.188Z</time></trkpt><trkpt lat="38.2338717" lon="15.7672967"><ele>521.7142857142857</ele><time>2026-04-06T13:35:58.188Z</time></trkpt><trkpt lat="38.2338517" lon="15.7672067"><ele>524.5714285714286</ele><time>2026-04-06T13:35:59.187Z</time></trkpt><trkpt lat="38.233835" lon="15.7671267"><ele>527.4285714285713</ele><time>2026-04-06T13:36:00.188Z</time></trkpt><trkpt lat="38.233795" lon="15.7670617"><ele>530.2857142857142</ele><time>2026-04-06T13:36:01.188Z</time></trkpt><trkpt lat="38.2337433" lon="15.76699"><ele>533.1428571428571</ele><time>2026-04-06T13:36:02.188Z</time></trkpt><trkpt lat="38.23368" lon="15.7669183"><ele>536.0</ele><time>2026-04-06T13:36:03.188Z</time></trkpt><trkpt lat="38.23362" lon="15.7668517"><ele>536.0</ele><time>2026-04-06T13:36:04.187Z</time></trkpt><trkpt lat="38.2335617" lon="15.7667833"><ele>536.0</ele><time>2026-04-06T13:36:05.188Z</time></trkpt><trkpt lat="38.2335033" lon="15.7667233"><ele>536.0</ele><time>2026-04-06T13:36:06.188Z</time></trkpt><trkpt lat="38.2334333" lon="15.7666683"><ele>536.0</ele><time>2026-04-06T13:36:07.188Z</time></trkpt><trkpt lat="38.23336" lon="15.7666317"><ele>536.0</ele><time>2026-04-06T13:36:08.188Z</time></trkpt><trkpt lat="38.2332783" lon="15.7666"><ele>536.0</ele><time>2026-04-06T13:36:09.187Z</time></trkpt><trkpt lat="38.2332" lon="15.7665767"><ele>544.4</ele><time>2026-04-06T13:36:10.188Z</time></trkpt><trkpt lat="38.233125" lon="15.76655"><ele>552.8</ele><time>2026-04-06T13:36:11.188Z</time></trkpt><trkpt lat="38.2330583" lon="15.7665083"><ele>561.1999999999999</ele><time>2026-04-06T13:36:12.188Z</time></trkpt><trkpt lat="38.2329633" lon="15.7664067"><ele>569.6</ele><time>2026-04-06T13:36:14.188Z</time></trkpt><trkpt lat="38.2329183" lon="15.7662783"><ele>578.0</ele><time>2026-04-06T13:36:16.188Z</time></trkpt><trkpt lat="38.23288" lon="15.766135"><ele>574.6666666666666</ele><time>2026-04-06T13:36:18.188Z</time></trkpt><trkpt lat="38.2328367" lon="15.7660117"><ele>571.3333333333333</ele><time>2026-04-06T13:36:20.187Z</time></trkpt><trkpt lat="38.2327883" lon="15.7659183"><ele>568.0</ele><time>2026-04-06T13:36:22.188Z</time></trkpt><trkpt lat="38.2327583" lon="15.7658183"><ele>564.6666666666666</ele><time>2026-04-06T13:36:47.187Z</time></trkpt><trkpt lat="38.2327233" lon="15.7657467"><ele>561.3333333333334</ele><time>2026-04-06T13:36:49.188Z</time></trkpt><trkpt lat="38.2326817" lon="15.7656517"><ele>558.0</ele><time>2026-04-06T13:36:51.188Z</time></trkpt><trkpt lat="38.2326667" lon="15.7655733"><ele>558.0</ele><time>2026-04-06T13:36:52.187Z</time></trkpt><trkpt lat="38.2326717" lon="15.7654533"><ele>558.0</ele><time>2026-04-06T13:36:54.187Z</time></trkpt><trkpt lat="38.23272" lon="15.7654017"><ele>558.0</ele><time>2026-04-06T13:36:57.188Z</time></trkpt><trkpt lat="38.2328" lon="15.7655"><ele>558.0</ele><time>2026-04-06T13:36:59.188Z</time></trkpt><trkpt lat="38.2328483" lon="15.765565"><ele>558.0</ele><time>2026-04-06T13:37:00.188Z</time></trkpt><trkpt lat="38.2329117" lon="15.7656083"><ele>558.0</ele><time>2026-04-06T13:37:01.187Z</time></trkpt><trkpt lat="38.2330117" lon="15.7655967"><ele>558.0</ele><time>2026-04-06T13:37:03.187Z</time></trkpt><trkpt lat="38.2330417" lon="15.765455"><ele>558.0</ele><time>2026-04-06T13:37:05.187Z</time></trkpt><trkpt lat="38.2330083" lon="15.7653733"><ele>558.0</ele><time>2026-04-06T13:37:06.188Z</time></trkpt><trkpt lat="38.2329633" lon="15.76531"><ele>558.0</ele><time>2026-04-06T13:37:07.187Z</time></trkpt><trkpt lat="38.2329217" lon="15.765245"><ele>558.0</ele><time>2026-04-06T13:37:08.188Z</time></trkpt><trkpt lat="38.2328817" lon="15.765095"><ele>558.0</ele><time>2026-04-06T13:37:10.188Z</time></trkpt><trkpt lat="38.2328917" lon="15.7650033"><ele>557.3333333333334</ele><time>2026-04-06T13:37:11.188Z</time></trkpt><trkpt lat="38.232915" lon="15.7649017"><ele>556.6666666666666</ele><time>2026-04-06T13:37:12.188Z</time></trkpt><trkpt lat="38.2329383" lon="15.7647933"><ele>556.0</ele><time>2026-04-06T13:37:13.188Z</time></trkpt><trkpt lat="38.2329517" lon="15.7646867"><ele>555.3333333333333</ele><time>2026-04-06T13:37:14.188Z</time></trkpt><trkpt lat="38.23296" lon="15.7645717"><ele>554.6666666666666</ele><time>2026-04-06T13:37:15.188Z</time></trkpt><trkpt lat="38.2329667" lon="15.7644467"><ele>554.0</ele><time>2026-04-06T13:37:16.188Z</time></trkpt><trkpt lat="38.2329733" lon="15.7643033"><ele>556.6</ele><time>2026-04-06T13:37:17.187Z</time></trkpt><trkpt lat="38.2329867" lon="15.764175"><ele>559.2</ele><time>2026-04-06T13:37:18.188Z</time></trkpt><trkpt lat="38.23299" lon="15.764035"><ele>561.8000000000001</ele><time>2026-04-06T13:37:19.188Z</time></trkpt><trkpt lat="38.232985" lon="15.763915"><ele>564.4</ele><time>2026-04-06T13:37:20.187Z</time></trkpt><trkpt lat="38.2329617" lon="15.7637967"><ele>567.0</ele><time>2026-04-06T13:37:21.188Z</time></trkpt><trkpt lat="38.2329233" lon="15.7636867"><ele>567.0</ele><time>2026-04-06T13:37:22.188Z</time></trkpt><trkpt lat="38.2328817" lon="15.7635883"><ele>567.0</ele><time>2026-04-06T13:37:23.188Z</time></trkpt><trkpt lat="38.2328333" lon="15.7634933"><ele>567.0</ele><time>2026-04-06T13:37:24.188Z</time></trkpt><trkpt lat="38.2327883" lon="15.7633933"><ele>567.0</ele><time>2026-04-06T13:37:25.187Z</time></trkpt><trkpt lat="38.232745" lon="15.7633067"><ele>567.0</ele><time>2026-04-06T13:37:26.188Z</time></trkpt><trkpt lat="38.232675" lon="15.76323"><ele>567.0</ele><time>2026-04-06T13:37:27.187Z</time></trkpt><trkpt lat="38.232585" lon="15.7631583"><ele>567.8000000000001</ele><time>2026-04-06T13:37:28.188Z</time></trkpt><trkpt lat="38.232485" lon="15.7631"><ele>568.6</ele><time>2026-04-06T13:37:29.188Z</time></trkpt><trkpt lat="38.23239" lon="15.7630417"><ele>569.4000000000001</ele><time>2026-04-06T13:37:30.187Z</time></trkpt><trkpt lat="38.2322933" lon="15.7629867"><ele>570.2</ele><time>2026-04-06T13:37:31.187Z</time></trkpt><trkpt lat="38.2322233" lon="15.7629217"><ele>571.0</ele><time>2026-04-06T13:37:32.188Z</time></trkpt><trkpt lat="38.23217" lon="15.7628533"><ele>571.5</ele><time>2026-04-06T13:37:33.188Z</time></trkpt><trkpt lat="38.23215" lon="15.7627683"><ele>572.0</ele><time>2026-04-06T13:37:34.187Z</time></trkpt><trkpt lat="38.2321567" lon="15.7626883"><ele>572.5</ele><time>2026-04-06T13:37:35.188Z</time></trkpt><trkpt lat="38.23219" lon="15.762605"><ele>573.0</ele><time>2026-04-06T13:37:36.188Z</time></trkpt><trkpt lat="38.23223" lon="15.7625167"><ele>573.5</ele><time>2026-04-06T13:37:37.187Z</time></trkpt><trkpt lat="38.2322517" lon="15.762415"><ele>574.0</ele><time>2026-04-06T13:37:38.188Z</time></trkpt><trkpt lat="38.23226" lon="15.76231"><ele>574.5</ele><time>2026-04-06T13:37:39.188Z</time></trkpt><trkpt lat="38.232255" lon="15.7622067"><ele>575.0</ele><time>2026-04-06T13:37:40.188Z</time></trkpt><trkpt lat="38.2322367" lon="15.76211"><ele>575.5</ele><time>2026-04-06T13:37:41.188Z</time></trkpt><trkpt lat="38.2322133" lon="15.7620233"><ele>576.0</ele><time>2026-04-06T13:37:42.188Z</time></trkpt><trkpt lat="38.2321783" lon="15.7619433"><ele>576.5</ele><time>2026-04-06T13:37:43.187Z</time></trkpt><trkpt lat="38.23213" lon="15.761875"><ele>577.0</ele><time>2026-04-06T13:37:44.187Z</time></trkpt><trkpt lat="38.2320833" lon="15.7617983"><ele>578.0</ele><time>2026-04-06T13:37:45.187Z</time></trkpt><trkpt lat="38.23203" lon="15.7617267"><ele>579.0</ele><time>2026-04-06T13:37:46.188Z</time></trkpt><trkpt lat="38.2319767" lon="15.7616517"><ele>580.0</ele><time>2026-04-06T13:37:47.187Z</time></trkpt><trkpt lat="38.2319283" lon="15.7615833"><ele>581.0</ele><time>2026-04-06T13:37:48.187Z</time></trkpt><trkpt lat="38.2318883" lon="15.7615083"><ele>582.0</ele><time>2026-04-06T13:37:49.187Z</time></trkpt><trkpt lat="38.2318517" lon="15.7614333"><ele>583.0</ele><time>2026-04-06T13:37:50.188Z</time></trkpt><trkpt lat="38.2318133" lon="15.761355"><ele>584.0</ele><time>2026-04-06T13:37:51.187Z</time></trkpt><trkpt lat="38.2317867" lon="15.761275"><ele>584.0</ele><time>2026-04-06T13:37:52.188Z</time></trkpt><trkpt lat="38.2317633" lon="15.7611883"><ele>584.0</ele><time>2026-04-06T13:37:53.188Z</time></trkpt><trkpt lat="38.2317483" lon="15.7610917"><ele>584.0</ele><time>2026-04-06T13:37:54.187Z</time></trkpt><trkpt lat="38.231735" lon="15.76099"><ele>584.0</ele><time>2026-04-06T13:37:55.187Z</time></trkpt><trkpt lat="38.231725" lon="15.7608867"><ele>584.0</ele><time>2026-04-06T13:37:56.188Z</time></trkpt><trkpt lat="38.23172" lon="15.760785"><ele>584.0</ele><time>2026-04-06T13:37:57.188Z</time></trkpt><trkpt lat="38.2317017" lon="15.7606983"><ele>588.0</ele><time>2026-04-06T13:37:58.187Z</time></trkpt><trkpt lat="38.2316767" lon="15.7606183"><ele>592.0</ele><time>2026-04-06T13:37:59.188Z</time></trkpt><trkpt lat="38.23159" lon="15.760525"><ele>596.0</ele><time>2026-04-06T13:38:01.187Z</time></trkpt><trkpt lat="38.23146" lon="15.760575"><ele>600.0</ele><time>2026-04-06T13:38:03.188Z</time></trkpt><trkpt lat="38.2313917" lon="15.7606267"><ele>604.0</ele><time>2026-04-06T13:38:04.188Z</time></trkpt><trkpt lat="38.2313167" lon="15.7606767"><ele>606.0</ele><time>2026-04-06T13:38:05.188Z</time></trkpt><trkpt lat="38.2312533" lon="15.7607183"><ele>608.0</ele><time>2026-04-06T13:38:06.188Z</time></trkpt><trkpt lat="38.2311883" lon="15.76074"><ele>610.0</ele><time>2026-04-06T13:38:07.188Z</time></trkpt><trkpt lat="38.2310733" lon="15.7607467"><ele>612.0</ele><time>2026-04-06T13:38:09.187Z</time></trkpt><trkpt lat="38.23099" lon="15.7606667"><ele>614.0</ele><time>2026-04-06T13:38:11.188Z</time></trkpt><trkpt lat="38.2309833" lon="15.7605067"><ele>613.9999999999999</ele><time>2026-04-06T13:38:13.187Z</time></trkpt><trkpt lat="38.2310117" lon="15.7604133"><ele>614.0</ele><time>2026-04-06T13:38:14.188Z</time></trkpt><trkpt lat="38.2310483" lon="15.7603283"><ele>614.0</ele><time>2026-04-06T13:38:15.188Z</time></trkpt><trkpt lat="38.23109" lon="15.7602533"><ele>614.0</ele><time>2026-04-06T13:38:16.188Z</time></trkpt><trkpt lat="38.2311417" lon="15.7601783"><ele>614.0</ele><time>2026-04-06T13:38:17.188Z</time></trkpt><trkpt lat="38.2311767" lon="15.7601083"><ele>613.9999999999999</ele><time>2026-04-06T13:38:18.187Z</time></trkpt><trkpt lat="38.2312133" lon="15.7600333"><ele>614.0</ele><time>2026-04-06T13:38:19.188Z</time></trkpt><trkpt lat="38.231245" lon="15.7599483"><ele>615.1666666666666</ele><time>2026-04-06T13:38:20.188Z</time></trkpt><trkpt lat="38.2312817" lon="15.7598733"><ele>616.3333333333333</ele><time>2026-04-06T13:38:21.188Z</time></trkpt><trkpt lat="38.2313083" lon="15.759795"><ele>617.5</ele><time>2026-04-06T13:38:22.188Z</time></trkpt><trkpt lat="38.23137" lon="15.7596667"><ele>618.6666666666666</ele><time>2026-04-06T13:38:24.188Z</time></trkpt><trkpt lat="38.2314267" lon="15.7595617"><ele>619.8333333333334</ele><time>2026-04-06T13:38:26.188Z</time></trkpt><trkpt lat="38.231515" lon="15.759555"><ele>621.0</ele><time>2026-04-06T13:38:31.188Z</time></trkpt><trkpt lat="38.2316217" lon="15.759645"><ele>621.0</ele><time>2026-04-06T13:38:33.188Z</time></trkpt><trkpt lat="38.2316817" lon="15.7596833"><ele>621.0</ele><time>2026-04-06T13:38:34.187Z</time></trkpt><trkpt lat="38.2317417" lon="15.759725"><ele>621.0</ele><time>2026-04-06T13:38:35.188Z</time></trkpt><trkpt lat="38.2318017" lon="15.759755"><ele>621.0</ele><time>2026-04-06T13:38:36.188Z</time></trkpt><trkpt lat="38.23186" lon="15.75979"><ele>621.0</ele><time>2026-04-06T13:38:37.187Z</time></trkpt><trkpt lat="38.2319167" lon="15.7598317"><ele>621.0</ele><time>2026-04-06T13:38:38.188Z</time></trkpt><trkpt lat="38.2320333" lon="15.7598983"><ele>620.9999999999999</ele><time>2026-04-06T13:38:40.188Z</time></trkpt><trkpt lat="38.232095" lon="15.7599267"><ele>621.0</ele><time>2026-04-06T13:38:41.188Z</time></trkpt><trkpt lat="38.2321567" lon="15.75995"><ele>621.0</ele><time>2026-04-06T13:38:42.188Z</time></trkpt><trkpt lat="38.2322183" lon="15.7599783"><ele>621.0</ele><time>2026-04-06T13:38:43.188Z</time></trkpt><trkpt lat="38.2322783" lon="15.7600117"><ele>621.0</ele><time>2026-04-06T13:38:44.188Z</time></trkpt><trkpt lat="38.2323383" lon="15.7600533"><ele>620.9999999999999</ele><time>2026-04-06T13:38:45.187Z</time></trkpt><trkpt lat="38.2324033" lon="15.7601"><ele>621.0</ele><time>2026-04-06T13:38:46.188Z</time></trkpt><trkpt lat="38.232465" lon="15.760155"><ele>620.3333333333334</ele><time>2026-04-06T13:38:47.188Z</time></trkpt><trkpt lat="38.2325267" lon="15.7602217"><ele>619.6666666666666</ele><time>2026-04-06T13:38:48.188Z</time></trkpt><trkpt lat="38.232585" lon="15.7602967"><ele>619.0</ele><time>2026-04-06T13:38:49.188Z</time></trkpt><trkpt lat="38.2326417" lon="15.7603833"><ele>618.3333333333333</ele><time>2026-04-06T13:38:50.187Z</time></trkpt><trkpt lat="38.2326983" lon="15.7604733"><ele>617.6666666666666</ele><time>2026-04-06T13:38:51.188Z</time></trkpt><trkpt lat="38.2327417" lon="15.7605683"><ele>617.0</ele><time>2026-04-06T13:38:52.188Z</time></trkpt><trkpt lat="38.2327767" lon="15.7606617"><ele>617.0</ele><time>2026-04-06T13:38:53.188Z</time></trkpt><trkpt lat="38.232795" lon="15.7607583"><ele>617.0</ele><time>2026-04-06T13:38:54.188Z</time></trkpt><trkpt lat="38.2328067" lon="15.7608567"><ele>617.0</ele><time>2026-04-06T13:38:55.188Z</time></trkpt><trkpt lat="38.2328183" lon="15.7609567"><ele>617.0</ele><time>2026-04-06T13:38:56.188Z</time></trkpt><trkpt lat="38.2328383" lon="15.7610533"><ele>617.0</ele><time>2026-04-06T13:38:57.187Z</time></trkpt><trkpt lat="38.2328617" lon="15.76114"><ele>617.0</ele><time>2026-04-06T13:38:58.187Z</time></trkpt><trkpt lat="38.2328917" lon="15.761215"><ele>617.3333333333333</ele><time>2026-04-06T13:38:59.188Z</time></trkpt><trkpt lat="38.232975" lon="15.7613217"><ele>617.6666666666666</ele><time>2026-04-06T13:39:01.188Z</time></trkpt><trkpt lat="38.233035" lon="15.761355"><ele>618.0</ele><time>2026-04-06T13:39:02.188Z</time></trkpt><trkpt lat="38.2331017" lon="15.76138"><ele>618.3333333333334</ele><time>2026-04-06T13:39:03.187Z</time></trkpt><trkpt lat="38.2331733" lon="15.761405"><ele>618.6666666666667</ele><time>2026-04-06T13:39:04.188Z</time></trkpt><trkpt lat="38.2332467" lon="15.761425"><ele>619.0</ele><time>2026-04-06T13:39:05.187Z</time></trkpt><trkpt lat="38.23332" lon="15.7614467"><ele>619.0</ele><time>2026-04-06T13:39:06.188Z</time></trkpt><trkpt lat="38.2333967" lon="15.761465"><ele>619.0</ele><time>2026-04-06T13:39:07.188Z</time></trkpt><trkpt lat="38.2334733" lon="15.7614833"><ele>619.0</ele><time>2026-04-06T13:39:08.187Z</time></trkpt><trkpt lat="38.233555" lon="15.7614983"><ele>619.0</ele><time>2026-04-06T13:39:09.188Z</time></trkpt><trkpt lat="38.2336383" lon="15.761515"><ele>619.0</ele><time>2026-04-06T13:39:10.188Z</time></trkpt><trkpt lat="38.2337217" lon="15.7615233"><ele>619.0</ele><time>2026-04-06T13:39:11.187Z</time></trkpt><trkpt lat="38.2338083" lon="15.7615133"><ele>619.0</ele><time>2026-04-06T13:39:12.188Z</time></trkpt><trkpt lat="38.2338883" lon="15.7614933"><ele>619.0</ele><time>2026-04-06T13:39:13.187Z</time></trkpt><trkpt lat="38.2339617" lon="15.7614667"><ele>619.0</ele><time>2026-04-06T13:39:14.188Z</time></trkpt><trkpt lat="38.2340333" lon="15.761445"><ele>619.0</ele><time>2026-04-06T13:39:15.188Z</time></trkpt><trkpt lat="38.2341" lon="15.7614183"><ele>619.0</ele><time>2026-04-06T13:39:16.188Z</time></trkpt><trkpt lat="38.23417" lon="15.7614083"><ele>619.0</ele><time>2026-04-06T13:39:17.187Z</time></trkpt><trkpt lat="38.2342367" lon="15.7613967"><ele>619.0</ele><time>2026-04-06T13:39:18.188Z</time></trkpt><trkpt lat="38.2343017" lon="15.761385"><ele>621.5</ele><time>2026-04-06T13:39:19.187Z</time></trkpt><trkpt lat="38.23438" lon="15.7613783"><ele>624.0</ele><time>2026-04-06T13:39:20.188Z</time></trkpt><trkpt lat="38.23446" lon="15.7613767"><ele>626.5</ele><time>2026-04-06T13:39:21.188Z</time></trkpt><trkpt lat="38.2345483" lon="15.76139"><ele>629.0</ele><time>2026-04-06T13:39:22.187Z</time></trkpt><trkpt lat="38.2346333" lon="15.76142"><ele>631.5</ele><time>2026-04-06T13:39:23.187Z</time></trkpt><trkpt lat="38.2347167" lon="15.761455"><ele>634.0</ele><time>2026-04-06T13:39:24.188Z</time></trkpt><trkpt lat="38.2348017" lon="15.7614833"><ele>633.3333333333334</ele><time>2026-04-06T13:39:25.188Z</time></trkpt><trkpt lat="38.2348883" lon="15.7615117"><ele>632.6666666666667</ele><time>2026-04-06T13:39:26.188Z</time></trkpt><trkpt lat="38.23497" lon="15.76154"><ele>632.0</ele><time>2026-04-06T13:39:27.188Z</time></trkpt><trkpt lat="38.2350633" lon="15.7615783"><ele>631.3333333333334</ele><time>2026-04-06T13:39:28.188Z</time></trkpt><trkpt lat="38.2351467" lon="15.76161"><ele>630.6666666666666</ele><time>2026-04-06T13:39:29.187Z</time></trkpt><trkpt lat="38.2352267" lon="15.7616467"><ele>630.0</ele><time>2026-04-06T13:39:30.188Z</time></trkpt><trkpt lat="38.23529" lon="15.76168"><ele>630.0</ele><time>2026-04-06T13:39:31.188Z</time></trkpt><trkpt lat="38.235365" lon="15.7617033"><ele>630.0</ele><time>2026-04-06T13:39:32.188Z</time></trkpt><trkpt lat="38.23544" lon="15.761695"><ele>630.0</ele><time>2026-04-06T13:39:33.188Z</time></trkpt><trkpt lat="38.2355133" lon="15.7616767"><ele>630.0</ele><time>2026-04-06T13:39:34.188Z</time></trkpt><trkpt lat="38.23558" lon="15.7616383"><ele>630.0</ele><time>2026-04-06T13:39:35.187Z</time></trkpt><trkpt lat="38.2356367" lon="15.7615717"><ele>630.0</ele><time>2026-04-06T13:39:36.188Z</time></trkpt><trkpt lat="38.2356883" lon="15.7614967"><ele>629.8333333333334</ele><time>2026-04-06T13:39:37.188Z</time></trkpt><trkpt lat="38.2357383" lon="15.7614183"><ele>629.6666666666666</ele><time>2026-04-06T13:39:38.188Z</time></trkpt><trkpt lat="38.2357883" lon="15.7613417"><ele>629.5</ele><time>2026-04-06T13:39:39.187Z</time></trkpt><trkpt lat="38.2358467" lon="15.76127"><ele>629.3333333333333</ele><time>2026-04-06T13:39:40.188Z</time></trkpt><trkpt lat="38.2359117" lon="15.7612017"><ele>629.1666666666666</ele><time>2026-04-06T13:39:41.187Z</time></trkpt><trkpt lat="38.2359683" lon="15.7611233"><ele>629.0</ele><time>2026-04-06T13:39:42.187Z</time></trkpt><trkpt lat="38.23603" lon="15.7610467"><ele>628.8333333333333</ele><time>2026-04-06T13:39:43.188Z</time></trkpt><trkpt lat="38.2360783" lon="15.7609667"><ele>628.6666666666666</ele><time>2026-04-06T13:39:44.188Z</time></trkpt><trkpt lat="38.2361217" lon="15.7608867"><ele>628.5</ele><time>2026-04-06T13:39:45.187Z</time></trkpt><trkpt lat="38.2361567" lon="15.760805"><ele>628.3333333333334</ele><time>2026-04-06T13:39:46.187Z</time></trkpt><trkpt lat="38.2361883" lon="15.76072"><ele>628.1666666666667</ele><time>2026-04-06T13:39:47.188Z</time></trkpt><trkpt lat="38.2362283" lon="15.7606317"><ele>628.0</ele><time>2026-04-06T13:39:48.188Z</time></trkpt><trkpt lat="38.2362817" lon="15.76057"><ele>628.0</ele><time>2026-04-06T13:39:49.188Z</time></trkpt><trkpt lat="38.236325" lon="15.7605117"><ele>628.0</ele><time>2026-04-06T13:39:50.187Z</time></trkpt><trkpt lat="38.2363733" lon="15.7604583"><ele>628.0</ele><time>2026-04-06T13:39:51.187Z</time></trkpt><trkpt lat="38.23643" lon="15.7604217"><ele>628.0</ele><time>2026-04-06T13:39:52.187Z</time></trkpt><trkpt lat="38.236495" lon="15.7603683"><ele>628.0</ele><time>2026-04-06T13:39:53.187Z</time></trkpt><trkpt lat="38.2365767" lon="15.7603133"><ele>628.0</ele><time>2026-04-06T13:39:54.188Z</time></trkpt><trkpt lat="38.2366617" lon="15.7602633"><ele>628.1999999999999</ele><time>2026-04-06T13:39:55.188Z</time></trkpt><trkpt lat="38.23675" lon="15.76021"><ele>628.4</ele><time>2026-04-06T13:39:56.187Z</time></trkpt><trkpt lat="38.2368383" lon="15.7601717"><ele>628.5999999999999</ele><time>2026-04-06T13:39:57.188Z</time></trkpt><trkpt lat="38.2369217" lon="15.7601333"><ele>628.8</ele><time>2026-04-06T13:39:58.188Z</time></trkpt><trkpt lat="38.2370167" lon="15.7600883"><ele>629.0</ele><time>2026-04-06T13:39:59.188Z</time></trkpt><trkpt lat="38.2371033" lon="15.7600517"><ele>629.0</ele><time>2026-04-06T13:40:00.188Z</time></trkpt><trkpt lat="38.23719" lon="15.760005"><ele>629.0</ele><time>2026-04-06T13:40:01.187Z</time></trkpt><trkpt lat="38.2372783" lon="15.7599583"><ele>629.0</ele><time>2026-04-06T13:40:02.188Z</time></trkpt><trkpt lat="38.23736" lon="15.7599083"><ele>629.0</ele><time>2026-04-06T13:40:03.187Z</time></trkpt><trkpt lat="38.2374467" lon="15.7598633"><ele>629.0</ele><time>2026-04-06T13:40:04.188Z</time></trkpt><trkpt lat="38.237525" lon="15.7598333"><ele>628.8333333333333</ele><time>2026-04-06T13:40:05.187Z</time></trkpt><trkpt lat="38.2376033" lon="15.7597983"><ele>628.6666666666666</ele><time>2026-04-06T13:40:06.187Z</time></trkpt><trkpt lat="38.2376833" lon="15.759755"><ele>628.5</ele><time>2026-04-06T13:40:07.188Z</time></trkpt><trkpt lat="38.2377683" lon="15.7597233"><ele>628.3333333333334</ele><time>2026-04-06T13:40:08.188Z</time></trkpt><trkpt lat="38.2378467" lon="15.7596833"><ele>628.1666666666667</ele><time>2026-04-06T13:40:09.188Z</time></trkpt><trkpt lat="38.237925" lon="15.7596533"><ele>628.0</ele><time>2026-04-06T13:40:10.188Z</time></trkpt><trkpt lat="38.238" lon="15.75963"><ele>628.0</ele><time>2026-04-06T13:40:11.188Z</time></trkpt><trkpt lat="38.2380733" lon="15.7596017"><ele>628.0</ele><time>2026-04-06T13:40:12.187Z</time></trkpt><trkpt lat="38.2381533" lon="15.75957"><ele>628.0</ele><time>2026-04-06T13:40:13.187Z</time></trkpt><trkpt lat="38.2382333" lon="15.759525"><ele>628.0</ele><time>2026-04-06T13:40:14.187Z</time></trkpt><trkpt lat="38.2383117" lon="15.759495"><ele>628.0</ele><time>2026-04-06T13:40:15.187Z</time></trkpt><trkpt lat="38.2383933" lon="15.7594533"><ele>628.0</ele><time>2026-04-06T13:40:16.187Z</time></trkpt><trkpt lat="38.2384717" lon="15.7594167"><ele>628.1666666666667</ele><time>2026-04-06T13:40:17.188Z</time></trkpt><trkpt lat="38.238555" lon="15.75938"><ele>628.3333333333334</ele><time>2026-04-06T13:40:18.187Z</time></trkpt><trkpt lat="38.2386367" lon="15.7593317"><ele>628.5</ele><time>2026-04-06T13:40:19.188Z</time></trkpt><trkpt lat="38.2387233" lon="15.75929"><ele>628.6666666666666</ele><time>2026-04-06T13:40:20.188Z</time></trkpt><trkpt lat="38.2388083" lon="15.75926"><ele>628.8333333333333</ele><time>2026-04-06T13:40:21.188Z</time></trkpt><trkpt lat="38.238885" lon="15.75923"><ele>629.0</ele><time>2026-04-06T13:40:22.188Z</time></trkpt><trkpt lat="38.2389617" lon="15.7591967"><ele>628.8333333333333</ele><time>2026-04-06T13:40:23.188Z</time></trkpt><trkpt lat="38.2390417" lon="15.7591617"><ele>628.6666666666666</ele><time>2026-04-06T13:40:24.188Z</time></trkpt><trkpt lat="38.2391183" lon="15.7591267"><ele>628.5</ele><time>2026-04-06T13:40:25.187Z</time></trkpt><trkpt lat="38.2391867" lon="15.75908"><ele>628.3333333333334</ele><time>2026-04-06T13:40:26.188Z</time></trkpt><trkpt lat="38.23926" lon="15.7590483"><ele>628.1666666666667</ele><time>2026-04-06T13:40:27.188Z</time></trkpt><trkpt lat="38.2393433" lon="15.7590083"><ele>628.0</ele><time>2026-04-06T13:40:28.188Z</time></trkpt><trkpt lat="38.239425" lon="15.7589733"><ele>628.0</ele><time>2026-04-06T13:40:29.187Z</time></trkpt><trkpt lat="38.2395083" lon="15.7589417"><ele>628.0</ele><time>2026-04-06T13:40:30.187Z</time></trkpt><trkpt lat="38.23959" lon="15.7589067"><ele>628.0</ele><time>2026-04-06T13:40:31.188Z</time></trkpt><trkpt lat="38.2396683" lon="15.7588683"><ele>628.0</ele><time>2026-04-06T13:40:32.188Z</time></trkpt><trkpt lat="38.2397483" lon="15.75883"><ele>628.0</ele><time>2026-04-06T13:40:33.187Z</time></trkpt><trkpt lat="38.2398333" lon="15.7588083"><ele>628.0</ele><time>2026-04-06T13:40:34.188Z</time></trkpt><trkpt lat="38.2399133" lon="15.7587733"><ele>627.8333333333334</ele><time>2026-04-06T13:40:35.188Z</time></trkpt><trkpt lat="38.2399967" lon="15.758745"><ele>627.6666666666667</ele><time>2026-04-06T13:40:36.188Z</time></trkpt><trkpt lat="38.2400833" lon="15.7587033"><ele>627.5</ele><time>2026-04-06T13:40:37.187Z</time></trkpt><trkpt lat="38.240165" lon="15.7586667"><ele>627.3333333333334</ele><time>2026-04-06T13:40:38.188Z</time></trkpt><trkpt lat="38.240255" lon="15.7586417"><ele>627.1666666666666</ele><time>2026-04-06T13:40:39.187Z</time></trkpt><trkpt lat="38.2403367" lon="15.7586167"><ele>627.0</ele><time>2026-04-06T13:40:40.188Z</time></trkpt><trkpt lat="38.240415" lon="15.758585"><ele>627.0</ele><time>2026-04-06T13:40:41.188Z</time></trkpt><trkpt lat="38.2404917" lon="15.7585517"><ele>627.0</ele><time>2026-04-06T13:40:42.188Z</time></trkpt><trkpt lat="38.2405717" lon="15.7585167"><ele>627.0</ele><time>2026-04-06T13:40:43.187Z</time></trkpt><trkpt lat="38.2406467" lon="15.7584883"><ele>627.0</ele><time>2026-04-06T13:40:44.187Z</time></trkpt><trkpt lat="38.2407283" lon="15.758455"><ele>627.0</ele><time>2026-04-06T13:40:45.187Z</time></trkpt><trkpt lat="38.2408033" lon="15.7584233"><ele>627.0</ele><time>2026-04-06T13:40:46.187Z</time></trkpt><trkpt lat="38.240885" lon="15.75839"><ele>627.4</ele><time>2026-04-06T13:40:47.188Z</time></trkpt><trkpt lat="38.2409667" lon="15.758355"><ele>627.8000000000001</ele><time>2026-04-06T13:40:48.187Z</time></trkpt><trkpt lat="38.241055" lon="15.7583133"><ele>628.2</ele><time>2026-04-06T13:40:49.188Z</time></trkpt><trkpt lat="38.2411433" lon="15.7582767"><ele>628.6</ele><time>2026-04-06T13:40:50.187Z</time></trkpt><trkpt lat="38.24123" lon="15.7582317"><ele>629.0</ele><time>2026-04-06T13:40:51.187Z</time></trkpt><trkpt lat="38.2413183" lon="15.758195"><ele>629.0</ele><time>2026-04-06T13:40:52.188Z</time></trkpt><trkpt lat="38.2414033" lon="15.7581583"><ele>629.0</ele><time>2026-04-06T13:40:53.188Z</time></trkpt><trkpt lat="38.2414883" lon="15.7581233"><ele>629.0</ele><time>2026-04-06T13:40:54.188Z</time></trkpt><trkpt lat="38.24157" lon="15.7580883"><ele>629.0</ele><time>2026-04-06T13:40:55.188Z</time></trkpt><trkpt lat="38.2416517" lon="15.758055"><ele>629.0</ele><time>2026-04-06T13:40:56.188Z</time></trkpt><trkpt lat="38.241735" lon="15.7580167"><ele>629.0</ele><time>2026-04-06T13:40:57.187Z</time></trkpt><trkpt lat="38.2418183" lon="15.757985"><ele>629.0</ele><time>2026-04-06T13:40:58.188Z</time></trkpt><trkpt lat="38.24191" lon="15.75795"><ele>629.0</ele><time>2026-04-06T13:40:59.187Z</time></trkpt><trkpt lat="38.242" lon="15.7579217"><ele>629.0</ele><time>2026-04-06T13:41:00.187Z</time></trkpt><trkpt lat="38.2420917" lon="15.7578867"><ele>629.0</ele><time>2026-04-06T13:41:01.188Z</time></trkpt><trkpt lat="38.24218" lon="15.7578467"><ele>629.0</ele><time>2026-04-06T13:41:02.188Z</time></trkpt><trkpt lat="38.2422633" lon="15.7578083"><ele>628.6</ele><time>2026-04-06T13:41:03.188Z</time></trkpt><trkpt lat="38.24235" lon="15.7577633"><ele>628.2</ele><time>2026-04-06T13:41:04.188Z</time></trkpt><trkpt lat="38.242445" lon="15.7577267"><ele>627.8000000000001</ele><time>2026-04-06T13:41:05.188Z</time></trkpt><trkpt lat="38.2425333" lon="15.757685"><ele>627.4</ele><time>2026-04-06T13:41:06.188Z</time></trkpt><trkpt lat="38.242625" lon="15.757645"><ele>627.0</ele><time>2026-04-06T13:41:07.188Z</time></trkpt><trkpt lat="38.2427133" lon="15.7575983"><ele>625.4</ele><time>2026-04-06T13:41:08.188Z</time></trkpt><trkpt lat="38.2428033" lon="15.7575633"><ele>623.8000000000001</ele><time>2026-04-06T13:41:09.188Z</time></trkpt><trkpt lat="38.2428933" lon="15.7575233"><ele>622.2</ele><time>2026-04-06T13:41:10.187Z</time></trkpt><trkpt lat="38.242985" lon="15.7574833"><ele>620.6</ele><time>2026-04-06T13:41:11.187Z</time></trkpt><trkpt lat="38.2430733" lon="15.7574433"><ele>619.0</ele><time>2026-04-06T13:41:12.188Z</time></trkpt><trkpt lat="38.2431633" lon="15.7573933"><ele>618.6</ele><time>2026-04-06T13:41:13.188Z</time></trkpt><trkpt lat="38.2432583" lon="15.7573433"><ele>618.2</ele><time>2026-04-06T13:41:14.187Z</time></trkpt><trkpt lat="38.243355" lon="15.7573"><ele>617.8000000000001</ele><time>2026-04-06T13:41:15.187Z</time></trkpt><trkpt lat="38.2434583" lon="15.7572617"><ele>617.4</ele><time>2026-04-06T13:41:16.187Z</time></trkpt><trkpt lat="38.24355" lon="15.75722"><ele>617.0</ele><time>2026-04-06T13:41:17.188Z</time></trkpt><trkpt lat="38.24362" lon="15.75716"><ele>617.0</ele><time>2026-04-06T13:41:18.188Z</time></trkpt><trkpt lat="38.2436683" lon="15.7570783"><ele>617.0</ele><time>2026-04-06T13:41:19.187Z</time></trkpt><trkpt lat="38.2437067" lon="15.75699"><ele>617.0</ele><time>2026-04-06T13:41:20.188Z</time></trkpt><trkpt lat="38.24371" lon="15.7568883"><ele>617.0</ele><time>2026-04-06T13:41:21.188Z</time></trkpt><trkpt lat="38.2437017" lon="15.756785"><ele>617.0</ele><time>2026-04-06T13:41:22.188Z</time></trkpt><trkpt lat="38.2436867" lon="15.75668"><ele>617.0</ele><time>2026-04-06T13:41:23.187Z</time></trkpt><trkpt lat="38.2436783" lon="15.756575"><ele>616.0</ele><time>2026-04-06T13:41:24.188Z</time></trkpt><trkpt lat="38.2436717" lon="15.7564717"><ele>615.0</ele><time>2026-04-06T13:41:25.188Z</time></trkpt><trkpt lat="38.2436883" lon="15.7563767"><ele>614.0</ele><time>2026-04-06T13:41:26.188Z</time></trkpt><trkpt lat="38.243725" lon="15.756305"><ele>613.0</ele><time>2026-04-06T13:41:27.188Z</time></trkpt><trkpt lat="38.24378" lon="15.756245"><ele>612.0</ele><time>2026-04-06T13:41:28.187Z</time></trkpt><trkpt lat="38.2438517" lon="15.7562033"><ele>611.0</ele><time>2026-04-06T13:41:29.188Z</time></trkpt><trkpt lat="38.2439383" lon="15.7561833"><ele>611.3333333333333</ele><time>2026-04-06T13:41:30.187Z</time></trkpt><trkpt lat="38.244025" lon="15.7561583"><ele>611.6666666666666</ele><time>2026-04-06T13:41:31.187Z</time></trkpt><trkpt lat="38.2441017" lon="15.7561317"><ele>612.0</ele><time>2026-04-06T13:41:32.188Z</time></trkpt><trkpt lat="38.2441867" lon="15.7561117"><ele>612.3333333333334</ele><time>2026-04-06T13:41:33.188Z</time></trkpt><trkpt lat="38.244275" lon="15.75608"><ele>612.6666666666667</ele><time>2026-04-06T13:41:34.187Z</time></trkpt><trkpt lat="38.24435" lon="15.7560417"><ele>613.0</ele><time>2026-04-06T13:41:35.187Z</time></trkpt><trkpt lat="38.2444283" lon="15.7560133"><ele>613.0</ele><time>2026-04-06T13:41:36.188Z</time></trkpt><trkpt lat="38.2445167" lon="15.7559817"><ele>613.0</ele><time>2026-04-06T13:41:37.187Z</time></trkpt><trkpt lat="38.2445967" lon="15.755945"><ele>613.0</ele><time>2026-04-06T13:41:38.188Z</time></trkpt><trkpt lat="38.24467" lon="15.7559117"><ele>613.0</ele><time>2026-04-06T13:41:39.188Z</time></trkpt><trkpt lat="38.2447467" lon="15.7558833"><ele>613.0</ele><time>2026-04-06T13:41:40.187Z</time></trkpt><trkpt lat="38.2448267" lon="15.755845"><ele>613.0</ele><time>2026-04-06T13:41:41.188Z</time></trkpt><trkpt lat="38.2448967" lon="15.7558"><ele>611.8333333333334</ele><time>2026-04-06T13:41:42.187Z</time></trkpt><trkpt lat="38.2449833" lon="15.7557617"><ele>610.6666666666667</ele><time>2026-04-06T13:41:43.188Z</time></trkpt><trkpt lat="38.245065" lon="15.75572"><ele>609.5</ele><time>2026-04-06T13:41:44.188Z</time></trkpt><trkpt lat="38.24514" lon="15.7556833"><ele>608.3333333333334</ele><time>2026-04-06T13:41:45.187Z</time></trkpt><trkpt lat="38.2452133" lon="15.755645"><ele>607.1666666666666</ele><time>2026-04-06T13:41:46.188Z</time></trkpt><trkpt lat="38.24529" lon="15.7556033"><ele>606.0</ele><time>2026-04-06T13:41:47.188Z</time></trkpt><trkpt lat="38.2453667" lon="15.755575"><ele>606.0</ele><time>2026-04-06T13:41:48.188Z</time></trkpt><trkpt lat="38.2454483" lon="15.7555383"><ele>606.0</ele><time>2026-04-06T13:41:49.188Z</time></trkpt><trkpt lat="38.2455267" lon="15.7555117"><ele>606.0</ele><time>2026-04-06T13:41:50.187Z</time></trkpt><trkpt lat="38.245605" lon="15.755495"><ele>606.0</ele><time>2026-04-06T13:41:51.188Z</time></trkpt><trkpt lat="38.2456867" lon="15.755495"><ele>606.0</ele><time>2026-04-06T13:41:52.188Z</time></trkpt><trkpt lat="38.24577" lon="15.755495"><ele>606.0</ele><time>2026-04-06T13:41:53.188Z</time></trkpt><trkpt lat="38.2458567" lon="15.7554917"><ele>605.0</ele><time>2026-04-06T13:41:54.187Z</time></trkpt><trkpt lat="38.245945" lon="15.7554867"><ele>604.0</ele><time>2026-04-06T13:41:55.188Z</time></trkpt><trkpt lat="38.246035" lon="15.7554883"><ele>603.0</ele><time>2026-04-06T13:41:56.187Z</time></trkpt><trkpt lat="38.24612" lon="15.7554933"><ele>602.0</ele><time>2026-04-06T13:41:57.188Z</time></trkpt><trkpt lat="38.2462" lon="15.7554983"><ele>601.0</ele><time>2026-04-06T13:41:58.187Z</time></trkpt><trkpt lat="38.246275" lon="15.7555033"><ele>600.0</ele><time>2026-04-06T13:41:59.188Z</time></trkpt><trkpt lat="38.2463517" lon="15.7555"><ele>600.0</ele><time>2026-04-06T13:42:00.188Z</time></trkpt><trkpt lat="38.2464267" lon="15.7554933"><ele>600.0</ele><time>2026-04-06T13:42:01.188Z</time></trkpt><trkpt lat="38.2465" lon="15.7554883"><ele>600.0</ele><time>2026-04-06T13:42:02.188Z</time></trkpt><trkpt lat="38.2465683" lon="15.7554833"><ele>600.0</ele><time>2026-04-06T13:42:03.188Z</time></trkpt><trkpt lat="38.246635" lon="15.7554817"><ele>600.0</ele><time>2026-04-06T13:42:04.188Z</time></trkpt><trkpt lat="38.246735" lon="15.7554783"><ele>600.0</ele><time>2026-04-06T13:42:06.187Z</time></trkpt><trkpt lat="38.2467633" lon="15.7553517"><ele>599.5</ele><time>2026-04-06T13:42:15.187Z</time></trkpt><trkpt lat="38.2467417" lon="15.7552483"><ele>599.0</ele><time>2026-04-06T13:42:17.187Z</time></trkpt><trkpt lat="38.2467217" lon="15.75515"><ele>598.5</ele><time>2026-04-06T13:42:19.188Z</time></trkpt><trkpt lat="38.246695" lon="15.75504"><ele>598.0</ele><time>2026-04-06T13:42:21.187Z</time></trkpt><trkpt lat="38.2466617" lon="15.7549333"><ele>597.5</ele><time>2026-04-06T13:42:23.188Z</time></trkpt><trkpt lat="38.24663" lon="15.7548483"><ele>597.0</ele><time>2026-04-06T13:42:25.187Z</time></trkpt><trkpt lat="38.2465683" lon="15.7547583"><ele>597.0</ele><time>2026-04-06T13:42:27.187Z</time></trkpt><trkpt lat="38.2465117" lon="15.7546367"><ele>597.0</ele><time>2026-04-06T13:42:29.188Z</time></trkpt><trkpt lat="38.2464533" lon="15.75453"><ele>597.0</ele><time>2026-04-06T13:42:31.187Z</time></trkpt><trkpt lat="38.246385" lon="15.7544233"><ele>597.0</ele><time>2026-04-06T13:42:33.187Z</time></trkpt><trkpt lat="38.2463283" lon="15.7543167"><ele>597.0</ele><time>2026-04-06T13:42:35.187Z</time></trkpt><trkpt lat="38.24628" lon="15.7542183"><ele>597.0</ele><time>2026-04-06T13:42:37.188Z</time></trkpt><trkpt lat="38.246215" lon="15.7541333"><ele>597.0</ele><time>2026-04-06T13:42:39.188Z</time></trkpt><trkpt lat="38.2461333" lon="15.754075"><ele>597.0</ele><time>2026-04-06T13:42:41.188Z</time></trkpt><trkpt lat="38.246045" lon="15.754015"><ele>597.0</ele><time>2026-04-06T13:42:43.188Z</time></trkpt><trkpt lat="38.24595" lon="15.7539533"><ele>597.0</ele><time>2026-04-06T13:42:45.187Z</time></trkpt><trkpt lat="38.2458533" lon="15.7538917"><ele>597.0</ele><time>2026-04-06T13:42:47.188Z</time></trkpt><trkpt lat="38.2457633" lon="15.7538483"><ele>597.0</ele><time>2026-04-06T13:42:49.188Z</time></trkpt><trkpt lat="38.2456733" lon="15.753785"><ele>597.0</ele><time>2026-04-06T13:42:51.188Z</time></trkpt><trkpt lat="38.2456" lon="15.7537217"><ele>597.0</ele><time>2026-04-06T13:42:53.188Z</time></trkpt><trkpt lat="38.2455317" lon="15.753665"><ele>597.0</ele><time>2026-04-06T13:42:55.188Z</time></trkpt><trkpt lat="38.2454217" lon="15.7536183"><ele>596.6666666666666</ele><time>2026-04-06T13:42:57.187Z</time></trkpt><trkpt lat="38.245295" lon="15.753575"><ele>596.3333333333334</ele><time>2026-04-06T13:42:59.188Z</time></trkpt><trkpt lat="38.24523" lon="15.7535633"><ele>596.0</ele><time>2026-04-06T13:43:00.188Z</time></trkpt><trkpt lat="38.2451633" lon="15.75356"><ele>595.6666666666667</ele><time>2026-04-06T13:43:01.187Z</time></trkpt><trkpt lat="38.2450983" lon="15.753555"><ele>595.3333333333334</ele><time>2026-04-06T13:43:02.187Z</time></trkpt><trkpt lat="38.2450333" lon="15.7535467"><ele>595.0</ele><time>2026-04-06T13:43:03.187Z</time></trkpt><trkpt lat="38.2449167" lon="15.7535283"><ele>593.6</ele><time>2026-04-06T13:43:05.188Z</time></trkpt><trkpt lat="38.2447983" lon="15.7535133"><ele>592.2</ele><time>2026-04-06T13:43:07.188Z</time></trkpt><trkpt lat="38.2446883" lon="15.7534933"><ele>590.8</ele><time>2026-04-06T13:43:09.188Z</time></trkpt><trkpt lat="38.24459" lon="15.7534383"><ele>589.4</ele><time>2026-04-06T13:43:11.188Z</time></trkpt><trkpt lat="38.2444967" lon="15.75339"><ele>588.0</ele><time>2026-04-06T13:43:13.188Z</time></trkpt><trkpt lat="38.2444017" lon="15.7533383"><ele>586.0</ele><time>2026-04-06T13:43:15.188Z</time></trkpt><trkpt lat="38.2443017" lon="15.75327"><ele>584.0</ele><time>2026-04-06T13:43:17.188Z</time></trkpt><trkpt lat="38.2442083" lon="15.7531967"><ele>582.0</ele><time>2026-04-06T13:43:19.188Z</time></trkpt><trkpt lat="38.24411" lon="15.7531217"><ele>580.0</ele><time>2026-04-06T13:43:21.188Z</time></trkpt><trkpt lat="38.244025" lon="15.7530617"><ele>578.0</ele><time>2026-04-06T13:43:23.188Z</time></trkpt><trkpt lat="38.2439533" lon="15.7530117"><ele>577.3333333333333</ele><time>2026-04-06T13:43:25.187Z</time></trkpt><trkpt lat="38.2438883" lon="15.752925"><ele>576.6666666666666</ele><time>2026-04-06T13:43:27.188Z</time></trkpt><trkpt lat="38.24384" lon="15.7528333"><ele>576.0</ele><time>2026-04-06T13:43:29.188Z</time></trkpt><trkpt lat="38.2437933" lon="15.7527633"><ele>575.3333333333334</ele><time>2026-04-06T13:43:31.188Z</time></trkpt><trkpt lat="38.2437283" lon="15.7527067"><ele>574.6666666666667</ele><time>2026-04-06T13:43:33.188Z</time></trkpt><trkpt lat="38.2436533" lon="15.7526783"><ele>574.0</ele><time>2026-04-06T13:43:36.188Z</time></trkpt><trkpt lat="38.243575" lon="15.7526967"><ele>574.0</ele><time>2026-04-06T13:43:38.188Z</time></trkpt><trkpt lat="38.2434833" lon="15.752735"><ele>574.0</ele><time>2026-04-06T13:43:40.187Z</time></trkpt><trkpt lat="38.2433833" lon="15.7527883"><ele>574.0</ele><time>2026-04-06T13:43:42.187Z</time></trkpt><trkpt lat="38.2432917" lon="15.7528383"><ele>574.0</ele><time>2026-04-06T13:43:44.188Z</time></trkpt><trkpt lat="38.243205" lon="15.752865"><ele>574.0</ele><time>2026-04-06T13:43:46.188Z</time></trkpt><trkpt lat="38.2431417" lon="15.7528517"><ele>574.1666666666667</ele><time>2026-04-06T13:43:48.188Z</time></trkpt><trkpt lat="38.2430833" lon="15.7528083"><ele>574.3333333333334</ele><time>2026-04-06T13:43:50.187Z</time></trkpt><trkpt lat="38.2430583" lon="15.7527333"><ele>574.5</ele><time>2026-04-06T13:43:52.187Z</time></trkpt><trkpt lat="38.243045" lon="15.7526367"><ele>574.6666666666666</ele><time>2026-04-06T13:43:54.187Z</time></trkpt><trkpt lat="38.243035" lon="15.752525"><ele>574.8333333333333</ele><time>2026-04-06T13:43:56.187Z</time></trkpt><trkpt lat="38.2430483" lon="15.7524167"><ele>575.0</ele><time>2026-04-06T13:43:58.188Z</time></trkpt><trkpt lat="38.2430733" lon="15.752315"><ele>575.8333333333333</ele><time>2026-04-06T13:44:00.187Z</time></trkpt><trkpt lat="38.243115" lon="15.7522217"><ele>576.6666666666666</ele><time>2026-04-06T13:44:02.188Z</time></trkpt><trkpt lat="38.2431283" lon="15.75212"><ele>577.5</ele><time>2026-04-06T13:44:04.187Z</time></trkpt><trkpt lat="38.2431267" lon="15.7520117"><ele>578.3333333333334</ele><time>2026-04-06T13:44:06.187Z</time></trkpt><trkpt lat="38.2431117" lon="15.7519083"><ele>579.1666666666667</ele><time>2026-04-06T13:44:08.188Z</time></trkpt><trkpt lat="38.2430833" lon="15.751775"><ele>580.0</ele><time>2026-04-06T13:44:17.188Z</time></trkpt><trkpt lat="38.2430417" lon="15.751695"><ele>580.3333333333334</ele><time>2026-04-06T13:44:47.188Z</time></trkpt><trkpt lat="38.2430167" lon="15.7516133"><ele>580.6666666666667</ele><time>2026-04-06T13:44:49.188Z</time></trkpt><trkpt lat="38.242975" lon="15.75153"><ele>581.0</ele><time>2026-04-06T13:44:51.188Z</time></trkpt><trkpt lat="38.2429383" lon="15.7514383"><ele>581.3333333333334</ele><time>2026-04-06T13:44:53.187Z</time></trkpt><trkpt lat="38.24291" lon="15.7513133"><ele>581.6666666666666</ele><time>2026-04-06T13:44:55.187Z</time></trkpt><trkpt lat="38.242895" lon="15.751175"><ele>582.0</ele><time>2026-04-06T13:44:57.188Z</time></trkpt><trkpt lat="38.2428883" lon="15.7510333"><ele>582.0</ele><time>2026-04-06T13:44:59.188Z</time></trkpt><trkpt lat="38.2429017" lon="15.7508917"><ele>582.0</ele><time>2026-04-06T13:45:01.188Z</time></trkpt><trkpt lat="38.2429217" lon="15.7507533"><ele>582.0</ele><time>2026-04-06T13:45:03.188Z</time></trkpt><trkpt lat="38.242915" lon="15.7506233"><ele>582.0</ele><time>2026-04-06T13:45:05.188Z</time></trkpt><trkpt lat="38.2428867" lon="15.7504833"><ele>582.0</ele><time>2026-04-06T13:45:07.188Z</time></trkpt><trkpt lat="38.2428533" lon="15.75035"><ele>582.0</ele><time>2026-04-06T13:45:09.188Z</time></trkpt><trkpt lat="38.2428217" lon="15.7502283"><ele>582.0</ele><time>2026-04-06T13:45:11.188Z</time></trkpt><trkpt lat="38.242785" lon="15.7500833"><ele>582.0</ele><time>2026-04-06T13:45:13.187Z</time></trkpt><trkpt lat="38.2427433" lon="15.7499567"><ele>582.0</ele><time>2026-04-06T13:45:15.188Z</time></trkpt><trkpt lat="38.2426917" lon="15.7498483"><ele>582.0</ele><time>2026-04-06T13:45:17.188Z</time></trkpt><trkpt lat="38.24265" lon="15.7497317"><ele>580.6</ele><time>2026-04-06T13:45:19.187Z</time></trkpt><trkpt lat="38.2426083" lon="15.7496067"><ele>579.2</ele><time>2026-04-06T13:45:21.188Z</time></trkpt><trkpt lat="38.2425567" lon="15.7494833"><ele>577.8</ele><time>2026-04-06T13:45:23.188Z</time></trkpt><trkpt lat="38.2424867" lon="15.7493967"><ele>576.4</ele><time>2026-04-06T13:45:25.188Z</time></trkpt><trkpt lat="38.2423983" lon="15.74932"><ele>575.0</ele><time>2026-04-06T13:45:27.188Z</time></trkpt><trkpt lat="38.2423133" lon="15.7492417"><ele>576.6</ele><time>2026-04-06T13:45:29.187Z</time></trkpt><trkpt lat="38.242225" lon="15.749165"><ele>578.2</ele><time>2026-04-06T13:45:31.188Z</time></trkpt><trkpt lat="38.242135" lon="15.7490867"><ele>579.8</ele><time>2026-04-06T13:45:33.187Z</time></trkpt><trkpt lat="38.2420483" lon="15.749005"><ele>581.4</ele><time>2026-04-06T13:45:35.187Z</time></trkpt><trkpt lat="38.241975" lon="15.74892"><ele>583.0</ele><time>2026-04-06T13:45:37.187Z</time></trkpt><trkpt lat="38.241925" lon="15.748815"><ele>583.0</ele><time>2026-04-06T13:45:39.187Z</time></trkpt><trkpt lat="38.2418817" lon="15.7487033"><ele>583.0</ele><time>2026-04-06T13:45:41.188Z</time></trkpt><trkpt lat="38.24183" lon="15.7485917"><ele>583.0</ele><time>2026-04-06T13:45:43.187Z</time></trkpt><trkpt lat="38.2417733" lon="15.7484967"><ele>583.0</ele><time>2026-04-06T13:45:45.188Z</time></trkpt><trkpt lat="38.2417067" lon="15.7484183"><ele>583.0</ele><time>2026-04-06T13:45:47.188Z</time></trkpt><trkpt lat="38.2416367" lon="15.7483367"><ele>581.3333333333334</ele><time>2026-04-06T13:45:49.188Z</time></trkpt><trkpt lat="38.2415717" lon="15.7482633"><ele>579.6666666666667</ele><time>2026-04-06T13:45:51.188Z</time></trkpt><trkpt lat="38.2415533" lon="15.7481833"><ele>578.0</ele><time>2026-04-06T13:45:53.188Z</time></trkpt><trkpt lat="38.2415567" lon="15.7480883"><ele>576.3333333333334</ele><time>2026-04-06T13:45:55.188Z</time></trkpt><trkpt lat="38.2415967" lon="15.7479567"><ele>574.6666666666666</ele><time>2026-04-06T13:45:57.187Z</time></trkpt><trkpt lat="38.2416133" lon="15.7478267"><ele>573.0</ele><time>2026-04-06T13:45:59.188Z</time></trkpt><trkpt lat="38.2416183" lon="15.7476933"><ele>574.3333333333334</ele><time>2026-04-06T13:46:01.188Z</time></trkpt><trkpt lat="38.2415783" lon="15.7475683"><ele>575.6666666666666</ele><time>2026-04-06T13:46:03.188Z</time></trkpt><trkpt lat="38.241515" lon="15.7474867"><ele>577.0</ele><time>2026-04-06T13:46:05.188Z</time></trkpt><trkpt lat="38.2414483" lon="15.74743"><ele>578.3333333333333</ele><time>2026-04-06T13:46:07.187Z</time></trkpt><trkpt lat="38.24137" lon="15.747385"><ele>579.6666666666666</ele><time>2026-04-06T13:46:09.188Z</time></trkpt><trkpt lat="38.2413117" lon="15.74733"><ele>581.0</ele><time>2026-04-06T13:46:11.187Z</time></trkpt><trkpt lat="38.2412383" lon="15.747265"><ele>581.0</ele><time>2026-04-06T13:46:13.187Z</time></trkpt><trkpt lat="38.2411533" lon="15.7472083"><ele>581.0</ele><time>2026-04-06T13:46:15.187Z</time></trkpt><trkpt lat="38.2410667" lon="15.74715"><ele>581.0</ele><time>2026-04-06T13:46:17.188Z</time></trkpt><trkpt lat="38.2409733" lon="15.7470917"><ele>581.0</ele><time>2026-04-06T13:46:19.187Z</time></trkpt><trkpt lat="38.2408883" lon="15.747005"><ele>581.0</ele><time>2026-04-06T13:46:21.187Z</time></trkpt><trkpt lat="38.2408233" lon="15.746895"><ele>579.4</ele><time>2026-04-06T13:46:23.188Z</time></trkpt><trkpt lat="38.24078" lon="15.746775"><ele>577.8</ele><time>2026-04-06T13:46:25.188Z</time></trkpt><trkpt lat="38.2407667" lon="15.7466583"><ele>576.1999999999999</ele><time>2026-04-06T13:46:27.187Z</time></trkpt><trkpt lat="38.24078" lon="15.7465433"><ele>574.6</ele><time>2026-04-06T13:46:29.187Z</time></trkpt><trkpt lat="38.2407983" lon="15.7464267"><ele>573.0</ele><time>2026-04-06T13:46:31.187Z</time></trkpt><trkpt lat="38.240805" lon="15.7463217"><ele>573.0</ele><time>2026-04-06T13:46:33.187Z</time></trkpt><trkpt lat="38.2407983" lon="15.74621"><ele>573.0</ele><time>2026-04-06T13:46:35.188Z</time></trkpt><trkpt lat="38.240765" lon="15.74613"><ele>573.0</ele><time>2026-04-06T13:46:37.188Z</time></trkpt><trkpt lat="38.240715" lon="15.7460333"><ele>573.0</ele><time>2026-04-06T13:46:39.187Z</time></trkpt><trkpt lat="38.2406667" lon="15.7459383"><ele>573.0</ele><time>2026-04-06T13:46:41.188Z</time></trkpt><trkpt lat="38.2406267" lon="15.74585"><ele>573.0</ele><time>2026-04-06T13:46:43.188Z</time></trkpt><trkpt lat="38.2406" lon="15.7457233"><ele>572.8</ele><time>2026-04-06T13:46:45.188Z</time></trkpt><trkpt lat="38.240625" lon="15.74561"><ele>572.5999999999999</ele><time>2026-04-06T13:46:47.188Z</time></trkpt><trkpt lat="38.2406917" lon="15.74551"><ele>572.4000000000001</ele><time>2026-04-06T13:46:49.188Z</time></trkpt><trkpt lat="38.24078" lon="15.7454067"><ele>572.2</ele><time>2026-04-06T13:46:51.188Z</time></trkpt><trkpt lat="38.2408633" lon="15.7453067"><ele>572.0</ele><time>2026-04-06T13:46:53.187Z</time></trkpt><trkpt lat="38.2409317" lon="15.74522"><ele>574.2</ele><time>2026-04-06T13:46:55.188Z</time></trkpt><trkpt lat="38.240995" lon="15.7451167"><ele>576.4000000000001</ele><time>2026-04-06T13:46:57.187Z</time></trkpt><trkpt lat="38.2410083" lon="15.7449867"><ele>578.5999999999999</ele><time>2026-04-06T13:46:59.187Z</time></trkpt><trkpt lat="38.24097" lon="15.7448633"><ele>580.8</ele><time>2026-04-06T13:47:01.188Z</time></trkpt><trkpt lat="38.2409233" lon="15.74475"><ele>583.0</ele><time>2026-04-06T13:47:03.187Z</time></trkpt><trkpt lat="38.240885" lon="15.7446283"><ele>583.0</ele><time>2026-04-06T13:47:05.187Z</time></trkpt><trkpt lat="38.24083" lon="15.744505"><ele>583.0</ele><time>2026-04-06T13:47:07.188Z</time></trkpt><trkpt lat="38.2407733" lon="15.7443767"><ele>583.0</ele><time>2026-04-06T13:47:09.188Z</time></trkpt><trkpt lat="38.24072" lon="15.7442617"><ele>583.0</ele><time>2026-04-06T13:47:11.188Z</time></trkpt><trkpt lat="38.2406567" lon="15.7441467"><ele>583.0</ele><time>2026-04-06T13:47:13.187Z</time></trkpt><trkpt lat="38.2405933" lon="15.74405"><ele>585.8</ele><time>2026-04-06T13:47:15.188Z</time></trkpt><trkpt lat="38.2405183" lon="15.743965"><ele>588.5999999999999</ele><time>2026-04-06T13:47:17.188Z</time></trkpt><trkpt lat="38.240435" lon="15.74387"><ele>591.4000000000001</ele><time>2026-04-06T13:47:19.188Z</time></trkpt><trkpt lat="38.24034" lon="15.7437783"><ele>594.2</ele><time>2026-04-06T13:47:21.188Z</time></trkpt><trkpt lat="38.2402733" lon="15.7436933"><ele>597.0</ele><time>2026-04-06T13:47:23.188Z</time></trkpt><trkpt lat="38.2402333" lon="15.743595"><ele>597.2</ele><time>2026-04-06T13:47:25.187Z</time></trkpt><trkpt lat="38.24024" lon="15.7434833"><ele>597.4000000000001</ele><time>2026-04-06T13:47:27.188Z</time></trkpt><trkpt lat="38.2402867" lon="15.7433867"><ele>597.5999999999999</ele><time>2026-04-06T13:47:29.187Z</time></trkpt><trkpt lat="38.2403483" lon="15.743295"><ele>597.8</ele><time>2026-04-06T13:47:31.188Z</time></trkpt><trkpt lat="38.2404233" lon="15.7432283"><ele>598.0</ele><time>2026-04-06T13:47:33.188Z</time></trkpt><trkpt lat="38.2405133" lon="15.7431933"><ele>598.0</ele><time>2026-04-06T13:47:35.188Z</time></trkpt><trkpt lat="38.2405933" lon="15.7431817"><ele>598.0</ele><time>2026-04-06T13:47:37.187Z</time></trkpt><trkpt lat="38.240665" lon="15.743165"><ele>598.0</ele><time>2026-04-06T13:47:40.187Z</time></trkpt><trkpt lat="38.2407383" lon="15.74315"><ele>598.0</ele><time>2026-04-06T13:47:43.187Z</time></trkpt><trkpt lat="38.240825" lon="15.7431417"><ele>598.0</ele><time>2026-04-06T13:47:45.187Z</time></trkpt><trkpt lat="38.2409233" lon="15.7431267"><ele>598.0</ele><time>2026-04-06T13:47:47.187Z</time></trkpt><trkpt lat="38.2410217" lon="15.7431"><ele>594.8</ele><time>2026-04-06T13:47:49.187Z</time></trkpt><trkpt lat="38.2411167" lon="15.74305"><ele>591.5999999999999</ele><time>2026-04-06T13:47:51.188Z</time></trkpt><trkpt lat="38.2412133" lon="15.7429933"><ele>588.4000000000001</ele><time>2026-04-06T13:47:53.188Z</time></trkpt><trkpt lat="38.2412883" lon="15.7429133"><ele>585.2</ele><time>2026-04-06T13:47:55.188Z</time></trkpt><trkpt lat="38.2413567" lon="15.7428333"><ele>582.0</ele><time>2026-04-06T13:47:57.188Z</time></trkpt><trkpt lat="38.2414233" lon="15.7427533"><ele>583.0</ele><time>2026-04-06T13:47:59.188Z</time></trkpt><trkpt lat="38.2414933" lon="15.7426733"><ele>584.0</ele><time>2026-04-06T13:48:01.188Z</time></trkpt><trkpt lat="38.2415667" lon="15.74258"><ele>585.0</ele><time>2026-04-06T13:48:03.188Z</time></trkpt><trkpt lat="38.2416267" lon="15.7424667"><ele>586.0</ele><time>2026-04-06T13:48:05.188Z</time></trkpt><trkpt lat="38.2416533" lon="15.7423383"><ele>587.0</ele><time>2026-04-06T13:48:07.188Z</time></trkpt><trkpt lat="38.2416567" lon="15.7422"><ele>587.0</ele><time>2026-04-06T13:48:09.188Z</time></trkpt><trkpt lat="38.2416617" lon="15.7420783"><ele>587.0</ele><time>2026-04-06T13:48:11.188Z</time></trkpt><trkpt lat="38.2416633" lon="15.7419767"><ele>587.0</ele><time>2026-04-06T13:48:13.187Z</time></trkpt><trkpt lat="38.2416767" lon="15.7418617"><ele>587.0</ele><time>2026-04-06T13:48:15.188Z</time></trkpt><trkpt lat="38.2416667" lon="15.7417517"><ele>587.0</ele><time>2026-04-06T13:48:17.188Z</time></trkpt><trkpt lat="38.24164" lon="15.7416633"><ele>587.0</ele><time>2026-04-06T13:48:19.187Z</time></trkpt><trkpt lat="38.2416017" lon="15.7415933"><ele>589.8000000000001</ele><time>2026-04-06T13:48:21.187Z</time></trkpt><trkpt lat="38.24155" lon="15.7415383"><ele>592.6</ele><time>2026-04-06T13:48:23.188Z</time></trkpt><trkpt lat="38.2414783" lon="15.7415067"><ele>595.4000000000001</ele><time>2026-04-06T13:48:25.188Z</time></trkpt><trkpt lat="38.2413717" lon="15.74149"><ele>598.2</ele><time>2026-04-06T13:48:27.187Z</time></trkpt><trkpt lat="38.2412733" lon="15.7414783"><ele>601.0</ele><time>2026-04-06T13:48:29.187Z</time></trkpt><trkpt lat="38.241175" lon="15.7414533"><ele>602.3333333333334</ele><time>2026-04-06T13:48:31.187Z</time></trkpt><trkpt lat="38.2410633" lon="15.7414017"><ele>603.6666666666667</ele><time>2026-04-06T13:48:33.187Z</time></trkpt><trkpt lat="38.2410017" lon="15.7413733"><ele>605.0</ele><time>2026-04-06T13:48:34.188Z</time></trkpt><trkpt lat="38.24094" lon="15.7413467"><ele>606.3333333333334</ele><time>2026-04-06T13:48:35.188Z</time></trkpt><trkpt lat="38.240875" lon="15.7413233"><ele>607.6666666666666</ele><time>2026-04-06T13:48:36.188Z</time></trkpt><trkpt lat="38.2408133" lon="15.741305"><ele>609.0</ele><time>2026-04-06T13:48:37.188Z</time></trkpt><trkpt lat="38.24074" lon="15.7412883"><ele>609.0</ele><time>2026-04-06T13:48:38.188Z</time></trkpt><trkpt lat="38.2406717" lon="15.741275"><ele>609.0</ele><time>2026-04-06T13:48:39.188Z</time></trkpt><trkpt lat="38.2405983" lon="15.7412583"><ele>609.0</ele><time>2026-04-06T13:48:40.188Z</time></trkpt><trkpt lat="38.2405317" lon="15.741255"><ele>609.0</ele><time>2026-04-06T13:48:41.188Z</time></trkpt><trkpt lat="38.2404617" lon="15.7412533"><ele>609.0</ele><time>2026-04-06T13:48:42.187Z</time></trkpt><trkpt lat="38.2403917" lon="15.741245"><ele>609.0</ele><time>2026-04-06T13:48:43.188Z</time></trkpt><trkpt lat="38.2403133" lon="15.74123"><ele>609.0</ele><time>2026-04-06T13:48:44.187Z</time></trkpt><trkpt lat="38.240235" lon="15.74121"><ele>610.2</ele><time>2026-04-06T13:48:45.187Z</time></trkpt><trkpt lat="38.2401667" lon="15.741195"><ele>611.4</ele><time>2026-04-06T13:48:46.188Z</time></trkpt><trkpt lat="38.24005" lon="15.74117"><ele>612.6</ele><time>2026-04-06T13:48:48.187Z</time></trkpt><trkpt lat="38.2399417" lon="15.741135"><ele>613.8</ele><time>2026-04-06T13:48:50.188Z</time></trkpt><trkpt lat="38.23985" lon="15.7410533"><ele>615.0</ele><time>2026-04-06T13:48:52.188Z</time></trkpt><trkpt lat="38.2398017" lon="15.740995"><ele>614.1666666666666</ele><time>2026-04-06T13:48:53.188Z</time></trkpt><trkpt lat="38.2397383" lon="15.7408683"><ele>613.3333333333334</ele><time>2026-04-06T13:48:55.188Z</time></trkpt><trkpt lat="38.2397067" lon="15.74079"><ele>612.5</ele><time>2026-04-06T13:48:56.188Z</time></trkpt><trkpt lat="38.2396767" lon="15.7407033"><ele>611.6666666666667</ele><time>2026-04-06T13:48:57.187Z</time></trkpt><trkpt lat="38.2396367" lon="15.7406333"><ele>610.8333333333334</ele><time>2026-04-06T13:48:58.188Z</time></trkpt><trkpt lat="38.2395667" lon="15.7405283"><ele>610.0</ele><time>2026-04-06T13:49:00.188Z</time></trkpt><trkpt lat="38.239485" lon="15.7404433"><ele>610.0</ele><time>2026-04-06T13:49:02.187Z</time></trkpt><trkpt lat="38.239405" lon="15.74036"><ele>610.0</ele><time>2026-04-06T13:49:04.188Z</time></trkpt><trkpt lat="38.2393067" lon="15.7402717"><ele>610.0</ele><time>2026-04-06T13:49:06.188Z</time></trkpt><trkpt lat="38.2392517" lon="15.7402233"><ele>610.0</ele><time>2026-04-06T13:49:07.188Z</time></trkpt><trkpt lat="38.23919" lon="15.7401683"><ele>610.0</ele><time>2026-04-06T13:49:08.188Z</time></trkpt><trkpt lat="38.239135" lon="15.7401217"><ele>610.0</ele><time>2026-04-06T13:49:09.187Z</time></trkpt><trkpt lat="38.239085" lon="15.7400717"><ele>610.0</ele><time>2026-04-06T13:49:10.188Z</time></trkpt><trkpt lat="38.2390317" lon="15.7400117"><ele>610.0</ele><time>2026-04-06T13:49:11.188Z</time></trkpt><trkpt lat="38.238945" lon="15.739885"><ele>610.0</ele><time>2026-04-06T13:49:13.187Z</time></trkpt><trkpt lat="38.2388767" lon="15.7397717"><ele>610.0</ele><time>2026-04-06T13:49:15.188Z</time></trkpt><trkpt lat="38.2388367" lon="15.7397083"><ele>610.0</ele><time>2026-04-06T13:49:17.188Z</time></trkpt><trkpt lat="38.2387733" lon="15.739645"><ele>610.0</ele><time>2026-04-06T14:00:23.188Z</time></trkpt><trkpt lat="38.238705" lon="15.73961"><ele>610.0</ele><time>2026-04-06T14:00:25.188Z</time></trkpt><trkpt lat="38.2386183" lon="15.73956"><ele>610.0</ele><time>2026-04-06T14:00:27.188Z</time></trkpt><trkpt lat="38.2385317" lon="15.739505"><ele>610.0</ele><time>2026-04-06T14:00:29.188Z</time></trkpt><trkpt lat="38.2384417" lon="15.73946"><ele>610.0</ele><time>2026-04-06T14:00:31.187Z</time></trkpt><trkpt lat="38.2383583" lon="15.7394083"><ele>610.8</ele><time>2026-04-06T14:00:33.188Z</time></trkpt><trkpt lat="38.2382783" lon="15.7393633"><ele>611.6</ele><time>2026-04-06T14:00:35.187Z</time></trkpt><trkpt lat="38.2381867" lon="15.7392917"><ele>612.4</ele><time>2026-04-06T14:00:37.188Z</time></trkpt><trkpt lat="38.2380867" lon="15.739205"><ele>613.2</ele><time>2026-04-06T14:00:39.187Z</time></trkpt><trkpt lat="38.23803" lon="15.739065"><ele>614.0</ele><time>2026-04-06T14:00:41.187Z</time></trkpt><trkpt lat="38.2380167" lon="15.738915"><ele>614.0</ele><time>2026-04-06T14:00:43.188Z</time></trkpt><trkpt lat="38.2380183" lon="15.7388333"><ele>614.0</ele><time>2026-04-06T14:00:44.188Z</time></trkpt><trkpt lat="38.238025" lon="15.7387467"><ele>614.0</ele><time>2026-04-06T14:00:45.188Z</time></trkpt><trkpt lat="38.2380367" lon="15.738655"><ele>614.0</ele><time>2026-04-06T14:00:46.188Z</time></trkpt><trkpt lat="38.2380417" lon="15.7385667"><ele>614.0</ele><time>2026-04-06T14:00:47.188Z</time></trkpt><trkpt lat="38.2380333" lon="15.738485"><ele>614.0</ele><time>2026-04-06T14:00:48.187Z</time></trkpt><trkpt lat="38.237995" lon="15.7383483"><ele>613.6666666666666</ele><time>2026-04-06T14:00:50.188Z</time></trkpt><trkpt lat="38.2379567" lon="15.7382433"><ele>613.3333333333333</ele><time>2026-04-06T14:00:52.188Z</time></trkpt><trkpt lat="38.2379183" lon="15.738135"><ele>613.0</ele><time>2026-04-06T14:00:54.188Z</time></trkpt><trkpt lat="38.23788" lon="15.7379983"><ele>612.6666666666666</ele><time>2026-04-06T14:00:56.188Z</time></trkpt><trkpt lat="38.23786" lon="15.73792"><ele>612.3333333333334</ele><time>2026-04-06T14:00:57.187Z</time></trkpt><trkpt lat="38.2378417" lon="15.7378417"><ele>612.0</ele><time>2026-04-06T14:00:58.187Z</time></trkpt><trkpt lat="38.23783" lon="15.737695"><ele>611.7142857142857</ele><time>2026-04-06T14:01:00.188Z</time></trkpt><trkpt lat="38.2378433" lon="15.7376133"><ele>611.4285714285714</ele><time>2026-04-06T14:01:01.187Z</time></trkpt><trkpt lat="38.23786" lon="15.7375333"><ele>611.1428571428571</ele><time>2026-04-06T14:01:02.188Z</time></trkpt><trkpt lat="38.2378817" lon="15.737455"><ele>610.8571428571429</ele><time>2026-04-06T14:01:03.188Z</time></trkpt><trkpt lat="38.2379117" lon="15.7373833"><ele>610.5714285714286</ele><time>2026-04-06T14:01:04.188Z</time></trkpt><trkpt lat="38.2379517" lon="15.737315"><ele>610.2857142857143</ele><time>2026-04-06T14:01:05.188Z</time></trkpt><trkpt lat="38.2380017" lon="15.7372567"><ele>610.0</ele><time>2026-04-06T14:01:06.187Z</time></trkpt><trkpt lat="38.23806" lon="15.7372017"><ele>606.1666666666667</ele><time>2026-04-06T14:01:07.188Z</time></trkpt><trkpt lat="38.2381367" lon="15.7371583"><ele>602.3333333333334</ele><time>2026-04-06T14:01:08.188Z</time></trkpt><trkpt lat="38.2382167" lon="15.7371233"><ele>598.5</ele><time>2026-04-06T14:01:09.188Z</time></trkpt><trkpt lat="38.2382967" lon="15.737105"><ele>594.6666666666666</ele><time>2026-04-06T14:01:10.188Z</time></trkpt><trkpt lat="38.2383783" lon="15.737075"><ele>590.8333333333333</ele><time>2026-04-06T14:01:11.188Z</time></trkpt><trkpt lat="38.2384483" lon="15.7370183"><ele>587.0</ele><time>2026-04-06T14:01:12.188Z</time></trkpt><trkpt lat="38.23851" lon="15.736945"><ele>587.5</ele><time>2026-04-06T14:01:13.187Z</time></trkpt><trkpt lat="38.2385717" lon="15.7368667"><ele>588.0</ele><time>2026-04-06T14:01:14.188Z</time></trkpt><trkpt lat="38.2386317" lon="15.7367917"><ele>588.5</ele><time>2026-04-06T14:01:15.188Z</time></trkpt><trkpt lat="38.2386883" lon="15.73672"><ele>589.0</ele><time>2026-04-06T14:01:16.188Z</time></trkpt><trkpt lat="38.2387467" lon="15.7366467"><ele>589.5</ele><time>2026-04-06T14:01:17.188Z</time></trkpt><trkpt lat="38.2387883" lon="15.73657"><ele>590.0</ele><time>2026-04-06T14:01:18.188Z</time></trkpt><trkpt lat="38.238805" lon="15.7364217"><ele>590.0</ele><time>2026-04-06T14:01:20.187Z</time></trkpt><trkpt lat="38.23875" lon="15.7363167"><ele>590.0</ele><time>2026-04-06T14:01:22.188Z</time></trkpt><trkpt lat="38.238685" lon="15.7363167"><ele>590.0</ele><time>2026-04-06T14:01:23.188Z</time></trkpt><trkpt lat="38.23861" lon="15.7363433"><ele>590.0</ele><time>2026-04-06T14:01:24.187Z</time></trkpt><trkpt lat="38.2385317" lon="15.7364017"><ele>590.0</ele><time>2026-04-06T14:01:25.188Z</time></trkpt><trkpt lat="38.238455" lon="15.7364633"><ele>590.0</ele><time>2026-04-06T14:01:26.188Z</time></trkpt><trkpt lat="38.2383817" lon="15.7365233"><ele>590.0000000000001</ele><time>2026-04-06T14:01:27.187Z</time></trkpt><trkpt lat="38.2383117" lon="15.7365783"><ele>590.0</ele><time>2026-04-06T14:01:28.188Z</time></trkpt><trkpt lat="38.238245" lon="15.736635"><ele>590.0</ele><time>2026-04-06T14:01:29.188Z</time></trkpt><trkpt lat="38.2381817" lon="15.7366817"><ele>590.0</ele><time>2026-04-06T14:01:30.188Z</time></trkpt><trkpt lat="38.23812" lon="15.73671"><ele>590.0</ele><time>2026-04-06T14:01:31.188Z</time></trkpt><trkpt lat="38.238055" lon="15.7367167"><ele>590.0000000000001</ele><time>2026-04-06T14:01:32.188Z</time></trkpt><trkpt lat="38.2379933" lon="15.73669"><ele>590.0</ele><time>2026-04-06T14:01:33.188Z</time></trkpt><trkpt lat="38.2379383" lon="15.736635"><ele>593.4</ele><time>2026-04-06T14:01:34.188Z</time></trkpt><trkpt lat="38.23789" lon="15.73656"><ele>596.8</ele><time>2026-04-06T14:01:35.187Z</time></trkpt><trkpt lat="38.2378467" lon="15.7364633"><ele>600.2</ele><time>2026-04-06T14:01:36.188Z</time></trkpt><trkpt lat="38.2377933" lon="15.7363467"><ele>603.6</ele><time>2026-04-06T14:01:37.188Z</time></trkpt><trkpt lat="38.2377517" lon="15.7362083"><ele>607.0</ele><time>2026-04-06T14:01:38.188Z</time></trkpt><trkpt lat="38.237715" lon="15.7360617"><ele>604.0</ele><time>2026-04-06T14:01:39.188Z</time></trkpt><trkpt lat="38.2376617" lon="15.7359167"><ele>601.0</ele><time>2026-04-06T14:01:40.187Z</time></trkpt><trkpt lat="38.2376083" lon="15.7357717"><ele>598.0</ele><time>2026-04-06T14:01:41.188Z</time></trkpt><trkpt lat="38.237565" lon="15.7356183"><ele>595.0</ele><time>2026-04-06T14:01:42.188Z</time></trkpt><trkpt lat="38.2375233" lon="15.7354567"><ele>595.0</ele><time>2026-04-06T14:01:43.187Z</time></trkpt><trkpt lat="38.237485" lon="15.7353017"><ele>595.0</ele><time>2026-04-06T14:01:44.188Z</time></trkpt><trkpt lat="38.23744" lon="15.7351483"><ele>595.0</ele><time>2026-04-06T14:01:45.187Z</time></trkpt><trkpt lat="38.2373917" lon="15.7349917"><ele>595.0</ele><time>2026-04-06T14:01:46.187Z</time></trkpt><trkpt lat="38.237335" lon="15.7348333"><ele>597.0</ele><time>2026-04-06T14:01:47.188Z</time></trkpt><trkpt lat="38.2372717" lon="15.7346767"><ele>599.0</ele><time>2026-04-06T14:01:48.188Z</time></trkpt><trkpt lat="38.2372083" lon="15.7345217"><ele>601.0</ele><time>2026-04-06T14:01:49.187Z</time></trkpt><trkpt lat="38.2371433" lon="15.73437"><ele>603.0</ele><time>2026-04-06T14:01:50.188Z</time></trkpt><trkpt lat="38.2370783" lon="15.7342233"><ele>603.0</ele><time>2026-04-06T14:01:51.188Z</time></trkpt><trkpt lat="38.2370133" lon="15.7340767"><ele>603.0</ele><time>2026-04-06T14:01:52.188Z</time></trkpt><trkpt lat="38.2369567" lon="15.7339283"><ele>603.0</ele><time>2026-04-06T14:01:53.187Z</time></trkpt><trkpt lat="38.236905" lon="15.7337917"><ele>603.0</ele><time>2026-04-06T14:01:54.188Z</time></trkpt><trkpt lat="38.2368633" lon="15.7336583"><ele>597.75</ele><time>2026-04-06T14:01:55.188Z</time></trkpt><trkpt lat="38.2368183" lon="15.73352"><ele>592.5</ele><time>2026-04-06T14:01:56.187Z</time></trkpt><trkpt lat="38.236775" lon="15.73337"><ele>587.25</ele><time>2026-04-06T14:01:57.188Z</time></trkpt><trkpt lat="38.2367283" lon="15.7332383"><ele>582.0</ele><time>2026-04-06T14:01:58.188Z</time></trkpt><trkpt lat="38.2366833" lon="15.7331117"><ele>582.0</ele><time>2026-04-06T14:01:59.188Z</time></trkpt><trkpt lat="38.2366517" lon="15.7329867"><ele>582.0</ele><time>2026-04-06T14:02:00.187Z</time></trkpt><trkpt lat="38.2366533" lon="15.7328667"><ele>582.0</ele><time>2026-04-06T14:02:01.188Z</time></trkpt><trkpt lat="38.2366583" lon="15.7327417"><ele>582.0</ele><time>2026-04-06T14:02:02.187Z</time></trkpt><trkpt lat="38.2366783" lon="15.732615"><ele>582.0</ele><time>2026-04-06T14:02:03.188Z</time></trkpt><trkpt lat="38.2366967" lon="15.7324717"><ele>579.5</ele><time>2026-04-06T14:02:04.188Z</time></trkpt><trkpt lat="38.2367033" lon="15.7323267"><ele>577.0</ele><time>2026-04-06T14:02:05.188Z</time></trkpt><trkpt lat="38.236715" lon="15.732185"><ele>574.5</ele><time>2026-04-06T14:02:06.188Z</time></trkpt><trkpt lat="38.2367183" lon="15.7320317"><ele>572.0</ele><time>2026-04-06T14:02:07.188Z</time></trkpt><trkpt lat="38.2367133" lon="15.731885"><ele>570.25</ele><time>2026-04-06T14:02:08.187Z</time></trkpt><trkpt lat="38.236715" lon="15.7317317"><ele>568.5</ele><time>2026-04-06T14:02:09.187Z</time></trkpt><trkpt lat="38.2367233" lon="15.73158"><ele>566.75</ele><time>2026-04-06T14:02:10.188Z</time></trkpt><trkpt lat="38.2367267" lon="15.731435"><ele>565.0</ele><time>2026-04-06T14:02:11.188Z</time></trkpt><trkpt lat="38.2367383" lon="15.7312867"><ele>565.0</ele><time>2026-04-06T14:02:12.187Z</time></trkpt><trkpt lat="38.2367667" lon="15.7311433"><ele>565.0</ele><time>2026-04-06T14:02:13.187Z</time></trkpt><trkpt lat="38.2368067" lon="15.7310083"><ele>565.0</ele><time>2026-04-06T14:02:14.187Z</time></trkpt><trkpt lat="38.236845" lon="15.73088"><ele>565.0</ele><time>2026-04-06T14:02:15.187Z</time></trkpt><trkpt lat="38.2369017" lon="15.730755"><ele>566.25</ele><time>2026-04-06T14:02:16.188Z</time></trkpt><trkpt lat="38.2369583" lon="15.7306283"><ele>567.5</ele><time>2026-04-06T14:02:17.188Z</time></trkpt><trkpt lat="38.23702" lon="15.7304933"><ele>568.75</ele><time>2026-04-06T14:02:18.188Z</time></trkpt><trkpt lat="38.237095" lon="15.7303633"><ele>570.0</ele><time>2026-04-06T14:02:19.188Z</time></trkpt><trkpt lat="38.2371667" lon="15.7302533"><ele>573.75</ele><time>2026-04-06T14:02:20.187Z</time></trkpt><trkpt lat="38.237245" lon="15.7301467"><ele>577.5</ele><time>2026-04-06T14:02:21.188Z</time></trkpt><trkpt lat="38.2373333" lon="15.7300483"><ele>581.25</ele><time>2026-04-06T14:02:22.187Z</time></trkpt><trkpt lat="38.2374217" lon="15.72994"><ele>585.0</ele><time>2026-04-06T14:02:23.187Z</time></trkpt><trkpt lat="38.2374983" lon="15.7298117"><ele>580.5</ele><time>2026-04-06T14:02:24.188Z</time></trkpt><trkpt lat="38.2375633" lon="15.7296767"><ele>576.0</ele><time>2026-04-06T14:02:25.188Z</time></trkpt><trkpt lat="38.2376267" lon="15.7295467"><ele>571.5</ele><time>2026-04-06T14:02:26.188Z</time></trkpt><trkpt lat="38.2377067" lon="15.7294267"><ele>567.0</ele><time>2026-04-06T14:02:27.188Z</time></trkpt><trkpt lat="38.2377933" lon="15.72931"><ele>567.0</ele><time>2026-04-06T14:02:28.188Z</time></trkpt><trkpt lat="38.237885" lon="15.7292067"><ele>567.0</ele><time>2026-04-06T14:02:29.188Z</time></trkpt><trkpt lat="38.23798" lon="15.72912"><ele>567.0</ele><time>2026-04-06T14:02:30.188Z</time></trkpt><trkpt lat="38.2380883" lon="15.7290683"><ele>567.0</ele><time>2026-04-06T14:02:31.187Z</time></trkpt><trkpt lat="38.2382033" lon="15.7290533"><ele>560.4</ele><time>2026-04-06T14:02:32.187Z</time></trkpt><trkpt lat="38.23832" lon="15.7290417"><ele>553.8000000000001</ele><time>2026-04-06T14:02:33.188Z</time></trkpt><trkpt lat="38.2384283" lon="15.7290433"><ele>547.2</ele><time>2026-04-06T14:02:34.187Z</time></trkpt><trkpt lat="38.23854" lon="15.72903"><ele>540.6</ele><time>2026-04-06T14:02:35.187Z</time></trkpt><trkpt lat="38.23862" lon="15.728965"><ele>534.0</ele><time>2026-04-06T14:02:36.188Z</time></trkpt><trkpt lat="38.2386683" lon="15.7288517"><ele>534.0</ele><time>2026-04-06T14:02:37.187Z</time></trkpt><trkpt lat="38.238675" lon="15.7287233"><ele>534.0</ele><time>2026-04-06T14:02:38.188Z</time></trkpt><trkpt lat="38.238655" lon="15.7285917"><ele>534.0</ele><time>2026-04-06T14:02:39.187Z</time></trkpt><trkpt lat="38.2386433" lon="15.7284667"><ele>534.0</ele><time>2026-04-06T14:02:40.187Z</time></trkpt><trkpt lat="38.2386417" lon="15.7283333"><ele>534.0</ele><time>2026-04-06T14:02:41.188Z</time></trkpt><trkpt lat="38.23866" lon="15.728195"><ele>538.4</ele><time>2026-04-06T14:02:42.188Z</time></trkpt><trkpt lat="38.23868" lon="15.72807"><ele>542.8</ele><time>2026-04-06T14:02:43.188Z</time></trkpt><trkpt lat="38.2386867" lon="15.7279533"><ele>547.2</ele><time>2026-04-06T14:02:44.187Z</time></trkpt><trkpt lat="38.2387067" lon="15.7278183"><ele>551.6</ele><time>2026-04-06T14:02:45.188Z</time></trkpt><trkpt lat="38.2387067" lon="15.72769"><ele>556.0</ele><time>2026-04-06T14:02:46.187Z</time></trkpt><trkpt lat="38.23871" lon="15.7275583"><ele>556.6</ele><time>2026-04-06T14:02:47.187Z</time></trkpt><trkpt lat="38.2387117" lon="15.72743"><ele>557.2</ele><time>2026-04-06T14:02:48.188Z</time></trkpt><trkpt lat="38.2387067" lon="15.7272983"><ele>557.8</ele><time>2026-04-06T14:02:49.188Z</time></trkpt><trkpt lat="38.238685" lon="15.7271617"><ele>558.4</ele><time>2026-04-06T14:02:50.187Z</time></trkpt><trkpt lat="38.23867" lon="15.72703"><ele>559.0</ele><time>2026-04-06T14:02:51.188Z</time></trkpt><trkpt lat="38.2386633" lon="15.7269083"><ele>555.2</ele><time>2026-04-06T14:02:52.188Z</time></trkpt><trkpt lat="38.2386683" lon="15.7267883"><ele>551.4</ele><time>2026-04-06T14:02:53.187Z</time></trkpt><trkpt lat="38.2386767" lon="15.7266667"><ele>547.6</ele><time>2026-04-06T14:02:54.187Z</time></trkpt><trkpt lat="38.2386717" lon="15.7265517"><ele>543.8</ele><time>2026-04-06T14:02:55.187Z</time></trkpt><trkpt lat="38.23867" lon="15.72643"><ele>540.0</ele><time>2026-04-06T14:02:56.188Z</time></trkpt><trkpt lat="38.2386533" lon="15.72631"><ele>540.0</ele><time>2026-04-06T14:02:57.188Z</time></trkpt><trkpt lat="38.2386167" lon="15.7262067"><ele>540.0</ele><time>2026-04-06T14:02:58.187Z</time></trkpt><trkpt lat="38.2385633" lon="15.726105"><ele>540.0</ele><time>2026-04-06T14:02:59.188Z</time></trkpt><trkpt lat="38.2385167" lon="15.72601"><ele>540.0</ele><time>2026-04-06T14:03:00.188Z</time></trkpt><trkpt lat="38.2384833" lon="15.7259"><ele>540.0</ele><time>2026-04-06T14:03:01.188Z</time></trkpt><trkpt lat="38.2384567" lon="15.7257933"><ele>538.6</ele><time>2026-04-06T14:03:02.188Z</time></trkpt><trkpt lat="38.2384533" lon="15.725675"><ele>537.2</ele><time>2026-04-06T14:03:03.188Z</time></trkpt><trkpt lat="38.23846" lon="15.7255583"><ele>535.8</ele><time>2026-04-06T14:03:04.188Z</time></trkpt><trkpt lat="38.23847" lon="15.7254383"><ele>534.4</ele><time>2026-04-06T14:03:05.188Z</time></trkpt><trkpt lat="38.2385" lon="15.7253167"><ele>533.0</ele><time>2026-04-06T14:03:06.188Z</time></trkpt><trkpt lat="38.2385383" lon="15.7251983"><ele>533.0</ele><time>2026-04-06T14:03:07.188Z</time></trkpt><trkpt lat="38.2385817" lon="15.7250883"><ele>533.0</ele><time>2026-04-06T14:03:08.188Z</time></trkpt><trkpt lat="38.238635" lon="15.725"><ele>533.0</ele><time>2026-04-06T14:03:09.187Z</time></trkpt><trkpt lat="38.2386867" lon="15.7249133"><ele>533.0</ele><time>2026-04-06T14:03:10.188Z</time></trkpt><trkpt lat="38.2387517" lon="15.724825"><ele>533.0</ele><time>2026-04-06T14:03:11.188Z</time></trkpt><trkpt lat="38.23882" lon="15.72473"><ele>533.0</ele><time>2026-04-06T14:03:12.187Z</time></trkpt><trkpt lat="38.238895" lon="15.724645"><ele>533.0</ele><time>2026-04-06T14:03:13.187Z</time></trkpt><trkpt lat="38.2389617" lon="15.7245567"><ele>533.0</ele><time>2026-04-06T14:03:14.187Z</time></trkpt><trkpt lat="38.2390333" lon="15.7244467"><ele>533.0</ele><time>2026-04-06T14:03:15.188Z</time></trkpt><trkpt lat="38.2390983" lon="15.7243417"><ele>533.0</ele><time>2026-04-06T14:03:16.188Z</time></trkpt><trkpt lat="38.2391617" lon="15.7242333"><ele>529.0</ele><time>2026-04-06T14:03:17.188Z</time></trkpt><trkpt lat="38.239215" lon="15.7241267"><ele>525.0</ele><time>2026-04-06T14:03:18.187Z</time></trkpt><trkpt lat="38.2392667" lon="15.7240067"><ele>521.0</ele><time>2026-04-06T14:03:19.188Z</time></trkpt><trkpt lat="38.23932" lon="15.723895"><ele>517.0</ele><time>2026-04-06T14:03:20.188Z</time></trkpt><trkpt lat="38.23935" lon="15.7237433"><ele>513.0</ele><time>2026-04-06T14:03:21.187Z</time></trkpt><trkpt lat="38.23936" lon="15.7236167"><ele>513.4</ele><time>2026-04-06T14:03:22.188Z</time></trkpt><trkpt lat="38.2393667" lon="15.7234917"><ele>513.8</ele><time>2026-04-06T14:03:23.187Z</time></trkpt><trkpt lat="38.2393717" lon="15.7233633"><ele>514.2</ele><time>2026-04-06T14:03:24.187Z</time></trkpt><trkpt lat="38.23937" lon="15.7232317"><ele>514.6</ele><time>2026-04-06T14:03:25.187Z</time></trkpt><trkpt lat="38.2393667" lon="15.7231"><ele>515.0</ele><time>2026-04-06T14:03:26.188Z</time></trkpt><trkpt lat="38.2393667" lon="15.7229667"><ele>515.0</ele><time>2026-04-06T14:03:27.187Z</time></trkpt><trkpt lat="38.2393683" lon="15.7228283"><ele>515.0</ele><time>2026-04-06T14:03:28.188Z</time></trkpt><trkpt lat="38.239365" lon="15.722695"><ele>515.0</ele><time>2026-04-06T14:03:29.188Z</time></trkpt><trkpt lat="38.2393683" lon="15.7225633"><ele>515.0</ele><time>2026-04-06T14:03:30.188Z</time></trkpt><trkpt lat="38.2393717" lon="15.7224333"><ele>515.0</ele><time>2026-04-06T14:03:31.188Z</time></trkpt><trkpt lat="38.239375" lon="15.7222983"><ele>513.8</ele><time>2026-04-06T14:03:32.187Z</time></trkpt><trkpt lat="38.2393733" lon="15.7221767"><ele>512.6</ele><time>2026-04-06T14:03:33.187Z</time></trkpt><trkpt lat="38.23938" lon="15.7220517"><ele>511.4</ele><time>2026-04-06T14:03:34.188Z</time></trkpt><trkpt lat="38.2393883" lon="15.72191"><ele>510.2</ele><time>2026-04-06T14:03:35.187Z</time></trkpt><trkpt lat="38.23939" lon="15.721775"><ele>509.0</ele><time>2026-04-06T14:03:36.187Z</time></trkpt><trkpt lat="38.2393633" lon="15.7216467"><ele>506.79999999999995</ele><time>2026-04-06T14:03:37.188Z</time></trkpt><trkpt lat="38.2393233" lon="15.7215267"><ele>504.59999999999997</ele><time>2026-04-06T14:03:38.187Z</time></trkpt><trkpt lat="38.2392567" lon="15.721425"><ele>502.4</ele><time>2026-04-06T14:03:39.188Z</time></trkpt><trkpt lat="38.2391733" lon="15.7213467"><ele>500.2</ele><time>2026-04-06T14:03:40.188Z</time></trkpt><trkpt lat="38.2390833" lon="15.721275"><ele>498.0</ele><time>2026-04-06T14:03:41.188Z</time></trkpt><trkpt lat="38.2389917" lon="15.72121"><ele>498.1666666666667</ele><time>2026-04-06T14:03:42.188Z</time></trkpt><trkpt lat="38.238915" lon="15.7211467"><ele>498.33333333333337</ele><time>2026-04-06T14:03:43.188Z</time></trkpt><trkpt lat="38.2388517" lon="15.7210883"><ele>498.5</ele><time>2026-04-06T14:03:44.187Z</time></trkpt><trkpt lat="38.2388117" lon="15.7210217"><ele>498.6666666666667</ele><time>2026-04-06T14:03:45.188Z</time></trkpt><trkpt lat="38.2388467" lon="15.7208867"><ele>498.83333333333337</ele><time>2026-04-06T14:03:47.188Z</time></trkpt><trkpt lat="38.2389133" lon="15.72084"><ele>499.0</ele><time>2026-04-06T14:03:48.188Z</time></trkpt><trkpt lat="38.238995" lon="15.7208383"><ele>498.79999999999995</ele><time>2026-04-06T14:03:49.188Z</time></trkpt><trkpt lat="38.2390833" lon="15.7208983"><ele>498.59999999999997</ele><time>2026-04-06T14:03:50.188Z</time></trkpt><trkpt lat="38.2391633" lon="15.7209933"><ele>498.4</ele><time>2026-04-06T14:03:51.188Z</time></trkpt><trkpt lat="38.2392383" lon="15.7211083"><ele>498.2</ele><time>2026-04-06T14:03:52.188Z</time></trkpt><trkpt lat="38.239305" lon="15.7212167"><ele>498.0</ele><time>2026-04-06T14:03:53.188Z</time></trkpt><trkpt lat="38.23937" lon="15.7213233"><ele>498.0</ele><time>2026-04-06T14:03:54.187Z</time></trkpt><trkpt lat="38.2394367" lon="15.7214167"><ele>497.99999999999994</ele><time>2026-04-06T14:03:55.188Z</time></trkpt><trkpt lat="38.23949" lon="15.7215067"><ele>497.99999999999994</ele><time>2026-04-06T14:03:56.187Z</time></trkpt><trkpt lat="38.23954" lon="15.72161"><ele>498.0</ele><time>2026-04-06T14:03:57.188Z</time></trkpt><trkpt lat="38.23958" lon="15.721725"><ele>498.0</ele><time>2026-04-06T14:03:58.188Z</time></trkpt><trkpt lat="38.2396083" lon="15.7218417"><ele>500.2</ele><time>2026-04-06T14:03:59.188Z</time></trkpt><trkpt lat="38.2396267" lon="15.721965"><ele>502.4</ele><time>2026-04-06T14:04:00.187Z</time></trkpt><trkpt lat="38.2396417" lon="15.7220967"><ele>504.59999999999997</ele><time>2026-04-06T14:04:01.187Z</time></trkpt><trkpt lat="38.2396583" lon="15.7222267"><ele>506.79999999999995</ele><time>2026-04-06T14:04:02.188Z</time></trkpt><trkpt lat="38.2396933" lon="15.7223533"><ele>509.0</ele><time>2026-04-06T14:04:03.188Z</time></trkpt><trkpt lat="38.2397317" lon="15.7224883"><ele>509.0</ele><time>2026-04-06T14:04:04.188Z</time></trkpt><trkpt lat="38.2397783" lon="15.72262"><ele>509.0</ele><time>2026-04-06T14:04:05.188Z</time></trkpt><trkpt lat="38.23984" lon="15.7227417"><ele>509.0</ele><time>2026-04-06T14:04:06.188Z</time></trkpt><trkpt lat="38.2398967" lon="15.722855"><ele>509.0</ele><time>2026-04-06T14:04:07.187Z</time></trkpt><trkpt lat="38.23994" lon="15.7229733"><ele>509.0</ele><time>2026-04-06T14:04:08.187Z</time></trkpt><trkpt lat="38.2399667" lon="15.7230983"><ele>502.2</ele><time>2026-04-06T14:04:09.187Z</time></trkpt><trkpt lat="38.2399683" lon="15.7232267"><ele>495.4</ele><time>2026-04-06T14:04:10.187Z</time></trkpt><trkpt lat="38.23995" lon="15.7233483"><ele>488.6</ele><time>2026-04-06T14:04:11.188Z</time></trkpt><trkpt lat="38.2399283" lon="15.7234617"><ele>481.8</ele><time>2026-04-06T14:04:12.188Z</time></trkpt><trkpt lat="38.2399117" lon="15.72357"><ele>475.0</ele><time>2026-04-06T14:04:13.188Z</time></trkpt><trkpt lat="38.23992" lon="15.7236633"><ele>475.00000000000006</ele><time>2026-04-06T14:04:14.187Z</time></trkpt><trkpt lat="38.2399483" lon="15.7237417"><ele>475.0</ele><time>2026-04-06T14:04:15.188Z</time></trkpt><trkpt lat="38.240015" lon="15.7237883"><ele>475.0</ele><time>2026-04-06T14:04:16.188Z</time></trkpt><trkpt lat="38.2400867" lon="15.7237883"><ele>475.0</ele><time>2026-04-06T14:04:17.188Z</time></trkpt><trkpt lat="38.2401533" lon="15.7237483"><ele>475.00000000000006</ele><time>2026-04-06T14:04:18.187Z</time></trkpt><trkpt lat="38.2402067" lon="15.7236517"><ele>475.0</ele><time>2026-04-06T14:04:19.188Z</time></trkpt><trkpt lat="38.24024" lon="15.7235383"><ele>475.0</ele><time>2026-04-06T14:04:20.188Z</time></trkpt><trkpt lat="38.2402383" lon="15.7234083"><ele>475.0</ele><time>2026-04-06T14:04:21.188Z</time></trkpt><trkpt lat="38.24023" lon="15.7232883"><ele>475.0</ele><time>2026-04-06T14:04:22.187Z</time></trkpt><trkpt lat="38.2402233" lon="15.7231617"><ele>475.0</ele><time>2026-04-06T14:04:23.188Z</time></trkpt><trkpt lat="38.2402233" lon="15.7230333"><ele>475.0</ele><time>2026-04-06T14:04:24.187Z</time></trkpt><trkpt lat="38.2402267" lon="15.7228983"><ele>475.0</ele><time>2026-04-06T14:04:25.188Z</time></trkpt><trkpt lat="38.2402217" lon="15.7227633"><ele>475.0</ele><time>2026-04-06T14:04:26.187Z</time></trkpt><trkpt lat="38.240215" lon="15.7226283"><ele>475.0</ele><time>2026-04-06T14:04:27.187Z</time></trkpt><trkpt lat="38.240195" lon="15.72249"><ele>475.0</ele><time>2026-04-06T14:04:28.188Z</time></trkpt><trkpt lat="38.24016" lon="15.722355"><ele>475.0</ele><time>2026-04-06T14:04:29.188Z</time></trkpt><trkpt lat="38.24012" lon="15.7222167"><ele>473.5</ele><time>2026-04-06T14:04:30.188Z</time></trkpt><trkpt lat="38.240085" lon="15.7220767"><ele>472.0</ele><time>2026-04-06T14:04:31.188Z</time></trkpt><trkpt lat="38.2400567" lon="15.72194"><ele>470.5</ele><time>2026-04-06T14:04:32.188Z</time></trkpt><trkpt lat="38.24003" lon="15.7218033"><ele>469.0</ele><time>2026-04-06T14:04:33.188Z</time></trkpt><trkpt lat="38.24" lon="15.7216633"><ele>467.2</ele><time>2026-04-06T14:04:34.188Z</time></trkpt><trkpt lat="38.2399717" lon="15.7215333"><ele>465.4</ele><time>2026-04-06T14:04:35.187Z</time></trkpt><trkpt lat="38.239945" lon="15.7214033"><ele>463.6</ele><time>2026-04-06T14:04:36.187Z</time></trkpt><trkpt lat="38.239915" lon="15.7212767"><ele>461.8</ele><time>2026-04-06T14:04:37.188Z</time></trkpt><trkpt lat="38.2398883" lon="15.72115"><ele>460.0</ele><time>2026-04-06T14:04:38.188Z</time></trkpt><trkpt lat="38.2398267" lon="15.72103"><ele>461.8</ele><time>2026-04-06T14:04:39.187Z</time></trkpt><trkpt lat="38.2397517" lon="15.7209233"><ele>463.6</ele><time>2026-04-06T14:04:40.188Z</time></trkpt><trkpt lat="38.23966" lon="15.7208383"><ele>465.4</ele><time>2026-04-06T14:04:41.187Z</time></trkpt><trkpt lat="38.2395783" lon="15.7207567"><ele>467.2</ele><time>2026-04-06T14:04:42.188Z</time></trkpt><trkpt lat="38.2395" lon="15.7206833"><ele>469.0</ele><time>2026-04-06T14:04:43.188Z</time></trkpt><trkpt lat="38.2394167" lon="15.72058"><ele>469.0</ele><time>2026-04-06T14:04:44.188Z</time></trkpt><trkpt lat="38.2393417" lon="15.7204633"><ele>469.0</ele><time>2026-04-06T14:04:45.188Z</time></trkpt><trkpt lat="38.239275" lon="15.720335"><ele>469.0</ele><time>2026-04-06T14:04:46.188Z</time></trkpt><trkpt lat="38.2392183" lon="15.7202283"><ele>469.0</ele><time>2026-04-06T14:04:47.188Z</time></trkpt><trkpt lat="38.239135" lon="15.7201583"><ele>469.0</ele><time>2026-04-06T14:04:48.188Z</time></trkpt><trkpt lat="38.239035" lon="15.72013"><ele>470.0</ele><time>2026-04-06T14:04:49.188Z</time></trkpt><trkpt lat="38.23893" lon="15.72013"><ele>471.0</ele><time>2026-04-06T14:04:50.188Z</time></trkpt><trkpt lat="38.2388283" lon="15.7201383"><ele>472.0</ele><time>2026-04-06T14:04:51.188Z</time></trkpt><trkpt lat="38.238735" lon="15.7201367"><ele>473.0</ele><time>2026-04-06T14:04:52.188Z</time></trkpt><trkpt lat="38.2386517" lon="15.7201133"><ele>474.0</ele><time>2026-04-06T14:04:53.188Z</time></trkpt><trkpt lat="38.23859" lon="15.7200733"><ele>474.0</ele><time>2026-04-06T14:04:54.188Z</time></trkpt><trkpt lat="38.23856" lon="15.72"><ele>474.0</ele><time>2026-04-06T14:04:55.188Z</time></trkpt><trkpt lat="38.23858" lon="15.719865"><ele>474.0</ele><time>2026-04-06T14:04:57.187Z</time></trkpt><trkpt lat="38.23863" lon="15.7197733"><ele>474.0</ele><time>2026-04-06T14:04:58.188Z</time></trkpt><trkpt lat="38.238705" lon="15.71966"><ele>474.0</ele><time>2026-04-06T14:04:59.187Z</time></trkpt><trkpt lat="38.23877" lon="15.7195283"><ele>472.25</ele><time>2026-04-06T14:05:00.188Z</time></trkpt><trkpt lat="38.2388383" lon="15.7193983"><ele>470.5</ele><time>2026-04-06T14:05:01.187Z</time></trkpt><trkpt lat="38.2388783" lon="15.719255"><ele>468.75</ele><time>2026-04-06T14:05:02.187Z</time></trkpt><trkpt lat="38.238895" lon="15.7191067"><ele>467.0</ele><time>2026-04-06T14:05:03.188Z</time></trkpt><trkpt lat="38.2389033" lon="15.7189617"><ele>467.0</ele><time>2026-04-06T14:05:04.187Z</time></trkpt><trkpt lat="38.2389133" lon="15.718825"><ele>467.0</ele><time>2026-04-06T14:05:05.188Z</time></trkpt><trkpt lat="38.2389367" lon="15.7186883"><ele>467.0</ele><time>2026-04-06T14:05:06.187Z</time></trkpt><trkpt lat="38.238965" lon="15.718545"><ele>467.0</ele><time>2026-04-06T14:05:07.188Z</time></trkpt><trkpt lat="38.239005" lon="15.7184017"><ele>460.6</ele><time>2026-04-06T14:05:08.188Z</time></trkpt><trkpt lat="38.2390533" lon="15.7182667"><ele>454.20000000000005</ele><time>2026-04-06T14:05:09.187Z</time></trkpt><trkpt lat="38.23911" lon="15.7181517"><ele>447.8</ele><time>2026-04-06T14:05:10.188Z</time></trkpt><trkpt lat="38.2391717" lon="15.7180483"><ele>441.4</ele><time>2026-04-06T14:05:11.187Z</time></trkpt><trkpt lat="38.2392467" lon="15.71799"><ele>435.0</ele><time>2026-04-06T14:05:12.188Z</time></trkpt><trkpt lat="38.2393317" lon="15.7179333"><ele>435.0</ele><time>2026-04-06T14:05:13.188Z</time></trkpt><trkpt lat="38.2394367" lon="15.7178883"><ele>435.0</ele><time>2026-04-06T14:05:14.188Z</time></trkpt><trkpt lat="38.239545" lon="15.71787"><ele>435.0</ele><time>2026-04-06T14:05:15.188Z</time></trkpt><trkpt lat="38.2396617" lon="15.717875"><ele>435.0</ele><time>2026-04-06T14:05:16.187Z</time></trkpt><trkpt lat="38.2397667" lon="15.71787"><ele>435.0</ele><time>2026-04-06T14:05:17.188Z</time></trkpt><trkpt lat="38.2398683" lon="15.7178167"><ele>432.25</ele><time>2026-04-06T14:05:18.188Z</time></trkpt><trkpt lat="38.2399683" lon="15.7177417"><ele>429.5</ele><time>2026-04-06T14:05:19.188Z</time></trkpt><trkpt lat="38.240065" lon="15.7176483"><ele>426.75</ele><time>2026-04-06T14:05:20.188Z</time></trkpt><trkpt lat="38.240145" lon="15.7175433"><ele>424.0</ele><time>2026-04-06T14:05:21.188Z</time></trkpt><trkpt lat="38.24022" lon="15.7174483"><ele>424.0</ele><time>2026-04-06T14:05:22.188Z</time></trkpt><trkpt lat="38.2402867" lon="15.7173517"><ele>424.0</ele><time>2026-04-06T14:05:23.188Z</time></trkpt><trkpt lat="38.2403417" lon="15.7172433"><ele>424.0</ele><time>2026-04-06T14:05:24.187Z</time></trkpt><trkpt lat="38.2403917" lon="15.7171333"><ele>424.0</ele><time>2026-04-06T14:05:25.187Z</time></trkpt><trkpt lat="38.240425" lon="15.717015"><ele>424.0</ele><time>2026-04-06T14:05:26.188Z</time></trkpt><trkpt lat="38.2404433" lon="15.71689"><ele>420.0</ele><time>2026-04-06T14:05:27.188Z</time></trkpt><trkpt lat="38.24046" lon="15.716765"><ele>416.0</ele><time>2026-04-06T14:05:28.188Z</time></trkpt><trkpt lat="38.2404883" lon="15.7166367"><ele>412.0</ele><time>2026-04-06T14:05:29.187Z</time></trkpt><trkpt lat="38.2405333" lon="15.71652"><ele>408.0</ele><time>2026-04-06T14:05:30.188Z</time></trkpt><trkpt lat="38.2405933" lon="15.7164133"><ele>404.0</ele><time>2026-04-06T14:05:31.188Z</time></trkpt><trkpt lat="38.2406683" lon="15.716345"><ele>404.0</ele><time>2026-04-06T14:05:32.188Z</time></trkpt><trkpt lat="38.2407533" lon="15.7162917"><ele>404.0</ele><time>2026-04-06T14:05:33.188Z</time></trkpt><trkpt lat="38.240835" lon="15.7162283"><ele>404.0</ele><time>2026-04-06T14:05:34.187Z</time></trkpt><trkpt lat="38.2408917" lon="15.7161267"><ele>404.0</ele><time>2026-04-06T14:05:35.187Z</time></trkpt><trkpt lat="38.2409183" lon="15.7160117"><ele>404.0</ele><time>2026-04-06T14:05:36.187Z</time></trkpt><trkpt lat="38.2409233" lon="15.7158967"><ele>405.4</ele><time>2026-04-06T14:05:37.187Z</time></trkpt><trkpt lat="38.2409167" lon="15.71578"><ele>406.79999999999995</ele><time>2026-04-06T14:05:38.188Z</time></trkpt><trkpt lat="38.2408917" lon="15.7156633"><ele>408.20000000000005</ele><time>2026-04-06T14:05:39.188Z</time></trkpt><trkpt lat="38.2408633" lon="15.7155517"><ele>409.6</ele><time>2026-04-06T14:05:40.188Z</time></trkpt><trkpt lat="38.2408167" lon="15.7154433"><ele>411.0</ele><time>2026-04-06T14:05:41.188Z</time></trkpt><trkpt lat="38.2407583" lon="15.7153417"><ele>411.0</ele><time>2026-04-06T14:05:42.187Z</time></trkpt><trkpt lat="38.2406933" lon="15.71526"><ele>411.0</ele><time>2026-04-06T14:05:43.188Z</time></trkpt><trkpt lat="38.240615" lon="15.715175"><ele>411.0</ele><time>2026-04-06T14:05:44.188Z</time></trkpt><trkpt lat="38.2405333" lon="15.7151067"><ele>411.0</ele><time>2026-04-06T14:05:45.188Z</time></trkpt><trkpt lat="38.2404533" lon="15.7150617"><ele>411.0</ele><time>2026-04-06T14:05:46.187Z</time></trkpt><trkpt lat="38.240375" lon="15.715025"><ele>413.4</ele><time>2026-04-06T14:05:47.187Z</time></trkpt><trkpt lat="38.2403067" lon="15.7149833"><ele>415.8</ele><time>2026-04-06T14:05:48.188Z</time></trkpt><trkpt lat="38.2402783" lon="15.7148667"><ele>418.2</ele><time>2026-04-06T14:05:50.188Z</time></trkpt><trkpt lat="38.2403717" lon="15.7148"><ele>420.59999999999997</ele><time>2026-04-06T14:05:52.188Z</time></trkpt><trkpt lat="38.2404483" lon="15.714825"><ele>423.0</ele><time>2026-04-06T14:05:53.188Z</time></trkpt><trkpt lat="38.2405383" lon="15.714885"><ele>420.59999999999997</ele><time>2026-04-06T14:05:54.188Z</time></trkpt><trkpt lat="38.2406333" lon="15.7149683"><ele>418.2</ele><time>2026-04-06T14:05:55.188Z</time></trkpt><trkpt lat="38.2407117" lon="15.7150567"><ele>415.8</ele><time>2026-04-06T14:05:56.188Z</time></trkpt><trkpt lat="38.2407767" lon="15.7151533"><ele>413.4</ele><time>2026-04-06T14:05:57.188Z</time></trkpt><trkpt lat="38.2408383" lon="15.7152433"><ele>411.0</ele><time>2026-04-06T14:05:58.187Z</time></trkpt><trkpt lat="38.2409033" lon="15.71534"><ele>411.0</ele><time>2026-04-06T14:05:59.188Z</time></trkpt><trkpt lat="38.2409683" lon="15.7154383"><ele>411.0</ele><time>2026-04-06T14:06:00.187Z</time></trkpt><trkpt lat="38.24103" lon="15.7155383"><ele>411.0</ele><time>2026-04-06T14:06:01.188Z</time></trkpt><trkpt lat="38.241065" lon="15.7156517"><ele>411.0</ele><time>2026-04-06T14:06:02.188Z</time></trkpt><trkpt lat="38.2411217" lon="15.7157633"><ele>411.0</ele><time>2026-04-06T14:06:03.188Z</time></trkpt><trkpt lat="38.2411583" lon="15.7158783"><ele>411.0</ele><time>2026-04-06T14:06:04.188Z</time></trkpt><trkpt lat="38.2411867" lon="15.71599"><ele>411.0</ele><time>2026-04-06T14:06:05.188Z</time></trkpt><trkpt lat="38.2411933" lon="15.7161183"><ele>411.0</ele><time>2026-04-06T14:06:06.188Z</time></trkpt><trkpt lat="38.2411867" lon="15.71625"><ele>411.0</ele><time>2026-04-06T14:06:07.188Z</time></trkpt><trkpt lat="38.2411833" lon="15.716365"><ele>411.0</ele><time>2026-04-06T14:06:08.187Z</time></trkpt><trkpt lat="38.2411633" lon="15.71649"><ele>409.6</ele><time>2026-04-06T14:06:09.187Z</time></trkpt><trkpt lat="38.2411283" lon="15.716605"><ele>408.20000000000005</ele><time>2026-04-06T14:06:10.187Z</time></trkpt><trkpt lat="38.24107" lon="15.7167083"><ele>406.79999999999995</ele><time>2026-04-06T14:06:11.188Z</time></trkpt><trkpt lat="38.2410117" lon="15.7168183"><ele>405.4</ele><time>2026-04-06T14:06:12.188Z</time></trkpt><trkpt lat="38.2409517" lon="15.71693"><ele>404.0</ele><time>2026-04-06T14:06:13.188Z</time></trkpt><trkpt lat="38.2409033" lon="15.717045"><ele>400.4</ele><time>2026-04-06T14:06:14.187Z</time></trkpt><trkpt lat="38.240855" lon="15.7171667"><ele>396.79999999999995</ele><time>2026-04-06T14:06:15.188Z</time></trkpt><trkpt lat="38.2408083" lon="15.7172817"><ele>393.20000000000005</ele><time>2026-04-06T14:06:16.188Z</time></trkpt><trkpt lat="38.2407617" lon="15.7174033"><ele>389.6</ele><time>2026-04-06T14:06:17.187Z</time></trkpt><trkpt lat="38.240725" lon="15.7175217"><ele>386.0</ele><time>2026-04-06T14:06:18.187Z</time></trkpt><trkpt lat="38.2406883" lon="15.7176517"><ele>388.20000000000005</ele><time>2026-04-06T14:06:19.188Z</time></trkpt><trkpt lat="38.240655" lon="15.7177783"><ele>390.40000000000003</ele><time>2026-04-06T14:06:20.188Z</time></trkpt><trkpt lat="38.2406367" lon="15.7178983"><ele>392.6</ele><time>2026-04-06T14:06:21.187Z</time></trkpt><trkpt lat="38.2406183" lon="15.7180117"><ele>394.8</ele><time>2026-04-06T14:06:22.188Z</time></trkpt><trkpt lat="38.2405883" lon="15.7181067"><ele>397.0</ele><time>2026-04-06T14:06:23.187Z</time></trkpt><trkpt lat="38.2405367" lon="15.7181933"><ele>397.0</ele><time>2026-04-06T14:06:24.188Z</time></trkpt><trkpt lat="38.240465" lon="15.7182583"><ele>397.0</ele><time>2026-04-06T14:06:25.188Z</time></trkpt><trkpt lat="38.2403717" lon="15.718295"><ele>397.0</ele><time>2026-04-06T14:06:26.187Z</time></trkpt><trkpt lat="38.24027" lon="15.7183317"><ele>397.0</ele><time>2026-04-06T14:06:27.188Z</time></trkpt><trkpt lat="38.2401783" lon="15.7183767"><ele>397.0</ele><time>2026-04-06T14:06:28.188Z</time></trkpt><trkpt lat="38.240085" lon="15.7184433"><ele>397.00000000000006</ele><time>2026-04-06T14:06:29.188Z</time></trkpt><trkpt lat="38.240005" lon="15.7185083"><ele>397.0</ele><time>2026-04-06T14:06:30.188Z</time></trkpt><trkpt lat="38.2399417" lon="15.7185833"><ele>397.0</ele><time>2026-04-06T14:06:31.188Z</time></trkpt><trkpt lat="38.239875" lon="15.718675"><ele>397.0</ele><time>2026-04-06T14:06:32.188Z</time></trkpt><trkpt lat="38.2398217" lon="15.7187617"><ele>397.00000000000006</ele><time>2026-04-06T14:06:33.188Z</time></trkpt><trkpt lat="38.2398017" lon="15.7188417"><ele>397.0</ele><time>2026-04-06T14:06:34.187Z</time></trkpt><trkpt lat="38.2398" lon="15.7189333"><ele>396.8</ele><time>2026-04-06T14:06:35.187Z</time></trkpt><trkpt lat="38.2398383" lon="15.7190717"><ele>396.6</ele><time>2026-04-06T14:06:37.188Z</time></trkpt><trkpt lat="38.2399117" lon="15.7191217"><ele>396.40000000000003</ele><time>2026-04-06T14:06:38.187Z</time></trkpt><trkpt lat="38.239985" lon="15.71917"><ele>396.20000000000005</ele><time>2026-04-06T14:06:39.187Z</time></trkpt><trkpt lat="38.240085" lon="15.7192217"><ele>396.0</ele><time>2026-04-06T14:06:40.187Z</time></trkpt><trkpt lat="38.2402067" lon="15.7192867"><ele>396.0</ele><time>2026-04-06T14:06:41.188Z</time></trkpt><trkpt lat="38.2403217" lon="15.71937"><ele>396.0</ele><time>2026-04-06T14:06:42.187Z</time></trkpt><trkpt lat="38.2404517" lon="15.719445"><ele>396.0</ele><time>2026-04-06T14:06:43.188Z</time></trkpt><trkpt lat="38.2405833" lon="15.7195183"><ele>396.0</ele><time>2026-04-06T14:06:44.188Z</time></trkpt><trkpt lat="38.2406867" lon="15.7195967"><ele>392.5</ele><time>2026-04-06T14:06:45.188Z</time></trkpt><trkpt lat="38.2407817" lon="15.7196717"><ele>389.0</ele><time>2026-04-06T14:06:46.188Z</time></trkpt><trkpt lat="38.2408917" lon="15.7197467"><ele>385.5</ele><time>2026-04-06T14:06:47.187Z</time></trkpt><trkpt lat="38.2409983" lon="15.7198133"><ele>382.0</ele><time>2026-04-06T14:06:48.188Z</time></trkpt><trkpt lat="38.2411017" lon="15.7198967"><ele>382.0</ele><time>2026-04-06T14:06:49.188Z</time></trkpt><trkpt lat="38.2411917" lon="15.7199867"><ele>382.0</ele><time>2026-04-06T14:06:50.188Z</time></trkpt><trkpt lat="38.24127" lon="15.7200883"><ele>382.0</ele><time>2026-04-06T14:06:51.188Z</time></trkpt><trkpt lat="38.2413433" lon="15.7202067"><ele>382.0</ele><time>2026-04-06T14:06:52.188Z</time></trkpt><trkpt lat="38.2414017" lon="15.72033"><ele>379.6</ele><time>2026-04-06T14:06:53.188Z</time></trkpt><trkpt lat="38.2414633" lon="15.7204467"><ele>377.20000000000005</ele><time>2026-04-06T14:06:54.187Z</time></trkpt><trkpt lat="38.2415267" lon="15.7205617"><ele>374.8</ele><time>2026-04-06T14:06:55.187Z</time></trkpt><trkpt lat="38.2415983" lon="15.7206633"><ele>372.4</ele><time>2026-04-06T14:06:56.187Z</time></trkpt><trkpt lat="38.2416833" lon="15.720755"><ele>370.0</ele><time>2026-04-06T14:06:57.187Z</time></trkpt><trkpt lat="38.2417683" lon="15.72084"><ele>370.0</ele><time>2026-04-06T14:06:58.188Z</time></trkpt><trkpt lat="38.241835" lon="15.72093"><ele>370.0</ele><time>2026-04-06T14:06:59.187Z</time></trkpt><trkpt lat="38.24189" lon="15.7210267"><ele>370.0</ele><time>2026-04-06T14:07:00.188Z</time></trkpt><trkpt lat="38.241925" lon="15.7211417"><ele>370.0</ele><time>2026-04-06T14:07:01.187Z</time></trkpt><trkpt lat="38.2419533" lon="15.7212567"><ele>370.0</ele><time>2026-04-06T14:07:02.188Z</time></trkpt><trkpt lat="38.2419667" lon="15.7213767"><ele>374.2</ele><time>2026-04-06T14:07:03.188Z</time></trkpt><trkpt lat="38.241975" lon="15.7215017"><ele>378.4</ele><time>2026-04-06T14:07:04.188Z</time></trkpt><trkpt lat="38.2419733" lon="15.7216233"><ele>382.6</ele><time>2026-04-06T14:07:05.187Z</time></trkpt><trkpt lat="38.2419733" lon="15.7217433"><ele>386.8</ele><time>2026-04-06T14:07:06.187Z</time></trkpt><trkpt lat="38.2420033" lon="15.72186"><ele>391.0</ele><time>2026-04-06T14:07:07.188Z</time></trkpt><trkpt lat="38.242035" lon="15.7219733"><ele>393.00000000000006</ele><time>2026-04-06T14:07:08.188Z</time></trkpt><trkpt lat="38.2420717" lon="15.7220833"><ele>395.0</ele><time>2026-04-06T14:07:09.188Z</time></trkpt><trkpt lat="38.24211" lon="15.72219"><ele>397.0</ele><time>2026-04-06T14:07:10.188Z</time></trkpt><trkpt lat="38.2421383" lon="15.7222917"><ele>399.0</ele><time>2026-04-06T14:07:11.188Z</time></trkpt><trkpt lat="38.2421767" lon="15.7223967"><ele>401.00000000000006</ele><time>2026-04-06T14:07:12.188Z</time></trkpt><trkpt lat="38.2422217" lon="15.7224867"><ele>403.0</ele><time>2026-04-06T14:07:13.188Z</time></trkpt><trkpt lat="38.2422783" lon="15.7225817"><ele>394.50000000000006</ele><time>2026-04-06T14:07:14.188Z</time></trkpt><trkpt lat="38.2423233" lon="15.72268"><ele>386.0</ele><time>2026-04-06T14:07:15.188Z</time></trkpt><trkpt lat="38.2423583" lon="15.7227917"><ele>377.5</ele><time>2026-04-06T14:07:16.187Z</time></trkpt><trkpt lat="38.2423717" lon="15.7228983"><ele>369.0</ele><time>2026-04-06T14:07:17.188Z</time></trkpt><trkpt lat="38.2423767" lon="15.723005"><ele>360.5</ele><time>2026-04-06T14:07:18.187Z</time></trkpt><trkpt lat="38.24239" lon="15.7230983"><ele>352.0</ele><time>2026-04-06T14:07:19.187Z</time></trkpt><trkpt lat="38.24243" lon="15.723175"><ele>352.0</ele><time>2026-04-06T14:07:20.188Z</time></trkpt><trkpt lat="38.2424883" lon="15.72322"><ele>352.0</ele><time>2026-04-06T14:07:21.188Z</time></trkpt><trkpt lat="38.24256" lon="15.7232267"><ele>352.0</ele><time>2026-04-06T14:07:22.188Z</time></trkpt><trkpt lat="38.24262" lon="15.7231933"><ele>352.0</ele><time>2026-04-06T14:07:23.188Z</time></trkpt><trkpt lat="38.242665" lon="15.7231033"><ele>352.0</ele><time>2026-04-06T14:07:24.188Z</time></trkpt><trkpt lat="38.2426683" lon="15.72297"><ele>352.0</ele><time>2026-04-06T14:07:25.188Z</time></trkpt><trkpt lat="38.2426367" lon="15.7228417"><ele>352.0</ele><time>2026-04-06T14:07:26.188Z</time></trkpt><trkpt lat="38.2425967" lon="15.7227217"><ele>352.0</ele><time>2026-04-06T14:07:27.187Z</time></trkpt><trkpt lat="38.242545" lon="15.7226117"><ele>352.0</ele><time>2026-04-06T14:07:28.188Z</time></trkpt><trkpt lat="38.2424933" lon="15.7225067"><ele>352.0</ele><time>2026-04-06T14:07:29.188Z</time></trkpt><trkpt lat="38.2424433" lon="15.7224033"><ele>352.0</ele><time>2026-04-06T14:07:30.188Z</time></trkpt><trkpt lat="38.2423933" lon="15.7223017"><ele>352.0</ele><time>2026-04-06T14:07:31.187Z</time></trkpt><trkpt lat="38.2423433" lon="15.72221"><ele>352.0</ele><time>2026-04-06T14:07:32.187Z</time></trkpt><trkpt lat="38.2423017" lon="15.72211"><ele>352.0</ele><time>2026-04-06T14:07:33.188Z</time></trkpt><trkpt lat="38.2422683" lon="15.7220067"><ele>352.0</ele><time>2026-04-06T14:07:34.187Z</time></trkpt><trkpt lat="38.2422433" lon="15.721895"><ele>352.0</ele><time>2026-04-06T14:07:35.188Z</time></trkpt><trkpt lat="38.2422183" lon="15.7217867"><ele>352.0</ele><time>2026-04-06T14:07:36.188Z</time></trkpt><trkpt lat="38.2421917" lon="15.72168"><ele>355.0</ele><time>2026-04-06T14:07:37.187Z</time></trkpt><trkpt lat="38.2421617" lon="15.7215717"><ele>358.0</ele><time>2026-04-06T14:07:38.187Z</time></trkpt><trkpt lat="38.2421367" lon="15.7214717"><ele>361.0</ele><time>2026-04-06T14:07:39.188Z</time></trkpt><trkpt lat="38.2421267" lon="15.7213583"><ele>364.0</ele><time>2026-04-06T14:07:40.187Z</time></trkpt><trkpt lat="38.2421267" lon="15.7212417"><ele>367.0</ele><time>2026-04-06T14:07:41.188Z</time></trkpt><trkpt lat="38.2421283" lon="15.721135"><ele>370.0</ele><time>2026-04-06T14:07:42.188Z</time></trkpt><trkpt lat="38.2421267" lon="15.7210333"><ele>370.0</ele><time>2026-04-06T14:07:43.188Z</time></trkpt><trkpt lat="38.24212" lon="15.720935"><ele>370.0</ele><time>2026-04-06T14:07:44.188Z</time></trkpt><trkpt lat="38.2421017" lon="15.7208383"><ele>370.0</ele><time>2026-04-06T14:07:45.188Z</time></trkpt><trkpt lat="38.2420717" lon="15.720745"><ele>370.0</ele><time>2026-04-06T14:07:46.188Z</time></trkpt><trkpt lat="38.2420317" lon="15.7206567"><ele>370.0</ele><time>2026-04-06T14:07:47.188Z</time></trkpt><trkpt lat="38.2419867" lon="15.7205633"><ele>370.0</ele><time>2026-04-06T14:07:48.187Z</time></trkpt><trkpt lat="38.2419417" lon="15.720475"><ele>370.0</ele><time>2026-04-06T14:07:49.187Z</time></trkpt><trkpt lat="38.2419017" lon="15.7203817"><ele>370.0</ele><time>2026-04-06T14:07:50.188Z</time></trkpt><trkpt lat="38.241855" lon="15.7202833"><ele>370.0</ele><time>2026-04-06T14:07:51.187Z</time></trkpt><trkpt lat="38.2418017" lon="15.7201833"><ele>370.0</ele><time>2026-04-06T14:07:52.188Z</time></trkpt><trkpt lat="38.2417517" lon="15.72008"><ele>370.0</ele><time>2026-04-06T14:07:53.188Z</time></trkpt><trkpt lat="38.2416967" lon="15.7199767"><ele>372.4</ele><time>2026-04-06T14:07:54.187Z</time></trkpt><trkpt lat="38.24165" lon="15.7198767"><ele>374.8</ele><time>2026-04-06T14:07:55.188Z</time></trkpt><trkpt lat="38.2416" lon="15.719775"><ele>377.20000000000005</ele><time>2026-04-06T14:07:56.188Z</time></trkpt><trkpt lat="38.2415433" lon="15.7196833"><ele>379.6</ele><time>2026-04-06T14:07:57.188Z</time></trkpt><trkpt lat="38.24148" lon="15.7195933"><ele>382.0</ele><time>2026-04-06T14:07:58.188Z</time></trkpt><trkpt lat="38.241405" lon="15.719515"><ele>382.0</ele><time>2026-04-06T14:07:59.188Z</time></trkpt><trkpt lat="38.2413217" lon="15.7194567"><ele>382.0</ele><time>2026-04-06T14:08:00.188Z</time></trkpt><trkpt lat="38.2412383" lon="15.7194017"><ele>382.0</ele><time>2026-04-06T14:08:01.188Z</time></trkpt><trkpt lat="38.2411517" lon="15.7193617"><ele>382.0</ele><time>2026-04-06T14:08:02.188Z</time></trkpt><trkpt lat="38.2410633" lon="15.71933"><ele>382.0</ele><time>2026-04-06T14:08:03.187Z</time></trkpt><trkpt lat="38.2409867" lon="15.7193083"><ele>377.8333333333333</ele><time>2026-04-06T14:08:04.188Z</time></trkpt><trkpt lat="38.2409233" lon="15.7192667"><ele>373.66666666666663</ele><time>2026-04-06T14:08:05.187Z</time></trkpt><trkpt lat="38.240885" lon="15.7191867"><ele>369.5</ele><time>2026-04-06T14:08:06.188Z</time></trkpt><trkpt lat="38.2408783" lon="15.7190883"><ele>365.3333333333333</ele><time>2026-04-06T14:08:07.187Z</time></trkpt><trkpt lat="38.2408983" lon="15.7189417"><ele>361.1666666666667</ele><time>2026-04-06T14:08:09.188Z</time></trkpt><trkpt lat="38.2409617" lon="15.7188933"><ele>357.0</ele><time>2026-04-06T14:08:10.187Z</time></trkpt><trkpt lat="38.241045" lon="15.718855"><ele>357.0</ele><time>2026-04-06T14:08:11.188Z</time></trkpt><trkpt lat="38.2411483" lon="15.7188233"><ele>357.0</ele><time>2026-04-06T14:08:12.187Z</time></trkpt><trkpt lat="38.2412467" lon="15.7187833"><ele>357.0</ele><time>2026-04-06T14:08:13.188Z</time></trkpt><trkpt lat="38.24135" lon="15.7187517"><ele>357.0</ele><time>2026-04-06T14:08:14.188Z</time></trkpt><trkpt lat="38.2414467" lon="15.7187183"><ele>357.0</ele><time>2026-04-06T14:08:15.187Z</time></trkpt><trkpt lat="38.241545" lon="15.7187033"><ele>351.0</ele><time>2026-04-06T14:08:16.188Z</time></trkpt><trkpt lat="38.2416483" lon="15.7187067"><ele>345.0</ele><time>2026-04-06T14:08:17.187Z</time></trkpt><trkpt lat="38.24175" lon="15.71872"><ele>339.0</ele><time>2026-04-06T14:08:18.188Z</time></trkpt><trkpt lat="38.24184" lon="15.718745"><ele>333.0</ele><time>2026-04-06T14:08:19.188Z</time></trkpt><trkpt lat="38.2419367" lon="15.7187783"><ele>327.0</ele><time>2026-04-06T14:08:20.188Z</time></trkpt><trkpt lat="38.2420317" lon="15.7188233"><ele>327.0</ele><time>2026-04-06T14:08:21.188Z</time></trkpt><trkpt lat="38.2421283" lon="15.7188817"><ele>327.0</ele><time>2026-04-06T14:08:22.188Z</time></trkpt><trkpt lat="38.2422333" lon="15.7189467"><ele>327.0</ele><time>2026-04-06T14:08:23.187Z</time></trkpt><trkpt lat="38.2423367" lon="15.7190083"><ele>327.0</ele><time>2026-04-06T14:08:24.188Z</time></trkpt><trkpt lat="38.2424383" lon="15.7190683"><ele>324.0</ele><time>2026-04-06T14:08:25.188Z</time></trkpt><trkpt lat="38.2425433" lon="15.719115"><ele>321.0</ele><time>2026-04-06T14:08:26.188Z</time></trkpt><trkpt lat="38.2426433" lon="15.7191633"><ele>318.0</ele><time>2026-04-06T14:08:27.188Z</time></trkpt><trkpt lat="38.24275" lon="15.7191983"><ele>315.0</ele><time>2026-04-06T14:08:28.187Z</time></trkpt><trkpt lat="38.2428567" lon="15.7192117"><ele>312.0</ele><time>2026-04-06T14:08:29.188Z</time></trkpt><trkpt lat="38.2429583" lon="15.719195"><ele>312.0</ele><time>2026-04-06T14:08:30.188Z</time></trkpt><trkpt lat="38.2430617" lon="15.7191767"><ele>312.0</ele><time>2026-04-06T14:08:31.187Z</time></trkpt><trkpt lat="38.2431667" lon="15.7191567"><ele>312.0</ele><time>2026-04-06T14:08:32.187Z</time></trkpt><trkpt lat="38.24327" lon="15.719145"><ele>312.0</ele><time>2026-04-06T14:08:33.188Z</time></trkpt><trkpt lat="38.2433767" lon="15.719125"><ele>312.0</ele><time>2026-04-06T14:08:34.188Z</time></trkpt><trkpt lat="38.24348" lon="15.7191133"><ele>309.8</ele><time>2026-04-06T14:08:35.188Z</time></trkpt><trkpt lat="38.24358" lon="15.7190983"><ele>307.6</ele><time>2026-04-06T14:08:36.188Z</time></trkpt><trkpt lat="38.2436783" lon="15.7190733"><ele>305.40000000000003</ele><time>2026-04-06T14:08:37.188Z</time></trkpt><trkpt lat="38.2437717" lon="15.71904"><ele>303.2</ele><time>2026-04-06T14:08:38.188Z</time></trkpt><trkpt lat="38.243845" lon="15.7190017"><ele>301.0</ele><time>2026-04-06T14:08:39.188Z</time></trkpt><trkpt lat="38.2439083" lon="15.7189217"><ele>301.0</ele><time>2026-04-06T14:08:40.188Z</time></trkpt><trkpt lat="38.2439617" lon="15.7188233"><ele>301.0</ele><time>2026-04-06T14:08:41.188Z</time></trkpt><trkpt lat="38.2440067" lon="15.71872"><ele>301.0</ele><time>2026-04-06T14:08:42.188Z</time></trkpt><trkpt lat="38.2440483" lon="15.7186317"><ele>301.0</ele><time>2026-04-06T14:08:43.188Z</time></trkpt><trkpt lat="38.2440817" lon="15.7185617"><ele>301.0</ele><time>2026-04-06T14:08:44.188Z</time></trkpt><trkpt lat="38.244185" lon="15.7184783"><ele>299.8333333333333</ele><time>2026-04-06T14:08:46.188Z</time></trkpt><trkpt lat="38.244305" lon="15.7184817"><ele>298.66666666666663</ele><time>2026-04-06T14:08:48.187Z</time></trkpt><trkpt lat="38.2443733" lon="15.7185217"><ele>297.5</ele><time>2026-04-06T14:08:49.187Z</time></trkpt><trkpt lat="38.2444217" lon="15.7185917"><ele>296.3333333333333</ele><time>2026-04-06T14:08:50.188Z</time></trkpt><trkpt lat="38.2444467" lon="15.7187"><ele>295.1666666666667</ele><time>2026-04-06T14:08:51.187Z</time></trkpt><trkpt lat="38.2444367" lon="15.7188067"><ele>294.0</ele><time>2026-04-06T14:08:52.188Z</time></trkpt><trkpt lat="38.24439" lon="15.7188933"><ele>293.0</ele><time>2026-04-06T14:08:53.188Z</time></trkpt><trkpt lat="38.24431" lon="15.71895"><ele>292.0</ele><time>2026-04-06T14:08:54.188Z</time></trkpt><trkpt lat="38.2442183" lon="15.71899"><ele>291.0</ele><time>2026-04-06T14:08:55.187Z</time></trkpt><trkpt lat="38.2441267" lon="15.7190283"><ele>290.0</ele><time>2026-04-06T14:08:56.187Z</time></trkpt><trkpt lat="38.2440333" lon="15.7190767"><ele>289.0</ele><time>2026-04-06T14:08:57.187Z</time></trkpt><trkpt lat="38.2439433" lon="15.7191217"><ele>291.4</ele><time>2026-04-06T14:08:58.188Z</time></trkpt><trkpt lat="38.243855" lon="15.7191617"><ele>293.79999999999995</ele><time>2026-04-06T14:08:59.187Z</time></trkpt><trkpt lat="38.2437733" lon="15.719215"><ele>296.20000000000005</ele><time>2026-04-06T14:09:00.187Z</time></trkpt><trkpt lat="38.24369" lon="15.7192867"><ele>298.6</ele><time>2026-04-06T14:09:01.188Z</time></trkpt><trkpt lat="38.243605" lon="15.7193567"><ele>301.0</ele><time>2026-04-06T14:09:02.187Z</time></trkpt><trkpt lat="38.243515" lon="15.71942"><ele>299.40000000000003</ele><time>2026-04-06T14:09:03.188Z</time></trkpt><trkpt lat="38.2434233" lon="15.7194683"><ele>297.8</ele><time>2026-04-06T14:09:04.188Z</time></trkpt><trkpt lat="38.2433283" lon="15.7195117"><ele>296.20000000000005</ele><time>2026-04-06T14:09:05.187Z</time></trkpt><trkpt lat="38.2432283" lon="15.7195467"><ele>294.6</ele><time>2026-04-06T14:09:06.188Z</time></trkpt><trkpt lat="38.24313" lon="15.7195683"><ele>293.0</ele><time>2026-04-06T14:09:07.188Z</time></trkpt><trkpt lat="38.2430283" lon="15.719575"><ele>293.0</ele><time>2026-04-06T14:09:08.188Z</time></trkpt><trkpt lat="38.2429267" lon="15.7195817"><ele>293.0</ele><time>2026-04-06T14:09:09.188Z</time></trkpt><trkpt lat="38.242825" lon="15.71957"><ele>293.0</ele><time>2026-04-06T14:09:10.187Z</time></trkpt><trkpt lat="38.2427267" lon="15.7195467"><ele>293.0</ele><time>2026-04-06T14:09:11.188Z</time></trkpt><trkpt lat="38.2426317" lon="15.7195233"><ele>293.0</ele><time>2026-04-06T14:09:12.187Z</time></trkpt><trkpt lat="38.2425483" lon="15.719495"><ele>293.0</ele><time>2026-04-06T14:09:13.188Z</time></trkpt><trkpt lat="38.2424767" lon="15.7194917"><ele>293.0</ele><time>2026-04-06T14:09:14.188Z</time></trkpt><trkpt lat="38.242355" lon="15.71958"><ele>293.0</ele><time>2026-04-06T14:09:16.187Z</time></trkpt><trkpt lat="38.242315" lon="15.7196667"><ele>293.0</ele><time>2026-04-06T14:09:17.187Z</time></trkpt><trkpt lat="38.2423183" lon="15.71976"><ele>293.0</ele><time>2026-04-06T14:09:18.188Z</time></trkpt><trkpt lat="38.2423583" lon="15.719855"><ele>293.0</ele><time>2026-04-06T14:09:19.188Z</time></trkpt><trkpt lat="38.242425" lon="15.71995"><ele>293.0</ele><time>2026-04-06T14:09:20.187Z</time></trkpt><trkpt lat="38.2425083" lon="15.720055"><ele>293.0</ele><time>2026-04-06T14:09:21.187Z</time></trkpt><trkpt lat="38.2425883" lon="15.72016"><ele>293.0</ele><time>2026-04-06T14:09:22.188Z</time></trkpt><trkpt lat="38.2426767" lon="15.72026"><ele>293.0</ele><time>2026-04-06T14:09:23.188Z</time></trkpt><trkpt lat="38.24277" lon="15.7203417"><ele>298.0</ele><time>2026-04-06T14:09:24.187Z</time></trkpt><trkpt lat="38.2428633" lon="15.720415"><ele>303.0</ele><time>2026-04-06T14:09:25.188Z</time></trkpt><trkpt lat="38.24296" lon="15.7204917"><ele>308.0</ele><time>2026-04-06T14:09:26.188Z</time></trkpt><trkpt lat="38.243045" lon="15.720575"><ele>313.0</ele><time>2026-04-06T14:09:27.188Z</time></trkpt><trkpt lat="38.24312" lon="15.720665"><ele>318.0</ele><time>2026-04-06T14:09:28.188Z</time></trkpt><trkpt lat="38.24319" lon="15.7207733"><ele>311.75</ele><time>2026-04-06T14:09:29.187Z</time></trkpt><trkpt lat="38.2432483" lon="15.7209033"><ele>305.5</ele><time>2026-04-06T14:09:30.188Z</time></trkpt><trkpt lat="38.243305" lon="15.72103"><ele>299.25</ele><time>2026-04-06T14:09:31.187Z</time></trkpt><trkpt lat="38.2433817" lon="15.7211517"><ele>293.0</ele><time>2026-04-06T14:09:32.187Z</time></trkpt><trkpt lat="38.2434583" lon="15.7212617"><ele>293.0</ele><time>2026-04-06T14:09:33.187Z</time></trkpt><trkpt lat="38.2435367" lon="15.7213583"><ele>293.0</ele><time>2026-04-06T14:09:34.188Z</time></trkpt><trkpt lat="38.2436283" lon="15.7214583"><ele>293.0</ele><time>2026-04-06T14:09:35.188Z</time></trkpt><trkpt lat="38.2437317" lon="15.72155"><ele>293.0</ele><time>2026-04-06T14:09:36.188Z</time></trkpt><trkpt lat="38.243835" lon="15.7216433"><ele>293.0</ele><time>2026-04-06T14:09:37.187Z</time></trkpt><trkpt lat="38.243935" lon="15.7217517"><ele>293.0</ele><time>2026-04-06T14:09:38.188Z</time></trkpt><trkpt lat="38.24403" lon="15.7218667"><ele>293.0</ele><time>2026-04-06T14:09:39.188Z</time></trkpt><trkpt lat="38.244125" lon="15.7219767"><ele>293.0</ele><time>2026-04-06T14:09:40.188Z</time></trkpt><trkpt lat="38.2442233" lon="15.7220817"><ele>288.25</ele><time>2026-04-06T14:09:41.187Z</time></trkpt><trkpt lat="38.244315" lon="15.7221817"><ele>283.5</ele><time>2026-04-06T14:09:42.188Z</time></trkpt><trkpt lat="38.2444033" lon="15.72228"><ele>278.75</ele><time>2026-04-06T14:09:43.188Z</time></trkpt><trkpt lat="38.2444833" lon="15.72238"><ele>274.0</ele><time>2026-04-06T14:09:44.188Z</time></trkpt><trkpt lat="38.2445667" lon="15.7224767"><ele>274.0</ele><time>2026-04-06T14:09:45.188Z</time></trkpt><trkpt lat="38.24465" lon="15.7225717"><ele>274.0</ele><time>2026-04-06T14:09:46.187Z</time></trkpt><trkpt lat="38.2447183" lon="15.722675"><ele>274.0</ele><time>2026-04-06T14:09:47.188Z</time></trkpt><trkpt lat="38.244775" lon="15.7227833"><ele>274.0</ele><time>2026-04-06T14:09:48.188Z</time></trkpt><trkpt lat="38.24481" lon="15.7229033"><ele>274.0</ele><time>2026-04-06T14:09:49.187Z</time></trkpt><trkpt lat="38.2448333" lon="15.723015"><ele>268.3333333333333</ele><time>2026-04-06T14:09:50.188Z</time></trkpt><trkpt lat="38.244865" lon="15.7231167"><ele>262.66666666666663</ele><time>2026-04-06T14:09:51.188Z</time></trkpt><trkpt lat="38.2448983" lon="15.7231933"><ele>257.0</ele><time>2026-04-06T14:09:52.187Z</time></trkpt><trkpt lat="38.2449617" lon="15.7232533"><ele>251.33333333333331</ele><time>2026-04-06T14:09:53.188Z</time></trkpt><trkpt lat="38.2450333" lon="15.7232817"><ele>245.66666666666666</ele><time>2026-04-06T14:09:54.188Z</time></trkpt><trkpt lat="38.24511" lon="15.7232783"><ele>240.0</ele><time>2026-04-06T14:09:55.188Z</time></trkpt><trkpt lat="38.2451767" lon="15.72324"><ele>240.0</ele><time>2026-04-06T14:09:56.187Z</time></trkpt><trkpt lat="38.24523" lon="15.7231667"><ele>240.0</ele><time>2026-04-06T14:09:57.188Z</time></trkpt><trkpt lat="38.245265" lon="15.7230733"><ele>240.0</ele><time>2026-04-06T14:09:58.187Z</time></trkpt><trkpt lat="38.24527" lon="15.722965"><ele>240.0</ele><time>2026-04-06T14:09:59.188Z</time></trkpt><trkpt lat="38.2452267" lon="15.722855"><ele>240.0</ele><time>2026-04-06T14:10:00.187Z</time></trkpt><trkpt lat="38.245155" lon="15.722745"><ele>239.25</ele><time>2026-04-06T14:10:01.187Z</time></trkpt><trkpt lat="38.24507" lon="15.7226433"><ele>238.5</ele><time>2026-04-06T14:10:02.187Z</time></trkpt><trkpt lat="38.244985" lon="15.72254"><ele>237.75</ele><time>2026-04-06T14:10:03.188Z</time></trkpt><trkpt lat="38.2449" lon="15.722435"><ele>237.0</ele><time>2026-04-06T14:10:04.188Z</time></trkpt><trkpt lat="38.2448117" lon="15.72233"><ele>240.0</ele><time>2026-04-06T14:10:05.188Z</time></trkpt><trkpt lat="38.2447333" lon="15.7222217"><ele>243.0</ele><time>2026-04-06T14:10:06.188Z</time></trkpt><trkpt lat="38.244655" lon="15.7221017"><ele>246.0</ele><time>2026-04-06T14:10:07.188Z</time></trkpt><trkpt lat="38.2445867" lon="15.7219683"><ele>249.0</ele><time>2026-04-06T14:10:08.188Z</time></trkpt><trkpt lat="38.2445233" lon="15.7218383"><ele>249.0</ele><time>2026-04-06T14:10:09.188Z</time></trkpt><trkpt lat="38.2444583" lon="15.7217083"><ele>249.0</ele><time>2026-04-06T14:10:10.187Z</time></trkpt><trkpt lat="38.2443967" lon="15.721575"><ele>249.0</ele><time>2026-04-06T14:10:11.187Z</time></trkpt><trkpt lat="38.244335" lon="15.72145"><ele>249.0</ele><time>2026-04-06T14:10:12.187Z</time></trkpt><trkpt lat="38.2442767" lon="15.7213267"><ele>249.0</ele><time>2026-04-06T14:10:13.188Z</time></trkpt><trkpt lat="38.2442183" lon="15.7212067"><ele>248.99999999999997</ele><time>2026-04-06T14:10:14.188Z</time></trkpt><trkpt lat="38.244155" lon="15.7210867"><ele>248.99999999999997</ele><time>2026-04-06T14:10:15.188Z</time></trkpt><trkpt lat="38.24408" lon="15.7209833"><ele>249.0</ele><time>2026-04-06T14:10:16.188Z</time></trkpt><trkpt lat="38.243995" lon="15.7209"><ele>249.0</ele><time>2026-04-06T14:10:17.187Z</time></trkpt><trkpt lat="38.2439083" lon="15.7208383"><ele>252.79999999999998</ele><time>2026-04-06T14:10:18.188Z</time></trkpt><trkpt lat="38.2438317" lon="15.7207817"><ele>256.59999999999997</ele><time>2026-04-06T14:10:19.188Z</time></trkpt><trkpt lat="38.2437733" lon="15.720725"><ele>260.4</ele><time>2026-04-06T14:10:20.188Z</time></trkpt><trkpt lat="38.243705" lon="15.7206283"><ele>264.2</ele><time>2026-04-06T14:10:22.188Z</time></trkpt><trkpt lat="38.24373" lon="15.7205233"><ele>268.0</ele><time>2026-04-06T14:10:24.187Z</time></trkpt><trkpt lat="38.2438317" lon="15.72048"><ele>268.0</ele><time>2026-04-06T14:10:26.187Z</time></trkpt><trkpt lat="38.243905" lon="15.7204933"><ele>268.0</ele><time>2026-04-06T14:10:27.188Z</time></trkpt><trkpt lat="38.2439917" lon="15.720505"><ele>268.0</ele><time>2026-04-06T14:10:28.187Z</time></trkpt><trkpt lat="38.244075" lon="15.720505"><ele>268.0</ele><time>2026-04-06T14:10:29.187Z</time></trkpt><trkpt lat="38.2441633" lon="15.7205017"><ele>268.0</ele><time>2026-04-06T14:10:30.187Z</time></trkpt><trkpt lat="38.2442483" lon="15.72051"><ele>268.0</ele><time>2026-04-06T14:10:31.188Z</time></trkpt><trkpt lat="38.2443283" lon="15.7205217"><ele>262.3333333333333</ele><time>2026-04-06T14:10:32.187Z</time></trkpt><trkpt lat="38.2444017" lon="15.720555"><ele>256.66666666666663</ele><time>2026-04-06T14:10:33.188Z</time></trkpt><trkpt lat="38.2444717" lon="15.720605"><ele>251.0</ele><time>2026-04-06T14:10:34.188Z</time></trkpt><trkpt lat="38.244535" lon="15.7206667"><ele>245.33333333333331</ele><time>2026-04-06T14:10:35.187Z</time></trkpt><trkpt lat="38.2445983" lon="15.72072"><ele>239.66666666666666</ele><time>2026-04-06T14:10:36.188Z</time></trkpt><trkpt lat="38.2446683" lon="15.7207617"><ele>234.0</ele><time>2026-04-06T14:10:37.188Z</time></trkpt><trkpt lat="38.2447417" lon="15.72079"><ele>231.0</ele><time>2026-04-06T14:10:38.187Z</time></trkpt><trkpt lat="38.2448183" lon="15.7208017"><ele>228.0</ele><time>2026-04-06T14:10:39.187Z</time></trkpt><trkpt lat="38.244895" lon="15.7208117"><ele>225.0</ele><time>2026-04-06T14:10:40.188Z</time></trkpt><trkpt lat="38.2449733" lon="15.7208133"><ele>222.0</ele><time>2026-04-06T14:10:41.187Z</time></trkpt><trkpt lat="38.2450567" lon="15.7208183"><ele>219.0</ele><time>2026-04-06T14:10:42.188Z</time></trkpt><trkpt lat="38.2451433" lon="15.7208133"><ele>216.0</ele><time>2026-04-06T14:10:43.187Z</time></trkpt><trkpt lat="38.2452367" lon="15.720805"><ele>216.0</ele><time>2026-04-06T14:10:44.188Z</time></trkpt><trkpt lat="38.245325" lon="15.7207833"><ele>216.00000000000003</ele><time>2026-04-06T14:10:45.187Z</time></trkpt><trkpt lat="38.24542" lon="15.7207483"><ele>216.00000000000003</ele><time>2026-04-06T14:10:46.187Z</time></trkpt><trkpt lat="38.2455133" lon="15.7207033"><ele>216.0</ele><time>2026-04-06T14:10:47.188Z</time></trkpt><trkpt lat="38.245605" lon="15.7206383"><ele>216.0</ele><time>2026-04-06T14:10:48.187Z</time></trkpt><trkpt lat="38.245685" lon="15.72055"><ele>217.4</ele><time>2026-04-06T14:10:49.187Z</time></trkpt><trkpt lat="38.245755" lon="15.7204467"><ele>218.8</ele><time>2026-04-06T14:10:50.187Z</time></trkpt><trkpt lat="38.24583" lon="15.7203367"><ele>220.20000000000002</ele><time>2026-04-06T14:10:51.188Z</time></trkpt><trkpt lat="38.2459067" lon="15.7202267"><ele>221.60000000000002</ele><time>2026-04-06T14:10:52.187Z</time></trkpt><trkpt lat="38.2459883" lon="15.72013"><ele>223.0</ele><time>2026-04-06T14:10:53.188Z</time></trkpt><trkpt lat="38.246075" lon="15.7200467"><ele>223.0</ele><time>2026-04-06T14:10:54.188Z</time></trkpt><trkpt lat="38.246165" lon="15.7199533"><ele>223.0</ele><time>2026-04-06T14:10:55.188Z</time></trkpt><trkpt lat="38.2462633" lon="15.71986"><ele>223.0</ele><time>2026-04-06T14:10:56.188Z</time></trkpt><trkpt lat="38.2463617" lon="15.7197683"><ele>223.0</ele><time>2026-04-06T14:10:57.188Z</time></trkpt><trkpt lat="38.246455" lon="15.71967"><ele>220.25</ele><time>2026-04-06T14:10:58.187Z</time></trkpt><trkpt lat="38.2465467" lon="15.7195717"><ele>217.5</ele><time>2026-04-06T14:10:59.187Z</time></trkpt><trkpt lat="38.2466467" lon="15.719485"><ele>214.75</ele><time>2026-04-06T14:11:00.188Z</time></trkpt><trkpt lat="38.2467433" lon="15.7194017"><ele>212.0</ele><time>2026-04-06T14:11:01.188Z</time></trkpt><trkpt lat="38.2468533" lon="15.7193167"><ele>212.0</ele><time>2026-04-06T14:11:02.187Z</time></trkpt><trkpt lat="38.2469583" lon="15.7192367"><ele>212.0</ele><time>2026-04-06T14:11:03.188Z</time></trkpt><trkpt lat="38.2470633" lon="15.7191483"><ele>212.0</ele><time>2026-04-06T14:11:04.187Z</time></trkpt><trkpt lat="38.2471667" lon="15.71906"><ele>212.0</ele><time>2026-04-06T14:11:05.188Z</time></trkpt><trkpt lat="38.2472617" lon="15.7189767"><ele>209.8</ele><time>2026-04-06T14:11:06.188Z</time></trkpt><trkpt lat="38.2473583" lon="15.718895"><ele>207.6</ele><time>2026-04-06T14:11:07.187Z</time></trkpt><trkpt lat="38.2474483" lon="15.7188117"><ele>205.4</ele><time>2026-04-06T14:11:08.188Z</time></trkpt><trkpt lat="38.2475217" lon="15.7187083"><ele>203.20000000000002</ele><time>2026-04-06T14:11:09.188Z</time></trkpt><trkpt lat="38.2475817" lon="15.7185983"><ele>201.0</ele><time>2026-04-06T14:11:10.188Z</time></trkpt><trkpt lat="38.2476267" lon="15.7184633"><ele>201.0</ele><time>2026-04-06T14:11:11.188Z</time></trkpt><trkpt lat="38.2476567" lon="15.7183233"><ele>201.0</ele><time>2026-04-06T14:11:12.187Z</time></trkpt><trkpt lat="38.2476783" lon="15.7181883"><ele>201.0</ele><time>2026-04-06T14:11:13.188Z</time></trkpt><trkpt lat="38.2477083" lon="15.7180533"><ele>201.0</ele><time>2026-04-06T14:11:14.187Z</time></trkpt><trkpt lat="38.2477567" lon="15.7179333"><ele>201.0</ele><time>2026-04-06T14:11:15.188Z</time></trkpt><trkpt lat="38.2478217" lon="15.7178333"><ele>201.0</ele><time>2026-04-06T14:11:16.187Z</time></trkpt><trkpt lat="38.2479" lon="15.7177517"><ele>201.0</ele><time>2026-04-06T14:11:17.187Z</time></trkpt><trkpt lat="38.2479767" lon="15.7176567"><ele>201.0</ele><time>2026-04-06T14:11:18.188Z</time></trkpt><trkpt lat="38.2480417" lon="15.7175533"><ele>201.0</ele><time>2026-04-06T14:11:19.188Z</time></trkpt><trkpt lat="38.24809" lon="15.7174417"><ele>201.0</ele><time>2026-04-06T14:11:20.187Z</time></trkpt><trkpt lat="38.2481283" lon="15.7173133"><ele>201.8</ele><time>2026-04-06T14:11:21.188Z</time></trkpt><trkpt lat="38.24815" lon="15.7171817"><ele>202.60000000000002</ele><time>2026-04-06T14:11:22.188Z</time></trkpt><trkpt lat="38.2481433" lon="15.717065"><ele>203.4</ele><time>2026-04-06T14:11:23.188Z</time></trkpt><trkpt lat="38.24811" lon="15.7169567"><ele>204.2</ele><time>2026-04-06T14:11:24.187Z</time></trkpt><trkpt lat="38.2480567" lon="15.7168633"><ele>205.0</ele><time>2026-04-06T14:11:25.188Z</time></trkpt><trkpt lat="38.2479833" lon="15.716795"><ele>201.2</ele><time>2026-04-06T14:11:26.187Z</time></trkpt><trkpt lat="38.2478933" lon="15.716735"><ele>197.4</ele><time>2026-04-06T14:11:27.188Z</time></trkpt><trkpt lat="38.247805" lon="15.7166717"><ele>193.60000000000002</ele><time>2026-04-06T14:11:28.187Z</time></trkpt><trkpt lat="38.247715" lon="15.7166133"><ele>189.8</ele><time>2026-04-06T14:11:29.188Z</time></trkpt><trkpt lat="38.2476217" lon="15.71657"><ele>186.0</ele><time>2026-04-06T14:11:30.188Z</time></trkpt><trkpt lat="38.2475233" lon="15.7165383"><ele>186.0</ele><time>2026-04-06T14:11:31.188Z</time></trkpt><trkpt lat="38.2474217" lon="15.71651"><ele>186.0</ele><time>2026-04-06T14:11:32.187Z</time></trkpt><trkpt lat="38.247315" lon="15.7164883"><ele>186.0</ele><time>2026-04-06T14:11:33.187Z</time></trkpt><trkpt lat="38.24722" lon="15.7164883"><ele>186.0</ele><time>2026-04-06T14:11:34.188Z</time></trkpt><trkpt lat="38.2471233" lon="15.7165033"><ele>186.0</ele><time>2026-04-06T14:11:35.188Z</time></trkpt><trkpt lat="38.24703" lon="15.7165217"><ele>185.0</ele><time>2026-04-06T14:11:36.188Z</time></trkpt><trkpt lat="38.2469367" lon="15.7165733"><ele>184.0</ele><time>2026-04-06T14:11:37.188Z</time></trkpt><trkpt lat="38.24685" lon="15.716625"><ele>183.0</ele><time>2026-04-06T14:11:38.188Z</time></trkpt><trkpt lat="38.24676" lon="15.71668"><ele>182.0</ele><time>2026-04-06T14:11:39.188Z</time></trkpt><trkpt lat="38.2466683" lon="15.71674"><ele>181.0</ele><time>2026-04-06T14:11:40.188Z</time></trkpt><trkpt lat="38.2465883" lon="15.71679"><ele>181.0</ele><time>2026-04-06T14:11:41.188Z</time></trkpt><trkpt lat="38.2465033" lon="15.7168117"><ele>181.0</ele><time>2026-04-06T14:11:42.188Z</time></trkpt><trkpt lat="38.2464267" lon="15.7168033"><ele>181.0</ele><time>2026-04-06T14:11:43.187Z</time></trkpt><trkpt lat="38.24634" lon="15.7167"><ele>181.0</ele><time>2026-04-06T14:11:45.187Z</time></trkpt><trkpt lat="38.246395" lon="15.7165467"><ele>181.0</ele><time>2026-04-06T14:11:47.187Z</time></trkpt><trkpt lat="38.2464783" lon="15.71651"><ele>181.0</ele><time>2026-04-06T14:11:48.188Z</time></trkpt><trkpt lat="38.24661" lon="15.7165117"><ele>181.0</ele><time>2026-04-06T14:11:49.187Z</time></trkpt><trkpt lat="38.2467333" lon="15.7165067"><ele>181.0</ele><time>2026-04-06T14:11:50.188Z</time></trkpt><trkpt lat="38.2468433" lon="15.71647"><ele>181.0</ele><time>2026-04-06T14:11:51.188Z</time></trkpt><trkpt lat="38.2469267" lon="15.7164033"><ele>181.0</ele><time>2026-04-06T14:11:52.188Z</time></trkpt><trkpt lat="38.2469867" lon="15.71632"><ele>181.0</ele><time>2026-04-06T14:11:53.188Z</time></trkpt><trkpt lat="38.247055" lon="15.71626"><ele>181.0</ele><time>2026-04-06T14:11:54.187Z</time></trkpt><trkpt lat="38.2471317" lon="15.7162267"><ele>181.0</ele><time>2026-04-06T14:11:55.188Z</time></trkpt><trkpt lat="38.2472283" lon="15.7162333"><ele>181.0</ele><time>2026-04-06T14:11:56.188Z</time></trkpt><trkpt lat="38.2473267" lon="15.7162633"><ele>182.0</ele><time>2026-04-06T14:11:57.188Z</time></trkpt><trkpt lat="38.2474283" lon="15.71629"><ele>183.0</ele><time>2026-04-06T14:11:58.188Z</time></trkpt><trkpt lat="38.2475367" lon="15.7163133"><ele>184.0</ele><time>2026-04-06T14:11:59.188Z</time></trkpt><trkpt lat="38.2476433" lon="15.7163233"><ele>185.0</ele><time>2026-04-06T14:12:00.188Z</time></trkpt><trkpt lat="38.2477483" lon="15.71633"><ele>186.0</ele><time>2026-04-06T14:12:01.188Z</time></trkpt><trkpt lat="38.2478483" lon="15.7163317"><ele>186.0</ele><time>2026-04-06T14:12:02.188Z</time></trkpt><trkpt lat="38.2479483" lon="15.7163417"><ele>186.0</ele><time>2026-04-06T14:12:03.188Z</time></trkpt><trkpt lat="38.248045" lon="15.71637"><ele>186.0</ele><time>2026-04-06T14:12:04.188Z</time></trkpt><trkpt lat="38.2481333" lon="15.7164117"><ele>186.0</ele><time>2026-04-06T14:12:05.188Z</time></trkpt><trkpt lat="38.2482183" lon="15.716475"><ele>186.0</ele><time>2026-04-06T14:12:06.187Z</time></trkpt><trkpt lat="38.2482933" lon="15.7165483"><ele>181.0</ele><time>2026-04-06T14:12:07.187Z</time></trkpt><trkpt lat="38.2483517" lon="15.716635"><ele>176.0</ele><time>2026-04-06T14:12:08.187Z</time></trkpt><trkpt lat="38.2483967" lon="15.7167333"><ele>171.0</ele><time>2026-04-06T14:12:09.188Z</time></trkpt><trkpt lat="38.2484267" lon="15.716845"><ele>166.0</ele><time>2026-04-06T14:12:10.188Z</time></trkpt><trkpt lat="38.2484417" lon="15.7169633"><ele>161.0</ele><time>2026-04-06T14:12:11.188Z</time></trkpt><trkpt lat="38.2484467" lon="15.7170967"><ele>161.0</ele><time>2026-04-06T14:12:12.188Z</time></trkpt><trkpt lat="38.2484533" lon="15.7172317"><ele>161.0</ele><time>2026-04-06T14:12:13.188Z</time></trkpt><trkpt lat="38.2484533" lon="15.7173667"><ele>161.0</ele><time>2026-04-06T14:12:14.188Z</time></trkpt><trkpt lat="38.248455" lon="15.7175067"><ele>161.0</ele><time>2026-04-06T14:12:15.188Z</time></trkpt><trkpt lat="38.2484567" lon="15.7176467"><ele>161.0</ele><time>2026-04-06T14:12:16.188Z</time></trkpt><trkpt lat="38.2484617" lon="15.7177933"><ele>159.60000000000002</ele><time>2026-04-06T14:12:17.188Z</time></trkpt><trkpt lat="38.24846" lon="15.7179367"><ele>158.20000000000002</ele><time>2026-04-06T14:12:18.187Z</time></trkpt><trkpt lat="38.2484583" lon="15.7180767"><ele>156.8</ele><time>2026-04-06T14:12:19.187Z</time></trkpt><trkpt lat="38.2484633" lon="15.7182117"><ele>155.4</ele><time>2026-04-06T14:12:20.188Z</time></trkpt><trkpt lat="38.24845" lon="15.7183317"><ele>154.0</ele><time>2026-04-06T14:12:21.187Z</time></trkpt><trkpt lat="38.2484383" lon="15.71847"><ele>153.2</ele><time>2026-04-06T14:12:22.188Z</time></trkpt><trkpt lat="38.2484217" lon="15.718605"><ele>152.4</ele><time>2026-04-06T14:12:23.188Z</time></trkpt><trkpt lat="38.2483967" lon="15.718735"><ele>151.6</ele><time>2026-04-06T14:12:24.188Z</time></trkpt><trkpt lat="38.2483567" lon="15.7188683"><ele>150.8</ele><time>2026-04-06T14:12:25.187Z</time></trkpt><trkpt lat="38.2483183" lon="15.7189983"><ele>150.0</ele><time>2026-04-06T14:12:26.188Z</time></trkpt><trkpt lat="38.2482633" lon="15.71911"><ele>150.0</ele><time>2026-04-06T14:12:27.188Z</time></trkpt><trkpt lat="38.24821" lon="15.7192283"><ele>150.0</ele><time>2026-04-06T14:12:28.187Z</time></trkpt><trkpt lat="38.2481783" lon="15.7193417"><ele>150.0</ele><time>2026-04-06T14:12:29.188Z</time></trkpt><trkpt lat="38.248155" lon="15.71945"><ele>150.0</ele><time>2026-04-06T14:12:30.188Z</time></trkpt><trkpt lat="38.2481633" lon="15.71955"><ele>150.0</ele><time>2026-04-06T14:12:31.187Z</time></trkpt><trkpt lat="38.2482017" lon="15.7196517"><ele>149.5</ele><time>2026-04-06T14:12:32.188Z</time></trkpt><trkpt lat="38.24825" lon="15.7197333"><ele>149.0</ele><time>2026-04-06T14:12:33.188Z</time></trkpt><trkpt lat="38.2483017" lon="15.7197967"><ele>148.5</ele><time>2026-04-06T14:12:34.188Z</time></trkpt><trkpt lat="38.248355" lon="15.7198667"><ele>148.0</ele><time>2026-04-06T14:12:35.188Z</time></trkpt><trkpt lat="38.2484083" lon="15.7199267"><ele>147.5</ele><time>2026-04-06T14:12:36.187Z</time></trkpt><trkpt lat="38.2484667" lon="15.71998"><ele>147.0</ele><time>2026-04-06T14:12:37.188Z</time></trkpt><trkpt lat="38.2485833" lon="15.7199717"><ele>147.0</ele><time>2026-04-06T14:12:38.187Z</time></trkpt><trkpt lat="38.2487417" lon="15.7199267"><ele>147.0</ele><time>2026-04-06T14:12:39.187Z</time></trkpt><trkpt lat="38.2488733" lon="15.7198817"><ele>147.0</ele><time>2026-04-06T14:12:40.188Z</time></trkpt><trkpt lat="38.24898" lon="15.7198067"><ele>147.0</ele><time>2026-04-06T14:12:41.187Z</time></trkpt><trkpt lat="38.2490767" lon="15.7197417"><ele>145.0</ele><time>2026-04-06T14:12:42.188Z</time></trkpt><trkpt lat="38.2491683" lon="15.71963"><ele>143.0</ele><time>2026-04-06T14:12:43.188Z</time></trkpt><trkpt lat="38.2492567" lon="15.7195467"><ele>141.0</ele><time>2026-04-06T14:12:44.188Z</time></trkpt><trkpt lat="38.2493383" lon="15.719475"><ele>139.0</ele><time>2026-04-06T14:12:45.188Z</time></trkpt><trkpt lat="38.2494083" lon="15.7194283"><ele>137.0</ele><time>2026-04-06T14:12:46.188Z</time></trkpt><trkpt lat="38.2494783" lon="15.71939"><ele>137.0</ele><time>2026-04-06T14:12:47.188Z</time></trkpt><trkpt lat="38.2495383" lon="15.7193533"><ele>137.0</ele><time>2026-04-06T14:12:48.187Z</time></trkpt><trkpt lat="38.24966" lon="15.719365"><ele>137.0</ele><time>2026-04-06T14:12:50.187Z</time></trkpt><trkpt lat="38.2497233" lon="15.719425"><ele>137.0</ele><time>2026-04-06T14:12:51.188Z</time></trkpt><trkpt lat="38.24977" lon="15.7195117"><ele>137.0</ele><time>2026-04-06T14:12:52.187Z</time></trkpt><trkpt lat="38.2498217" lon="15.7195983"><ele>137.0</ele><time>2026-04-06T14:12:53.187Z</time></trkpt><trkpt lat="38.2498683" lon="15.7196933"><ele>135.16666666666666</ele><time>2026-04-06T14:12:54.187Z</time></trkpt><trkpt lat="38.2499083" lon="15.7197883"><ele>133.33333333333331</ele><time>2026-04-06T14:12:55.188Z</time></trkpt><trkpt lat="38.2499583" lon="15.7198783"><ele>131.5</ele><time>2026-04-06T14:12:56.188Z</time></trkpt><trkpt lat="38.2500217" lon="15.7199517"><ele>129.66666666666666</ele><time>2026-04-06T14:12:57.187Z</time></trkpt><trkpt lat="38.2500933" lon="15.719995"><ele>127.83333333333333</ele><time>2026-04-06T14:12:58.187Z</time></trkpt><trkpt lat="38.250155" lon="15.7200217"><ele>126.0</ele><time>2026-04-06T14:12:59.188Z</time></trkpt><trkpt lat="38.2502717" lon="15.7200233"><ele>126.0</ele><time>2026-04-06T14:13:01.187Z</time></trkpt><trkpt lat="38.2503367" lon="15.72002"><ele>126.0</ele><time>2026-04-06T14:13:02.188Z</time></trkpt><trkpt lat="38.2504" lon="15.720025"><ele>126.0</ele><time>2026-04-06T14:13:03.187Z</time></trkpt><trkpt lat="38.2504667" lon="15.7200383"><ele>126.0</ele><time>2026-04-06T14:13:04.187Z</time></trkpt><trkpt lat="38.2505333" lon="15.7200417"><ele>126.0</ele><time>2026-04-06T14:13:05.188Z</time></trkpt><trkpt lat="38.25065" lon="15.7200333"><ele>126.0</ele><time>2026-04-06T14:13:07.187Z</time></trkpt><trkpt lat="38.250735" lon="15.7200317"><ele>124.5</ele><time>2026-04-06T14:13:09.188Z</time></trkpt><trkpt lat="38.2508017" lon="15.7200333"><ele>123.0</ele><time>2026-04-06T14:13:12.187Z</time></trkpt><trkpt lat="38.2508783" lon="15.7200333"><ele>121.5</ele><time>2026-04-06T14:13:14.188Z</time></trkpt><trkpt lat="38.2509783" lon="15.7200417"><ele>120.0</ele><time>2026-04-06T14:13:16.188Z</time></trkpt><trkpt lat="38.2511" lon="15.7200667"><ele>118.5</ele><time>2026-04-06T14:13:18.188Z</time></trkpt><trkpt lat="38.2511717" lon="15.7200617"><ele>117.0</ele><time>2026-04-06T14:13:19.188Z</time></trkpt><trkpt lat="38.2512383" lon="15.72005"><ele>117.0</ele><time>2026-04-06T14:13:20.188Z</time></trkpt><trkpt lat="38.2513583" lon="15.7200367"><ele>116.99999999999999</ele><time>2026-04-06T14:13:22.188Z</time></trkpt><trkpt lat="38.2514667" lon="15.7200233"><ele>116.99999999999999</ele><time>2026-04-06T14:13:24.187Z</time></trkpt><trkpt lat="38.2515867" lon="15.7200317"><ele>117.0</ele><time>2026-04-06T14:13:26.187Z</time></trkpt><trkpt lat="38.2516533" lon="15.7200283"><ele>117.0</ele><time>2026-04-06T14:13:27.188Z</time></trkpt><trkpt lat="38.251725" lon="15.72003"><ele>115.16666666666667</ele><time>2026-04-06T14:13:28.187Z</time></trkpt><trkpt lat="38.251795" lon="15.7200317"><ele>113.33333333333334</ele><time>2026-04-06T14:13:29.188Z</time></trkpt><trkpt lat="38.2518583" lon="15.72003"><ele>111.5</ele><time>2026-04-06T14:13:30.188Z</time></trkpt><trkpt lat="38.2519717" lon="15.7200367"><ele>109.66666666666667</ele><time>2026-04-06T14:13:32.188Z</time></trkpt><trkpt lat="38.2520817" lon="15.7200383"><ele>107.83333333333334</ele><time>2026-04-06T14:13:34.188Z</time></trkpt><trkpt lat="38.2521467" lon="15.720045"><ele>106.0</ele><time>2026-04-06T14:13:35.188Z</time></trkpt><trkpt lat="38.25221" lon="15.7200417"><ele>106.00000000000001</ele><time>2026-04-06T14:13:36.188Z</time></trkpt><trkpt lat="38.252275" lon="15.72003"><ele>106.0</ele><time>2026-04-06T14:13:37.187Z</time></trkpt><trkpt lat="38.2523383" lon="15.7200333"><ele>106.0</ele><time>2026-04-06T14:13:38.187Z</time></trkpt><trkpt lat="38.2524333" lon="15.7200483"><ele>106.0</ele><time>2026-04-06T14:13:40.187Z</time></trkpt><trkpt lat="38.2525133" lon="15.7200217"><ele>106.00000000000001</ele><time>2026-04-06T14:13:43.187Z</time></trkpt><trkpt lat="38.25255" lon="15.7199117"><ele>106.0</ele><time>2026-04-06T14:13:45.188Z</time></trkpt><trkpt lat="38.25257" lon="15.7197717"><ele>104.50000000000001</ele><time>2026-04-06T14:13:47.188Z</time></trkpt><trkpt lat="38.2525767" lon="15.7196683"><ele>103.0</ele><time>2026-04-06T14:13:49.187Z</time></trkpt><trkpt lat="38.2525867" lon="15.71958"><ele>101.5</ele><time>2026-04-06T14:13:52.188Z</time></trkpt><trkpt lat="38.2525867" lon="15.71949"><ele>100.0</ele><time>2026-04-06T14:13:54.187Z</time></trkpt><trkpt lat="38.25259" lon="15.7193583"><ele>98.50000000000001</ele><time>2026-04-06T14:13:56.188Z</time></trkpt><trkpt lat="38.2525967" lon="15.7192233"><ele>97.0</ele><time>2026-04-06T14:13:58.188Z</time></trkpt><trkpt lat="38.2525933" lon="15.71908"><ele>97.0</ele><time>2026-04-06T14:14:00.187Z</time></trkpt><trkpt lat="38.2525933" lon="15.718935"><ele>97.0</ele><time>2026-04-06T14:14:02.187Z</time></trkpt><trkpt lat="38.252595" lon="15.7188017"><ele>97.0</ele><time>2026-04-06T14:14:04.188Z</time></trkpt><trkpt lat="38.2526067" lon="15.7186767"><ele>97.0</ele><time>2026-04-06T14:14:06.188Z</time></trkpt><trkpt lat="38.2526233" lon="15.71854"><ele>97.0</ele><time>2026-04-06T14:14:08.187Z</time></trkpt><trkpt lat="38.2526333" lon="15.718415"><ele>96.66666666666667</ele><time>2026-04-06T14:14:10.188Z</time></trkpt><trkpt lat="38.25264" lon="15.7183083"><ele>96.33333333333334</ele><time>2026-04-06T14:14:12.188Z</time></trkpt><trkpt lat="38.252645" lon="15.7182"><ele>96.0</ele><time>2026-04-06T14:14:15.188Z</time></trkpt><trkpt lat="38.25265" lon="15.718095"><ele>95.66666666666667</ele><time>2026-04-06T14:14:18.188Z</time></trkpt><trkpt lat="38.2526533" lon="15.71801"><ele>95.33333333333334</ele><time>2026-04-06T14:14:20.188Z</time></trkpt><trkpt lat="38.2526567" lon="15.717915"><ele>95.0</ele><time>2026-04-06T14:14:22.188Z</time></trkpt><trkpt lat="38.2526667" lon="15.717815"><ele>94.4</ele><time>2026-04-06T14:14:24.187Z</time></trkpt><trkpt lat="38.2526733" lon="15.71771"><ele>93.8</ele><time>2026-04-06T14:14:26.187Z</time></trkpt><trkpt lat="38.2526767" lon="15.7175883"><ele>93.19999999999999</ele><time>2026-04-06T14:14:28.188Z</time></trkpt><trkpt lat="38.25268" lon="15.717475"><ele>92.6</ele><time>2026-04-06T14:14:30.187Z</time></trkpt><trkpt lat="38.252665" lon="15.7173567"><ele>92.0</ele><time>2026-04-06T14:14:32.187Z</time></trkpt><trkpt lat="38.25267" lon="15.7172317"><ele>92.0</ele><time>2026-04-06T14:14:34.188Z</time></trkpt><trkpt lat="38.2526833" lon="15.7170917"><ele>92.0</ele><time>2026-04-06T14:14:36.188Z</time></trkpt><trkpt lat="38.252685" lon="15.7169833"><ele>92.0</ele><time>2026-04-06T14:14:38.188Z</time></trkpt><trkpt lat="38.2526933" lon="15.7168917"><ele>92.0</ele><time>2026-04-06T14:14:40.188Z</time></trkpt><trkpt lat="38.2527183" lon="15.7167933"><ele>92.0</ele><time>2026-04-06T14:14:42.188Z</time></trkpt><trkpt lat="38.25276" lon="15.716685"><ele>92.0</ele><time>2026-04-06T14:14:44.188Z</time></trkpt><trkpt lat="38.252825" lon="15.7166083"><ele>91.6</ele><time>2026-04-06T14:14:46.187Z</time></trkpt><trkpt lat="38.2528983" lon="15.7165483"><ele>91.19999999999999</ele><time>2026-04-06T14:14:48.187Z</time></trkpt><trkpt lat="38.2529617" lon="15.7164517"><ele>90.8</ele><time>2026-04-06T14:14:50.188Z</time></trkpt><trkpt lat="38.2530117" lon="15.716345"><ele>90.4</ele><time>2026-04-06T14:14:52.188Z</time></trkpt><trkpt lat="38.2530733" lon="15.71626"><ele>90.0</ele><time>2026-04-06T14:14:54.188Z</time></trkpt><trkpt lat="38.25315" lon="15.71617"><ele>88.6</ele><time>2026-04-06T14:14:56.187Z</time></trkpt><trkpt lat="38.2532217" lon="15.716085"><ele>87.2</ele><time>2026-04-06T14:14:58.187Z</time></trkpt><trkpt lat="38.2532933" lon="15.7159933"><ele>85.80000000000001</ele><time>2026-04-06T14:15:00.188Z</time></trkpt><trkpt lat="38.253365" lon="15.7159217"><ele>84.4</ele><time>2026-04-06T14:15:02.188Z</time></trkpt><trkpt lat="38.2534283" lon="15.7158533"><ele>83.0</ele><time>2026-04-06T14:15:04.187Z</time></trkpt><trkpt lat="38.2534883" lon="15.7157833"><ele>83.0</ele><time>2026-04-06T14:15:07.187Z</time></trkpt><trkpt lat="38.253545" lon="15.7157383"><ele>83.0</ele><time>2026-04-06T14:15:11.188Z</time></trkpt><trkpt lat="38.2536017" lon="15.7156983"><ele>83.0</ele><time>2026-04-06T14:15:15.188Z</time></trkpt><trkpt lat="38.25367" lon="15.715645"><ele>83.0</ele><time>2026-04-06T14:15:38.188Z</time></trkpt><trkpt lat="38.2537367" lon="15.71563"><ele>83.0</ele><time>2026-04-06T14:15:40.188Z</time></trkpt><trkpt lat="38.2538167" lon="15.7156183"><ele>83.0</ele><time>2026-04-06T14:15:42.188Z</time></trkpt><trkpt lat="38.2538967" lon="15.7156067"><ele>83.0</ele><time>2026-04-06T14:15:44.188Z</time></trkpt><trkpt lat="38.2539633" lon="15.7156083"><ele>79.66666666666667</ele><time>2026-04-06T14:15:46.187Z</time></trkpt><trkpt lat="38.2540433" lon="15.7155917"><ele>76.33333333333334</ele><time>2026-04-06T14:15:49.188Z</time></trkpt><trkpt lat="38.2541117" lon="15.7155983"><ele>73.0</ele><time>2026-04-06T14:15:51.187Z</time></trkpt><trkpt lat="38.2541833" lon="15.7156317"><ele>69.66666666666667</ele><time>2026-04-06T14:15:53.187Z</time></trkpt><trkpt lat="38.2542117" lon="15.7157117"><ele>66.33333333333333</ele><time>2026-04-06T14:15:55.188Z</time></trkpt><trkpt lat="38.2541917" lon="15.7158017"><ele>63.0</ele><time>2026-04-06T14:15:57.187Z</time></trkpt><trkpt lat="38.2541683" lon="15.7159117"><ele>63.0</ele><time>2026-04-06T14:15:59.188Z</time></trkpt><trkpt lat="38.2541333" lon="15.71602"><ele>63.0</ele><time>2026-04-06T14:16:01.188Z</time></trkpt><trkpt lat="38.2541" lon="15.7161267"><ele>63.0</ele><time>2026-04-06T14:16:03.188Z</time></trkpt><trkpt lat="38.254065" lon="15.7162467"><ele>63.0</ele><time>2026-04-06T14:16:05.188Z</time></trkpt><trkpt lat="38.2540267" lon="15.7163717"><ele>63.0</ele><time>2026-04-06T14:16:07.188Z</time></trkpt><trkpt lat="38.2539867" lon="15.7164867"><ele>66.0</ele><time>2026-04-06T14:16:09.188Z</time></trkpt><trkpt lat="38.25395" lon="15.7166133"><ele>69.0</ele><time>2026-04-06T14:16:11.188Z</time></trkpt><trkpt lat="38.2538983" lon="15.7167517"><ele>72.0</ele><time>2026-04-06T14:16:13.187Z</time></trkpt><trkpt lat="38.25386" lon="15.7168167"><ele>75.0</ele><time>2026-04-06T14:16:14.188Z</time></trkpt><trkpt lat="38.2538183" lon="15.7168817"><ele>78.0</ele><time>2026-04-06T14:16:15.187Z</time></trkpt><trkpt lat="38.253765" lon="15.7169517"><ele>81.0</ele><time>2026-04-06T14:16:16.188Z</time></trkpt><trkpt lat="38.2537083" lon="15.717015"><ele>81.0</ele><time>2026-04-06T14:16:17.188Z</time></trkpt><trkpt lat="38.25367" lon="15.7171233"><ele>81.0</ele><time>2026-04-06T14:16:19.188Z</time></trkpt><trkpt lat="38.25376" lon="15.7171433"><ele>81.0</ele><time>2026-04-06T14:16:21.188Z</time></trkpt><trkpt lat="38.2538117" lon="15.7170933"><ele>81.0</ele><time>2026-04-06T14:16:22.187Z</time></trkpt><trkpt lat="38.2538583" lon="15.71702"><ele>81.0</ele><time>2026-04-06T14:16:23.187Z</time></trkpt><trkpt lat="38.2539" lon="15.716945"><ele>81.0</ele><time>2026-04-06T14:16:24.187Z</time></trkpt><trkpt lat="38.2539567" lon="15.7168117"><ele>73.39999999999999</ele><time>2026-04-06T14:16:26.187Z</time></trkpt><trkpt lat="38.254025" lon="15.71668"><ele>65.8</ele><time>2026-04-06T14:16:28.187Z</time></trkpt><trkpt lat="38.2540633" lon="15.716615"><ele>58.199999999999996</ele><time>2026-04-06T14:16:29.188Z</time></trkpt><trkpt lat="38.254125" lon="15.7164667"><ele>50.599999999999994</ele><time>2026-04-06T14:16:31.188Z</time></trkpt><trkpt lat="38.25416" lon="15.716395"><ele>43.0</ele><time>2026-04-06T14:16:32.188Z</time></trkpt><trkpt lat="38.2542017" lon="15.7163233"><ele>43.00000000000001</ele><time>2026-04-06T14:16:33.188Z</time></trkpt><trkpt lat="38.2542367" lon="15.7162517"><ele>43.0</ele><time>2026-04-06T14:16:34.188Z</time></trkpt><trkpt lat="38.2542733" lon="15.7161817"><ele>43.0</ele><time>2026-04-06T14:16:35.188Z</time></trkpt><trkpt lat="38.254305" lon="15.7161117"><ele>43.0</ele><time>2026-04-06T14:16:36.187Z</time></trkpt><trkpt lat="38.2543433" lon="15.71604"><ele>43.0</ele><time>2026-04-06T14:16:37.187Z</time></trkpt><trkpt lat="38.2543883" lon="15.7159833"><ele>43.00000000000001</ele><time>2026-04-06T14:16:38.188Z</time></trkpt><trkpt lat="38.2544367" lon="15.7159317"><ele>43.0</ele><time>2026-04-06T14:16:39.188Z</time></trkpt><trkpt lat="38.2545083" lon="15.7158383"><ele>46.333333333333336</ele><time>2026-04-06T14:16:41.188Z</time></trkpt><trkpt lat="38.2545333" lon="15.71575"><ele>49.66666666666667</ele><time>2026-04-06T14:16:43.187Z</time></trkpt><trkpt lat="38.2545233" lon="15.7156333"><ele>53.0</ele><time>2026-04-06T14:16:46.188Z</time></trkpt><trkpt lat="38.2545117" lon="15.7155383"><ele>56.333333333333336</ele><time>2026-04-06T14:16:50.188Z</time></trkpt><trkpt lat="38.25455" lon="15.7154433"><ele>59.666666666666664</ele><time>2026-04-06T14:16:53.188Z</time></trkpt><trkpt lat="38.2546267" lon="15.71542"><ele>63.0</ele><time>2026-04-06T14:16:55.188Z</time></trkpt><trkpt lat="38.2547167" lon="15.71538"><ele>58.0</ele><time>2026-04-06T14:16:57.188Z</time></trkpt><trkpt lat="38.25481" lon="15.7153533"><ele>53.0</ele><time>2026-04-06T14:16:59.188Z</time></trkpt><trkpt lat="38.254895" lon="15.7153567"><ele>48.0</ele><time>2026-04-06T14:17:02.188Z</time></trkpt><trkpt lat="38.25497" lon="15.7153417"><ele>43.0</ele><time>2026-04-06T14:17:05.188Z</time></trkpt><trkpt lat="38.25504" lon="15.71528"><ele>38.0</ele><time>2026-04-06T14:17:09.188Z</time></trkpt><trkpt lat="38.2551133" lon="15.7151983"><ele>33.0</ele><time>2026-04-06T14:17:12.187Z</time></trkpt><trkpt lat="38.2551867" lon="15.7151267"><ele>33.0</ele><time>2026-04-06T14:17:14.187Z</time></trkpt><trkpt lat="38.25525" lon="15.7150833"><ele>33.0</ele><time>2026-04-06T14:17:16.187Z</time></trkpt><trkpt lat="38.2553217" lon="15.71503"><ele>33.0</ele><time>2026-04-06T14:17:18.187Z</time></trkpt><trkpt lat="38.2554167" lon="15.71497"><ele>33.0</ele><time>2026-04-06T14:17:20.188Z</time></trkpt><trkpt lat="38.2555133" lon="15.7149317"><ele>33.0</ele><time>2026-04-06T14:17:22.188Z</time></trkpt><trkpt lat="38.25558" lon="15.7148617"><ele>33.0</ele><time>2026-04-06T14:17:24.188Z</time></trkpt><trkpt lat="38.255605" lon="15.7147833"><ele>33.0</ele><time>2026-04-06T14:17:26.188Z</time></trkpt><trkpt lat="38.2555317" lon="15.7147433"><ele>33.0</ele><time>2026-04-06T14:17:29.188Z</time></trkpt><trkpt lat="38.2554633" lon="15.71475"><ele>33.0</ele><time>2026-04-06T14:17:31.188Z</time></trkpt><trkpt lat="38.2553967" lon="15.7147883"><ele>33.0</ele><time>2026-04-06T14:17:34.187Z</time></trkpt><trkpt lat="38.2553133" lon="15.7148583"><ele>33.0</ele><time>2026-04-06T14:17:41.187Z</time></trkpt><trkpt lat="38.2552067" lon="15.7149467"><ele>33.0</ele><time>2026-04-06T14:17:43.188Z</time></trkpt><trkpt lat="38.25514" lon="15.7149883"><ele>33.0</ele><time>2026-04-06T14:17:44.187Z</time></trkpt><trkpt lat="38.2550717" lon="15.7150183"><ele>33.0</ele><time>2026-04-06T14:17:45.187Z</time></trkpt><trkpt lat="38.2550017" lon="15.7150417"><ele>33.0</ele><time>2026-04-06T14:17:46.188Z</time></trkpt><trkpt lat="38.2549283" lon="15.7150567"><ele>33.0</ele><time>2026-04-06T14:17:47.188Z</time></trkpt><trkpt lat="38.2548517" lon="15.7150717"><ele>33.0</ele><time>2026-04-06T14:17:48.187Z</time></trkpt><trkpt lat="38.254775" lon="15.7150867"><ele>33.0</ele><time>2026-04-06T14:17:49.187Z</time></trkpt><trkpt lat="38.2546983" lon="15.7151017"><ele>34.0</ele><time>2026-04-06T14:17:50.188Z</time></trkpt><trkpt lat="38.2546233" lon="15.7151183"><ele>35.0</ele><time>2026-04-06T14:17:51.188Z</time></trkpt><trkpt lat="38.2545467" lon="15.715125"><ele>36.0</ele><time>2026-04-06T14:17:52.188Z</time></trkpt><trkpt lat="38.2544717" lon="15.7151133"><ele>37.0</ele><time>2026-04-06T14:17:53.187Z</time></trkpt><trkpt lat="38.2544067" lon="15.7150883"><ele>38.0</ele><time>2026-04-06T14:17:54.188Z</time></trkpt><trkpt lat="38.2543433" lon="15.7150583"><ele>39.0</ele><time>2026-04-06T14:17:55.187Z</time></trkpt><trkpt lat="38.2542817" lon="15.71503"><ele>40.0</ele><time>2026-04-06T14:17:56.188Z</time></trkpt><trkpt lat="38.254215" lon="15.7149933"><ele>40.0</ele><time>2026-04-06T14:17:57.188Z</time></trkpt><trkpt lat="38.2541533" lon="15.7149683"><ele>40.0</ele><time>2026-04-06T14:17:58.188Z</time></trkpt><trkpt lat="38.254085" lon="15.7149383"><ele>40.0</ele><time>2026-04-06T14:17:59.187Z</time></trkpt><trkpt lat="38.254015" lon="15.7149"><ele>40.0</ele><time>2026-04-06T14:18:00.188Z</time></trkpt><trkpt lat="38.2539433" lon="15.71486"><ele>40.0</ele><time>2026-04-06T14:18:01.188Z</time></trkpt><trkpt lat="38.2538683" lon="15.7148233"><ele>40.0</ele><time>2026-04-06T14:18:02.188Z</time></trkpt><trkpt lat="38.2537967" lon="15.7147917"><ele>40.0</ele><time>2026-04-06T14:18:03.188Z</time></trkpt><trkpt lat="38.2537217" lon="15.714755"><ele>44.5</ele><time>2026-04-06T14:18:04.187Z</time></trkpt><trkpt lat="38.2536467" lon="15.7147117"><ele>49.0</ele><time>2026-04-06T14:18:05.188Z</time></trkpt><trkpt lat="38.25357" lon="15.7146717"><ele>53.5</ele><time>2026-04-06T14:18:06.187Z</time></trkpt><trkpt lat="38.2534967" lon="15.71462"><ele>58.0</ele><time>2026-04-06T14:18:07.187Z</time></trkpt><trkpt lat="38.2534283" lon="15.7145767"><ele>62.49999999999999</ele><time>2026-04-06T14:18:08.187Z</time></trkpt><trkpt lat="38.2533617" lon="15.7145167"><ele>67.0</ele><time>2026-04-06T14:18:09.187Z</time></trkpt><trkpt lat="38.253295" lon="15.7144533"><ele>62.33333333333333</ele><time>2026-04-06T14:18:10.188Z</time></trkpt><trkpt lat="38.2532433" lon="15.71437"><ele>57.666666666666664</ele><time>2026-04-06T14:18:11.188Z</time></trkpt><trkpt lat="38.253195" lon="15.7142817"><ele>53.0</ele><time>2026-04-06T14:18:12.188Z</time></trkpt><trkpt lat="38.2531467" lon="15.7141867"><ele>48.33333333333333</ele><time>2026-04-06T14:18:13.188Z</time></trkpt><trkpt lat="38.25311" lon="15.71409"><ele>43.666666666666664</ele><time>2026-04-06T14:18:14.187Z</time></trkpt><trkpt lat="38.253065" lon="15.7139983"><ele>39.0</ele><time>2026-04-06T14:18:15.187Z</time></trkpt><trkpt lat="38.2530233" lon="15.7139117"><ele>39.0</ele><time>2026-04-06T14:18:16.188Z</time></trkpt><trkpt lat="38.2529817" lon="15.713815"><ele>39.0</ele><time>2026-04-06T14:18:17.187Z</time></trkpt><trkpt lat="38.2529383" lon="15.7137217"><ele>39.0</ele><time>2026-04-06T14:18:18.188Z</time></trkpt><trkpt lat="38.2528983" lon="15.713625"><ele>39.0</ele><time>2026-04-06T14:18:19.187Z</time></trkpt><trkpt lat="38.2528617" lon="15.7135467"><ele>39.0</ele><time>2026-04-06T14:18:20.187Z</time></trkpt><trkpt lat="38.2528267" lon="15.7134733"><ele>39.0</ele><time>2026-04-06T14:18:21.187Z</time></trkpt><trkpt lat="38.25276" lon="15.7133433"><ele>35.5</ele><time>2026-04-06T14:18:23.187Z</time></trkpt><trkpt lat="38.25271" lon="15.7132267"><ele>32.0</ele><time>2026-04-06T14:18:25.187Z</time></trkpt><trkpt lat="38.2526633" lon="15.7131467"><ele>28.5</ele><time>2026-04-06T14:18:27.188Z</time></trkpt><trkpt lat="38.252625" lon="15.713065"><ele>25.0</ele><time>2026-04-06T14:18:29.188Z</time></trkpt><trkpt lat="38.2525767" lon="15.7129867"><ele>21.5</ele><time>2026-04-06T14:18:33.188Z</time></trkpt><trkpt lat="38.2525217" lon="15.712905"><ele>18.0</ele><time>2026-04-06T14:18:36.187Z</time></trkpt><trkpt lat="38.2524883" lon="15.7128333"><ele>18.0</ele><time>2026-04-06T14:18:38.188Z</time></trkpt><trkpt lat="38.2524533" lon="15.71275"><ele>18.0</ele><time>2026-04-06T14:18:40.187Z</time></trkpt><trkpt lat="38.2524133" lon="15.71266"><ele>18.0</ele><time>2026-04-06T14:18:54.188Z</time></trkpt><trkpt lat="38.2523567" lon="15.7125717"><ele>18.0</ele><time>2026-04-06T14:18:57.188Z</time></trkpt><trkpt lat="38.2523067" lon="15.7124767"><ele>18.0</ele><time>2026-04-06T14:19:04.188Z</time></trkpt><trkpt lat="38.25228" lon="15.7124017"><ele>18.0</ele><time>2026-04-06T14:19:07.188Z</time></trkpt><trkpt lat="38.25226" lon="15.7122983"><ele>19.0</ele><time>2026-04-06T14:19:28.188Z</time></trkpt><trkpt lat="38.2522133" lon="15.712175"><ele>20.0</ele><time>2026-04-06T14:19:30.187Z</time></trkpt><trkpt lat="38.252175" lon="15.7120767"><ele>21.0</ele><time>2026-04-06T14:19:31.187Z</time></trkpt><trkpt lat="38.2521317" lon="15.7119533"><ele>22.0</ele><time>2026-04-06T14:19:32.188Z</time></trkpt><trkpt lat="38.2520717" lon="15.7118167"><ele>23.0</ele><time>2026-04-06T14:19:33.187Z</time></trkpt><trkpt lat="38.25202" lon="15.711685"><ele>23.0</ele><time>2026-04-06T14:19:34.188Z</time></trkpt><trkpt lat="38.2519567" lon="15.711545"><ele>23.0</ele><time>2026-04-06T14:19:35.188Z</time></trkpt><trkpt lat="38.2518933" lon="15.711425"><ele>23.0</ele><time>2026-04-06T14:19:36.187Z</time></trkpt><trkpt lat="38.2518483" lon="15.7113333"><ele>23.0</ele><time>2026-04-06T14:19:37.188Z</time></trkpt><trkpt lat="38.251805" lon="15.711255"><ele>23.0</ele><time>2026-04-06T14:19:38.187Z</time></trkpt><trkpt lat="38.2517533" lon="15.7111767"><ele>21.333333333333336</ele><time>2026-04-06T14:19:40.188Z</time></trkpt><trkpt lat="38.2517983" lon="15.71106"><ele>19.666666666666668</ele><time>2026-04-06T14:19:49.188Z</time></trkpt><trkpt lat="38.2518317" lon="15.71099"><ele>18.0</ele><time>2026-04-06T14:19:51.188Z</time></trkpt><trkpt lat="38.2518633" lon="15.710915"><ele>16.333333333333332</ele><time>2026-04-06T14:19:53.187Z</time></trkpt><trkpt lat="38.251915" lon="15.71085"><ele>14.666666666666666</ele><time>2026-04-06T14:19:57.188Z</time></trkpt><trkpt lat="38.2519683" lon="15.7107717"><ele>13.0</ele><time>2026-04-06T14:20:05.187Z</time></trkpt><trkpt lat="38.25205" lon="15.7107733"><ele>13.0</ele><time>2026-04-06T14:20:09.188Z</time></trkpt><trkpt lat="38.2521167" lon="15.71085"><ele>13.0</ele><time>2026-04-06T14:20:11.188Z</time></trkpt><trkpt lat="38.25217" lon="15.7109967"><ele>13.0</ele><time>2026-04-06T14:20:13.188Z</time></trkpt><trkpt lat="38.25224" lon="15.711125"><ele>13.0</ele><time>2026-04-06T14:20:15.187Z</time></trkpt><trkpt lat="38.2522917" lon="15.71123"><ele>13.0</ele><time>2026-04-06T14:20:17.187Z</time></trkpt><trkpt lat="38.25234" lon="15.7113083"><ele>12.333333333333332</ele><time>2026-04-06T14:20:19.188Z</time></trkpt><trkpt lat="38.2523783" lon="15.711395"><ele>11.666666666666666</ele><time>2026-04-06T14:20:21.187Z</time></trkpt><trkpt lat="38.2524317" lon="15.7114683"><ele>11.0</ele><time>2026-04-06T14:20:23.187Z</time></trkpt><trkpt lat="38.2524883" lon="15.7115583"><ele>10.333333333333332</ele><time>2026-04-06T14:20:34.188Z</time></trkpt><trkpt lat="38.2525367" lon="15.71165"><ele>9.666666666666666</ele><time>2026-04-06T14:20:37.187Z</time></trkpt><trkpt lat="38.2525733" lon="15.7117483"><ele>9.0</ele><time>2026-04-06T14:20:52.188Z</time></trkpt><trkpt lat="38.2526183" lon="15.7118233"><ele>10.2</ele><time>2026-04-06T14:20:54.188Z</time></trkpt><trkpt lat="38.2526633" lon="15.71192"><ele>11.4</ele><time>2026-04-06T14:20:56.188Z</time></trkpt><trkpt lat="38.2526967" lon="15.7120033"><ele>12.6</ele><time>2026-04-06T14:20:59.187Z</time></trkpt><trkpt lat="38.25274" lon="15.7121017"><ele>13.8</ele><time>2026-04-06T14:21:11.188Z</time></trkpt><trkpt lat="38.252785" lon="15.7121667"><ele>15.0</ele><time>2026-04-06T14:21:13.188Z</time></trkpt><trkpt lat="38.25289" lon="15.712315"><ele>15.0</ele><time>2026-04-06T14:21:59.188Z</time></trkpt><trkpt lat="38.252935" lon="15.7123833"><ele>15.0</ele><time>2026-04-06T14:22:04.188Z</time></trkpt><trkpt lat="38.25299" lon="15.712475"><ele>15.0</ele><time>2026-04-06T14:22:06.187Z</time></trkpt><trkpt lat="38.2530433" lon="15.7125617"><ele>15.0</ele><time>2026-04-06T14:22:08.188Z</time></trkpt><trkpt lat="38.253075" lon="15.7126367"><ele>15.0</ele><time>2026-04-06T14:22:11.187Z</time></trkpt><trkpt lat="38.2531183" lon="15.712715"><ele>15.0</ele><time>2026-04-06T14:22:22.188Z</time></trkpt><trkpt lat="38.25316" lon="15.712785"><ele>14.571428571428571</ele><time>2026-04-06T14:22:24.188Z</time></trkpt><trkpt lat="38.2532067" lon="15.7128567"><ele>14.142857142857142</ele><time>2026-04-06T14:22:26.188Z</time></trkpt><trkpt lat="38.2532467" lon="15.71292"><ele>13.714285714285714</ele><time>2026-04-06T14:22:28.188Z</time></trkpt><trkpt lat="38.2532817" lon="15.712995"><ele>13.285714285714285</ele><time>2026-04-06T14:22:31.188Z</time></trkpt><trkpt lat="38.2533267" lon="15.7130817"><ele>12.857142857142858</ele><time>2026-04-06T14:22:35.188Z</time></trkpt><trkpt lat="38.2533617" lon="15.7131567"><ele>12.428571428571427</ele><time>2026-04-06T14:22:38.187Z</time></trkpt><trkpt lat="38.2534083" lon="15.71323"><ele>12.0</ele><time>2026-04-06T14:22:40.188Z</time></trkpt><trkpt lat="38.2534733" lon="15.7133233"><ele>12.0</ele><time>2026-04-06T14:22:42.188Z</time></trkpt><trkpt lat="38.2535217" lon="15.7134083"><ele>12.0</ele><time>2026-04-06T14:22:44.188Z</time></trkpt><trkpt lat="38.253565" lon="15.71349"><ele>12.0</ele><time>2026-04-06T14:22:46.187Z</time></trkpt><trkpt lat="38.2536417" lon="15.7136117"><ele>12.0</ele><time>2026-04-06T14:22:53.188Z</time></trkpt><trkpt lat="38.2537117" lon="15.713695"><ele>12.0</ele><time>2026-04-06T14:22:55.188Z</time></trkpt><trkpt lat="38.25379" lon="15.7137783"><ele>11.833333333333334</ele><time>2026-04-06T14:22:57.188Z</time></trkpt><trkpt lat="38.25384" lon="15.7138433"><ele>11.666666666666666</ele><time>2026-04-06T14:22:59.188Z</time></trkpt><trkpt lat="38.2538917" lon="15.713915"><ele>11.5</ele><time>2026-04-06T14:23:02.187Z</time></trkpt><trkpt lat="38.253955" lon="15.713985"><ele>11.333333333333332</ele><time>2026-04-06T14:23:04.188Z</time></trkpt><trkpt lat="38.2540383" lon="15.7140533"><ele>11.166666666666666</ele><time>2026-04-06T14:23:06.188Z</time></trkpt><trkpt lat="38.2541117" lon="15.7141233"><ele>11.0</ele><time>2026-04-06T14:23:08.187Z</time></trkpt><trkpt lat="38.254175" lon="15.7141967"><ele>11.0</ele><time>2026-04-06T14:23:11.188Z</time></trkpt><trkpt lat="38.2542317" lon="15.7142533"><ele>11.0</ele><time>2026-04-06T14:23:16.188Z</time></trkpt><trkpt lat="38.254285" lon="15.7143133"><ele>11.0</ele><time>2026-04-06T14:23:19.188Z</time></trkpt><trkpt lat="38.2543183" lon="15.714385"><ele>11.0</ele><time>2026-04-06T14:23:22.188Z</time></trkpt><trkpt lat="38.2543833" lon="15.7144233"><ele>11.0</ele><time>2026-04-06T14:23:24.188Z</time></trkpt><trkpt lat="38.2544817" lon="15.7144467"><ele>11.0</ele><time>2026-04-06T14:23:26.188Z</time></trkpt><trkpt lat="38.2545817" lon="15.714445"><ele>11.600000000000001</ele><time>2026-04-06T14:23:28.187Z</time></trkpt><trkpt lat="38.2546717" lon="15.7144317"><ele>12.2</ele><time>2026-04-06T14:23:30.188Z</time></trkpt><trkpt lat="38.2547633" lon="15.7144183"><ele>12.799999999999999</ele><time>2026-04-06T14:23:33.188Z</time></trkpt><trkpt lat="38.254835" lon="15.71441"><ele>13.399999999999999</ele><time>2026-04-06T14:23:35.187Z</time></trkpt><trkpt lat="38.2549233" lon="15.7143717"><ele>14.0</ele><time>2026-04-06T14:23:37.187Z</time></trkpt><trkpt lat="38.2550283" lon="15.7142933"><ele>14.000000000000002</ele><time>2026-04-06T14:23:39.188Z</time></trkpt><trkpt lat="38.2550883" lon="15.7142583"><ele>14.0</ele><time>2026-04-06T14:23:40.187Z</time></trkpt><trkpt lat="38.2551533" lon="15.714225"><ele>14.0</ele><time>2026-04-06T14:23:41.188Z</time></trkpt><trkpt lat="38.255215" lon="15.7141833"><ele>14.0</ele><time>2026-04-06T14:23:42.188Z</time></trkpt><trkpt lat="38.2552817" lon="15.71415"><ele>14.000000000000002</ele><time>2026-04-06T14:23:43.188Z</time></trkpt><trkpt lat="38.255395" lon="15.7141"><ele>14.0</ele><time>2026-04-06T14:23:45.187Z</time></trkpt><trkpt lat="38.255505" lon="15.71405"><ele>14.0</ele><time>2026-04-06T14:23:47.188Z</time></trkpt><trkpt lat="38.255615" lon="15.7140117"><ele>13.999999999999998</ele><time>2026-04-06T14:23:49.188Z</time></trkpt><trkpt lat="38.2557217" lon="15.7139817"><ele>13.999999999999998</ele><time>2026-04-06T14:23:51.188Z</time></trkpt><trkpt lat="38.2558283" lon="15.713965"><ele>14.0</ele><time>2026-04-06T14:23:53.188Z</time></trkpt><trkpt lat="38.2559283" lon="15.7139483"><ele>14.0</ele><time>2026-04-06T14:23:55.188Z</time></trkpt><trkpt lat="38.2560083" lon="15.7139317"><ele>13.333333333333334</ele><time>2026-04-06T14:23:57.187Z</time></trkpt><trkpt lat="38.2560717" lon="15.71393"><ele>12.666666666666668</ele><time>2026-04-06T14:23:59.188Z</time></trkpt><trkpt lat="38.25617" lon="15.713965"><ele>12.0</ele><time>2026-04-06T14:24:02.188Z</time></trkpt><trkpt lat="38.2562517" lon="15.714005"><ele>11.333333333333334</ele><time>2026-04-06T14:24:04.188Z</time></trkpt><trkpt lat="38.256335" lon="15.71403"><ele>10.666666666666668</ele><time>2026-04-06T14:24:06.187Z</time></trkpt><trkpt lat="38.25642" lon="15.71404"><ele>10.0</ele><time>2026-04-06T14:24:08.188Z</time></trkpt><trkpt lat="38.2564867" lon="15.7139883"><ele>10.0</ele><time>2026-04-06T14:24:09.188Z</time></trkpt><trkpt lat="38.25652" lon="15.7141167"><ele>10.0</ele><time>2026-04-06T14:24:11.188Z</time></trkpt><trkpt lat="38.2565567" lon="15.7142833"><ele>10.0</ele><time>2026-04-06T14:24:12.188Z</time></trkpt><trkpt lat="38.25658" lon="15.714385"><ele>10.0</ele><time>2026-04-06T14:24:14.188Z</time></trkpt><trkpt lat="38.2566217" lon="15.7145"><ele>10.0</ele><time>2026-04-06T14:24:16.188Z</time></trkpt><trkpt lat="38.256705" lon="15.7146367"><ele>11.0</ele><time>2026-04-06T14:24:18.188Z</time></trkpt><trkpt lat="38.2567683" lon="15.71472"><ele>12.0</ele><time>2026-04-06T14:24:20.187Z</time></trkpt><trkpt lat="38.25684" lon="15.7147767"><ele>13.0</ele><time>2026-04-06T14:24:23.188Z</time></trkpt><trkpt lat="38.2569117" lon="15.7148083"><ele>14.0</ele><time>2026-04-06T14:24:25.188Z</time></trkpt><trkpt lat="38.25696" lon="15.7149"><ele>14.999999999999998</ele><time>2026-04-06T14:24:28.188Z</time></trkpt><trkpt lat="38.2570033" lon="15.7149683"><ele>16.0</ele><time>2026-04-06T14:24:30.188Z</time></trkpt><trkpt lat="38.2570617" lon="15.715055"><ele>15.999999999999998</ele><time>2026-04-06T14:24:32.187Z</time></trkpt><trkpt lat="38.2571267" lon="15.7151533"><ele>16.0</ele><time>2026-04-06T14:24:34.187Z</time></trkpt><trkpt lat="38.2571717" lon="15.7152367"><ele>16.0</ele><time>2026-04-06T14:24:36.188Z</time></trkpt><trkpt lat="38.2572317" lon="15.7153"><ele>16.0</ele><time>2026-04-06T14:24:38.187Z</time></trkpt><trkpt lat="38.2572767" lon="15.71538"><ele>15.999999999999998</ele><time>2026-04-06T14:24:40.188Z</time></trkpt><trkpt lat="38.257325" lon="15.7154567"><ele>16.0</ele><time>2026-04-06T14:24:42.188Z</time></trkpt><trkpt lat="38.2573617" lon="15.7155533"><ele>14.833333333333332</ele><time>2026-04-06T14:24:44.188Z</time></trkpt><trkpt lat="38.25738" lon="15.7156367"><ele>13.666666666666666</ele><time>2026-04-06T14:24:46.188Z</time></trkpt><trkpt lat="38.2573367" lon="15.715735"><ele>12.5</ele><time>2026-04-06T14:24:48.187Z</time></trkpt><trkpt lat="38.2572883" lon="15.71582"><ele>11.333333333333332</ele><time>2026-04-06T14:24:50.187Z</time></trkpt><trkpt lat="38.25725" lon="15.7159067"><ele>10.166666666666666</ele><time>2026-04-06T14:24:52.188Z</time></trkpt><trkpt lat="38.257205" lon="15.71598"><ele>9.0</ele><time>2026-04-06T14:24:54.188Z</time></trkpt><trkpt lat="38.2571517" lon="15.71603"><ele>9.0</ele><time>2026-04-06T14:24:57.187Z</time></trkpt><trkpt lat="38.2572233" lon="15.716005"><ele>9.0</ele><time>2026-04-06T14:44:03.187Z</time></trkpt><trkpt lat="38.2572633" lon="15.7159383"><ele>9.0</ele><time>2026-04-06T14:44:05.187Z</time></trkpt><trkpt lat="38.25731" lon="15.7158767"><ele>9.0</ele><time>2026-04-06T14:44:07.187Z</time></trkpt><trkpt lat="38.25736" lon="15.715775"><ele>9.0</ele><time>2026-04-06T14:44:10.187Z</time></trkpt><trkpt lat="38.25741" lon="15.71568"><ele>9.0</ele><time>2026-04-06T14:44:13.187Z</time></trkpt><trkpt lat="38.2574233" lon="15.7156"><ele>9.0</ele><time>2026-04-06T14:44:15.186Z</time></trkpt><trkpt lat="38.2573817" lon="15.7155017"><ele>9.0</ele><time>2026-04-06T14:44:18.187Z</time></trkpt><trkpt lat="38.2573333" lon="15.71544"><ele>9.0</ele><time>2026-04-06T14:44:20.187Z</time></trkpt><trkpt lat="38.2572783" lon="15.7153533"><ele>9.0</ele><time>2026-04-06T14:44:23.186Z</time></trkpt><trkpt lat="38.2572217" lon="15.715255"><ele>9.0</ele><time>2026-04-06T14:44:26.187Z</time></trkpt><trkpt lat="38.2571817" lon="15.7151733"><ele>9.0</ele><time>2026-04-06T14:44:28.186Z</time></trkpt><trkpt lat="38.257145" lon="15.7150967"><ele>10.166666666666666</ele><time>2026-04-06T14:44:31.187Z</time></trkpt><trkpt lat="38.2570983" lon="15.715015"><ele>11.333333333333332</ele><time>2026-04-06T14:44:34.187Z</time></trkpt><trkpt lat="38.2570633" lon="15.7149433"><ele>12.5</ele><time>2026-04-06T14:44:36.186Z</time></trkpt><trkpt lat="38.2570267" lon="15.7148717"><ele>13.666666666666666</ele><time>2026-04-06T14:44:39.187Z</time></trkpt><trkpt lat="38.25699" lon="15.7147883"><ele>14.833333333333332</ele><time>2026-04-06T14:44:42.187Z</time></trkpt><trkpt lat="38.2569517" lon="15.7146967"><ele>16.0</ele><time>2026-04-06T14:44:45.187Z</time></trkpt><trkpt lat="38.2568867" lon="15.7145833"><ele>15.999999999999998</ele><time>2026-04-06T14:48:23.186Z</time></trkpt><trkpt lat="38.256815" lon="15.7144833"><ele>16.0</ele><time>2026-04-06T14:48:25.186Z</time></trkpt><trkpt lat="38.256735" lon="15.71437"><ele>16.0</ele><time>2026-04-06T14:48:27.185Z</time></trkpt><trkpt lat="38.2566767" lon="15.7142867"><ele>16.0</ele><time>2026-04-06T14:48:29.186Z</time></trkpt><trkpt lat="38.25663" lon="15.7142283"><ele>15.999999999999998</ele><time>2026-04-06T14:48:32.185Z</time></trkpt><trkpt lat="38.25658" lon="15.714175"><ele>16.0</ele><time>2026-04-06T14:48:34.186Z</time></trkpt><trkpt lat="38.2565133" lon="15.714125"><ele>17.0</ele><time>2026-04-06T14:48:36.186Z</time></trkpt><trkpt lat="38.25643" lon="15.71409"><ele>18.0</ele><time>2026-04-06T14:48:38.185Z</time></trkpt><trkpt lat="38.2563433" lon="15.714065"><ele>19.0</ele><time>2026-04-06T14:48:40.185Z</time></trkpt><trkpt lat="38.256265" lon="15.7139917"><ele>20.0</ele><time>2026-04-06T14:48:42.186Z</time></trkpt><trkpt lat="38.2561867" lon="15.713915"><ele>21.0</ele><time>2026-04-06T14:48:44.186Z</time></trkpt><trkpt lat="38.2561" lon="15.7138467"><ele>21.0</ele><time>2026-04-06T14:48:46.185Z</time></trkpt><trkpt lat="38.2560483" lon="15.7137983"><ele>21.0</ele><time>2026-04-06T14:48:47.186Z</time></trkpt><trkpt lat="38.25598" lon="15.7139083"><ele>21.0</ele><time>2026-04-06T14:48:48.186Z</time></trkpt><trkpt lat="38.25587" lon="15.7139433"><ele>21.0</ele><time>2026-04-06T14:48:50.186Z</time></trkpt><trkpt lat="38.255755" lon="15.7139833"><ele>21.0</ele><time>2026-04-06T14:48:52.186Z</time></trkpt><trkpt lat="38.25564" lon="15.7140133"><ele>19.833333333333332</ele><time>2026-04-06T14:48:54.186Z</time></trkpt><trkpt lat="38.2555767" lon="15.7140283"><ele>18.666666666666668</ele><time>2026-04-06T14:48:55.185Z</time></trkpt><trkpt lat="38.2554617" lon="15.714065"><ele>17.5</ele><time>2026-04-06T14:48:57.186Z</time></trkpt><trkpt lat="38.255405" lon="15.7141017"><ele>16.333333333333336</ele><time>2026-04-06T14:48:58.186Z</time></trkpt><trkpt lat="38.25535" lon="15.7141417"><ele>15.166666666666668</ele><time>2026-04-06T14:48:59.186Z</time></trkpt><trkpt lat="38.2552517" lon="15.7141883"><ele>14.0</ele><time>2026-04-06T14:49:01.186Z</time></trkpt><trkpt lat="38.2551633" lon="15.714245"><ele>14.000000000000002</ele><time>2026-04-06T14:49:03.186Z</time></trkpt><trkpt lat="38.2550783" lon="15.7143067"><ele>14.0</ele><time>2026-04-06T14:49:05.185Z</time></trkpt><trkpt lat="38.25499" lon="15.7143267"><ele>14.0</ele><time>2026-04-06T14:49:07.186Z</time></trkpt><trkpt lat="38.25491" lon="15.7143583"><ele>14.0</ele><time>2026-04-06T14:49:09.185Z</time></trkpt><trkpt lat="38.2548333" lon="15.7143983"><ele>14.000000000000002</ele><time>2026-04-06T14:49:11.186Z</time></trkpt><trkpt lat="38.2547433" lon="15.7144367"><ele>14.0</ele><time>2026-04-06T14:49:13.186Z</time></trkpt><trkpt lat="38.2546467" lon="15.71445"><ele>19.2</ele><time>2026-04-06T14:49:15.186Z</time></trkpt><trkpt lat="38.2545467" lon="15.7144417"><ele>24.4</ele><time>2026-04-06T14:49:17.185Z</time></trkpt><trkpt lat="38.254435" lon="15.7144267"><ele>29.6</ele><time>2026-04-06T14:49:19.185Z</time></trkpt><trkpt lat="38.25433" lon="15.7144283"><ele>34.8</ele><time>2026-04-06T14:49:21.186Z</time></trkpt><trkpt lat="38.254235" lon="15.7144517"><ele>40.0</ele><time>2026-04-06T14:49:23.186Z</time></trkpt><trkpt lat="38.2541617" lon="15.7144517"><ele>40.0</ele><time>2026-04-06T14:49:25.186Z</time></trkpt><trkpt lat="38.254095" lon="15.714435"><ele>40.0</ele><time>2026-04-06T14:49:28.186Z</time></trkpt><trkpt lat="38.2540183" lon="15.71444"><ele>40.0</ele><time>2026-04-06T14:50:16.186Z</time></trkpt><trkpt lat="38.253935" lon="15.7144433"><ele>40.0</ele><time>2026-04-06T14:50:19.186Z</time></trkpt><trkpt lat="38.2538533" lon="15.7144217"><ele>40.0</ele><time>2026-04-06T14:50:22.186Z</time></trkpt><trkpt lat="38.253795" lon="15.7143833"><ele>40.0</ele><time>2026-04-06T14:50:25.186Z</time></trkpt><trkpt lat="38.2537483" lon="15.7143167"><ele>40.0</ele><time>2026-04-06T14:50:28.186Z</time></trkpt><trkpt lat="38.253685" lon="15.7142683"><ele>37.5</ele><time>2026-04-06T14:50:30.186Z</time></trkpt><trkpt lat="38.2536017" lon="15.7141967"><ele>35.0</ele><time>2026-04-06T14:50:32.186Z</time></trkpt><trkpt lat="38.2535283" lon="15.71414"><ele>32.5</ele><time>2026-04-06T14:50:34.186Z</time></trkpt><trkpt lat="38.253465" lon="15.7140833"><ele>30.0</ele><time>2026-04-06T14:50:36.185Z</time></trkpt><trkpt lat="38.2534017" lon="15.7140433"><ele>27.500000000000004</ele><time>2026-04-06T14:50:38.186Z</time></trkpt><trkpt lat="38.253355" lon="15.7139733"><ele>25.0</ele><time>2026-04-06T14:50:40.186Z</time></trkpt><trkpt lat="38.2532933" lon="15.7139367"><ele>25.000000000000004</ele><time>2026-04-06T14:50:42.185Z</time></trkpt><trkpt lat="38.2532167" lon="15.713895"><ele>25.0</ele><time>2026-04-06T14:50:44.186Z</time></trkpt><trkpt lat="38.2531183" lon="15.7138333"><ele>25.0</ele><time>2026-04-06T14:50:46.186Z</time></trkpt><trkpt lat="38.2530383" lon="15.7137567"><ele>25.0</ele><time>2026-04-06T14:50:48.186Z</time></trkpt><trkpt lat="38.2529717" lon="15.71372"><ele>25.000000000000004</ele><time>2026-04-06T14:50:51.186Z</time></trkpt><trkpt lat="38.25295" lon="15.71381"><ele>25.0</ele><time>2026-04-06T14:50:54.185Z</time></trkpt><trkpt lat="38.252995" lon="15.7139233"><ele>25.000000000000004</ele><time>2026-04-06T14:50:56.186Z</time></trkpt><trkpt lat="38.2530267" lon="15.7140233"><ele>25.0</ele><time>2026-04-06T14:50:58.186Z</time></trkpt><trkpt lat="38.2530533" lon="15.7141017"><ele>25.0</ele><time>2026-04-06T14:51:00.186Z</time></trkpt><trkpt lat="38.2530867" lon="15.71418"><ele>25.0</ele><time>2026-04-06T14:51:03.185Z</time></trkpt><trkpt lat="38.2531" lon="15.71426"><ele>25.0</ele><time>2026-04-06T14:51:06.186Z</time></trkpt><trkpt lat="38.25314" lon="15.7143417"><ele>25.000000000000004</ele><time>2026-04-06T14:51:09.186Z</time></trkpt><trkpt lat="38.2531967" lon="15.7144217"><ele>25.0</ele><time>2026-04-06T14:51:13.186Z</time></trkpt><trkpt lat="38.2532617" lon="15.7144917"><ele>33.4</ele><time>2026-04-06T14:51:15.186Z</time></trkpt><trkpt lat="38.2533367" lon="15.7145817"><ele>41.8</ele><time>2026-04-06T14:51:17.186Z</time></trkpt><trkpt lat="38.25344" lon="15.714655"><ele>50.2</ele><time>2026-04-06T14:51:19.186Z</time></trkpt><trkpt lat="38.2535517" lon="15.7147133"><ele>58.6</ele><time>2026-04-06T14:51:21.186Z</time></trkpt><trkpt lat="38.2536133" lon="15.7147433"><ele>67.0</ele><time>2026-04-06T14:51:22.186Z</time></trkpt><trkpt lat="38.25367" lon="15.71478"><ele>67.0</ele><time>2026-04-06T14:51:23.185Z</time></trkpt><trkpt lat="38.2537717" lon="15.714835"><ele>67.0</ele><time>2026-04-06T14:51:25.186Z</time></trkpt><trkpt lat="38.2538567" lon="15.714885"><ele>67.0</ele><time>2026-04-06T14:51:27.185Z</time></trkpt><trkpt lat="38.25397" lon="15.7149483"><ele>67.0</ele><time>2026-04-06T14:51:29.186Z</time></trkpt><trkpt lat="38.2540767" lon="15.7149833"><ele>67.0</ele><time>2026-04-06T14:51:31.186Z</time></trkpt><trkpt lat="38.2541917" lon="15.71504"><ele>66.2</ele><time>2026-04-06T14:51:33.186Z</time></trkpt><trkpt lat="38.2542967" lon="15.7150967"><ele>65.4</ele><time>2026-04-06T14:51:35.186Z</time></trkpt><trkpt lat="38.2544017" lon="15.7151483"><ele>64.6</ele><time>2026-04-06T14:51:37.186Z</time></trkpt><trkpt lat="38.254515" lon="15.71519"><ele>63.8</ele><time>2026-04-06T14:51:39.186Z</time></trkpt><trkpt lat="38.254585" lon="15.7152567"><ele>63.0</ele><time>2026-04-06T14:51:40.186Z</time></trkpt><trkpt lat="38.2547067" lon="15.715265"><ele>63.0</ele><time>2026-04-06T14:51:42.186Z</time></trkpt><trkpt lat="38.2547717" lon="15.7152383"><ele>63.0</ele><time>2026-04-06T14:51:43.185Z</time></trkpt><trkpt lat="38.254845" lon="15.7152133"><ele>63.0</ele><time>2026-04-06T14:51:44.185Z</time></trkpt><trkpt lat="38.254925" lon="15.7151933"><ele>63.0</ele><time>2026-04-06T14:51:45.185Z</time></trkpt><trkpt lat="38.255005" lon="15.715175"><ele>63.0</ele><time>2026-04-06T14:51:46.185Z</time></trkpt><trkpt lat="38.25508" lon="15.7151517"><ele>63.0</ele><time>2026-04-06T14:51:47.186Z</time></trkpt><trkpt lat="38.255155" lon="15.71513"><ele>58.0</ele><time>2026-04-06T14:51:48.186Z</time></trkpt><trkpt lat="38.2552167" lon="15.715095"><ele>53.0</ele><time>2026-04-06T14:51:49.185Z</time></trkpt><trkpt lat="38.25528" lon="15.7150617"><ele>48.0</ele><time>2026-04-06T14:51:50.186Z</time></trkpt><trkpt lat="38.25538" lon="15.7149817"><ele>43.0</ele><time>2026-04-06T14:51:52.185Z</time></trkpt><trkpt lat="38.255455" lon="15.7148883"><ele>38.0</ele><time>2026-04-06T14:51:54.186Z</time></trkpt><trkpt lat="38.2555" lon="15.7148217"><ele>33.0</ele><time>2026-04-06T14:51:56.185Z</time></trkpt><trkpt lat="38.2555717" lon="15.7148267"><ele>33.0</ele><time>2026-04-06T14:51:59.186Z</time></trkpt><trkpt lat="38.25552" lon="15.714925"><ele>33.0</ele><time>2026-04-06T14:52:02.185Z</time></trkpt><trkpt lat="38.255425" lon="15.714965"><ele>33.0</ele><time>2026-04-06T14:52:04.186Z</time></trkpt><trkpt lat="38.255355" lon="15.7150217"><ele>33.0</ele><time>2026-04-06T14:52:16.186Z</time></trkpt><trkpt lat="38.2552983" lon="15.715075"><ele>33.0</ele><time>2026-04-06T14:52:18.186Z</time></trkpt><trkpt lat="38.2552433" lon="15.7151267"><ele>33.0</ele><time>2026-04-06T14:52:20.186Z</time></trkpt><trkpt lat="38.25518" lon="15.715185"><ele>32.6</ele><time>2026-04-06T14:52:22.185Z</time></trkpt><trkpt lat="38.255115" lon="15.7152467"><ele>32.199999999999996</ele><time>2026-04-06T14:52:24.186Z</time></trkpt><trkpt lat="38.2550633" lon="15.7153133"><ele>31.8</ele><time>2026-04-06T14:52:27.186Z</time></trkpt><trkpt lat="38.255025" lon="15.7154433"><ele>31.4</ele><time>2026-04-06T14:52:30.186Z</time></trkpt><trkpt lat="38.254975" lon="15.7155583"><ele>31.0</ele><time>2026-04-06T14:52:32.185Z</time></trkpt><trkpt lat="38.2549083" lon="15.715665"><ele>31.0</ele><time>2026-04-06T14:52:34.186Z</time></trkpt><trkpt lat="38.2548317" lon="15.7157533"><ele>31.0</ele><time>2026-04-06T14:52:36.185Z</time></trkpt><trkpt lat="38.2547683" lon="15.7157933"><ele>31.0</ele><time>2026-04-06T14:52:39.186Z</time></trkpt><trkpt lat="38.25468" lon="15.71588"><ele>31.0</ele><time>2026-04-06T14:52:48.186Z</time></trkpt><trkpt lat="38.25458" lon="15.71593"><ele>31.0</ele><time>2026-04-06T14:52:50.185Z</time></trkpt><trkpt lat="38.2545167" lon="15.715965"><ele>33.4</ele><time>2026-04-06T14:52:51.185Z</time></trkpt><trkpt lat="38.2544133" lon="15.71606"><ele>35.8</ele><time>2026-04-06T14:52:53.186Z</time></trkpt><trkpt lat="38.2543633" lon="15.7161333"><ele>38.199999999999996</ele><time>2026-04-06T14:52:54.186Z</time></trkpt><trkpt lat="38.254315" lon="15.716225"><ele>40.6</ele><time>2026-04-06T14:52:55.185Z</time></trkpt><trkpt lat="38.2542683" lon="15.7163233"><ele>43.0</ele><time>2026-04-06T14:52:56.186Z</time></trkpt><trkpt lat="38.25422" lon="15.7164217"><ele>43.0</ele><time>2026-04-06T14:52:57.185Z</time></trkpt><trkpt lat="38.2541767" lon="15.7165133"><ele>43.0</ele><time>2026-04-06T14:52:58.185Z</time></trkpt><trkpt lat="38.2541567" lon="15.7166017"><ele>43.0</ele><time>2026-04-06T14:52:59.186Z</time></trkpt><trkpt lat="38.2541033" lon="15.716735"><ele>43.0</ele><time>2026-04-06T14:53:01.186Z</time></trkpt><trkpt lat="38.25405" lon="15.716885"><ele>43.0</ele><time>2026-04-06T14:53:03.186Z</time></trkpt><trkpt lat="38.254015" lon="15.7169567"><ele>40.333333333333336</ele><time>2026-04-06T14:53:04.186Z</time></trkpt><trkpt lat="38.2539883" lon="15.7170417"><ele>37.66666666666667</ele><time>2026-04-06T14:53:05.185Z</time></trkpt><trkpt lat="38.25396" lon="15.7171167"><ele>35.0</ele><time>2026-04-06T14:53:06.186Z</time></trkpt><trkpt lat="38.253905" lon="15.717235"><ele>32.333333333333336</ele><time>2026-04-06T14:53:08.186Z</time></trkpt><trkpt lat="38.2538533" lon="15.7173117"><ele>29.666666666666668</ele><time>2026-04-06T14:53:10.186Z</time></trkpt><trkpt lat="38.2538" lon="15.7173767"><ele>27.0</ele><time>2026-04-06T14:53:13.185Z</time></trkpt><trkpt lat="38.2537517" lon="15.7174783"><ele>35.833333333333336</ele><time>2026-04-06T14:53:16.186Z</time></trkpt><trkpt lat="38.2537117" lon="15.7175767"><ele>44.66666666666667</ele><time>2026-04-06T14:53:18.186Z</time></trkpt><trkpt lat="38.2536683" lon="15.7177083"><ele>53.5</ele><time>2026-04-06T14:53:20.185Z</time></trkpt><trkpt lat="38.2536583" lon="15.71779"><ele>62.333333333333336</ele><time>2026-04-06T14:53:21.186Z</time></trkpt><trkpt lat="38.2536583" lon="15.7178833"><ele>71.16666666666667</ele><time>2026-04-06T14:53:22.186Z</time></trkpt><trkpt lat="38.253665" lon="15.7179767"><ele>80.0</ele><time>2026-04-06T14:53:23.186Z</time></trkpt><trkpt lat="38.2536617" lon="15.71807"><ele>80.0</ele><time>2026-04-06T14:53:24.185Z</time></trkpt><trkpt lat="38.2536683" lon="15.7181617"><ele>80.0</ele><time>2026-04-06T14:53:25.186Z</time></trkpt><trkpt lat="38.2536617" lon="15.7182667"><ele>80.0</ele><time>2026-04-06T14:53:26.186Z</time></trkpt><trkpt lat="38.2536517" lon="15.7183583"><ele>80.0</ele><time>2026-04-06T14:53:27.186Z</time></trkpt><trkpt lat="38.25364" lon="15.7184617"><ele>80.0</ele><time>2026-04-06T14:53:28.186Z</time></trkpt><trkpt lat="38.25363" lon="15.718565"><ele>80.0</ele><time>2026-04-06T14:53:29.185Z</time></trkpt><trkpt lat="38.25362" lon="15.7186717"><ele>79.16666666666667</ele><time>2026-04-06T14:53:30.185Z</time></trkpt><trkpt lat="38.2536233" lon="15.718775"><ele>78.33333333333334</ele><time>2026-04-06T14:53:31.186Z</time></trkpt><trkpt lat="38.2536267" lon="15.7188833"><ele>77.5</ele><time>2026-04-06T14:53:32.185Z</time></trkpt><trkpt lat="38.2536317" lon="15.71899"><ele>76.66666666666667</ele><time>2026-04-06T14:53:33.186Z</time></trkpt><trkpt lat="38.2536317" lon="15.7190967"><ele>75.83333333333333</ele><time>2026-04-06T14:53:34.186Z</time></trkpt><trkpt lat="38.2536217" lon="15.7192067"><ele>75.0</ele><time>2026-04-06T14:53:35.185Z</time></trkpt><trkpt lat="38.2536067" lon="15.719305"><ele>73.33333333333333</ele><time>2026-04-06T14:53:36.185Z</time></trkpt><trkpt lat="38.2535833" lon="15.71941"><ele>71.66666666666667</ele><time>2026-04-06T14:53:37.186Z</time></trkpt><trkpt lat="38.2535633" lon="15.7195033"><ele>70.0</ele><time>2026-04-06T14:53:38.186Z</time></trkpt><trkpt lat="38.2535367" lon="15.7195917"><ele>68.33333333333334</ele><time>2026-04-06T14:53:39.186Z</time></trkpt><trkpt lat="38.2535117" lon="15.71967"><ele>66.66666666666667</ele><time>2026-04-06T14:53:40.185Z</time></trkpt><trkpt lat="38.25349" lon="15.7197617"><ele>65.0</ele><time>2026-04-06T14:53:41.186Z</time></trkpt><trkpt lat="38.2534667" lon="15.7198583"><ele>65.0</ele><time>2026-04-06T14:53:42.186Z</time></trkpt><trkpt lat="38.2534533" lon="15.7199583"><ele>65.0</ele><time>2026-04-06T14:53:43.186Z</time></trkpt><trkpt lat="38.2534517" lon="15.720065"><ele>65.0</ele><time>2026-04-06T14:53:44.185Z</time></trkpt><trkpt lat="38.2534567" lon="15.7201767"><ele>65.0</ele><time>2026-04-06T14:53:45.185Z</time></trkpt><trkpt lat="38.2534717" lon="15.7202917"><ele>65.0</ele><time>2026-04-06T14:53:46.186Z</time></trkpt><trkpt lat="38.2534917" lon="15.7204083"><ele>65.0</ele><time>2026-04-06T14:53:47.185Z</time></trkpt><trkpt lat="38.2535133" lon="15.7205267"><ele>65.4</ele><time>2026-04-06T14:53:48.185Z</time></trkpt><trkpt lat="38.2535367" lon="15.7206483"><ele>65.8</ele><time>2026-04-06T14:53:49.185Z</time></trkpt><trkpt lat="38.2535617" lon="15.720775"><ele>66.2</ele><time>2026-04-06T14:53:50.186Z</time></trkpt><trkpt lat="38.253585" lon="15.72089"><ele>66.6</ele><time>2026-04-06T14:53:51.186Z</time></trkpt><trkpt lat="38.2536033" lon="15.721005"><ele>67.0</ele><time>2026-04-06T14:53:52.186Z</time></trkpt><trkpt lat="38.253615" lon="15.72113"><ele>66.0</ele><time>2026-04-06T14:53:53.186Z</time></trkpt><trkpt lat="38.2536217" lon="15.7212617"><ele>65.0</ele><time>2026-04-06T14:53:54.186Z</time></trkpt><trkpt lat="38.253625" lon="15.721395"><ele>64.0</ele><time>2026-04-06T14:53:55.186Z</time></trkpt><trkpt lat="38.253625" lon="15.7215167"><ele>63.0</ele><time>2026-04-06T14:53:56.186Z</time></trkpt><trkpt lat="38.2536183" lon="15.72163"><ele>62.0</ele><time>2026-04-06T14:53:57.185Z</time></trkpt><trkpt lat="38.2536067" lon="15.7217417"><ele>62.00000000000001</ele><time>2026-04-06T14:53:58.186Z</time></trkpt><trkpt lat="38.25359" lon="15.721855"><ele>62.0</ele><time>2026-04-06T14:53:59.186Z</time></trkpt><trkpt lat="38.2535767" lon="15.7219583"><ele>62.0</ele><time>2026-04-06T14:54:00.186Z</time></trkpt><trkpt lat="38.2535617" lon="15.7220517"><ele>62.0</ele><time>2026-04-06T14:54:01.186Z</time></trkpt><trkpt lat="38.25355" lon="15.722145"><ele>62.00000000000001</ele><time>2026-04-06T14:54:02.185Z</time></trkpt><trkpt lat="38.2535433" lon="15.7222333"><ele>62.0</ele><time>2026-04-06T14:54:03.186Z</time></trkpt><trkpt lat="38.2535267" lon="15.7223267"><ele>59.142857142857146</ele><time>2026-04-06T14:54:04.186Z</time></trkpt><trkpt lat="38.253505" lon="15.722415"><ele>56.28571428571429</ele><time>2026-04-06T14:54:05.186Z</time></trkpt><trkpt lat="38.2534967" lon="15.7225"><ele>53.42857142857143</ele><time>2026-04-06T14:54:06.186Z</time></trkpt><trkpt lat="38.25349" lon="15.7225833"><ele>50.57142857142857</ele><time>2026-04-06T14:54:07.186Z</time></trkpt><trkpt lat="38.2534833" lon="15.722665"><ele>47.714285714285715</ele><time>2026-04-06T14:54:08.185Z</time></trkpt><trkpt lat="38.2534683" lon="15.7227867"><ele>44.85714285714286</ele><time>2026-04-06T14:54:10.186Z</time></trkpt><trkpt lat="38.2534517" lon="15.7228883"><ele>42.0</ele><time>2026-04-06T14:54:12.186Z</time></trkpt><trkpt lat="38.25343" lon="15.7229933"><ele>40.833333333333336</ele><time>2026-04-06T14:54:14.186Z</time></trkpt><trkpt lat="38.2534133" lon="15.7230717"><ele>39.666666666666664</ele><time>2026-04-06T14:54:19.185Z</time></trkpt><trkpt lat="38.2534033" lon="15.7231867"><ele>38.5</ele><time>2026-04-06T14:54:34.185Z</time></trkpt><trkpt lat="38.253395" lon="15.7232817"><ele>37.33333333333333</ele><time>2026-04-06T14:54:35.186Z</time></trkpt><trkpt lat="38.2533833" lon="15.7233783"><ele>36.166666666666664</ele><time>2026-04-06T14:54:36.186Z</time></trkpt><trkpt lat="38.2533667" lon="15.723485"><ele>35.0</ele><time>2026-04-06T14:54:37.186Z</time></trkpt><trkpt lat="38.25335" lon="15.7236"><ele>34.2</ele><time>2026-04-06T14:54:38.186Z</time></trkpt><trkpt lat="38.253335" lon="15.7237183"><ele>33.4</ele><time>2026-04-06T14:54:39.186Z</time></trkpt><trkpt lat="38.253305" lon="15.7238483"><ele>32.6</ele><time>2026-04-06T14:54:40.186Z</time></trkpt><trkpt lat="38.2532867" lon="15.7239933"><ele>31.8</ele><time>2026-04-06T14:54:41.186Z</time></trkpt><trkpt lat="38.2532717" lon="15.7241383"><ele>31.0</ele><time>2026-04-06T14:54:42.186Z</time></trkpt><trkpt lat="38.2532517" lon="15.7242717"><ele>31.000000000000004</ele><time>2026-04-06T14:54:43.185Z</time></trkpt><trkpt lat="38.2532267" lon="15.724385"><ele>31.0</ele><time>2026-04-06T14:54:44.186Z</time></trkpt><trkpt lat="38.2532033" lon="15.7244933"><ele>31.0</ele><time>2026-04-06T14:54:45.186Z</time></trkpt><trkpt lat="38.253175" lon="15.7245933"><ele>31.0</ele><time>2026-04-06T14:54:46.185Z</time></trkpt><trkpt lat="38.2531517" lon="15.7246783"><ele>31.000000000000004</ele><time>2026-04-06T14:54:47.185Z</time></trkpt><trkpt lat="38.253135" lon="15.7247567"><ele>31.0</ele><time>2026-04-06T14:54:48.186Z</time></trkpt><trkpt lat="38.2531067" lon="15.7248967"><ele>36.6</ele><time>2026-04-06T14:54:50.186Z</time></trkpt><trkpt lat="38.25307" lon="15.7250583"><ele>42.2</ele><time>2026-04-06T14:54:52.186Z</time></trkpt><trkpt lat="38.2530533" lon="15.7251633"><ele>47.800000000000004</ele><time>2026-04-06T14:54:53.186Z</time></trkpt><trkpt lat="38.25303" lon="15.7252833"><ele>53.400000000000006</ele><time>2026-04-06T14:54:54.186Z</time></trkpt><trkpt lat="38.2530067" lon="15.7254"><ele>59.0</ele><time>2026-04-06T14:54:55.186Z</time></trkpt><trkpt lat="38.2529817" lon="15.7255133"><ele>59.00000000000001</ele><time>2026-04-06T14:54:56.186Z</time></trkpt><trkpt lat="38.2529583" lon="15.7256233"><ele>59.0</ele><time>2026-04-06T14:54:57.186Z</time></trkpt><trkpt lat="38.2529367" lon="15.7257267"><ele>59.0</ele><time>2026-04-06T14:54:58.185Z</time></trkpt><trkpt lat="38.252915" lon="15.7258133"><ele>59.0</ele><time>2026-04-06T14:54:59.185Z</time></trkpt><trkpt lat="38.2528967" lon="15.7259"><ele>59.00000000000001</ele><time>2026-04-06T14:55:00.185Z</time></trkpt><trkpt lat="38.2528867" lon="15.72598"><ele>59.0</ele><time>2026-04-06T14:55:01.186Z</time></trkpt><trkpt lat="38.25286" lon="15.7261183"><ele>54.800000000000004</ele><time>2026-04-06T14:55:03.186Z</time></trkpt><trkpt lat="38.252835" lon="15.726225"><ele>50.60000000000001</ele><time>2026-04-06T14:55:05.186Z</time></trkpt><trkpt lat="38.252825" lon="15.726325"><ele>46.4</ele><time>2026-04-06T14:55:08.186Z</time></trkpt><trkpt lat="38.2528583" lon="15.7264083"><ele>42.2</ele><time>2026-04-06T14:55:10.186Z</time></trkpt><trkpt lat="38.25295" lon="15.726495"><ele>38.0</ele><time>2026-04-06T14:55:12.186Z</time></trkpt><trkpt lat="38.253025" lon="15.726605"><ele>38.0</ele><time>2026-04-06T14:55:14.186Z</time></trkpt><trkpt lat="38.2530567" lon="15.726675"><ele>38.0</ele><time>2026-04-06T14:55:15.185Z</time></trkpt><trkpt lat="38.253085" lon="15.7267517"><ele>38.0</ele><time>2026-04-06T14:55:16.186Z</time></trkpt><trkpt lat="38.2531083" lon="15.7268267"><ele>38.0</ele><time>2026-04-06T14:55:17.185Z</time></trkpt><trkpt lat="38.2531367" lon="15.7268983"><ele>38.0</ele><time>2026-04-06T14:55:18.186Z</time></trkpt><trkpt lat="38.2531733" lon="15.7269783"><ele>38.0</ele><time>2026-04-06T14:55:19.186Z</time></trkpt><trkpt lat="38.2532167" lon="15.7270633"><ele>38.0</ele><time>2026-04-06T14:55:20.186Z</time></trkpt><trkpt lat="38.2532533" lon="15.7271583"><ele>34.166666666666664</ele><time>2026-04-06T14:55:21.186Z</time></trkpt><trkpt lat="38.2532817" lon="15.7272533"><ele>30.333333333333332</ele><time>2026-04-06T14:55:22.186Z</time></trkpt><trkpt lat="38.253305" lon="15.727345"><ele>26.5</ele><time>2026-04-06T14:55:23.186Z</time></trkpt><trkpt lat="38.2533183" lon="15.7274517"><ele>22.666666666666664</ele><time>2026-04-06T14:55:24.186Z</time></trkpt><trkpt lat="38.25332" lon="15.7275583"><ele>18.833333333333332</ele><time>2026-04-06T14:55:25.185Z</time></trkpt><trkpt lat="38.253325" lon="15.7276633"><ele>15.0</ele><time>2026-04-06T14:55:26.186Z</time></trkpt><trkpt lat="38.2533167" lon="15.7277717"><ele>13.6</ele><time>2026-04-06T14:55:27.186Z</time></trkpt><trkpt lat="38.2533" lon="15.727885"><ele>12.2</ele><time>2026-04-06T14:55:28.185Z</time></trkpt><trkpt lat="38.2532683" lon="15.728005"><ele>10.8</ele><time>2026-04-06T14:55:29.186Z</time></trkpt><trkpt lat="38.2532233" lon="15.72813"><ele>9.4</ele><time>2026-04-06T14:55:30.185Z</time></trkpt><trkpt lat="38.2531683" lon="15.7282417"><ele>8.0</ele><time>2026-04-06T14:55:31.186Z</time></trkpt><trkpt lat="38.253095" lon="15.7283383"><ele>10.5</ele><time>2026-04-06T14:55:32.186Z</time></trkpt><trkpt lat="38.2530117" lon="15.72844"><ele>13.0</ele><time>2026-04-06T14:55:33.186Z</time></trkpt><trkpt lat="38.252915" lon="15.7285383"><ele>15.5</ele><time>2026-04-06T14:55:34.186Z</time></trkpt><trkpt lat="38.25281" lon="15.7285983"><ele>18.0</ele><time>2026-04-06T14:55:35.186Z</time></trkpt><trkpt lat="38.2527017" lon="15.7286517"><ele>18.0</ele><time>2026-04-06T14:55:36.185Z</time></trkpt><trkpt lat="38.2525933" lon="15.7286867"><ele>18.0</ele><time>2026-04-06T14:55:37.186Z</time></trkpt><trkpt lat="38.25248" lon="15.7287"><ele>18.0</ele><time>2026-04-06T14:55:38.186Z</time></trkpt><trkpt lat="38.25234" lon="15.7286883"><ele>18.0</ele><time>2026-04-06T14:55:39.186Z</time></trkpt><trkpt lat="38.2522133" lon="15.7286617"><ele>29.25</ele><time>2026-04-06T14:55:40.186Z</time></trkpt><trkpt lat="38.2520917" lon="15.7286117"><ele>40.5</ele><time>2026-04-06T14:55:41.186Z</time></trkpt><trkpt lat="38.2519833" lon="15.7285567"><ele>51.75</ele><time>2026-04-06T14:55:42.186Z</time></trkpt><trkpt lat="38.2518783" lon="15.728485"><ele>63.0</ele><time>2026-04-06T14:55:43.186Z</time></trkpt><trkpt lat="38.2517883" lon="15.72841"><ele>64.0</ele><time>2026-04-06T14:55:44.186Z</time></trkpt><trkpt lat="38.2517083" lon="15.7283383"><ele>65.0</ele><time>2026-04-06T14:55:45.186Z</time></trkpt><trkpt lat="38.2516283" lon="15.7282683"><ele>66.0</ele><time>2026-04-06T14:55:46.186Z</time></trkpt><trkpt lat="38.2515567" lon="15.7282033"><ele>67.0</ele><time>2026-04-06T14:55:47.185Z</time></trkpt><trkpt lat="38.2514783" lon="15.7281433"><ele>68.0</ele><time>2026-04-06T14:55:48.186Z</time></trkpt><trkpt lat="38.2513917" lon="15.7280867"><ele>73.2</ele><time>2026-04-06T14:55:49.186Z</time></trkpt><trkpt lat="38.2513067" lon="15.7280183"><ele>78.4</ele><time>2026-04-06T14:55:50.185Z</time></trkpt><trkpt lat="38.2512217" lon="15.72795"><ele>83.60000000000001</ele><time>2026-04-06T14:55:51.186Z</time></trkpt><trkpt lat="38.251135" lon="15.7278833"><ele>88.8</ele><time>2026-04-06T14:55:52.185Z</time></trkpt><trkpt lat="38.25105" lon="15.7278183"><ele>94.0</ele><time>2026-04-06T14:55:53.185Z</time></trkpt><trkpt lat="38.2508233" lon="15.72762"><ele>94.0</ele><time>2026-04-06T14:55:56.172Z</time></trkpt><trkpt lat="38.25108" lon="15.7271033"><ele>88.33333333333333</ele><time>2026-04-06T14:55:57.172Z</time></trkpt><trkpt lat="38.251095" lon="15.72684"><ele>82.66666666666667</ele><time>2026-04-06T14:55:58.172Z</time></trkpt><trkpt lat="38.2511117" lon="15.72667"><ele>77.0</ele><time>2026-04-06T14:55:59.171Z</time></trkpt><trkpt lat="38.2511167" lon="15.72651"><ele>77.0</ele><time>2026-04-06T14:56:00.172Z</time></trkpt><trkpt lat="38.2511067" lon="15.726365"><ele>77.0</ele><time>2026-04-06T14:56:01.172Z</time></trkpt><trkpt lat="38.2510967" lon="15.72622"><ele>77.0</ele><time>2026-04-06T14:56:02.171Z</time></trkpt><trkpt lat="38.2510883" lon="15.7260783"><ele>77.0</ele><time>2026-04-06T14:56:03.172Z</time></trkpt><trkpt lat="38.2510767" lon="15.72594"><ele>77.0</ele><time>2026-04-06T14:56:04.172Z</time></trkpt><trkpt lat="38.251065" lon="15.7258"><ele>86.0</ele><time>2026-04-06T14:56:05.171Z</time></trkpt><trkpt lat="38.251055" lon="15.7256617"><ele>95.0</ele><time>2026-04-06T14:56:06.172Z</time></trkpt><trkpt lat="38.251045" lon="15.725515"><ele>104.0</ele><time>2026-04-06T14:56:07.172Z</time></trkpt><trkpt lat="38.252005" lon="15.72185"><ele>103.99999999999999</ele><time>2026-04-06T14:56:38.172Z</time></trkpt><trkpt lat="38.252075" lon="15.7217817"><ele>104.0</ele><time>2026-04-06T14:56:39.172Z</time></trkpt><trkpt lat="38.2521317" lon="15.7217117"><ele>104.0</ele><time>2026-04-06T14:56:40.172Z</time></trkpt><trkpt lat="38.2521683" lon="15.721615"><ele>104.0</ele><time>2026-04-06T14:56:41.172Z</time></trkpt><trkpt lat="38.2521967" lon="15.721505"><ele>103.99999999999999</ele><time>2026-04-06T14:56:42.172Z</time></trkpt><trkpt lat="38.2522117" lon="15.7213833"><ele>104.0</ele><time>2026-04-06T14:56:43.171Z</time></trkpt><trkpt lat="38.2522067" lon="15.7212667"><ele>103.99999999999999</ele><time>2026-04-06T14:56:44.171Z</time></trkpt><trkpt lat="38.2521983" lon="15.7211483"><ele>104.0</ele><time>2026-04-06T14:56:45.172Z</time></trkpt><trkpt lat="38.252185" lon="15.72104"><ele>104.0</ele><time>2026-04-06T14:56:46.171Z</time></trkpt><trkpt lat="38.25218" lon="15.7209333"><ele>104.0</ele><time>2026-04-06T14:56:47.172Z</time></trkpt><trkpt lat="38.2521583" lon="15.720825"><ele>103.99999999999999</ele><time>2026-04-06T14:56:48.172Z</time></trkpt><trkpt lat="38.252125" lon="15.7207283"><ele>104.0</ele><time>2026-04-06T14:56:49.171Z</time></trkpt><trkpt lat="38.25208" lon="15.7206417"><ele>104.49999999999999</ele><time>2026-04-06T14:56:50.171Z</time></trkpt><trkpt lat="38.2520167" lon="15.72057"><ele>105.0</ele><time>2026-04-06T14:56:51.172Z</time></trkpt><trkpt lat="38.2519383" lon="15.72052"><ele>105.5</ele><time>2026-04-06T14:56:52.172Z</time></trkpt><trkpt lat="38.2518533" lon="15.7204933"><ele>106.0</ele><time>2026-04-06T14:56:53.172Z</time></trkpt><trkpt lat="38.25176" lon="15.7204867"><ele>106.49999999999999</ele><time>2026-04-06T14:56:54.172Z</time></trkpt><trkpt lat="38.251665" lon="15.72049"><ele>107.0</ele><time>2026-04-06T14:56:55.172Z</time></trkpt><trkpt lat="38.2515733" lon="15.720495"><ele>106.99999999999999</ele><time>2026-04-06T14:56:56.172Z</time></trkpt><trkpt lat="38.2514983" lon="15.7205017"><ele>107.0</ele><time>2026-04-06T14:56:57.172Z</time></trkpt><trkpt lat="38.2514267" lon="15.7205"><ele>107.0</ele><time>2026-04-06T14:56:58.172Z</time></trkpt><trkpt lat="38.2513583" lon="15.7204967"><ele>107.0</ele><time>2026-04-06T14:56:59.171Z</time></trkpt><trkpt lat="38.251295" lon="15.7204933"><ele>106.99999999999999</ele><time>2026-04-06T14:57:00.171Z</time></trkpt><trkpt lat="38.2512" lon="15.7204883"><ele>107.0</ele><time>2026-04-06T14:57:02.171Z</time></trkpt><trkpt lat="38.2511233" lon="15.7204833"><ele>108.49999999999999</ele><time>2026-04-06T14:57:07.171Z</time></trkpt><trkpt lat="38.2510483" lon="15.7204867"><ele>110.0</ele><time>2026-04-06T14:57:10.172Z</time></trkpt><trkpt lat="38.2509767" lon="15.7204933"><ele>111.5</ele><time>2026-04-06T14:57:14.172Z</time></trkpt><trkpt lat="38.250895" lon="15.7205083"><ele>113.0</ele><time>2026-04-06T14:57:17.171Z</time></trkpt><trkpt lat="38.25079" lon="15.7205283"><ele>114.49999999999999</ele><time>2026-04-06T14:57:19.172Z</time></trkpt><trkpt lat="38.250685" lon="15.720565"><ele>116.0</ele><time>2026-04-06T14:57:21.171Z</time></trkpt><trkpt lat="38.2506233" lon="15.7206033"><ele>117.83333333333333</ele><time>2026-04-06T14:57:22.171Z</time></trkpt><trkpt lat="38.250555" lon="15.720655"><ele>119.66666666666666</ele><time>2026-04-06T14:57:23.172Z</time></trkpt><trkpt lat="38.2505017" lon="15.7207283"><ele>121.5</ele><time>2026-04-06T14:57:24.172Z</time></trkpt><trkpt lat="38.2504633" lon="15.7208167"><ele>123.33333333333334</ele><time>2026-04-06T14:57:25.172Z</time></trkpt><trkpt lat="38.25044" lon="15.720915"><ele>125.16666666666667</ele><time>2026-04-06T14:57:26.172Z</time></trkpt><trkpt lat="38.2504333" lon="15.7210283"><ele>127.0</ele><time>2026-04-06T14:57:27.172Z</time></trkpt><trkpt lat="38.2504333" lon="15.7211367"><ele>127.00000000000001</ele><time>2026-04-06T14:57:28.172Z</time></trkpt><trkpt lat="38.2504467" lon="15.7212467"><ele>127.0</ele><time>2026-04-06T14:57:29.172Z</time></trkpt><trkpt lat="38.2504517" lon="15.7213517"><ele>127.0</ele><time>2026-04-06T14:57:30.171Z</time></trkpt><trkpt lat="38.2504483" lon="15.7214583"><ele>127.0</ele><time>2026-04-06T14:57:31.172Z</time></trkpt><trkpt lat="38.2504383" lon="15.7215667"><ele>127.00000000000001</ele><time>2026-04-06T14:57:32.172Z</time></trkpt><trkpt lat="38.2504133" lon="15.7216717"><ele>127.0</ele><time>2026-04-06T14:57:33.172Z</time></trkpt><trkpt lat="38.2503833" lon="15.721765"><ele>127.00000000000001</ele><time>2026-04-06T14:57:34.172Z</time></trkpt><trkpt lat="38.2503233" lon="15.7218467"><ele>127.0</ele><time>2026-04-06T14:57:35.171Z</time></trkpt><trkpt lat="38.25026" lon="15.721905"><ele>127.0</ele><time>2026-04-06T14:57:36.172Z</time></trkpt><trkpt lat="38.250185" lon="15.721935"><ele>127.0</ele><time>2026-04-06T14:57:37.172Z</time></trkpt><trkpt lat="38.2501133" lon="15.721945"><ele>127.00000000000001</ele><time>2026-04-06T14:57:38.172Z</time></trkpt><trkpt lat="38.2500367" lon="15.7219383"><ele>127.0</ele><time>2026-04-06T14:57:39.171Z</time></trkpt><trkpt lat="38.2499683" lon="15.72192"><ele>127.0</ele><time>2026-04-06T14:57:40.172Z</time></trkpt><trkpt lat="38.2499" lon="15.7219017"><ele>127.0</ele><time>2026-04-06T14:57:41.172Z</time></trkpt><trkpt lat="38.2498333" lon="15.721885"><ele>127.0</ele><time>2026-04-06T14:57:42.172Z</time></trkpt><trkpt lat="38.2497583" lon="15.7218683"><ele>127.0</ele><time>2026-04-06T14:57:43.172Z</time></trkpt><trkpt lat="38.249685" lon="15.72185"><ele>127.0</ele><time>2026-04-06T14:57:44.172Z</time></trkpt><trkpt lat="38.24961" lon="15.7218383"><ele>127.0</ele><time>2026-04-06T14:57:45.172Z</time></trkpt><trkpt lat="38.2495367" lon="15.7218233"><ele>127.0</ele><time>2026-04-06T14:57:46.172Z</time></trkpt><trkpt lat="38.2494483" lon="15.721815"><ele>128.6</ele><time>2026-04-06T14:57:47.172Z</time></trkpt><trkpt lat="38.2493517" lon="15.7217917"><ele>130.2</ele><time>2026-04-06T14:57:48.172Z</time></trkpt><trkpt lat="38.2492567" lon="15.72175"><ele>131.8</ele><time>2026-04-06T14:57:49.172Z</time></trkpt><trkpt lat="38.249175" lon="15.721695"><ele>133.4</ele><time>2026-04-06T14:57:50.171Z</time></trkpt><trkpt lat="38.249105" lon="15.7216133"><ele>135.0</ele><time>2026-04-06T14:57:51.172Z</time></trkpt><trkpt lat="38.2490467" lon="15.7215017"><ele>135.0</ele><time>2026-04-06T14:57:52.172Z</time></trkpt><trkpt lat="38.24899" lon="15.7213783"><ele>135.0</ele><time>2026-04-06T14:57:53.172Z</time></trkpt><trkpt lat="38.248955" lon="15.7212367"><ele>135.0</ele><time>2026-04-06T14:57:54.172Z</time></trkpt><trkpt lat="38.248915" lon="15.72108"><ele>135.0</ele><time>2026-04-06T14:57:55.172Z</time></trkpt><trkpt lat="38.248905" lon="15.720925"><ele>138.5</ele><time>2026-04-06T14:57:56.172Z</time></trkpt><trkpt lat="38.2489067" lon="15.720765"><ele>142.0</ele><time>2026-04-06T14:57:57.171Z</time></trkpt><trkpt lat="38.2489083" lon="15.7206"><ele>145.5</ele><time>2026-04-06T14:57:58.172Z</time></trkpt><trkpt lat="38.2489217" lon="15.7204283"><ele>149.0</ele><time>2026-04-06T14:57:59.172Z</time></trkpt><trkpt lat="38.248935" lon="15.7202583"><ele>146.0</ele><time>2026-04-06T14:58:00.171Z</time></trkpt><trkpt lat="38.248965" lon="15.72009"><ele>143.0</ele><time>2026-04-06T14:58:01.172Z</time></trkpt><trkpt lat="38.24902" lon="15.719935"><ele>140.0</ele><time>2026-04-06T14:58:02.172Z</time></trkpt><trkpt lat="38.2490917" lon="15.7197767"><ele>137.0</ele><time>2026-04-06T14:58:03.171Z</time></trkpt><trkpt lat="38.2491583" lon="15.71963"><ele>137.0</ele><time>2026-04-06T14:58:04.172Z</time></trkpt><trkpt lat="38.2492183" lon="15.71948"><ele>137.0</ele><time>2026-04-06T14:58:05.172Z</time></trkpt><trkpt lat="38.24925" lon="15.719335"><ele>137.0</ele><time>2026-04-06T14:58:06.171Z</time></trkpt><trkpt lat="38.249245" lon="15.71919"><ele>137.0</ele><time>2026-04-06T14:58:07.172Z</time></trkpt><trkpt lat="38.2491983" lon="15.7190433"><ele>137.0</ele><time>2026-04-06T14:58:08.172Z</time></trkpt><trkpt lat="38.2491367" lon="15.7188933"><ele>137.0</ele><time>2026-04-06T14:58:09.172Z</time></trkpt><trkpt lat="38.2490633" lon="15.7187567"><ele>137.0</ele><time>2026-04-06T14:58:10.172Z</time></trkpt><trkpt lat="38.24899" lon="15.718645"><ele>137.0</ele><time>2026-04-06T14:58:11.172Z</time></trkpt><trkpt lat="38.248925" lon="15.7185217"><ele>141.25</ele><time>2026-04-06T14:58:12.171Z</time></trkpt><trkpt lat="38.248865" lon="15.7183983"><ele>145.5</ele><time>2026-04-06T14:58:13.172Z</time></trkpt><trkpt lat="38.2488117" lon="15.718265"><ele>149.75</ele><time>2026-04-06T14:58:14.172Z</time></trkpt><trkpt lat="38.2487583" lon="15.7181317"><ele>154.0</ele><time>2026-04-06T14:58:15.172Z</time></trkpt><trkpt lat="38.2487283" lon="15.7179767"><ele>154.0</ele><time>2026-04-06T14:58:16.172Z</time></trkpt><trkpt lat="38.2487217" lon="15.7178233"><ele>154.0</ele><time>2026-04-06T14:58:17.172Z</time></trkpt><trkpt lat="38.2487283" lon="15.7176617"><ele>154.0</ele><time>2026-04-06T14:58:18.172Z</time></trkpt><trkpt lat="38.2487167" lon="15.7174817"><ele>154.0</ele><time>2026-04-06T14:58:19.171Z</time></trkpt><trkpt lat="38.248705" lon="15.7172933"><ele>154.33333333333334</ele><time>2026-04-06T14:58:20.172Z</time></trkpt><trkpt lat="38.24868" lon="15.7170933"><ele>154.66666666666666</ele><time>2026-04-06T14:58:21.172Z</time></trkpt><trkpt lat="38.2486567" lon="15.7168917"><ele>155.0</ele><time>2026-04-06T14:58:22.172Z</time></trkpt><trkpt lat="38.2486383" lon="15.7166833"><ele>155.0</ele><time>2026-04-06T14:58:23.172Z</time></trkpt><trkpt lat="38.2486167" lon="15.7164583"><ele>155.0</ele><time>2026-04-06T14:58:24.172Z</time></trkpt><trkpt lat="38.2486167" lon="15.71624"><ele>155.0</ele><time>2026-04-06T14:58:25.171Z</time></trkpt><trkpt lat="38.2485883" lon="15.716005"><ele>147.0</ele><time>2026-04-06T14:58:26.172Z</time></trkpt><trkpt lat="38.24856" lon="15.7157633"><ele>139.0</ele><time>2026-04-06T14:58:27.171Z</time></trkpt><trkpt lat="38.2485367" lon="15.7155083"><ele>131.0</ele><time>2026-04-06T14:58:28.172Z</time></trkpt><trkpt lat="38.2485067" lon="15.7152667"><ele>122.0</ele><time>2026-04-06T14:58:29.171Z</time></trkpt><trkpt lat="38.24848" lon="15.7150083"><ele>113.0</ele><time>2026-04-06T14:58:30.172Z</time></trkpt><trkpt lat="38.24845" lon="15.7147517"><ele>104.0</ele><time>2026-04-06T14:58:31.171Z</time></trkpt><trkpt lat="38.2484167" lon="15.714495"><ele>107.0</ele><time>2026-04-06T14:58:32.172Z</time></trkpt><trkpt lat="38.2483783" lon="15.7142267"><ele>110.0</ele><time>2026-04-06T14:58:33.172Z</time></trkpt><trkpt lat="38.2483367" lon="15.7139567"><ele>113.0</ele><time>2026-04-06T14:58:34.172Z</time></trkpt><trkpt lat="38.2482917" lon="15.713695"><ele>121.0</ele><time>2026-04-06T14:58:35.171Z</time></trkpt><trkpt lat="38.2482567" lon="15.7134217"><ele>129.0</ele><time>2026-04-06T14:58:36.172Z</time></trkpt><trkpt lat="38.2482333" lon="15.7131633"><ele>137.0</ele><time>2026-04-06T14:58:37.171Z</time></trkpt><trkpt lat="38.248195" lon="15.71291"><ele>140.33333333333331</ele><time>2026-04-06T14:58:38.171Z</time></trkpt><trkpt lat="38.2481567" lon="15.7126517"><ele>143.66666666666666</ele><time>2026-04-06T14:58:39.171Z</time></trkpt><trkpt lat="38.2481133" lon="15.71239"><ele>147.0</ele><time>2026-04-06T14:58:40.172Z</time></trkpt><trkpt lat="38.2480667" lon="15.7121267"><ele>156.5</ele><time>2026-04-06T14:58:41.171Z</time></trkpt><trkpt lat="38.2480267" lon="15.7118667"><ele>166.0</ele><time>2026-04-06T14:58:42.172Z</time></trkpt><trkpt lat="38.2478033" lon="15.7101067"><ele>166.0</ele><time>2026-04-06T14:58:49.171Z</time></trkpt><trkpt lat="38.2477867" lon="15.709675"><ele>166.0</ele><time>2026-04-06T14:58:50.172Z</time></trkpt><trkpt lat="38.2477467" lon="15.7093283"><ele>170.5</ele><time>2026-04-06T14:58:51.171Z</time></trkpt><trkpt lat="38.2477083" lon="15.7090083"><ele>175.0</ele><time>2026-04-06T14:58:52.172Z</time></trkpt><trkpt lat="38.247675" lon="15.7087033"><ele>197.0</ele><time>2026-04-06T14:58:53.171Z</time></trkpt><trkpt lat="38.2476383" lon="15.7084067"><ele>219.0</ele><time>2026-04-06T14:58:54.172Z</time></trkpt><trkpt lat="38.2476033" lon="15.70811"><ele>102.0</ele><time>2026-04-06T14:58:55.172Z</time></trkpt><trkpt lat="38.2448567" lon="15.6894"><ele>115.5</ele><time>2026-04-06T14:59:52.171Z</time></trkpt><trkpt lat="38.2447183" lon="15.689015"><ele>129.0</ele><time>2026-04-06T14:59:53.171Z</time></trkpt><trkpt lat="38.2445767" lon="15.688685"><ele>139.0</ele><time>2026-04-06T14:59:54.17Z</time></trkpt><trkpt lat="38.244445" lon="15.6883733"><ele>149.0</ele><time>2026-04-06T14:59:55.171Z</time></trkpt><trkpt lat="38.24432" lon="15.6880667"><ele>153.5</ele><time>2026-04-06T14:59:56.171Z</time></trkpt><trkpt lat="38.2441967" lon="15.687755"><ele>158.0</ele><time>2026-04-06T14:59:57.171Z</time></trkpt><trkpt lat="38.2440667" lon="15.6874483"><ele>175.0</ele><time>2026-04-06T14:59:58.17Z</time></trkpt><trkpt lat="38.2439367" lon="15.68714"><ele>192.0</ele><time>2026-04-06T14:59:59.171Z</time></trkpt><trkpt lat="38.2438017" lon="15.686835"><ele>192.0</ele><time>2026-04-06T15:00:00.171Z</time></trkpt><trkpt lat="38.2436683" lon="15.6865267"><ele>192.0</ele><time>2026-04-06T15:00:01.171Z</time></trkpt><trkpt lat="38.24054" lon="15.6812217"><ele>157.5</ele><time>2026-04-06T15:00:19.171Z</time></trkpt><trkpt lat="38.2402517" lon="15.6809917"><ele>123.0</ele><time>2026-04-06T15:00:20.172Z</time></trkpt><trkpt lat="38.23999" lon="15.68077"><ele>119.5</ele><time>2026-04-06T15:00:21.172Z</time></trkpt><trkpt lat="38.239725" lon="15.68055"><ele>116.0</ele><time>2026-04-06T15:00:22.172Z</time></trkpt><trkpt lat="38.2394717" lon="15.6803367"><ele>111.0</ele><time>2026-04-06T15:00:23.172Z</time></trkpt><trkpt lat="38.2392167" lon="15.6801267"><ele>106.0</ele><time>2026-04-06T15:00:24.171Z</time></trkpt><trkpt lat="38.2389667" lon="15.6799183"><ele>106.0</ele><time>2026-04-06T15:00:25.172Z</time></trkpt><trkpt lat="38.2387233" lon="15.6797083"><ele>106.0</ele><time>2026-04-06T15:00:26.172Z</time></trkpt><trkpt lat="38.2384833" lon="15.6794917"><ele>104.5</ele><time>2026-04-06T15:00:27.172Z</time></trkpt><trkpt lat="38.2382517" lon="15.6792633"><ele>103.0</ele><time>2026-04-06T15:00:28.172Z</time></trkpt><trkpt lat="38.2380167" lon="15.67903"><ele>111.0</ele><time>2026-04-06T15:00:29.171Z</time></trkpt><trkpt lat="38.237805" lon="15.6787833"><ele>119.0</ele><time>2026-04-06T15:00:30.172Z</time></trkpt><trkpt lat="38.2376083" lon="15.6785217"><ele>119.0</ele><time>2026-04-06T15:00:31.172Z</time></trkpt><trkpt lat="38.2374167" lon="15.678255"><ele>119.0</ele><time>2026-04-06T15:00:32.172Z</time></trkpt><trkpt lat="38.2372417" lon="15.6779817"><ele>121.0</ele><time>2026-04-06T15:00:33.172Z</time></trkpt><trkpt lat="38.237075" lon="15.677695"><ele>123.0</ele><time>2026-04-06T15:00:34.172Z</time></trkpt><trkpt lat="38.23691" lon="15.6774117"><ele>123.0</ele><time>2026-04-06T15:00:35.171Z</time></trkpt><trkpt lat="38.236765" lon="15.6771233"><ele>123.0</ele><time>2026-04-06T15:00:36.172Z</time></trkpt><trkpt lat="38.2366183" lon="15.6768233"><ele>123.0</ele><time>2026-04-06T15:00:37.172Z</time></trkpt><trkpt lat="38.2364783" lon="15.6765183"><ele>123.0</ele><time>2026-04-06T15:00:38.172Z</time></trkpt><trkpt lat="38.236335" lon="15.6762133"><ele>112.0</ele><time>2026-04-06T15:00:39.172Z</time></trkpt><trkpt lat="38.2361967" lon="15.6758967"><ele>101.0</ele><time>2026-04-06T15:00:40.171Z</time></trkpt><trkpt lat="38.2360583" lon="15.67559"><ele>101.0</ele><time>2026-04-06T15:00:41.172Z</time></trkpt><trkpt lat="38.2359183" lon="15.67528"><ele>101.0</ele><time>2026-04-06T15:00:42.171Z</time></trkpt><trkpt lat="38.23578" lon="15.6749617"><ele>103.5</ele><time>2026-04-06T15:00:43.172Z</time></trkpt><trkpt lat="38.2356383" lon="15.67465"><ele>106.0</ele><time>2026-04-06T15:00:44.172Z</time></trkpt><trkpt lat="38.2355067" lon="15.6743333"><ele>114.0</ele><time>2026-04-06T15:00:45.172Z</time></trkpt><trkpt lat="38.2353783" lon="15.6740283"><ele>122.0</ele><time>2026-04-06T15:00:46.172Z</time></trkpt><trkpt lat="38.2352433" lon="15.6737217"><ele>115.0</ele><time>2026-04-06T15:00:47.171Z</time></trkpt><trkpt lat="38.235105" lon="15.67342"><ele>108.0</ele><time>2026-04-06T15:00:48.172Z</time></trkpt><trkpt lat="38.23497" lon="15.6731183"><ele>108.0</ele><time>2026-04-06T15:00:49.172Z</time></trkpt><trkpt lat="38.2348433" lon="15.672815"><ele>108.0</ele><time>2026-04-06T15:00:50.171Z</time></trkpt><trkpt lat="38.234705" lon="15.6725017"><ele>112.5</ele><time>2026-04-06T15:00:51.172Z</time></trkpt><trkpt lat="38.23457" lon="15.672205"><ele>117.0</ele><time>2026-04-06T15:00:52.171Z</time></trkpt><trkpt lat="38.234445" lon="15.6719133"><ele>117.0</ele><time>2026-04-06T15:00:53.172Z</time></trkpt><trkpt lat="38.23432" lon="15.6716117"><ele>117.0</ele><time>2026-04-06T15:00:54.172Z</time></trkpt><trkpt lat="38.2342" lon="15.67132"><ele>112.5</ele><time>2026-04-06T15:00:55.171Z</time></trkpt><trkpt lat="38.234085" lon="15.67103"><ele>108.0</ele><time>2026-04-06T15:00:56.172Z</time></trkpt><trkpt lat="38.2339767" lon="15.6707333"><ele>110.5</ele><time>2026-04-06T15:00:57.172Z</time></trkpt><trkpt lat="38.2338617" lon="15.6704317"><ele>113.0</ele><time>2026-04-06T15:00:58.171Z</time></trkpt><trkpt lat="38.2337633" lon="15.6701283"><ele>113.0</ele><time>2026-04-06T15:00:59.172Z</time></trkpt><trkpt lat="38.233655" lon="15.6698183"><ele>113.0</ele><time>2026-04-06T15:01:00.171Z</time></trkpt><trkpt lat="38.2335467" lon="15.66952"><ele>109.5</ele><time>2026-04-06T15:01:01.172Z</time></trkpt><trkpt lat="38.2334367" lon="15.6692167"><ele>106.0</ele><time>2026-04-06T15:01:02.172Z</time></trkpt><trkpt lat="38.23333" lon="15.6689017"><ele>107.5</ele><time>2026-04-06T15:01:03.172Z</time></trkpt><trkpt lat="38.2332267" lon="15.668605"><ele>109.0</ele><time>2026-04-06T15:01:04.171Z</time></trkpt><trkpt lat="38.2331267" lon="15.6683067"><ele>109.0</ele><time>2026-04-06T15:01:05.172Z</time></trkpt><trkpt lat="38.23303" lon="15.66801"><ele>109.0</ele><time>2026-04-06T15:01:06.172Z</time></trkpt><trkpt lat="38.2329333" lon="15.6677167"><ele>108.0</ele><time>2026-04-06T15:01:07.172Z</time></trkpt><trkpt lat="38.2328367" lon="15.66743"><ele>107.0</ele><time>2026-04-06T15:01:08.172Z</time></trkpt><trkpt lat="38.232735" lon="15.6671333"><ele>105.0</ele><time>2026-04-06T15:01:09.172Z</time></trkpt><trkpt lat="38.232625" lon="15.6668283"><ele>103.0</ele><time>2026-04-06T15:01:10.172Z</time></trkpt><trkpt lat="38.2325133" lon="15.6665117"><ele>103.0</ele><time>2026-04-06T15:01:11.172Z</time></trkpt><trkpt lat="38.2323983" lon="15.6661883"><ele>103.0</ele><time>2026-04-06T15:01:12.172Z</time></trkpt><trkpt lat="38.2322783" lon="15.66585"><ele>105.5</ele><time>2026-04-06T15:01:13.171Z</time></trkpt><trkpt lat="38.232155" lon="15.66549"><ele>108.0</ele><time>2026-04-06T15:01:14.172Z</time></trkpt><trkpt lat="38.2320333" lon="15.6651267"><ele>103.0</ele><time>2026-04-06T15:01:15.172Z</time></trkpt><trkpt lat="38.231915" lon="15.6647483"><ele>98.0</ele><time>2026-04-06T15:01:16.172Z</time></trkpt><trkpt lat="38.2318017" lon="15.664365"><ele>95.0</ele><time>2026-04-06T15:01:17.171Z</time></trkpt><trkpt lat="38.2316933" lon="15.6639867"><ele>92.0</ele><time>2026-04-06T15:01:18.172Z</time></trkpt><trkpt lat="38.2315933" lon="15.663625"><ele>89.0</ele><time>2026-04-06T15:01:19.172Z</time></trkpt><trkpt lat="38.2315" lon="15.6632767"><ele>86.0</ele><time>2026-04-06T15:01:20.171Z</time></trkpt><trkpt lat="38.2314083" lon="15.66294"><ele>96.5</ele><time>2026-04-06T15:01:21.171Z</time></trkpt><trkpt lat="38.2313217" lon="15.6626183"><ele>107.0</ele><time>2026-04-06T15:01:22.172Z</time></trkpt><trkpt lat="38.2312283" lon="15.662305"><ele>107.0</ele><time>2026-04-06T15:01:23.171Z</time></trkpt><trkpt lat="38.2311417" lon="15.6619833"><ele>107.0</ele><time>2026-04-06T15:01:24.171Z</time></trkpt><trkpt lat="38.231055" lon="15.66167"><ele>102.0</ele><time>2026-04-06T15:01:25.172Z</time></trkpt><trkpt lat="38.23097" lon="15.6613533"><ele>97.0</ele><time>2026-04-06T15:01:26.171Z</time></trkpt><trkpt lat="38.2308833" lon="15.66104"><ele>94.5</ele><time>2026-04-06T15:01:27.172Z</time></trkpt><trkpt lat="38.2307983" lon="15.6607317"><ele>92.0</ele><time>2026-04-06T15:01:28.171Z</time></trkpt><trkpt lat="38.2307067" lon="15.6604083"><ele>98.5</ele><time>2026-04-06T15:01:29.172Z</time></trkpt><trkpt lat="38.230615" lon="15.660085"><ele>105.0</ele><time>2026-04-06T15:01:30.172Z</time></trkpt><trkpt lat="38.2305133" lon="15.6597667"><ele>102.0</ele><time>2026-04-06T15:01:31.172Z</time></trkpt><trkpt lat="38.2304167" lon="15.6594433"><ele>99.0</ele><time>2026-04-06T15:01:32.172Z</time></trkpt><trkpt lat="38.2303167" lon="15.65912"><ele>99.0</ele><time>2026-04-06T15:01:33.171Z</time></trkpt><trkpt lat="38.2302133" lon="15.6588033"><ele>99.0</ele><time>2026-04-06T15:01:34.172Z</time></trkpt><trkpt lat="38.2301117" lon="15.6584883"><ele>97.0</ele><time>2026-04-06T15:01:35.171Z</time></trkpt><trkpt lat="38.2300117" lon="15.6581717"><ele>95.0</ele><time>2026-04-06T15:01:36.172Z</time></trkpt><trkpt lat="38.2299117" lon="15.6578583"><ele>106.5</ele><time>2026-04-06T15:01:37.172Z</time></trkpt><trkpt lat="38.2298083" lon="15.6575433"><ele>118.0</ele><time>2026-04-06T15:01:38.172Z</time></trkpt><trkpt lat="38.2297067" lon="15.6572333"><ele>114.0</ele><time>2026-04-06T15:01:39.172Z</time></trkpt><trkpt lat="38.229615" lon="15.6569183"><ele>110.0</ele><time>2026-04-06T15:01:40.171Z</time></trkpt><trkpt lat="38.22951" lon="15.6566117"><ele>110.0</ele><time>2026-04-06T15:01:41.172Z</time></trkpt><trkpt lat="38.2294117" lon="15.65631"><ele>110.0</ele><time>2026-04-06T15:01:42.172Z</time></trkpt><trkpt lat="38.2293133" lon="15.656"><ele>107.5</ele><time>2026-04-06T15:01:43.172Z</time></trkpt><trkpt lat="38.22922" lon="15.6556983"><ele>105.0</ele><time>2026-04-06T15:01:44.171Z</time></trkpt><trkpt lat="38.22912" lon="15.6554017"><ele>100.5</ele><time>2026-04-06T15:01:45.172Z</time></trkpt><trkpt lat="38.22901" lon="15.655095"><ele>96.0</ele><time>2026-04-06T15:01:46.172Z</time></trkpt><trkpt lat="38.2288933" lon="15.65479"><ele>106.5</ele><time>2026-04-06T15:01:47.172Z</time></trkpt><trkpt lat="38.2287633" lon="15.6544833"><ele>117.0</ele><time>2026-04-06T15:01:48.171Z</time></trkpt><trkpt lat="38.2286283" lon="15.6541883"><ele>117.0</ele><time>2026-04-06T15:01:49.172Z</time></trkpt><trkpt lat="38.228485" lon="15.6538917"><ele>117.0</ele><time>2026-04-06T15:01:50.172Z</time></trkpt><trkpt lat="38.2283367" lon="15.6535933"><ele>114.0</ele><time>2026-04-06T15:01:51.171Z</time></trkpt><trkpt lat="38.2281883" lon="15.6532967"><ele>111.0</ele><time>2026-04-06T15:01:52.172Z</time></trkpt><trkpt lat="38.228035" lon="15.6529917"><ele>125.5</ele><time>2026-04-06T15:01:53.172Z</time></trkpt><trkpt lat="38.227875" lon="15.65268"><ele>140.0</ele><time>2026-04-06T15:01:54.172Z</time></trkpt><trkpt lat="38.227715" lon="15.652365"><ele>140.0</ele><time>2026-04-06T15:01:55.172Z</time></trkpt><trkpt lat="38.227555" lon="15.65205"><ele>140.0</ele><time>2026-04-06T15:01:56.172Z</time></trkpt><trkpt lat="38.2211367" lon="15.6479833"><ele>117.5</ele><time>2026-04-06T15:02:21.171Z</time></trkpt><trkpt lat="38.2208617" lon="15.6479433"><ele>95.0</ele><time>2026-04-06T15:02:22.171Z</time></trkpt><trkpt lat="38.2205883" lon="15.64792"><ele>91.0</ele><time>2026-04-06T15:02:23.172Z</time></trkpt><trkpt lat="38.2203083" lon="15.6479067"><ele>87.0</ele><time>2026-04-06T15:02:24.172Z</time></trkpt><trkpt lat="38.2200367" lon="15.6479067"><ele>97.0</ele><time>2026-04-06T15:02:25.172Z</time></trkpt><trkpt lat="38.219765" lon="15.6479017"><ele>107.0</ele><time>2026-04-06T15:02:26.171Z</time></trkpt><trkpt lat="38.2195" lon="15.6479017"><ele>107.0</ele><time>2026-04-06T15:02:27.172Z</time></trkpt><trkpt lat="38.2192267" lon="15.6479167"><ele>107.0</ele><time>2026-04-06T15:02:28.172Z</time></trkpt><trkpt lat="38.2189567" lon="15.6479333"><ele>110.0</ele><time>2026-04-06T15:02:29.171Z</time></trkpt><trkpt lat="38.2186883" lon="15.64795"><ele>113.0</ele><time>2026-04-06T15:02:30.172Z</time></trkpt><trkpt lat="38.218415" lon="15.6479633"><ele>113.0</ele><time>2026-04-06T15:02:31.171Z</time></trkpt><trkpt lat="38.2181433" lon="15.64798"><ele>113.0</ele><time>2026-04-06T15:02:32.172Z</time></trkpt><trkpt lat="38.2178767" lon="15.647995"><ele>113.0</ele><time>2026-04-06T15:02:33.172Z</time></trkpt><trkpt lat="38.2175983" lon="15.648"><ele>113.0</ele><time>2026-04-06T15:02:34.171Z</time></trkpt><trkpt lat="38.2173367" lon="15.6480033"><ele>111.5</ele><time>2026-04-06T15:02:35.172Z</time></trkpt><trkpt lat="38.2170683" lon="15.6479883"><ele>110.0</ele><time>2026-04-06T15:02:36.172Z</time></trkpt><trkpt lat="38.216805" lon="15.6479667"><ele>110.0</ele><time>2026-04-06T15:02:37.172Z</time></trkpt><trkpt lat="38.2165467" lon="15.6479417"><ele>110.0</ele><time>2026-04-06T15:02:38.172Z</time></trkpt><trkpt lat="38.216285" lon="15.6479033"><ele>111.5</ele><time>2026-04-06T15:02:39.172Z</time></trkpt><trkpt lat="38.2160117" lon="15.6478533"><ele>113.0</ele><time>2026-04-06T15:02:40.172Z</time></trkpt><trkpt lat="38.2157417" lon="15.6477917"><ele>107.5</ele><time>2026-04-06T15:02:41.172Z</time></trkpt><trkpt lat="38.215475" lon="15.647705"><ele>102.0</ele><time>2026-04-06T15:02:42.171Z</time></trkpt><trkpt lat="38.2152083" lon="15.6476083"><ele>102.0</ele><time>2026-04-06T15:02:43.171Z</time></trkpt><trkpt lat="38.2149433" lon="15.6475"><ele>102.0</ele><time>2026-04-06T15:02:44.171Z</time></trkpt><trkpt lat="38.2146917" lon="15.6473767"><ele>101.0</ele><time>2026-04-06T15:02:45.172Z</time></trkpt><trkpt lat="38.2144367" lon="15.647255"><ele>100.0</ele><time>2026-04-06T15:02:46.172Z</time></trkpt><trkpt lat="38.214185" lon="15.6471167"><ele>91.5</ele><time>2026-04-06T15:02:47.171Z</time></trkpt><trkpt lat="38.2139383" lon="15.646965"><ele>83.0</ele><time>2026-04-06T15:02:48.171Z</time></trkpt><trkpt lat="38.213695" lon="15.646795"><ele>81.0</ele><time>2026-04-06T15:02:49.172Z</time></trkpt><trkpt lat="38.2134583" lon="15.6466267"><ele>79.0</ele><time>2026-04-06T15:02:50.171Z</time></trkpt><trkpt lat="38.2132283" lon="15.646455"><ele>80.0</ele><time>2026-04-06T15:02:51.172Z</time></trkpt><trkpt lat="38.213" lon="15.6462767"><ele>81.0</ele><time>2026-04-06T15:02:52.172Z</time></trkpt><trkpt lat="38.212775" lon="15.64608"><ele>81.0</ele><time>2026-04-06T15:02:53.171Z</time></trkpt><trkpt lat="38.2125533" lon="15.645875"><ele>81.0</ele><time>2026-04-06T15:02:54.172Z</time></trkpt><trkpt lat="38.2123383" lon="15.645665"><ele>82.0</ele><time>2026-04-06T15:02:55.172Z</time></trkpt><trkpt lat="38.212125" lon="15.6454517"><ele>83.0</ele><time>2026-04-06T15:02:56.171Z</time></trkpt><trkpt lat="38.2119117" lon="15.6452383"><ele>83.0</ele><time>2026-04-06T15:02:57.172Z</time></trkpt><trkpt lat="38.2116967" lon="15.6450117"><ele>83.0</ele><time>2026-04-06T15:02:58.172Z</time></trkpt><trkpt lat="38.21148" lon="15.64478"><ele>82.5</ele><time>2026-04-06T15:02:59.172Z</time></trkpt><trkpt lat="38.2112583" lon="15.6445483"><ele>82.0</ele><time>2026-04-06T15:03:00.171Z</time></trkpt><trkpt lat="38.2110267" lon="15.6443183"><ele>82.0</ele><time>2026-04-06T15:03:01.172Z</time></trkpt><trkpt lat="38.2108117" lon="15.644075"><ele>82.0</ele><time>2026-04-06T15:03:02.172Z</time></trkpt><trkpt lat="38.2105883" lon="15.64382"><ele>78.0</ele><time>2026-04-06T15:03:03.171Z</time></trkpt><trkpt lat="38.2103717" lon="15.6435733"><ele>74.0</ele><time>2026-04-06T15:03:04.172Z</time></trkpt><trkpt lat="38.2101483" lon="15.6433283"><ele>74.0</ele><time>2026-04-06T15:03:05.171Z</time></trkpt><trkpt lat="38.2099217" lon="15.6430933"><ele>74.0</ele><time>2026-04-06T15:03:06.171Z</time></trkpt><trkpt lat="38.209695" lon="15.6428717"><ele>69.5</ele><time>2026-04-06T15:03:07.172Z</time></trkpt><trkpt lat="38.2094633" lon="15.64266"><ele>65.0</ele><time>2026-04-06T15:03:08.172Z</time></trkpt><trkpt lat="38.2092267" lon="15.6424633"><ele>63.0</ele><time>2026-04-06T15:03:09.172Z</time></trkpt><trkpt lat="38.208985" lon="15.642285"><ele>61.0</ele><time>2026-04-06T15:03:10.171Z</time></trkpt><trkpt lat="38.2087433" lon="15.6421167"><ele>58.5</ele><time>2026-04-06T15:03:11.172Z</time></trkpt><trkpt lat="38.2085" lon="15.6419567"><ele>56.0</ele><time>2026-04-06T15:03:12.171Z</time></trkpt><trkpt lat="38.20825" lon="15.641795"><ele>55.5</ele><time>2026-04-06T15:03:13.172Z</time></trkpt><trkpt lat="38.2080033" lon="15.6416467"><ele>55.0</ele><time>2026-04-06T15:03:14.172Z</time></trkpt><trkpt lat="38.20775" lon="15.64152"><ele>55.0</ele><time>2026-04-06T15:03:15.172Z</time></trkpt><trkpt lat="38.2074917" lon="15.6414033"><ele>55.0</ele><time>2026-04-06T15:03:16.172Z</time></trkpt><trkpt lat="38.207235" lon="15.6412883"><ele>54.0</ele><time>2026-04-06T15:03:17.172Z</time></trkpt><trkpt lat="38.206975" lon="15.6411883"><ele>53.0</ele><time>2026-04-06T15:03:18.172Z</time></trkpt><trkpt lat="38.2067117" lon="15.6410967"><ele>55.0</ele><time>2026-04-06T15:03:19.171Z</time></trkpt><trkpt lat="38.20645" lon="15.6410133"><ele>57.0</ele><time>2026-04-06T15:03:20.172Z</time></trkpt><trkpt lat="38.2061783" lon="15.6409433"><ele>57.0</ele><time>2026-04-06T15:03:21.172Z</time></trkpt><trkpt lat="38.2059" lon="15.6408883"><ele>57.0</ele><time>2026-04-06T15:03:22.171Z</time></trkpt><trkpt lat="38.2056233" lon="15.64085"><ele>55.0</ele><time>2026-04-06T15:03:23.172Z</time></trkpt><trkpt lat="38.2053517" lon="15.6408067"><ele>53.0</ele><time>2026-04-06T15:03:24.172Z</time></trkpt><trkpt lat="38.20508" lon="15.6407733"><ele>53.0</ele><time>2026-04-06T15:03:25.172Z</time></trkpt><trkpt lat="38.2048067" lon="15.64075"><ele>53.0</ele><time>2026-04-06T15:03:26.171Z</time></trkpt><trkpt lat="38.2045417" lon="15.64073"><ele>53.0</ele><time>2026-04-06T15:03:27.172Z</time></trkpt><trkpt lat="38.2042767" lon="15.6407033"><ele>53.0</ele><time>2026-04-06T15:03:28.171Z</time></trkpt><trkpt lat="38.2040067" lon="15.6406867"><ele>54.5</ele><time>2026-04-06T15:03:29.172Z</time></trkpt><trkpt lat="38.20374" lon="15.6406733"><ele>56.0</ele><time>2026-04-06T15:03:30.171Z</time></trkpt><trkpt lat="38.2034783" lon="15.64066"><ele>56.0</ele><time>2026-04-06T15:03:31.171Z</time></trkpt><trkpt lat="38.203205" lon="15.640645"><ele>56.0</ele><time>2026-04-06T15:03:32.172Z</time></trkpt><trkpt lat="38.2029283" lon="15.640635"><ele>58.0</ele><time>2026-04-06T15:03:33.172Z</time></trkpt><trkpt lat="38.2026583" lon="15.64064"><ele>60.0</ele><time>2026-04-06T15:03:34.172Z</time></trkpt><trkpt lat="38.2023867" lon="15.6406533"><ele>58.5</ele><time>2026-04-06T15:03:35.171Z</time></trkpt><trkpt lat="38.2021133" lon="15.640675"><ele>57.0</ele><time>2026-04-06T15:03:36.171Z</time></trkpt><trkpt lat="38.201845" lon="15.6407"><ele>57.0</ele><time>2026-04-06T15:03:37.172Z</time></trkpt><trkpt lat="38.2015717" lon="15.6407333"><ele>57.0</ele><time>2026-04-06T15:03:38.172Z</time></trkpt><trkpt lat="38.2013083" lon="15.64077"><ele>56.0</ele><time>2026-04-06T15:03:39.172Z</time></trkpt><trkpt lat="38.2010367" lon="15.64081"><ele>55.0</ele><time>2026-04-06T15:03:40.171Z</time></trkpt><trkpt lat="38.20077" lon="15.6408667"><ele>56.0</ele><time>2026-04-06T15:03:41.171Z</time></trkpt><trkpt lat="38.2005033" lon="15.6409383"><ele>57.0</ele><time>2026-04-06T15:03:42.172Z</time></trkpt><trkpt lat="38.2002367" lon="15.6410167"><ele>57.0</ele><time>2026-04-06T15:03:43.171Z</time></trkpt><trkpt lat="38.19998" lon="15.6411017"><ele>57.0</ele><time>2026-04-06T15:03:44.172Z</time></trkpt><trkpt lat="38.1997233" lon="15.6411933"><ele>58.0</ele><time>2026-04-06T15:03:45.172Z</time></trkpt><trkpt lat="38.1994667" lon="15.641295"><ele>59.0</ele><time>2026-04-06T15:03:46.172Z</time></trkpt><trkpt lat="38.1992033" lon="15.6414083"><ele>57.0</ele><time>2026-04-06T15:03:47.171Z</time></trkpt><trkpt lat="38.1989417" lon="15.64154"><ele>55.0</ele><time>2026-04-06T15:03:48.172Z</time></trkpt><trkpt lat="38.1986967" lon="15.6416583"><ele>55.0</ele><time>2026-04-06T15:03:49.172Z</time></trkpt><trkpt lat="38.1984467" lon="15.6417917"><ele>55.0</ele><time>2026-04-06T15:03:50.172Z</time></trkpt><trkpt lat="38.1982033" lon="15.6419383"><ele>55.0</ele><time>2026-04-06T15:03:51.172Z</time></trkpt><trkpt lat="38.19796" lon="15.642105"><ele>55.0</ele><time>2026-04-06T15:03:52.172Z</time></trkpt><trkpt lat="38.1977233" lon="15.6422783"><ele>55.0</ele><time>2026-04-06T15:03:53.172Z</time></trkpt><trkpt lat="38.1974833" lon="15.642465"><ele>55.0</ele><time>2026-04-06T15:03:54.172Z</time></trkpt><trkpt lat="38.19725" lon="15.642665"><ele>54.0</ele><time>2026-04-06T15:03:55.171Z</time></trkpt><trkpt lat="38.1970233" lon="15.642875"><ele>53.0</ele><time>2026-04-06T15:03:56.172Z</time></trkpt><trkpt lat="38.1968067" lon="15.6431017"><ele>53.0</ele><time>2026-04-06T15:03:57.172Z</time></trkpt><trkpt lat="38.1965783" lon="15.6433233"><ele>53.0</ele><time>2026-04-06T15:03:58.172Z</time></trkpt><trkpt lat="38.1963417" lon="15.64354"><ele>46.0</ele><time>2026-04-06T15:03:59.171Z</time></trkpt><trkpt lat="38.1961233" lon="15.6437633"><ele>39.0</ele><time>2026-04-06T15:04:00.172Z</time></trkpt><trkpt lat="38.1958967" lon="15.643985"><ele>39.0</ele><time>2026-04-06T15:04:01.172Z</time></trkpt><trkpt lat="38.1956767" lon="15.6442"><ele>39.0</ele><time>2026-04-06T15:04:02.171Z</time></trkpt><trkpt lat="38.19545" lon="15.644425"><ele>36.5</ele><time>2026-04-06T15:04:03.172Z</time></trkpt><trkpt lat="38.1952167" lon="15.6446583"><ele>34.0</ele><time>2026-04-06T15:04:04.172Z</time></trkpt><trkpt lat="38.194985" lon="15.644895"><ele>34.5</ele><time>2026-04-06T15:04:05.172Z</time></trkpt><trkpt lat="38.19476" lon="15.64512"><ele>35.0</ele><time>2026-04-06T15:04:06.171Z</time></trkpt><trkpt lat="38.1945433" lon="15.645345"><ele>35.0</ele><time>2026-04-06T15:04:07.172Z</time></trkpt><trkpt lat="38.19433" lon="15.645575"><ele>35.0</ele><time>2026-04-06T15:04:08.172Z</time></trkpt><trkpt lat="38.194105" lon="15.6458117"><ele>34.5</ele><time>2026-04-06T15:04:09.172Z</time></trkpt><trkpt lat="38.19389" lon="15.64603"><ele>34.0</ele><time>2026-04-06T15:04:10.171Z</time></trkpt><trkpt lat="38.193675" lon="15.6462417"><ele>35.0</ele><time>2026-04-06T15:04:11.172Z</time></trkpt><trkpt lat="38.19347" lon="15.64646"><ele>36.0</ele><time>2026-04-06T15:04:12.172Z</time></trkpt><trkpt lat="38.1932683" lon="15.646675"><ele>34.5</ele><time>2026-04-06T15:04:13.172Z</time></trkpt><trkpt lat="38.193075" lon="15.64689"><ele>33.0</ele><time>2026-04-06T15:04:14.172Z</time></trkpt><trkpt lat="38.1928733" lon="15.6471083"><ele>33.0</ele><time>2026-04-06T15:04:15.172Z</time></trkpt><trkpt lat="38.19268" lon="15.647325"><ele>33.0</ele><time>2026-04-06T15:04:16.171Z</time></trkpt><trkpt lat="38.1924717" lon="15.6475333"><ele>32.5</ele><time>2026-04-06T15:04:17.171Z</time></trkpt><trkpt lat="38.1922683" lon="15.6477383"><ele>32.0</ele><time>2026-04-06T15:04:18.172Z</time></trkpt><trkpt lat="38.1920567" lon="15.6479367"><ele>32.0</ele><time>2026-04-06T15:04:19.172Z</time></trkpt><trkpt lat="38.1918317" lon="15.6481083"><ele>32.0</ele><time>2026-04-06T15:04:20.172Z</time></trkpt><trkpt lat="38.1915967" lon="15.64826"><ele>31.0</ele><time>2026-04-06T15:04:21.172Z</time></trkpt><trkpt lat="38.1913583" lon="15.6484017"><ele>30.0</ele><time>2026-04-06T15:04:22.172Z</time></trkpt><trkpt lat="38.1911083" lon="15.648525"><ele>30.5</ele><time>2026-04-06T15:04:23.172Z</time></trkpt><trkpt lat="38.1908533" lon="15.6486267"><ele>31.0</ele><time>2026-04-06T15:04:24.172Z</time></trkpt><trkpt lat="38.1905933" lon="15.6487067"><ele>29.5</ele><time>2026-04-06T15:04:25.171Z</time></trkpt><trkpt lat="38.190325" lon="15.6487617"><ele>28.0</ele><time>2026-04-06T15:04:26.171Z</time></trkpt><trkpt lat="38.1900583" lon="15.6487917"><ele>28.0</ele><time>2026-04-06T15:04:27.172Z</time></trkpt><trkpt lat="38.1897917" lon="15.6487967"><ele>28.0</ele><time>2026-04-06T15:04:28.172Z</time></trkpt><trkpt lat="38.1895283" lon="15.648775"><ele>28.0</ele><time>2026-04-06T15:04:29.172Z</time></trkpt><trkpt lat="38.1892633" lon="15.6487433"><ele>28.0</ele><time>2026-04-06T15:04:30.172Z</time></trkpt><trkpt lat="38.188995" lon="15.6487"><ele>28.5</ele><time>2026-04-06T15:04:31.172Z</time></trkpt><trkpt lat="38.188735" lon="15.6486317"><ele>29.0</ele><time>2026-04-06T15:04:32.172Z</time></trkpt><trkpt lat="38.1884767" lon="15.6485433"><ele>29.0</ele><time>2026-04-06T15:04:33.172Z</time></trkpt><trkpt lat="38.1882117" lon="15.6484533"><ele>29.0</ele><time>2026-04-06T15:04:34.171Z</time></trkpt><trkpt lat="38.1879483" lon="15.6483617"><ele>29.5</ele><time>2026-04-06T15:04:35.171Z</time></trkpt><trkpt lat="38.1876867" lon="15.648275"><ele>30.0</ele><time>2026-04-06T15:04:36.172Z</time></trkpt><trkpt lat="38.1874233" lon="15.6481983"><ele>30.0</ele><time>2026-04-06T15:04:37.172Z</time></trkpt><trkpt lat="38.1871617" lon="15.64813"><ele>30.0</ele><time>2026-04-06T15:04:38.172Z</time></trkpt><trkpt lat="38.1868983" lon="15.6480717"><ele>30.0</ele><time>2026-04-06T15:04:39.172Z</time></trkpt><trkpt lat="38.18663" lon="15.6480333"><ele>30.0</ele><time>2026-04-06T15:04:40.171Z</time></trkpt><trkpt lat="38.186365" lon="15.6480167"><ele>33.5</ele><time>2026-04-06T15:04:41.171Z</time></trkpt><trkpt lat="38.1860967" lon="15.6480117"><ele>37.0</ele><time>2026-04-06T15:04:42.171Z</time></trkpt><trkpt lat="38.1858267" lon="15.6480233"><ele>38.0</ele><time>2026-04-06T15:04:43.172Z</time></trkpt><trkpt lat="38.1855533" lon="15.6480517"><ele>39.0</ele><time>2026-04-06T15:04:44.172Z</time></trkpt><trkpt lat="38.1852817" lon="15.6481"><ele>39.0</ele><time>2026-04-06T15:04:45.171Z</time></trkpt><trkpt lat="38.1850033" lon="15.6481733"><ele>39.0</ele><time>2026-04-06T15:04:46.171Z</time></trkpt><trkpt lat="38.1847317" lon="15.6482633"><ele>37.5</ele><time>2026-04-06T15:04:47.172Z</time></trkpt><trkpt lat="38.184465" lon="15.6483617"><ele>36.0</ele><time>2026-04-06T15:04:48.171Z</time></trkpt><trkpt lat="38.1842033" lon="15.648475"><ele>36.0</ele><time>2026-04-06T15:04:49.172Z</time></trkpt><trkpt lat="38.1839483" lon="15.6486017"><ele>36.0</ele><time>2026-04-06T15:04:50.172Z</time></trkpt><trkpt lat="38.1837" lon="15.6487417"><ele>38.0</ele><time>2026-04-06T15:04:51.172Z</time></trkpt><trkpt lat="38.1834567" lon="15.6488933"><ele>40.0</ele><time>2026-04-06T15:04:52.172Z</time></trkpt><trkpt lat="38.1832133" lon="15.6490617"><ele>41.0</ele><time>2026-04-06T15:04:53.172Z</time></trkpt><trkpt lat="38.1829817" lon="15.6492383"><ele>42.0</ele><time>2026-04-06T15:04:54.171Z</time></trkpt><trkpt lat="38.1827617" lon="15.6493983"><ele>41.0</ele><time>2026-04-06T15:04:55.172Z</time></trkpt><trkpt lat="38.18255" lon="15.6495483"><ele>40.0</ele><time>2026-04-06T15:04:56.172Z</time></trkpt><trkpt lat="38.1823417" lon="15.64969"><ele>40.0</ele><time>2026-04-06T15:04:57.171Z</time></trkpt><trkpt lat="38.1821233" lon="15.64984"><ele>40.0</ele><time>2026-04-06T15:04:58.172Z</time></trkpt><trkpt lat="38.181915" lon="15.6499883"><ele>40.0</ele><time>2026-04-06T15:04:59.171Z</time></trkpt><trkpt lat="38.1817083" lon="15.650145"><ele>40.0</ele><time>2026-04-06T15:05:00.171Z</time></trkpt><trkpt lat="38.181505" lon="15.6502933"><ele>41.5</ele><time>2026-04-06T15:05:01.172Z</time></trkpt><trkpt lat="38.1813033" lon="15.6504367"><ele>43.0</ele><time>2026-04-06T15:05:02.172Z</time></trkpt><trkpt lat="38.1811067" lon="15.6505717"><ele>43.0</ele><time>2026-04-06T15:05:03.172Z</time></trkpt><trkpt lat="38.1809017" lon="15.6507083"><ele>43.0</ele><time>2026-04-06T15:05:04.172Z</time></trkpt><trkpt lat="38.1806933" lon="15.650835"><ele>44.0</ele><time>2026-04-06T15:05:05.172Z</time></trkpt><trkpt lat="38.1804833" lon="15.650945"><ele>45.0</ele><time>2026-04-06T15:05:06.171Z</time></trkpt><trkpt lat="38.1802717" lon="15.651055"><ele>48.5</ele><time>2026-04-06T15:05:07.171Z</time></trkpt><trkpt lat="38.1800617" lon="15.65116"><ele>52.0</ele><time>2026-04-06T15:05:08.172Z</time></trkpt><trkpt lat="38.179845" lon="15.6512633"><ele>52.0</ele><time>2026-04-06T15:05:09.172Z</time></trkpt><trkpt lat="38.1796083" lon="15.651365"><ele>52.0</ele><time>2026-04-06T15:05:10.172Z</time></trkpt><trkpt lat="38.179355" lon="15.651465"><ele>52.0</ele><time>2026-04-06T15:05:11.172Z</time></trkpt><trkpt lat="38.17909" lon="15.651575"><ele>52.0</ele><time>2026-04-06T15:05:12.172Z</time></trkpt><trkpt lat="38.1788167" lon="15.6516883"><ele>49.0</ele><time>2026-04-06T15:05:13.171Z</time></trkpt><trkpt lat="38.1785433" lon="15.6518083"><ele>46.0</ele><time>2026-04-06T15:05:14.172Z</time></trkpt><trkpt lat="38.17826" lon="15.6519267"><ele>48.0</ele><time>2026-04-06T15:05:15.172Z</time></trkpt><trkpt lat="38.1779767" lon="15.6520483"><ele>50.0</ele><time>2026-04-06T15:05:16.171Z</time></trkpt><trkpt lat="38.1776983" lon="15.65218"><ele>50.0</ele><time>2026-04-06T15:05:17.172Z</time></trkpt><trkpt lat="38.1774183" lon="15.6523067"><ele>50.0</ele><time>2026-04-06T15:05:18.172Z</time></trkpt><trkpt lat="38.1771367" lon="15.652435"><ele>49.5</ele><time>2026-04-06T15:05:19.172Z</time></trkpt><trkpt lat="38.1768517" lon="15.652555"><ele>49.0</ele><time>2026-04-06T15:05:20.172Z</time></trkpt><trkpt lat="38.1765667" lon="15.6526733"><ele>45.0</ele><time>2026-04-06T15:05:21.171Z</time></trkpt><trkpt lat="38.1762783" lon="15.65279"><ele>41.0</ele><time>2026-04-06T15:05:22.171Z</time></trkpt><trkpt lat="38.175995" lon="15.6529"><ele>41.0</ele><time>2026-04-06T15:05:23.171Z</time></trkpt><trkpt lat="38.175715" lon="15.6530167"><ele>41.0</ele><time>2026-04-06T15:05:24.171Z</time></trkpt><trkpt lat="38.1754433" lon="15.6531367"><ele>39.0</ele><time>2026-04-06T15:05:25.171Z</time></trkpt><trkpt lat="38.1751733" lon="15.6532567"><ele>37.0</ele><time>2026-04-06T15:05:26.172Z</time></trkpt><trkpt lat="38.1749033" lon="15.6533717"><ele>36.0</ele><time>2026-04-06T15:05:27.171Z</time></trkpt><trkpt lat="38.1746383" lon="15.6534783"><ele>35.0</ele><time>2026-04-06T15:05:28.172Z</time></trkpt><trkpt lat="38.1743833" lon="15.6535867"><ele>34.5</ele><time>2026-04-06T15:05:29.172Z</time></trkpt><trkpt lat="38.17414" lon="15.653695"><ele>34.0</ele><time>2026-04-06T15:05:30.172Z</time></trkpt><trkpt lat="38.1739117" lon="15.65379"><ele>34.0</ele><time>2026-04-06T15:05:31.172Z</time></trkpt><trkpt lat="38.1736967" lon="15.6538883"><ele>34.0</ele><time>2026-04-06T15:05:32.172Z</time></trkpt><trkpt lat="38.1735" lon="15.6539717"><ele>34.0</ele><time>2026-04-06T15:05:33.171Z</time></trkpt><trkpt lat="38.173315" lon="15.6540583"><ele>33.66666666666667</ele><time>2026-04-06T15:05:34.172Z</time></trkpt><trkpt lat="38.1731317" lon="15.65414"><ele>33.333333333333336</ele><time>2026-04-06T15:05:35.171Z</time></trkpt><trkpt lat="38.1729467" lon="15.6542033"><ele>33.0</ele><time>2026-04-06T15:05:36.172Z</time></trkpt><trkpt lat="38.1727767" lon="15.6542467"><ele>33.0</ele><time>2026-04-06T15:05:37.172Z</time></trkpt><trkpt lat="38.1726183" lon="15.6542483"><ele>33.0</ele><time>2026-04-06T15:05:38.172Z</time></trkpt><trkpt lat="38.172465" lon="15.654195"><ele>33.0</ele><time>2026-04-06T15:05:39.171Z</time></trkpt><trkpt lat="38.1723267" lon="15.6541"><ele>32.0</ele><time>2026-04-06T15:05:40.172Z</time></trkpt><trkpt lat="38.1722" lon="15.6539717"><ele>31.0</ele><time>2026-04-06T15:05:41.172Z</time></trkpt><trkpt lat="38.172105" lon="15.6538183"><ele>30.0</ele><time>2026-04-06T15:05:42.172Z</time></trkpt><trkpt lat="38.1720283" lon="15.6536567"><ele>29.8</ele><time>2026-04-06T15:05:43.171Z</time></trkpt><trkpt lat="38.1719833" lon="15.6535117"><ele>29.6</ele><time>2026-04-06T15:05:44.172Z</time></trkpt><trkpt lat="38.17195" lon="15.6533783"><ele>29.4</ele><time>2026-04-06T15:05:45.172Z</time></trkpt><trkpt lat="38.171915" lon="15.653255"><ele>29.2</ele><time>2026-04-06T15:05:46.172Z</time></trkpt><trkpt lat="38.17188" lon="15.6531333"><ele>29.0</ele><time>2026-04-06T15:05:47.171Z</time></trkpt><trkpt lat="38.1718367" lon="15.6529867"><ele>29.0</ele><time>2026-04-06T15:05:48.171Z</time></trkpt><trkpt lat="38.1717917" lon="15.652825"><ele>29.0</ele><time>2026-04-06T15:05:49.171Z</time></trkpt><trkpt lat="38.1717417" lon="15.6526533"><ele>29.0</ele><time>2026-04-06T15:05:50.171Z</time></trkpt><trkpt lat="38.1716883" lon="15.652475"><ele>29.0</ele><time>2026-04-06T15:05:51.171Z</time></trkpt><trkpt lat="38.17162" lon="15.6523"><ele>28.75</ele><time>2026-04-06T15:05:52.171Z</time></trkpt><trkpt lat="38.1715333" lon="15.6521283"><ele>28.5</ele><time>2026-04-06T15:05:53.172Z</time></trkpt><trkpt lat="38.171445" lon="15.6519783"><ele>28.25</ele><time>2026-04-06T15:05:54.172Z</time></trkpt><trkpt lat="38.1713617" lon="15.65185"><ele>28.0</ele><time>2026-04-06T15:05:55.172Z</time></trkpt><trkpt lat="38.1712867" lon="15.6517317"><ele>27.25</ele><time>2026-04-06T15:05:56.172Z</time></trkpt><trkpt lat="38.1712183" lon="15.6516317"><ele>26.5</ele><time>2026-04-06T15:05:57.172Z</time></trkpt><trkpt lat="38.1711517" lon="15.651535"><ele>25.75</ele><time>2026-04-06T15:05:58.172Z</time></trkpt><trkpt lat="38.1710683" lon="15.651435"><ele>25.0</ele><time>2026-04-06T15:05:59.172Z</time></trkpt><trkpt lat="38.1709683" lon="15.6513183"><ele>25.0</ele><time>2026-04-06T15:06:00.171Z</time></trkpt><trkpt lat="38.1708583" lon="15.6512433"><ele>25.0</ele><time>2026-04-06T15:06:01.172Z</time></trkpt><trkpt lat="38.170755" lon="15.651225"><ele>25.0</ele><time>2026-04-06T15:06:02.172Z</time></trkpt><trkpt lat="38.1706617" lon="15.651245"><ele>25.0</ele><time>2026-04-06T15:06:03.172Z</time></trkpt><trkpt lat="38.17057" lon="15.651305"><ele>25.0</ele><time>2026-04-06T15:06:04.172Z</time></trkpt><trkpt lat="38.170495" lon="15.6514067"><ele>25.0</ele><time>2026-04-06T15:06:05.172Z</time></trkpt><trkpt lat="38.1704617" lon="15.6515217"><ele>25.0</ele><time>2026-04-06T15:06:06.171Z</time></trkpt><trkpt lat="38.1704583" lon="15.65163"><ele>25.0</ele><time>2026-04-06T15:06:07.172Z</time></trkpt><trkpt lat="38.1704783" lon="15.6517433"><ele>25.0</ele><time>2026-04-06T15:06:08.172Z</time></trkpt><trkpt lat="38.1705267" lon="15.6518617"><ele>25.0</ele><time>2026-04-06T15:06:09.172Z</time></trkpt><trkpt lat="38.1705833" lon="15.6519983"><ele>25.0</ele><time>2026-04-06T15:06:10.171Z</time></trkpt><trkpt lat="38.1706367" lon="15.6521417"><ele>25.0</ele><time>2026-04-06T15:06:11.172Z</time></trkpt><trkpt lat="38.1706733" lon="15.6523067"><ele>25.0</ele><time>2026-04-06T15:06:12.172Z</time></trkpt><trkpt lat="38.1706817" lon="15.65248"><ele>25.0</ele><time>2026-04-06T15:06:13.171Z</time></trkpt><trkpt lat="38.1706833" lon="15.6526667"><ele>25.666666666666668</ele><time>2026-04-06T15:06:14.172Z</time></trkpt><trkpt lat="38.1706883" lon="15.6528467"><ele>26.333333333333336</ele><time>2026-04-06T15:06:15.171Z</time></trkpt><trkpt lat="38.1707033" lon="15.6530383"><ele>27.0</ele><time>2026-04-06T15:06:16.171Z</time></trkpt><trkpt lat="38.170735" lon="15.6532333"><ele>27.333333333333336</ele><time>2026-04-06T15:06:17.171Z</time></trkpt><trkpt lat="38.1707867" lon="15.65343"><ele>27.666666666666668</ele><time>2026-04-06T15:06:18.171Z</time></trkpt><trkpt lat="38.17083" lon="15.65363"><ele>28.0</ele><time>2026-04-06T15:06:19.171Z</time></trkpt><trkpt lat="38.1708733" lon="15.6538317"><ele>28.25</ele><time>2026-04-06T15:06:20.171Z</time></trkpt><trkpt lat="38.1709133" lon="15.6540333"><ele>28.5</ele><time>2026-04-06T15:06:21.171Z</time></trkpt><trkpt lat="38.17095" lon="15.6542183"><ele>28.75</ele><time>2026-04-06T15:06:22.171Z</time></trkpt><trkpt lat="38.1709817" lon="15.65438"><ele>29.0</ele><time>2026-04-06T15:06:23.172Z</time></trkpt><trkpt lat="38.1710133" lon="15.6545233"><ele>29.6</ele><time>2026-04-06T15:06:24.172Z</time></trkpt><trkpt lat="38.171015" lon="15.65466"><ele>30.2</ele><time>2026-04-06T15:06:25.172Z</time></trkpt><trkpt lat="38.17099" lon="15.6547683"><ele>30.800000000000004</ele><time>2026-04-06T15:06:26.172Z</time></trkpt><trkpt lat="38.1709317" lon="15.654855"><ele>31.400000000000002</ele><time>2026-04-06T15:06:27.171Z</time></trkpt><trkpt lat="38.17085" lon="15.6549067"><ele>32.0</ele><time>2026-04-06T15:06:28.172Z</time></trkpt><trkpt lat="38.17076" lon="15.654935"><ele>32.0</ele><time>2026-04-06T15:06:29.172Z</time></trkpt><trkpt lat="38.1706583" lon="15.6549483"><ele>32.0</ele><time>2026-04-06T15:06:30.171Z</time></trkpt><trkpt lat="38.1705633" lon="15.6549483"><ele>32.0</ele><time>2026-04-06T15:06:31.172Z</time></trkpt><trkpt lat="38.17046" lon="15.6549383"><ele>32.0</ele><time>2026-04-06T15:06:32.172Z</time></trkpt><trkpt lat="38.170355" lon="15.654935"><ele>32.0</ele><time>2026-04-06T15:06:33.172Z</time></trkpt><trkpt lat="38.1702467" lon="15.654955"><ele>32.0</ele><time>2026-04-06T15:06:34.171Z</time></trkpt><trkpt lat="38.170145" lon="15.6549867"><ele>32.0</ele><time>2026-04-06T15:06:35.172Z</time></trkpt><trkpt lat="38.1700417" lon="15.6550167"><ele>32.0</ele><time>2026-04-06T15:06:36.171Z</time></trkpt><trkpt lat="38.169935" lon="15.65504"><ele>32.0</ele><time>2026-04-06T15:06:37.171Z</time></trkpt><trkpt lat="38.1698283" lon="15.6550683"><ele>32.0</ele><time>2026-04-06T15:06:38.172Z</time></trkpt><trkpt lat="38.1697233" lon="15.6551083"><ele>31.833333333333332</ele><time>2026-04-06T15:06:39.171Z</time></trkpt><trkpt lat="38.1696283" lon="15.6551617"><ele>31.666666666666664</ele><time>2026-04-06T15:06:40.171Z</time></trkpt><trkpt lat="38.169565" lon="15.6551967"><ele>31.5</ele><time>2026-04-06T15:06:41.172Z</time></trkpt><trkpt lat="38.1695067" lon="15.655235"><ele>31.333333333333336</ele><time>2026-04-06T15:06:43.172Z</time></trkpt><trkpt lat="38.1694883" lon="15.6553583"><ele>31.166666666666668</ele><time>2026-04-06T15:06:51.172Z</time></trkpt><trkpt lat="38.1695117" lon="15.6554967"><ele>31.0</ele><time>2026-04-06T15:06:53.172Z</time></trkpt><trkpt lat="38.1695517" lon="15.6555917"><ele>31.0</ele><time>2026-04-06T15:06:54.171Z</time></trkpt><trkpt lat="38.1695917" lon="15.6556867"><ele>31.0</ele><time>2026-04-06T15:06:55.171Z</time></trkpt><trkpt lat="38.1696283" lon="15.65578"><ele>31.0</ele><time>2026-04-06T15:06:56.171Z</time></trkpt><trkpt lat="38.16966" lon="15.65589"><ele>31.0</ele><time>2026-04-06T15:06:57.172Z</time></trkpt><trkpt lat="38.1697217" lon="15.6560133"><ele>31.0</ele><time>2026-04-06T15:06:58.172Z</time></trkpt><trkpt lat="38.1697617" lon="15.6561533"><ele>31.75</ele><time>2026-04-06T15:06:59.171Z</time></trkpt><trkpt lat="38.169795" lon="15.6562917"><ele>32.5</ele><time>2026-04-06T15:07:00.172Z</time></trkpt><trkpt lat="38.1698433" lon="15.65642"><ele>33.25</ele><time>2026-04-06T15:07:01.172Z</time></trkpt><trkpt lat="38.1699083" lon="15.656565"><ele>34.0</ele><time>2026-04-06T15:07:02.171Z</time></trkpt><trkpt lat="38.1699717" lon="15.656715"><ele>34.75</ele><time>2026-04-06T15:07:03.171Z</time></trkpt><trkpt lat="38.1700333" lon="15.6568517"><ele>35.5</ele><time>2026-04-06T15:07:04.171Z</time></trkpt><trkpt lat="38.1700933" lon="15.6569817"><ele>36.25</ele><time>2026-04-06T15:07:05.171Z</time></trkpt><trkpt lat="38.1701317" lon="15.657115"><ele>37.0</ele><time>2026-04-06T15:07:06.171Z</time></trkpt><trkpt lat="38.1701483" lon="15.6572483"><ele>37.5</ele><time>2026-04-06T15:07:07.172Z</time></trkpt><trkpt lat="38.17015" lon="15.6573867"><ele>38.0</ele><time>2026-04-06T15:07:08.172Z</time></trkpt><trkpt lat="38.17014" lon="15.6575367"><ele>38.5</ele><time>2026-04-06T15:07:09.172Z</time></trkpt><trkpt lat="38.1701217" lon="15.6576783"><ele>39.0</ele><time>2026-04-06T15:07:10.172Z</time></trkpt><trkpt lat="38.1701083" lon="15.65783"><ele>39.25</ele><time>2026-04-06T15:07:11.172Z</time></trkpt><trkpt lat="38.1701067" lon="15.6579767"><ele>39.5</ele><time>2026-04-06T15:07:12.172Z</time></trkpt><trkpt lat="38.170115" lon="15.6581267"><ele>39.75</ele><time>2026-04-06T15:07:13.171Z</time></trkpt><trkpt lat="38.17016" lon="15.65827"><ele>40.0</ele><time>2026-04-06T15:07:14.172Z</time></trkpt><trkpt lat="38.1702283" lon="15.6583933"><ele>40.0</ele><time>2026-04-06T15:07:15.172Z</time></trkpt><trkpt lat="38.1703" lon="15.6585217"><ele>40.0</ele><time>2026-04-06T15:07:16.171Z</time></trkpt><trkpt lat="38.1703683" lon="15.6586467"><ele>40.0</ele><time>2026-04-06T15:07:17.172Z</time></trkpt><trkpt lat="38.1704267" lon="15.65878"><ele>40.0</ele><time>2026-04-06T15:07:18.172Z</time></trkpt><trkpt lat="38.170495" lon="15.6589"><ele>41.0</ele><time>2026-04-06T15:07:19.172Z</time></trkpt><trkpt lat="38.1705567" lon="15.659025"><ele>42.0</ele><time>2026-04-06T15:07:20.172Z</time></trkpt><trkpt lat="38.1706183" lon="15.6591583"><ele>43.0</ele><time>2026-04-06T15:07:21.172Z</time></trkpt><trkpt lat="38.1706883" lon="15.6592967"><ele>44.0</ele><time>2026-04-06T15:07:22.172Z</time></trkpt><trkpt lat="38.1707417" lon="15.6594467"><ele>46.0</ele><time>2026-04-06T15:07:23.172Z</time></trkpt><trkpt lat="38.1707917" lon="15.6595867"><ele>48.0</ele><time>2026-04-06T15:07:24.172Z</time></trkpt><trkpt lat="38.170835" lon="15.6597317"><ele>50.0</ele><time>2026-04-06T15:07:25.172Z</time></trkpt><trkpt lat="38.1708817" lon="15.6598817"><ele>52.0</ele><time>2026-04-06T15:07:26.172Z</time></trkpt><trkpt lat="38.1709217" lon="15.66003"><ele>52.0</ele><time>2026-04-06T15:07:27.172Z</time></trkpt><trkpt lat="38.1709733" lon="15.6601817"><ele>52.0</ele><time>2026-04-06T15:07:28.171Z</time></trkpt><trkpt lat="38.1710233" lon="15.66033"><ele>52.0</ele><time>2026-04-06T15:07:29.172Z</time></trkpt><trkpt lat="38.17106" lon="15.66048"><ele>52.0</ele><time>2026-04-06T15:07:30.172Z</time></trkpt><trkpt lat="38.1711033" lon="15.66063"><ele>53.0</ele><time>2026-04-06T15:07:31.171Z</time></trkpt><trkpt lat="38.1711433" lon="15.6607833"><ele>54.0</ele><time>2026-04-06T15:07:32.172Z</time></trkpt><trkpt lat="38.171185" lon="15.6609367"><ele>55.0</ele><time>2026-04-06T15:07:33.171Z</time></trkpt><trkpt lat="38.1712283" lon="15.661085"><ele>56.0</ele><time>2026-04-06T15:07:34.172Z</time></trkpt><trkpt lat="38.171275" lon="15.6612333"><ele>56.0</ele><time>2026-04-06T15:07:35.172Z</time></trkpt><trkpt lat="38.1713133" lon="15.6613833"><ele>56.0</ele><time>2026-04-06T15:07:36.171Z</time></trkpt><trkpt lat="38.1713367" lon="15.6615183"><ele>56.0</ele><time>2026-04-06T15:07:37.171Z</time></trkpt><trkpt lat="38.17137" lon="15.6616683"><ele>56.0</ele><time>2026-04-06T15:07:38.171Z</time></trkpt><trkpt lat="38.1713783" lon="15.6618167"><ele>56.75</ele><time>2026-04-06T15:07:39.172Z</time></trkpt><trkpt lat="38.1713867" lon="15.6619683"><ele>57.5</ele><time>2026-04-06T15:07:40.172Z</time></trkpt><trkpt lat="38.1713883" lon="15.6621183"><ele>58.25</ele><time>2026-04-06T15:07:41.172Z</time></trkpt><trkpt lat="38.1714017" lon="15.66227"><ele>59.0</ele><time>2026-04-06T15:07:42.172Z</time></trkpt><trkpt lat="38.171415" lon="15.6624183"><ele>59.0</ele><time>2026-04-06T15:07:43.172Z</time></trkpt><trkpt lat="38.1714283" lon="15.6625517"><ele>59.00000000000001</ele><time>2026-04-06T15:07:44.171Z</time></trkpt><trkpt lat="38.1714317" lon="15.66268"><ele>59.00000000000001</ele><time>2026-04-06T15:07:45.172Z</time></trkpt><trkpt lat="38.1714467" lon="15.6628017"><ele>59.0</ele><time>2026-04-06T15:07:46.172Z</time></trkpt><trkpt lat="38.17146" lon="15.6629117"><ele>59.0</ele><time>2026-04-06T15:07:47.172Z</time></trkpt><trkpt lat="38.1714767" lon="15.66301"><ele>59.50000000000001</ele><time>2026-04-06T15:07:48.171Z</time></trkpt><trkpt lat="38.1714933" lon="15.6630933"><ele>60.0</ele><time>2026-04-06T15:07:49.171Z</time></trkpt><trkpt lat="38.17152" lon="15.6631883"><ele>60.5</ele><time>2026-04-06T15:07:50.172Z</time></trkpt><trkpt lat="38.17156" lon="15.663285"><ele>61.0</ele><time>2026-04-06T15:07:51.171Z</time></trkpt><trkpt lat="38.171605" lon="15.66338"><ele>61.50000000000001</ele><time>2026-04-06T15:07:52.172Z</time></trkpt><trkpt lat="38.1716617" lon="15.6634733"><ele>62.0</ele><time>2026-04-06T15:07:53.171Z</time></trkpt><trkpt lat="38.1717233" lon="15.66357"><ele>63.2</ele><time>2026-04-06T15:07:54.172Z</time></trkpt><trkpt lat="38.17179" lon="15.6636733"><ele>64.4</ele><time>2026-04-06T15:07:55.172Z</time></trkpt><trkpt lat="38.1718617" lon="15.663775"><ele>65.6</ele><time>2026-04-06T15:07:56.172Z</time></trkpt><trkpt lat="38.1719367" lon="15.6638917"><ele>66.8</ele><time>2026-04-06T15:07:57.172Z</time></trkpt><trkpt lat="38.1720133" lon="15.6639983"><ele>68.0</ele><time>2026-04-06T15:07:58.172Z</time></trkpt><trkpt lat="38.1721033" lon="15.6640933"><ele>68.0</ele><time>2026-04-06T15:07:59.172Z</time></trkpt><trkpt lat="38.1721883" lon="15.6642"><ele>68.0</ele><time>2026-04-06T15:08:00.172Z</time></trkpt><trkpt lat="38.1722867" lon="15.6642967"><ele>68.0</ele><time>2026-04-06T15:08:01.172Z</time></trkpt><trkpt lat="38.17239" lon="15.6643883"><ele>68.0</ele><time>2026-04-06T15:08:02.171Z</time></trkpt><trkpt lat="38.1724983" lon="15.6644917"><ele>68.6</ele><time>2026-04-06T15:08:03.171Z</time></trkpt><trkpt lat="38.1725833" lon="15.6645733"><ele>69.19999999999999</ele><time>2026-04-06T15:08:04.172Z</time></trkpt><trkpt lat="38.1726617" lon="15.6646617"><ele>69.8</ele><time>2026-04-06T15:08:05.171Z</time></trkpt><trkpt lat="38.1727433" lon="15.6647483"><ele>70.39999999999999</ele><time>2026-04-06T15:08:06.172Z</time></trkpt><trkpt lat="38.17282" lon="15.6648117"><ele>71.0</ele><time>2026-04-06T15:08:07.172Z</time></trkpt><trkpt lat="38.1729033" lon="15.664885"><ele>71.0</ele><time>2026-04-06T15:08:08.172Z</time></trkpt><trkpt lat="38.172985" lon="15.6649433"><ele>71.0</ele><time>2026-04-06T15:08:09.172Z</time></trkpt><trkpt lat="38.17307" lon="15.6650033"><ele>71.0</ele><time>2026-04-06T15:08:10.172Z</time></trkpt><trkpt lat="38.17316" lon="15.66507"><ele>71.0</ele><time>2026-04-06T15:08:11.172Z</time></trkpt><trkpt lat="38.173235" lon="15.66512"><ele>71.0</ele><time>2026-04-06T15:08:12.172Z</time></trkpt><trkpt lat="38.173295" lon="15.665165"><ele>71.0</ele><time>2026-04-06T15:08:13.172Z</time></trkpt><trkpt lat="38.17335" lon="15.6652183"><ele>71.6</ele><time>2026-04-06T15:08:14.172Z</time></trkpt><trkpt lat="38.1734617" lon="15.6652983"><ele>72.19999999999999</ele><time>2026-04-06T15:08:16.172Z</time></trkpt><trkpt lat="38.17353" lon="15.6653567"><ele>72.80000000000001</ele><time>2026-04-06T15:08:17.171Z</time></trkpt><trkpt lat="38.1735983" lon="15.665445"><ele>73.4</ele><time>2026-04-06T15:08:18.172Z</time></trkpt><trkpt lat="38.1736767" lon="15.665525"><ele>74.0</ele><time>2026-04-06T15:08:19.172Z</time></trkpt><trkpt lat="38.173755" lon="15.6656033"><ele>74.0</ele><time>2026-04-06T15:08:20.171Z</time></trkpt><trkpt lat="38.1738467" lon="15.665685"><ele>74.0</ele><time>2026-04-06T15:08:21.172Z</time></trkpt><trkpt lat="38.1739333" lon="15.6657683"><ele>74.0</ele><time>2026-04-06T15:08:22.172Z</time></trkpt><trkpt lat="38.17403" lon="15.66586"><ele>74.0</ele><time>2026-04-06T15:08:23.171Z</time></trkpt><trkpt lat="38.1741233" lon="15.66594"><ele>74.5</ele><time>2026-04-06T15:08:24.172Z</time></trkpt><trkpt lat="38.174225" lon="15.6660133"><ele>75.0</ele><time>2026-04-06T15:08:25.171Z</time></trkpt><trkpt lat="38.1743117" lon="15.6661017"><ele>75.5</ele><time>2026-04-06T15:08:26.172Z</time></trkpt><trkpt lat="38.1744" lon="15.6661867"><ele>76.0</ele><time>2026-04-06T15:08:27.172Z</time></trkpt><trkpt lat="38.1745033" lon="15.6662733"><ele>76.6</ele><time>2026-04-06T15:08:28.171Z</time></trkpt><trkpt lat="38.1746" lon="15.6663633"><ele>77.19999999999999</ele><time>2026-04-06T15:08:29.172Z</time></trkpt><trkpt lat="38.1746933" lon="15.66644"><ele>77.80000000000001</ele><time>2026-04-06T15:08:30.172Z</time></trkpt><trkpt lat="38.1747767" lon="15.6665317"><ele>78.4</ele><time>2026-04-06T15:08:31.171Z</time></trkpt><trkpt lat="38.1748667" lon="15.6666067"><ele>79.0</ele><time>2026-04-06T15:08:32.171Z</time></trkpt><trkpt lat="38.1749433" lon="15.66667"><ele>79.16666666666666</ele><time>2026-04-06T15:08:33.171Z</time></trkpt><trkpt lat="38.17502" lon="15.6667217"><ele>79.33333333333333</ele><time>2026-04-06T15:08:34.172Z</time></trkpt><trkpt lat="38.1750717" lon="15.6667717"><ele>79.5</ele><time>2026-04-06T15:08:35.171Z</time></trkpt><trkpt lat="38.17511" lon="15.6668733"><ele>79.66666666666667</ele><time>2026-04-06T15:08:37.171Z</time></trkpt><trkpt lat="38.1750967" lon="15.6669517"><ele>79.83333333333334</ele><time>2026-04-06T15:08:38.172Z</time></trkpt><trkpt lat="38.175055" lon="15.6670367"><ele>80.0</ele><time>2026-04-06T15:08:39.171Z</time></trkpt><trkpt lat="38.17499" lon="15.6671417"><ele>80.2</ele><time>2026-04-06T15:08:40.171Z</time></trkpt><trkpt lat="38.1749333" lon="15.6672667"><ele>80.4</ele><time>2026-04-06T15:08:41.171Z</time></trkpt><trkpt lat="38.1748633" lon="15.6673717"><ele>80.6</ele><time>2026-04-06T15:08:42.172Z</time></trkpt><trkpt lat="38.1747883" lon="15.6674617"><ele>80.8</ele><time>2026-04-06T15:08:43.172Z</time></trkpt><trkpt lat="38.1747283" lon="15.6675533"><ele>81.0</ele><time>2026-04-06T15:08:44.172Z</time></trkpt><trkpt lat="38.17469" lon="15.66765"><ele>81.19999999999999</ele><time>2026-04-06T15:08:45.172Z</time></trkpt><trkpt lat="38.1746733" lon="15.667765"><ele>81.39999999999999</ele><time>2026-04-06T15:08:46.172Z</time></trkpt><trkpt lat="38.17468" lon="15.6678867"><ele>81.6</ele><time>2026-04-06T15:08:47.172Z</time></trkpt><trkpt lat="38.1746917" lon="15.6680133"><ele>81.8</ele><time>2026-04-06T15:08:48.172Z</time></trkpt><trkpt lat="38.17471" lon="15.6681417"><ele>82.0</ele><time>2026-04-06T15:08:49.171Z</time></trkpt><trkpt lat="38.174725" lon="15.6682683"><ele>83.75</ele><time>2026-04-06T15:08:50.172Z</time></trkpt><trkpt lat="38.1747283" lon="15.6684"><ele>85.5</ele><time>2026-04-06T15:08:51.172Z</time></trkpt><trkpt lat="38.1747217" lon="15.6685467"><ele>87.25</ele><time>2026-04-06T15:08:52.171Z</time></trkpt><trkpt lat="38.1747133" lon="15.66869"><ele>89.0</ele><time>2026-04-06T15:08:53.171Z</time></trkpt><trkpt lat="38.174695" lon="15.6688433"><ele>90.25</ele><time>2026-04-06T15:08:54.171Z</time></trkpt><trkpt lat="38.1746833" lon="15.668995"><ele>91.5</ele><time>2026-04-06T15:08:55.172Z</time></trkpt><trkpt lat="38.1746533" lon="15.6691417"><ele>92.75</ele><time>2026-04-06T15:08:56.172Z</time></trkpt><trkpt lat="38.17462" lon="15.66929"><ele>94.0</ele><time>2026-04-06T15:08:57.172Z</time></trkpt><trkpt lat="38.1745867" lon="15.669435"><ele>95.0</ele><time>2026-04-06T15:08:58.172Z</time></trkpt><trkpt lat="38.1745467" lon="15.6695783"><ele>96.0</ele><time>2026-04-06T15:08:59.171Z</time></trkpt><trkpt lat="38.17452" lon="15.6697283"><ele>97.0</ele><time>2026-04-06T15:09:00.172Z</time></trkpt><trkpt lat="38.1744933" lon="15.6698783"><ele>98.0</ele><time>2026-04-06T15:09:01.172Z</time></trkpt><trkpt lat="38.174475" lon="15.67003"><ele>98.0</ele><time>2026-04-06T15:09:02.172Z</time></trkpt><trkpt lat="38.1744583" lon="15.6701733"><ele>98.0</ele><time>2026-04-06T15:09:03.172Z</time></trkpt><trkpt lat="38.1744417" lon="15.67028"><ele>98.0</ele><time>2026-04-06T15:09:04.172Z</time></trkpt><trkpt lat="38.17441" lon="15.6703583"><ele>98.0</ele><time>2026-04-06T15:09:05.171Z</time></trkpt><trkpt lat="38.1743117" lon="15.6704183"><ele>98.0</ele><time>2026-04-06T15:09:07.172Z</time></trkpt><trkpt lat="38.17423" lon="15.6703967"><ele>98.49999999999999</ele><time>2026-04-06T15:09:08.172Z</time></trkpt><trkpt lat="38.1741483" lon="15.6703567"><ele>99.0</ele><time>2026-04-06T15:09:09.172Z</time></trkpt><trkpt lat="38.17408" lon="15.6703233"><ele>99.5</ele><time>2026-04-06T15:09:10.171Z</time></trkpt><trkpt lat="38.17398" lon="15.67029"><ele>100.0</ele><time>2026-04-06T15:09:12.171Z</time></trkpt><trkpt lat="38.1739117" lon="15.6703317"><ele>100.49999999999999</ele><time>2026-04-06T15:09:14.171Z</time></trkpt><trkpt lat="38.173865" lon="15.6704467"><ele>101.0</ele><time>2026-04-06T15:09:16.172Z</time></trkpt><trkpt lat="38.173855" lon="15.6705367"><ele>100.99999999999999</ele><time>2026-04-06T15:09:17.172Z</time></trkpt><trkpt lat="38.17384" lon="15.6706717"><ele>101.0</ele><time>2026-04-06T15:09:19.172Z</time></trkpt><trkpt lat="38.1738733" lon="15.670755"><ele>101.0</ele><time>2026-04-06T15:09:46.172Z</time></trkpt><trkpt lat="38.1739483" lon="15.6707567"><ele>101.0</ele><time>2026-04-06T15:09:49.171Z</time></trkpt><trkpt lat="38.1740117" lon="15.6707683"><ele>100.99999999999999</ele><time>2026-04-06T15:09:51.171Z</time></trkpt><trkpt lat="38.1740933" lon="15.670765"><ele>101.0</ele><time>2026-04-06T15:09:55.171Z</time></trkpt><trkpt lat="38.174155" lon="15.6707967"><ele>101.33333333333333</ele><time>2026-04-06T15:09:58.172Z</time></trkpt><trkpt lat="38.1742667" lon="15.670905"><ele>101.66666666666666</ele><time>2026-04-06T15:15:01.172Z</time></trkpt><trkpt lat="38.174175" lon="15.6709083"><ele>102.0</ele><time>2026-04-06T15:15:15.172Z</time></trkpt><trkpt lat="38.17411" lon="15.6709283"><ele>102.33333333333334</ele><time>2026-04-06T15:15:18.171Z</time></trkpt><trkpt lat="38.17413" lon="15.67085"><ele>102.66666666666667</ele><time>2026-04-06T15:15:26.172Z</time></trkpt><trkpt lat="38.174205" lon="15.6708083"><ele>103.0</ele><time>2026-04-06T15:15:30.171Z</time></trkpt><trkpt lat="38.17427" lon="15.6707667"><ele>103.0</ele><time>2026-04-06T15:15:32.172Z</time></trkpt><trkpt lat="38.174275" lon="15.6708667"><ele>103.0</ele><time>2026-04-06T15:15:34.171Z</time></trkpt><trkpt lat="38.1742183" lon="15.670805"><ele>103.0</ele><time>2026-04-06T15:16:32.172Z</time></trkpt><trkpt lat="38.1743017" lon="15.67069"><ele>103.0</ele><time>2026-04-06T15:16:41.171Z</time></trkpt><trkpt lat="38.1742033" lon="15.6708817"><ele>103.0</ele><time>2026-04-06T15:16:49.171Z</time></trkpt><trkpt lat="38.1742483" lon="15.6709633"><ele>103.0</ele><time>2026-04-06T15:17:23.17Z</time></trkpt><trkpt lat="38.1742167" lon="15.6710583"><ele>103.0</ele><time>2026-04-06T15:17:46.171Z</time></trkpt><trkpt lat="38.1741483" lon="15.6710767"><ele>103.0</ele><time>2026-04-06T15:18:22.171Z</time></trkpt><trkpt lat="38.1740983" lon="15.6711567"><ele>108.0</ele><time>2026-04-06T15:18:43.171Z</time></trkpt></trkseg></trk></gpx>